﻿_id	data_ora	id_station	denominazione	temperatura	cod_validazione_temperatura	umidita	cod_validazione_umidita_rel	precipitazione	cod_validazione_precipitazione	velocita_vento	cod_validazione_velocita_vento	direzione_vento	cod_validazione_direzione_vento	rad_solare_globale	cod_validazione_rad_solare_globale	pressione_atmosferica	cod_validazione_pressione_atmosferica	Latitude	Longitude
1	2024-01-01 00:00:00	25	massafra	10.77	1	91.62	1	0.0	1	null	6	null	6	0.0	1	1001.52	1	40.593575	17.116091
2	2024-01-01 01:00:00	25	massafra	10.79	1	92.64	1	0.0	1	null	6	null	6	0.0	1	1000.95	1	40.593575	17.116091
3	2024-01-01 02:00:00	25	massafra	10.93	1	93.3	1	0.0	1	null	6	null	6	0.0	1	1000.58	1	40.593575	17.116091
4	2024-01-01 03:00:00	25	massafra	11.04	1	93.79	1	0.0	1	null	6	null	6	0.0	1	1000.41	1	40.593575	17.116091
5	2024-01-01 04:00:00	25	massafra	11.48	1	94.24	1	0.0	1	null	6	null	6	0.0	1	1000.13	1	40.593575	17.116091
6	2024-01-01 05:00:00	25	massafra	11.23	1	94.23	1	0.0	1	null	6	null	6	0.0	1	999.79	1	40.593575	17.116091
7	2024-01-01 06:00:00	25	massafra	11.05	1	94.35	1	0.0	1	null	6	null	6	0.0	1	999.45	1	40.593575	17.116091
8	2024-01-01 07:00:00	25	massafra	10.53	1	94.25	1	0.0	1	null	6	null	6	0.0	1	999.53	1	40.593575	17.116091
9	2024-01-01 08:00:00	25	massafra	10.24	1	94.5	1	0.0	1	null	6	null	6	11.15	1	999.39	1	40.593575	17.116091
10	2024-01-01 09:00:00	25	massafra	11.51	1	95.87	1	0.0	1	null	6	null	6	95.54	1	999.58	1	40.593575	17.116091
11	2024-01-01 10:00:00	25	massafra	13.6	1	93.86	1	0.0	1	null	6	null	6	164.76	1	999.8	1	40.593575	17.116091
12	2024-01-01 11:00:00	25	massafra	15.18	1	80.21	1	0.0	1	null	6	null	6	269.86	1	999.56	1	40.593575	17.116091
13	2024-01-01 12:00:00	25	massafra	17.74	1	59.12	1	0.0	1	null	6	null	6	359.62	1	998.9	1	40.593575	17.116091
14	2024-01-01 13:00:00	25	massafra	18.75	1	52.38	1	0.0	1	null	6	null	6	382.85	1	998.29	1	40.593575	17.116091
15	2024-01-01 14:00:00	25	massafra	18.22	1	54.93	1	0.0	1	null	6	null	6	270.25	1	997.97	1	40.593575	17.116091
16	2024-01-01 15:00:00	25	massafra	16.89	1	60.17	1	0.0	1	null	6	null	6	85.99	1	997.98	1	40.593575	17.116091
17	2024-01-01 16:00:00	25	massafra	15.97	1	67.24	1	0.0	1	null	6	null	6	34.04	1	997.88	1	40.593575	17.116091
18	2024-01-01 17:00:00	25	massafra	15.0	1	72.84	1	0.0	1	null	6	null	6	0.0	5	997.93	1	40.593575	17.116091
19	2024-01-01 18:00:00	25	massafra	14.14	1	74.12	1	0.0	1	null	6	null	6	0.0	1	998.12	1	40.593575	17.116091
20	2024-01-01 19:00:00	25	massafra	13.29	1	78.97	1	0.0	1	null	6	null	6	0.0	1	998.41	1	40.593575	17.116091
21	2024-01-01 20:00:00	25	massafra	12.97	1	78.81	1	0.0	1	null	6	null	6	0.0	1	998.56	1	40.593575	17.116091
22	2024-01-01 21:00:00	25	massafra	12.98	1	77.07	1	0.0	1	null	6	null	6	0.0	1	998.67	1	40.593575	17.116091
23	2024-01-01 22:00:00	25	massafra	13.07	1	72.95	1	0.0	1	null	6	null	6	0.0	1	998.39	1	40.593575	17.116091
24	2024-01-01 23:00:00	25	massafra	13.02	1	68.81	1	0.0	1	null	6	null	6	0.0	1	998.53	1	40.593575	17.116091
25	2024-01-02 00:00:00	25	massafra	12.83	1	73.11	1	0.0	1	null	6	null	6	0.0	1	998.6	1	40.593575	17.116091
26	2024-01-02 01:00:00	25	massafra	12.74	1	77.96	1	0.2	1	null	6	null	6	0.0	1	998.68	1	40.593575	17.116091
27	2024-01-02 02:00:00	25	massafra	12.4	1	81.63	1	0.0	1	null	6	null	6	0.0	1	998.59	1	40.593575	17.116091
28	2024-01-02 03:00:00	25	massafra	12.19	1	82.99	1	0.2	1	null	6	null	6	0.0	1	998.44	1	40.593575	17.116091
29	2024-01-02 04:00:00	25	massafra	11.55	1	83.5	1	0.0	1	null	6	null	6	0.0	1	998.33	1	40.593575	17.116091
30	2024-01-02 05:00:00	25	massafra	11.14	1	84.57	1	0.0	1	null	6	null	6	0.0	1	998.54	1	40.593575	17.116091
31	2024-01-02 06:00:00	25	massafra	10.88	1	80.2	1	0.0	1	null	6	null	6	0.0	1	998.97	1	40.593575	17.116091
32	2024-01-02 07:00:00	25	massafra	10.67	1	71.01	1	0.0	1	null	6	null	6	0.0	1	999.6	1	40.593575	17.116091
33	2024-01-02 08:00:00	25	massafra	10.5	1	62.13	1	0.0	1	null	6	null	6	6.44	1	1000.21	1	40.593575	17.116091
34	2024-01-02 09:00:00	25	massafra	11.45	1	57.88	1	0.0	1	null	6	null	6	104.61	1	1000.66	1	40.593575	17.116091
35	2024-01-02 10:00:00	25	massafra	13.31	1	52.37	1	0.0	1	null	6	null	6	211.89	1	1001.16	1	40.593575	17.116091
36	2024-01-02 11:00:00	25	massafra	15.09	1	46.78	1	0.0	1	null	6	null	6	277.53	1	1001.23	1	40.593575	17.116091
37	2024-01-02 12:00:00	25	massafra	16.89	1	42.13	1	0.0	1	null	6	null	6	421.1	1	1000.79	1	40.593575	17.116091
38	2024-01-02 13:00:00	25	massafra	17.97	1	38.73	1	0.0	1	null	6	null	6	441.48	1	1000.21	1	40.593575	17.116091
39	2024-01-02 14:00:00	25	massafra	17.82	1	37.19	1	0.0	1	null	6	null	6	299.3	1	999.8	1	40.593575	17.116091
40	2024-01-02 15:00:00	25	massafra	16.61	1	38.07	1	0.0	1	null	6	null	6	46.24	1	999.8	1	40.593575	17.116091
41	2024-01-02 16:00:00	25	massafra	16.26	1	40.8	1	0.0	1	null	6	null	6	30.88	1	1000.01	1	40.593575	17.116091
42	2024-01-02 17:00:00	25	massafra	14.76	1	51.79	1	0.0	1	null	6	null	6	0.0	5	1000.39	1	40.593575	17.116091
43	2024-01-02 18:00:00	25	massafra	13.04	1	61.85	1	0.0	1	null	6	null	6	0.0	1	1000.69	1	40.593575	17.116091
44	2024-01-02 19:00:00	25	massafra	11.78	1	65.15	1	0.0	1	null	6	null	6	0.0	1	1000.94	1	40.593575	17.116091
45	2024-01-02 20:00:00	25	massafra	11.53	1	68.23	1	0.0	1	null	6	null	6	0.0	1	1001.21	1	40.593575	17.116091
46	2024-01-02 21:00:00	25	massafra	11.07	1	70.48	1	0.0	1	null	6	null	6	0.0	1	1001.37	1	40.593575	17.116091
47	2024-01-02 22:00:00	25	massafra	10.62	1	71.57	1	0.0	1	null	6	null	6	0.0	1	1001.21	1	40.593575	17.116091
48	2024-01-02 23:00:00	25	massafra	9.95	1	73.0	1	0.0	1	null	6	null	6	0.0	1	1001.04	1	40.593575	17.116091
49	2024-01-03 00:00:00	25	massafra	9.59	1	71.19	1	0.0	1	null	6	null	6	0.0	1	1000.62	1	40.593575	17.116091
50	2024-01-03 01:00:00	25	massafra	9.52	1	70.55	1	0.0	1	null	6	null	6	0.0	1	1000.11	1	40.593575	17.116091
51	2024-01-03 02:00:00	25	massafra	9.77	1	67.54	1	0.0	1	null	6	null	6	0.0	1	999.6	1	40.593575	17.116091
52	2024-01-03 03:00:00	25	massafra	9.68	1	67.66	1	0.0	1	null	6	null	6	0.0	1	999.68	1	40.593575	17.116091
53	2024-01-03 04:00:00	25	massafra	9.65	1	69.64	1	0.0	1	null	6	null	6	0.0	1	999.55	1	40.593575	17.116091
54	2024-01-03 05:00:00	25	massafra	10.3	1	70.37	1	0.0	1	null	6	null	6	0.0	1	998.68	1	40.593575	17.116091
55	2024-01-03 06:00:00	25	massafra	10.93	1	70.03	1	0.0	1	null	6	null	6	0.0	1	998.41	1	40.593575	17.116091
56	2024-01-03 07:00:00	25	massafra	11.29	1	66.12	1	0.0	1	null	6	null	6	0.0	1	998.55	1	40.593575	17.116091
57	2024-01-03 08:00:00	25	massafra	11.51	1	62.15	1	0.0	1	null	6	null	6	0.0	5	998.37	1	40.593575	17.116091
58	2024-01-03 09:00:00	25	massafra	12.18	1	61.65	1	0.0	1	null	6	null	6	50.25	1	998.27	1	40.593575	17.116091
59	2024-01-03 10:00:00	25	massafra	13.68	1	61.31	1	0.0	1	null	6	null	6	113.39	1	998.12	1	40.593575	17.116091
60	2024-01-03 11:00:00	25	massafra	15.37	1	54.79	1	0.0	1	null	6	null	6	163.11	1	998.01	1	40.593575	17.116091
61	2024-01-03 12:00:00	25	massafra	16.46	1	55.04	1	0.0	1	null	6	null	6	183.89	1	997.43	1	40.593575	17.116091
62	2024-01-03 13:00:00	25	massafra	16.96	1	51.07	1	0.0	1	null	6	null	6	261.03	1	996.52	1	40.593575	17.116091
63	2024-01-03 14:00:00	25	massafra	17.91	1	48.63	1	0.0	1	null	6	null	6	261.18	1	995.83	1	40.593575	17.116091
64	2024-01-03 15:00:00	25	massafra	17.49	1	52.54	1	0.0	1	null	6	null	6	121.74	1	995.59	1	40.593575	17.116091
65	2024-01-03 16:00:00	25	massafra	16.43	1	55.77	1	0.0	1	null	6	null	6	38.94	1	995.39	1	40.593575	17.116091
66	2024-01-03 17:00:00	25	massafra	15.08	1	59.34	1	0.0	1	null	6	null	6	0.0	5	995.45	1	40.593575	17.116091
67	2024-01-03 18:00:00	25	massafra	14.04	1	60.54	1	0.0	1	null	6	null	6	0.0	1	995.57	1	40.593575	17.116091
68	2024-01-03 19:00:00	25	massafra	13.62	1	65.86	1	0.0	1	null	6	null	6	0.0	1	995.92	1	40.593575	17.116091
69	2024-01-03 20:00:00	25	massafra	13.01	1	67.37	1	0.0	1	null	6	null	6	0.0	1	996.18	1	40.593575	17.116091
70	2024-01-03 21:00:00	25	massafra	12.65	1	68.29	1	0.0	1	null	6	null	6	0.0	1	995.96	1	40.593575	17.116091
71	2024-01-03 22:00:00	25	massafra	12.63	1	70.28	1	0.0	1	null	6	null	6	0.0	1	995.98	1	40.593575	17.116091
72	2024-01-03 23:00:00	25	massafra	12.23	1	71.2	1	0.0	1	null	6	null	6	0.0	1	995.62	1	40.593575	17.116091
73	2024-01-04 00:00:00	25	massafra	11.89	1	72.43	1	0.0	1	null	6	null	6	0.0	1	995.47	1	40.593575	17.116091
74	2024-01-04 01:00:00	25	massafra	11.86	1	70.36	1	0.0	1	null	6	null	6	0.0	1	995.1	1	40.593575	17.116091
75	2024-01-04 02:00:00	25	massafra	12.34	1	66.83	1	0.0	1	null	6	null	6	0.0	1	994.82	1	40.593575	17.116091
76	2024-01-04 03:00:00	25	massafra	12.35	1	69.1	1	0.0	1	null	6	null	6	0.0	1	994.77	1	40.593575	17.116091
77	2024-01-04 04:00:00	25	massafra	12.12	1	70.81	1	0.0	1	null	6	null	6	0.0	1	994.38	1	40.593575	17.116091
78	2024-01-04 05:00:00	25	massafra	11.41	1	73.23	1	0.0	1	null	6	null	6	0.0	1	993.96	1	40.593575	17.116091
79	2024-01-04 06:00:00	25	massafra	11.59	1	74.0	1	0.0	1	null	6	null	6	0.0	1	993.91	1	40.593575	17.116091
80	2024-01-04 07:00:00	25	massafra	11.12	1	75.33	1	0.0	1	null	6	null	6	0.0	1	994.18	1	40.593575	17.116091
81	2024-01-04 08:00:00	25	massafra	10.77	1	76.87	1	0.0	1	null	6	null	6	6.01	1	994.57	1	40.593575	17.116091
82	2024-01-04 09:00:00	25	massafra	12.91	1	69.79	1	0.0	1	null	6	null	6	120.67	1	994.7	1	40.593575	17.116091
83	2024-01-04 10:00:00	25	massafra	16.78	1	52.03	1	0.0	1	null	6	null	6	260.68	1	995.05	1	40.593575	17.116091
84	2024-01-04 11:00:00	25	massafra	17.77	1	46.02	1	0.0	1	null	6	null	6	257.69	1	995.15	1	40.593575	17.116091
85	2024-01-04 12:00:00	25	massafra	19.15	1	44.09	1	0.0	1	null	6	null	6	423.24	1	994.77	1	40.593575	17.116091
86	2024-01-04 13:00:00	25	massafra	20.98	1	36.83	1	0.0	1	null	6	null	6	420.61	1	994.0	1	40.593575	17.116091
87	2024-01-04 14:00:00	25	massafra	21.09	1	32.93	1	0.0	1	null	6	null	6	314.77	1	993.69	1	40.593575	17.116091
88	2024-01-04 15:00:00	25	massafra	20.24	1	34.36	1	0.0	1	null	6	null	6	50.68	1	994.01	1	40.593575	17.116091
89	2024-01-04 16:00:00	25	massafra	20.01	1	34.81	1	0.0	1	null	6	null	6	43.53	1	994.57	1	40.593575	17.116091
90	2024-01-04 17:00:00	25	massafra	18.6	1	38.44	1	0.0	1	null	6	null	6	6.16	1	995.08	1	40.593575	17.116091
91	2024-01-04 18:00:00	25	massafra	16.54	1	44.47	1	0.0	1	null	6	null	6	0.0	1	995.83	1	40.593575	17.116091
92	2024-01-04 19:00:00	25	massafra	15.42	1	46.43	1	0.0	1	null	6	null	6	0.0	1	996.63	1	40.593575	17.116091
93	2024-01-04 20:00:00	25	massafra	14.12	1	50.49	1	0.0	1	null	6	null	6	0.0	1	997.6	1	40.593575	17.116091
94	2024-01-04 21:00:00	25	massafra	13.66	1	55.79	1	0.0	1	null	6	null	6	0.0	1	998.14	1	40.593575	17.116091
95	2024-01-04 22:00:00	25	massafra	13.12	1	55.62	1	0.0	1	null	6	null	6	0.0	1	998.28	1	40.593575	17.116091
96	2024-01-04 23:00:00	25	massafra	13.14	1	54.07	1	0.0	1	null	6	null	6	0.0	1	998.47	1	40.593575	17.116091
97	2024-01-05 00:00:00	25	massafra	12.88	1	55.46	1	0.0	1	null	6	null	6	0.0	1	998.5	1	40.593575	17.116091
98	2024-01-05 01:00:00	25	massafra	12.31	1	58.56	1	0.0	1	null	6	null	6	0.0	1	998.45	1	40.593575	17.116091
99	2024-01-05 02:00:00	25	massafra	11.62	1	61.71	1	0.0	1	null	6	null	6	0.0	1	998.51	1	40.593575	17.116091
100	2024-01-05 03:00:00	25	massafra	11.49	1	62.99	1	0.0	1	null	6	null	6	0.0	1	998.54	1	40.593575	17.116091
101	2024-01-05 04:00:00	25	massafra	11.35	1	62.47	1	0.0	1	null	6	null	6	0.0	1	998.06	1	40.593575	17.116091
102	2024-01-05 05:00:00	25	massafra	10.78	1	64.69	1	0.0	1	null	6	null	6	0.0	1	997.71	1	40.593575	17.116091
103	2024-01-05 06:00:00	25	massafra	10.67	1	68.27	1	0.0	1	null	6	null	6	0.0	1	997.4	1	40.593575	17.116091
104	2024-01-05 07:00:00	25	massafra	10.99	1	70.34	1	0.0	1	null	6	null	6	0.0	1	997.66	1	40.593575	17.116091
105	2024-01-05 08:00:00	25	massafra	11.96	1	74.17	1	0.0	1	null	6	null	6	20.81	1	997.62	1	40.593575	17.116091
106	2024-01-05 09:00:00	25	massafra	14.26	1	71.98	1	0.0	1	null	6	null	6	128.21	1	997.53	1	40.593575	17.116091
107	2024-01-05 10:00:00	25	massafra	15.72	1	66.58	1	0.0	1	null	6	null	6	236.63	1	997.57	1	40.593575	17.116091
108	2024-01-05 11:00:00	25	massafra	16.63	1	63.11	1	0.0	1	null	6	null	6	218.53	1	997.12	1	40.593575	17.116091
109	2024-01-05 12:00:00	25	massafra	16.9	1	65.75	1	0.0	1	null	6	null	6	217.76	1	996.38	1	40.593575	17.116091
110	2024-01-05 13:00:00	25	massafra	16.62	1	70.37	1	0.0	1	null	6	null	6	150.9	1	995.85	1	40.593575	17.116091
111	2024-01-05 14:00:00	25	massafra	16.18	1	72.59	1	0.0	1	null	6	null	6	128.88	1	995.13	1	40.593575	17.116091
112	2024-01-05 15:00:00	25	massafra	16.16	1	75.36	1	0.0	1	null	6	null	6	58.36	1	994.66	1	40.593575	17.116091
113	2024-01-05 16:00:00	25	massafra	16.0	1	78.51	1	0.0	1	null	6	null	6	22.67	1	994.34	1	40.593575	17.116091
114	2024-01-05 17:00:00	25	massafra	15.74	1	79.9	1	0.0	1	null	6	null	6	0.0	5	994.2	1	40.593575	17.116091
115	2024-01-05 18:00:00	25	massafra	15.53	1	79.79	1	0.0	1	null	6	null	6	0.0	1	994.05	1	40.593575	17.116091
116	2024-01-05 19:00:00	25	massafra	15.57	1	79.34	1	0.0	1	null	6	null	6	0.0	1	993.94	1	40.593575	17.116091
117	2024-01-05 20:00:00	25	massafra	15.72	1	80.05	1	0.0	1	null	6	null	6	0.0	1	993.77	1	40.593575	17.116091
118	2024-01-05 21:00:00	25	massafra	15.65	1	79.84	1	0.0	1	null	6	null	6	0.0	1	993.47	1	40.593575	17.116091
119	2024-01-05 22:00:00	25	massafra	15.67	1	78.59	1	0.0	1	null	6	null	6	0.0	1	993.12	1	40.593575	17.116091
120	2024-01-05 23:00:00	25	massafra	15.63	1	80.75	1	0.0	1	null	6	null	6	0.0	1	992.64	1	40.593575	17.116091
121	2024-01-06 00:00:00	25	massafra	15.48	1	80.97	1	0.0	1	null	6	null	6	0.0	1	991.9	1	40.593575	17.116091
122	2024-01-06 01:00:00	25	massafra	15.61	1	82.73	1	0.0	1	null	6	null	6	0.0	1	991.3	1	40.593575	17.116091
123	2024-01-06 02:00:00	25	massafra	15.53	1	85.21	1	0.0	1	null	6	null	6	0.0	1	991.14	1	40.593575	17.116091
124	2024-01-06 03:00:00	25	massafra	15.46	1	86.25	1	0.0	1	null	6	null	6	0.0	1	990.93	1	40.593575	17.116091
125	2024-01-06 04:00:00	25	massafra	15.26	1	85.54	1	0.0	1	null	6	null	6	0.0	1	990.23	1	40.593575	17.116091
126	2024-01-06 05:00:00	25	massafra	15.5	1	85.92	1	0.0	1	null	6	null	6	0.0	1	989.78	1	40.593575	17.116091
127	2024-01-06 06:00:00	25	massafra	15.63	1	87.8	1	0.0	1	null	6	null	6	0.0	1	989.29	1	40.593575	17.116091
128	2024-01-06 07:00:00	25	massafra	15.66	1	88.99	1	0.0	1	null	6	null	6	0.0	1	988.91	1	40.593575	17.116091
129	2024-01-06 08:00:00	25	massafra	15.72	1	88.58	1	0.0	1	null	6	null	6	0.0	5	988.44	1	40.593575	17.116091
130	2024-01-06 09:00:00	25	massafra	15.92	1	88.71	1	0.0	1	null	6	null	6	29.72	1	988.16	1	40.593575	17.116091
131	2024-01-06 10:00:00	25	massafra	16.17	1	86.95	1	0.0	1	null	6	null	6	66.95	1	987.96	1	40.593575	17.116091
132	2024-01-06 11:00:00	25	massafra	16.6	1	82.58	1	0.0	1	null	6	null	6	96.65	1	987.06	1	40.593575	17.116091
133	2024-01-06 12:00:00	25	massafra	16.87	1	79.22	1	0.0	1	null	6	null	6	100.62	1	985.69	1	40.593575	17.116091
134	2024-01-06 13:00:00	25	massafra	16.4	1	84.13	1	1.4	1	null	6	null	6	68.19	1	983.29	1	40.593575	17.116091
135	2024-01-06 14:00:00	25	massafra	16.2	1	87.61	1	0.8	1	null	6	null	6	76.32	1	981.15	1	40.593575	17.116091
136	2024-01-06 15:00:00	25	massafra	16.29	1	87.34	1	0.0	1	null	6	null	6	40.9	1	980.19	1	40.593575	17.116091
137	2024-01-06 16:00:00	25	massafra	15.69	1	83.86	1	3.8	1	null	6	null	6	20.19	1	979.56	1	40.593575	17.116091
138	2024-01-06 17:00:00	25	massafra	12.37	1	81.4	1	5.0	1	null	6	null	6	0.0	1	979.27	1	40.593575	17.116091
139	2024-01-06 18:00:00	25	massafra	12.23	1	85.02	1	1.2	1	null	6	null	6	0.0	1	978.4	1	40.593575	17.116091
140	2024-01-06 19:00:00	25	massafra	11.66	1	86.34	1	0.0	1	null	6	null	6	0.0	1	977.79	1	40.593575	17.116091
141	2024-01-06 20:00:00	25	massafra	11.47	1	83.47	1	0.0	1	null	6	null	6	0.0	1	977.46	1	40.593575	17.116091
142	2024-01-06 21:00:00	25	massafra	11.9	1	79.14	1	0.0	1	null	6	null	6	0.0	1	977.1	1	40.593575	17.116091
143	2024-01-06 22:00:00	25	massafra	11.73	1	79.38	1	0.0	1	null	6	null	6	0.0	1	976.62	1	40.593575	17.116091
144	2024-01-06 23:00:00	25	massafra	11.82	1	78.1	1	0.0	1	null	6	null	6	0.0	1	976.46	1	40.593575	17.116091
145	2024-01-07 00:00:00	25	massafra	11.75	1	78.46	1	0.0	1	null	6	null	6	0.0	1	976.08	1	40.593575	17.116091
146	2024-01-07 01:00:00	25	massafra	11.72	1	81.35	1	0.0	1	null	6	null	6	0.0	1	976.17	1	40.593575	17.116091
147	2024-01-07 02:00:00	25	massafra	11.73	1	81.57	1	0.0	1	null	6	null	6	0.0	1	975.95	1	40.593575	17.116091
148	2024-01-07 03:00:00	25	massafra	11.61	1	83.03	1	0.0	1	null	6	null	6	0.0	1	975.9	1	40.593575	17.116091
149	2024-01-07 04:00:00	25	massafra	11.82	1	86.39	1	0.0	1	null	6	null	6	0.0	1	975.85	1	40.593575	17.116091
150	2024-01-07 05:00:00	25	massafra	11.3	1	88.14	1	0.0	1	null	6	null	6	0.0	1	975.73	1	40.593575	17.116091
151	2024-01-07 06:00:00	25	massafra	10.99	1	89.6	1	0.0	1	null	6	null	6	0.0	1	975.95	1	40.593575	17.116091
152	2024-01-07 07:00:00	25	massafra	10.99	1	89.96	1	0.0	1	null	6	null	6	0.0	1	976.71	1	40.593575	17.116091
153	2024-01-07 08:00:00	25	massafra	10.95	1	89.67	1	0.0	1	null	6	null	6	6.55	1	977.4	1	40.593575	17.116091
154	2024-01-07 09:00:00	25	massafra	11.35	1	85.04	1	0.0	1	null	6	null	6	30.68	1	977.85	1	40.593575	17.116091
155	2024-01-07 10:00:00	25	massafra	11.73	1	78.7	1	0.0	1	null	6	null	6	80.32	1	978.34	1	40.593575	17.116091
156	2024-01-07 11:00:00	25	massafra	12.9	1	73.92	1	0.0	1	null	6	null	6	118.87	1	978.88	1	40.593575	17.116091
157	2024-01-07 12:00:00	25	massafra	12.96	1	74.5	1	0.0	1	null	6	null	6	112.07	1	979.27	1	40.593575	17.116091
158	2024-01-07 13:00:00	25	massafra	13.06	1	71.98	1	0.0	1	null	6	null	6	109.78	1	978.99	1	40.593575	17.116091
159	2024-01-07 14:00:00	25	massafra	13.12	1	70.66	1	0.0	1	null	6	null	6	89.45	1	978.89	1	40.593575	17.116091
160	2024-01-07 15:00:00	25	massafra	12.99	1	63.49	1	0.0	1	null	6	null	6	65.17	1	979.29	1	40.593575	17.116091
161	2024-01-07 16:00:00	25	massafra	12.73	1	60.61	1	0.0	1	null	6	null	6	27.62	1	979.84	1	40.593575	17.116091
162	2024-01-07 17:00:00	25	massafra	12.09	1	60.46	1	0.0	1	null	6	null	6	0.0	5	980.51	1	40.593575	17.116091
163	2024-01-07 18:00:00	25	massafra	11.6	1	63.88	1	0.0	1	null	6	null	6	0.0	1	981.2	1	40.593575	17.116091
164	2024-01-07 19:00:00	25	massafra	11.63	1	57.71	1	0.0	1	null	6	null	6	0.0	1	981.97	1	40.593575	17.116091
165	2024-01-07 20:00:00	25	massafra	11.12	1	63.68	1	0.2	1	null	6	null	6	0.0	1	982.7	1	40.593575	17.116091
166	2024-01-07 21:00:00	25	massafra	10.45	1	71.28	1	0.0	1	null	6	null	6	0.0	1	983.12	1	40.593575	17.116091
167	2024-01-07 22:00:00	25	massafra	10.08	1	72.71	1	0.0	1	null	6	null	6	0.0	1	983.45	1	40.593575	17.116091
168	2024-01-07 23:00:00	25	massafra	9.56	1	70.26	1	0.0	1	null	6	null	6	0.0	1	983.96	1	40.593575	17.116091
169	2024-01-08 00:00:00	25	massafra	8.91	1	69.18	1	0.0	1	null	6	null	6	0.0	1	984.2	1	40.593575	17.116091
170	2024-01-08 01:00:00	25	massafra	8.74	1	69.45	1	0.0	1	null	6	null	6	0.0	1	984.51	1	40.593575	17.116091
171	2024-01-08 02:00:00	25	massafra	9.14	1	67.41	1	0.0	1	null	6	null	6	0.0	1	984.65	1	40.593575	17.116091
172	2024-01-08 03:00:00	25	massafra	9.42	1	66.6	1	0.0	1	null	6	null	6	0.0	1	984.96	1	40.593575	17.116091
173	2024-01-08 04:00:00	25	massafra	9.42	1	66.97	1	0.0	1	null	6	null	6	0.0	1	984.77	1	40.593575	17.116091
174	2024-01-08 05:00:00	25	massafra	9.36	1	68.21	1	0.0	1	null	6	null	6	0.0	1	984.85	1	40.593575	17.116091
175	2024-01-08 06:00:00	25	massafra	9.5	1	66.88	1	0.0	1	null	6	null	6	0.0	1	985.24	1	40.593575	17.116091
176	2024-01-08 07:00:00	25	massafra	8.74	1	67.16	1	0.0	1	null	6	null	6	0.0	1	985.64	1	40.593575	17.116091
177	2024-01-08 08:00:00	25	massafra	8.22	1	68.33	1	0.0	1	null	6	null	6	16.07	1	986.06	1	40.593575	17.116091
178	2024-01-08 09:00:00	25	massafra	9.89	1	64.94	1	0.0	1	null	6	null	6	86.29	1	986.42	1	40.593575	17.116091
179	2024-01-08 10:00:00	25	massafra	12.76	1	52.77	1	0.0	1	null	6	null	6	260.0	1	987.02	1	40.593575	17.116091
180	2024-01-08 11:00:00	25	massafra	13.78	1	46.57	1	0.0	1	null	6	null	6	297.52	1	987.15	1	40.593575	17.116091
181	2024-01-08 12:00:00	25	massafra	14.42	1	48.55	1	0.0	1	null	6	null	6	196.76	1	986.89	1	40.593575	17.116091
182	2024-01-08 13:00:00	25	massafra	14.18	1	53.7	1	0.2	1	null	6	null	6	191.83	1	986.58	1	40.593575	17.116091
183	2024-01-08 14:00:00	25	massafra	13.7	1	55.45	1	0.0	1	null	6	null	6	187.36	1	986.42	1	40.593575	17.116091
184	2024-01-08 15:00:00	25	massafra	13.02	1	57.25	1	0.0	1	null	6	null	6	85.23	1	986.51	1	40.593575	17.116091
185	2024-01-08 16:00:00	25	massafra	12.86	1	60.45	1	0.0	1	null	6	null	6	79.85	1	987.02	1	40.593575	17.116091
186	2024-01-08 17:00:00	25	massafra	12.42	1	63.52	1	0.0	1	null	6	null	6	10.93	1	987.61	1	40.593575	17.116091
187	2024-01-08 18:00:00	25	massafra	11.95	1	65.62	1	0.0	1	null	6	null	6	0.0	1	988.19	1	40.593575	17.116091
188	2024-01-08 19:00:00	25	massafra	11.5	1	68.05	1	0.0	1	null	6	null	6	0.0	1	988.66	1	40.593575	17.116091
189	2024-01-08 20:00:00	25	massafra	10.7	1	69.66	1	0.0	1	null	6	null	6	0.0	1	989.23	1	40.593575	17.116091
190	2024-01-08 21:00:00	25	massafra	10.35	1	71.28	1	0.0	1	null	6	null	6	0.0	1	990.09	1	40.593575	17.116091
191	2024-01-08 22:00:00	25	massafra	10.61	1	67.14	1	0.0	1	null	6	null	6	0.0	1	990.73	1	40.593575	17.116091
192	2024-01-08 23:00:00	25	massafra	10.11	1	65.81	1	0.0	1	null	6	null	6	0.0	1	991.19	1	40.593575	17.116091
193	2024-01-09 00:00:00	25	massafra	9.76	1	64.72	1	0.0	1	null	6	null	6	0.0	1	991.46	1	40.593575	17.116091
194	2024-01-09 01:00:00	25	massafra	9.91	1	65.48	1	0.0	1	null	6	null	6	0.0	1	991.87	1	40.593575	17.116091
195	2024-01-09 02:00:00	25	massafra	10.25	1	67.83	1	0.0	1	null	6	null	6	0.0	1	992.36	1	40.593575	17.116091
196	2024-01-09 03:00:00	25	massafra	9.63	1	70.08	1	0.0	1	null	6	null	6	0.0	1	993.0	1	40.593575	17.116091
197	2024-01-09 04:00:00	25	massafra	9.43	1	72.18	1	0.0	1	null	6	null	6	0.0	1	993.26	1	40.593575	17.116091
198	2024-01-09 05:00:00	25	massafra	9.56	1	75.33	1	0.0	1	null	6	null	6	0.0	1	993.46	1	40.593575	17.116091
199	2024-01-09 06:00:00	25	massafra	9.41	1	74.95	1	0.0	1	null	6	null	6	0.0	1	994.03	1	40.593575	17.116091
200	2024-01-09 07:00:00	25	massafra	9.17	1	75.76	1	0.0	1	null	6	null	6	0.0	1	994.76	1	40.593575	17.116091
201	2024-01-09 08:00:00	25	massafra	9.22	1	75.02	1	0.0	1	null	6	null	6	8.04	1	995.66	1	40.593575	17.116091
202	2024-01-09 09:00:00	25	massafra	9.81	1	71.88	1	0.0	1	null	6	null	6	84.75	1	996.93	1	40.593575	17.116091
203	2024-01-09 10:00:00	25	massafra	11.58	1	62.89	1	0.0	1	null	6	null	6	254.42	1	997.74	1	40.593575	17.116091
204	2024-01-09 11:00:00	25	massafra	12.08	1	59.79	1	0.0	1	null	6	null	6	237.45	1	998.62	1	40.593575	17.116091
205	2024-01-09 12:00:00	25	massafra	11.75	1	62.28	1	0.0	1	null	6	null	6	232.45	1	998.82	1	40.593575	17.116091
206	2024-01-09 13:00:00	25	massafra	11.85	1	58.1	1	0.0	1	null	6	null	6	134.35	1	999.1	1	40.593575	17.116091
207	2024-01-09 14:00:00	25	massafra	11.41	1	59.55	1	0.0	1	null	6	null	6	114.5	1	999.58	1	40.593575	17.116091
208	2024-01-09 15:00:00	25	massafra	11.09	1	60.26	1	0.0	1	null	6	null	6	70.14	1	1000.29	1	40.593575	17.116091
209	2024-01-09 16:00:00	25	massafra	10.26	1	63.59	1	0.0	1	null	6	null	6	18.16	1	1000.99	1	40.593575	17.116091
210	2024-01-09 17:00:00	25	massafra	9.82	1	63.75	1	0.0	1	null	6	null	6	0.0	5	1001.61	1	40.593575	17.116091
211	2024-01-09 18:00:00	25	massafra	9.69	1	63.54	1	0.0	1	null	6	null	6	0.0	1	1002.26	1	40.593575	17.116091
212	2024-01-09 19:00:00	25	massafra	9.54	1	63.22	1	0.0	1	null	6	null	6	0.0	1	1002.77	1	40.593575	17.116091
213	2024-01-09 20:00:00	25	massafra	9.32	1	62.5	1	0.0	1	null	6	null	6	0.0	1	1003.32	1	40.593575	17.116091
214	2024-01-09 21:00:00	25	massafra	8.79	1	61.95	1	0.0	1	null	6	null	6	0.0	1	1003.71	1	40.593575	17.116091
215	2024-01-09 22:00:00	25	massafra	8.68	1	60.71	1	0.0	1	null	6	null	6	0.0	1	1004.22	1	40.593575	17.116091
216	2024-01-09 23:00:00	25	massafra	8.76	1	59.16	1	0.0	1	null	6	null	6	0.0	1	1004.61	1	40.593575	17.116091
217	2024-01-10 00:00:00	25	massafra	8.62	1	59.8	1	0.0	1	null	6	null	6	0.0	1	1004.84	1	40.593575	17.116091
218	2024-01-10 01:00:00	25	massafra	8.6	1	58.37	1	0.0	1	null	6	null	6	0.0	1	1004.83	1	40.593575	17.116091
219	2024-01-10 02:00:00	25	massafra	8.5	1	59.99	1	0.0	1	null	6	null	6	0.0	1	1005.11	1	40.593575	17.116091
220	2024-01-10 03:00:00	25	massafra	8.44	1	61.39	1	0.0	1	null	6	null	6	0.0	1	1005.77	1	40.593575	17.116091
221	2024-01-10 04:00:00	25	massafra	8.62	1	60.85	1	0.0	1	null	6	null	6	0.0	1	1005.8	1	40.593575	17.116091
222	2024-01-10 05:00:00	25	massafra	8.82	1	58.14	1	0.0	1	null	6	null	6	0.0	1	1005.74	1	40.593575	17.116091
223	2024-01-10 06:00:00	25	massafra	8.86	1	57.65	1	0.0	1	null	6	null	6	0.0	1	1006.05	1	40.593575	17.116091
224	2024-01-10 07:00:00	25	massafra	8.86	1	57.64	1	0.0	1	null	6	null	6	0.0	1	1006.5	1	40.593575	17.116091
225	2024-01-10 08:00:00	25	massafra	9.01	1	56.4	1	0.0	1	null	6	null	6	0.0	5	1006.76	1	40.593575	17.116091
226	2024-01-10 09:00:00	25	massafra	9.42	1	55.82	1	0.0	1	null	6	null	6	34.22	1	1007.29	1	40.593575	17.116091
227	2024-01-10 10:00:00	25	massafra	10.09	1	54.72	1	0.0	1	null	6	null	6	79.48	1	1007.6	1	40.593575	17.116091
228	2024-01-10 11:00:00	25	massafra	10.71	1	52.57	1	0.0	1	null	6	null	6	149.1	1	1007.67	1	40.593575	17.116091
229	2024-01-10 12:00:00	25	massafra	11.69	1	48.51	1	0.0	1	null	6	null	6	252.35	1	1007.41	1	40.593575	17.116091
230	2024-01-10 13:00:00	25	massafra	13.01	1	46.09	1	0.0	1	null	6	null	6	339.25	1	1006.97	1	40.593575	17.116091
231	2024-01-10 14:00:00	25	massafra	12.7	1	46.48	1	0.0	1	null	6	null	6	171.4	1	1006.87	1	40.593575	17.116091
232	2024-01-10 15:00:00	25	massafra	12.35	1	48.36	1	0.0	1	null	6	null	6	104.6	1	1007.0	1	40.593575	17.116091
233	2024-01-10 16:00:00	25	massafra	11.67	1	51.31	1	0.0	1	null	6	null	6	43.38	1	1007.13	1	40.593575	17.116091
234	2024-01-10 17:00:00	25	massafra	11.04	1	55.66	1	0.0	1	null	6	null	6	10.72	1	1007.36	1	40.593575	17.116091
235	2024-01-10 18:00:00	25	massafra	10.35	1	61.27	1	0.0	1	null	6	null	6	0.0	1	1007.56	1	40.593575	17.116091
236	2024-01-10 19:00:00	25	massafra	9.34	1	67.16	1	0.0	1	null	6	null	6	0.0	1	1007.49	1	40.593575	17.116091
237	2024-01-10 20:00:00	25	massafra	8.91	1	70.05	1	0.0	1	null	6	null	6	0.0	1	1007.53	1	40.593575	17.116091
238	2024-01-10 21:00:00	25	massafra	9.21	1	69.84	1	0.0	1	null	6	null	6	0.0	1	1007.69	1	40.593575	17.116091
239	2024-01-10 22:00:00	25	massafra	9.32	1	66.66	1	0.0	1	null	6	null	6	0.0	1	1007.52	1	40.593575	17.116091
240	2024-01-10 23:00:00	25	massafra	9.32	1	63.92	1	0.0	1	null	6	null	6	0.0	1	1007.36	1	40.593575	17.116091
241	2024-01-11 00:00:00	25	massafra	9.46	1	61.88	1	0.0	1	null	6	null	6	0.0	1	1007.03	1	40.593575	17.116091
242	2024-01-11 01:00:00	25	massafra	9.34	1	62.7	1	0.0	1	null	6	null	6	0.0	1	1006.58	1	40.593575	17.116091
243	2024-01-11 02:00:00	25	massafra	9.09	1	63.98	1	0.0	1	null	6	null	6	0.0	1	1006.22	1	40.593575	17.116091
244	2024-01-11 03:00:00	25	massafra	9.16	1	63.59	1	0.0	1	null	6	null	6	0.0	1	1006.2	1	40.593575	17.116091
245	2024-01-11 04:00:00	25	massafra	9.14	1	63.65	1	0.0	1	null	6	null	6	0.0	1	1005.71	1	40.593575	17.116091
246	2024-01-11 05:00:00	25	massafra	9.17	1	63.67	1	0.0	1	null	6	null	6	0.0	1	1005.29	1	40.593575	17.116091
247	2024-01-11 06:00:00	25	massafra	9.01	1	64.61	1	0.0	1	null	6	null	6	0.0	1	1005.0	1	40.593575	17.116091
248	2024-01-11 07:00:00	25	massafra	8.96	1	64.8	1	0.0	1	null	6	null	6	0.0	1	1005.12	1	40.593575	17.116091
249	2024-01-11 08:00:00	25	massafra	9.07	1	64.72	1	0.0	1	null	6	null	6	10.48	1	1005.17	1	40.593575	17.116091
250	2024-01-11 09:00:00	25	massafra	9.65	1	66.16	1	0.0	1	null	6	null	6	80.49	1	1005.06	1	40.593575	17.116091
251	2024-01-11 10:00:00	25	massafra	11.48	1	59.73	1	0.0	1	null	6	null	6	242.85	1	1004.88	1	40.593575	17.116091
252	2024-01-11 11:00:00	25	massafra	13.51	1	46.96	1	0.0	1	null	6	null	6	284.49	1	1004.36	1	40.593575	17.116091
253	2024-01-11 12:00:00	25	massafra	12.33	1	51.8	1	0.0	1	null	6	null	6	26.54	1	1003.73	1	40.593575	17.116091
254	2024-01-11 13:00:00	25	massafra	11.6	1	55.86	1	0.0	1	null	6	null	6	34.77	1	1003.09	1	40.593575	17.116091
255	2024-01-11 14:00:00	25	massafra	11.84	1	56.79	1	0.0	1	null	6	null	6	106.58	1	1002.29	1	40.593575	17.116091
256	2024-01-11 15:00:00	25	massafra	12.45	1	52.86	1	0.0	1	null	6	null	6	107.27	1	1001.65	1	40.593575	17.116091
257	2024-01-11 16:00:00	25	massafra	11.74	1	53.58	1	0.0	1	null	6	null	6	23.35	1	1001.71	1	40.593575	17.116091
258	2024-01-11 17:00:00	25	massafra	11.15	1	58.06	1	0.0	1	null	6	null	6	0.0	5	1001.6	1	40.593575	17.116091
259	2024-01-11 18:00:00	25	massafra	10.64	1	60.62	1	0.0	1	null	6	null	6	0.0	1	1001.48	1	40.593575	17.116091
260	2024-01-11 19:00:00	25	massafra	10.34	1	61.5	1	0.0	1	null	6	null	6	0.0	1	1001.38	1	40.593575	17.116091
261	2024-01-11 20:00:00	25	massafra	10.07	1	64.04	1	0.0	1	null	6	null	6	0.0	1	1001.12	1	40.593575	17.116091
262	2024-01-11 21:00:00	25	massafra	9.9	1	65.22	1	0.0	1	null	6	null	6	0.0	1	1000.96	1	40.593575	17.116091
263	2024-01-11 22:00:00	25	massafra	9.47	1	66.79	1	0.0	1	null	6	null	6	0.0	1	1001.02	1	40.593575	17.116091
264	2024-01-11 23:00:00	25	massafra	9.27	1	68.09	1	0.0	1	null	6	null	6	0.0	1	1000.81	1	40.593575	17.116091
265	2024-01-12 00:00:00	25	massafra	9.35	1	65.99	1	0.0	1	null	6	null	6	0.0	1	1000.6	1	40.593575	17.116091
266	2024-01-12 01:00:00	25	massafra	9.12	1	66.06	1	0.0	1	null	6	null	6	0.0	1	1000.21	1	40.593575	17.116091
267	2024-01-12 02:00:00	25	massafra	8.68	1	69.24	1	0.0	1	null	6	null	6	0.0	1	999.79	1	40.593575	17.116091
268	2024-01-12 03:00:00	25	massafra	8.71	1	72.39	1	0.0	1	null	6	null	6	0.0	1	999.64	1	40.593575	17.116091
269	2024-01-12 04:00:00	25	massafra	8.92	1	70.12	1	0.0	1	null	6	null	6	0.0	1	999.25	1	40.593575	17.116091
270	2024-01-12 05:00:00	25	massafra	8.46	1	70.67	1	0.0	1	null	6	null	6	0.0	1	998.87	1	40.593575	17.116091
271	2024-01-12 06:00:00	25	massafra	8.06	1	69.67	1	0.0	1	null	6	null	6	0.0	1	998.71	1	40.593575	17.116091
272	2024-01-12 07:00:00	25	massafra	8.22	1	68.9	1	0.0	1	null	6	null	6	0.0	1	999.12	1	40.593575	17.116091
273	2024-01-12 08:00:00	25	massafra	8.34	1	67.71	1	0.0	1	null	6	null	6	6.53	1	999.25	1	40.593575	17.116091
274	2024-01-12 09:00:00	25	massafra	8.89	1	63.2	1	0.0	1	null	6	null	6	129.42	1	999.48	1	40.593575	17.116091
275	2024-01-12 10:00:00	25	massafra	10.13	1	55.34	1	0.0	1	null	6	null	6	233.06	1	999.57	1	40.593575	17.116091
276	2024-01-12 11:00:00	25	massafra	11.34	1	50.27	1	0.0	1	null	6	null	6	384.36	1	999.75	1	40.593575	17.116091
277	2024-01-12 12:00:00	25	massafra	12.22	1	42.69	1	0.0	1	null	6	null	6	421.61	1	999.59	1	40.593575	17.116091
278	2024-01-12 13:00:00	25	massafra	12.84	1	30.37	1	0.0	1	null	6	null	6	462.5	1	999.06	1	40.593575	17.116091
279	2024-01-12 14:00:00	25	massafra	12.73	1	31.77	1	0.0	1	null	6	null	6	401.96	1	998.8	1	40.593575	17.116091
280	2024-01-12 15:00:00	25	massafra	11.97	1	35.15	1	0.0	1	null	6	null	6	75.33	1	999.05	1	40.593575	17.116091
281	2024-01-12 16:00:00	25	massafra	11.07	1	38.81	1	0.0	1	null	6	null	6	29.14	1	999.57	1	40.593575	17.116091
282	2024-01-12 17:00:00	25	massafra	10.1	1	41.93	1	0.0	1	null	6	null	6	6.88	1	1000.06	1	40.593575	17.116091
283	2024-01-12 18:00:00	25	massafra	9.01	1	46.77	1	0.0	1	null	6	null	6	0.0	1	1000.25	1	40.593575	17.116091
284	2024-01-12 19:00:00	25	massafra	8.45	1	48.94	1	0.0	1	null	6	null	6	0.0	1	1000.64	1	40.593575	17.116091
285	2024-01-12 20:00:00	25	massafra	7.66	1	55.94	1	0.0	1	null	6	null	6	0.0	1	1001.0	1	40.593575	17.116091
286	2024-01-12 21:00:00	25	massafra	7.65	1	61.8	1	0.0	1	null	6	null	6	0.0	1	1001.38	1	40.593575	17.116091
287	2024-01-12 22:00:00	25	massafra	6.61	1	67.67	1	0.6	1	null	6	null	6	0.0	1	1001.89	1	40.593575	17.116091
288	2024-01-12 23:00:00	25	massafra	6.2	1	68.98	1	0.0	1	null	6	null	6	0.0	1	1002.18	1	40.593575	17.116091
289	2024-01-13 00:00:00	25	massafra	6.01	1	67.01	1	0.0	1	null	6	null	6	0.0	1	1002.27	1	40.593575	17.116091
290	2024-01-13 01:00:00	25	massafra	5.97	1	62.9	1	0.0	1	null	6	null	6	0.0	1	1001.98	1	40.593575	17.116091
291	2024-01-13 02:00:00	25	massafra	5.86	1	59.11	1	0.0	1	null	6	null	6	0.0	1	1002.23	1	40.593575	17.116091
292	2024-01-13 03:00:00	25	massafra	5.42	1	59.26	1	0.0	1	null	6	null	6	0.0	1	1002.51	1	40.593575	17.116091
293	2024-01-13 04:00:00	25	massafra	5.48	1	58.34	1	0.0	1	null	6	null	6	0.0	1	1002.42	1	40.593575	17.116091
294	2024-01-13 05:00:00	25	massafra	5.42	1	57.67	1	0.0	1	null	6	null	6	0.0	1	1002.35	1	40.593575	17.116091
295	2024-01-13 06:00:00	25	massafra	5.93	1	54.66	1	0.0	1	null	6	null	6	0.0	1	1002.65	1	40.593575	17.116091
296	2024-01-13 07:00:00	25	massafra	6.03	1	54.16	1	0.0	1	null	6	null	6	0.0	1	1002.99	1	40.593575	17.116091
297	2024-01-13 08:00:00	25	massafra	6.33	1	52.4	1	0.0	1	null	6	null	6	0.0	5	1003.28	1	40.593575	17.116091
298	2024-01-13 09:00:00	25	massafra	6.62	1	51.41	1	0.0	1	null	6	null	6	27.05	1	1004.04	1	40.593575	17.116091
299	2024-01-13 10:00:00	25	massafra	7.05	1	49.79	1	0.0	1	null	6	null	6	72.54	1	1004.6	1	40.593575	17.116091
300	2024-01-13 11:00:00	25	massafra	8.09	1	48.98	1	0.0	1	null	6	null	6	150.81	1	1004.77	1	40.593575	17.116091
301	2024-01-13 12:00:00	25	massafra	9.47	1	45.59	1	0.0	1	null	6	null	6	316.16	1	1004.32	1	40.593575	17.116091
302	2024-01-13 13:00:00	25	massafra	10.15	1	41.86	1	0.0	1	null	6	null	6	346.44	1	1003.76	1	40.593575	17.116091
303	2024-01-13 14:00:00	25	massafra	10.55	1	39.92	1	0.0	1	null	6	null	6	356.71	1	1003.33	1	40.593575	17.116091
304	2024-01-13 15:00:00	25	massafra	10.41	1	40.92	1	0.0	1	null	6	null	6	148.61	1	1003.23	1	40.593575	17.116091
305	2024-01-13 16:00:00	25	massafra	9.75	1	42.81	1	0.0	1	null	6	null	6	40.42	1	1003.28	1	40.593575	17.116091
306	2024-01-13 17:00:00	25	massafra	9.14	1	46.11	1	0.0	1	null	6	null	6	8.65	1	1003.2	1	40.593575	17.116091
307	2024-01-13 18:00:00	25	massafra	7.81	1	51.42	1	0.0	1	null	6	null	6	0.0	1	1003.43	1	40.593575	17.116091
308	2024-01-13 19:00:00	25	massafra	6.75	1	55.16	1	0.0	1	null	6	null	6	0.0	1	1003.47	1	40.593575	17.116091
309	2024-01-13 20:00:00	25	massafra	5.68	1	59.61	1	0.0	1	null	6	null	6	0.0	1	1003.58	1	40.593575	17.116091
310	2024-01-13 21:00:00	25	massafra	5.42	1	63.79	1	0.0	1	null	6	null	6	0.0	1	1003.55	1	40.593575	17.116091
311	2024-01-13 22:00:00	25	massafra	5.05	1	67.07	1	0.0	1	null	6	null	6	0.0	1	1003.48	1	40.593575	17.116091
312	2024-01-13 23:00:00	25	massafra	4.93	1	67.72	1	0.0	1	null	6	null	6	0.0	1	1003.41	1	40.593575	17.116091
313	2024-01-14 00:00:00	25	massafra	4.37	1	68.59	1	0.0	1	null	6	null	6	0.0	1	1003.17	1	40.593575	17.116091
314	2024-01-14 01:00:00	25	massafra	4.46	1	70.64	1	0.0	1	null	6	null	6	0.0	1	1002.77	1	40.593575	17.116091
315	2024-01-14 02:00:00	25	massafra	3.81	1	70.31	1	0.0	1	null	6	null	6	0.0	1	1002.43	1	40.593575	17.116091
316	2024-01-14 03:00:00	25	massafra	3.39	1	69.86	1	0.0	1	null	6	null	6	0.0	1	1002.06	1	40.593575	17.116091
317	2024-01-14 04:00:00	25	massafra	3.62	1	66.39	1	0.0	1	null	6	null	6	0.0	1	1001.34	1	40.593575	17.116091
318	2024-01-14 05:00:00	25	massafra	2.97	1	63.14	1	0.0	1	null	6	null	6	0.0	1	1000.97	1	40.593575	17.116091
319	2024-01-14 06:00:00	25	massafra	2.67	1	61.31	1	0.0	1	null	6	null	6	0.0	1	1000.96	1	40.593575	17.116091
320	2024-01-14 07:00:00	25	massafra	2.41	1	60.71	1	0.0	1	null	6	null	6	0.0	1	1000.97	1	40.593575	17.116091
321	2024-01-14 08:00:00	25	massafra	2.67	1	60.38	1	0.0	1	null	6	null	6	6.23	1	1001.07	1	40.593575	17.116091
322	2024-01-14 09:00:00	25	massafra	6.21	1	52.19	1	0.0	1	null	6	null	6	158.22	1	1001.06	1	40.593575	17.116091
323	2024-01-14 10:00:00	25	massafra	9.73	1	41.07	1	0.0	1	null	6	null	6	263.86	1	1000.94	1	40.593575	17.116091
324	2024-01-14 11:00:00	25	massafra	10.41	1	37.95	1	0.0	1	null	6	null	6	196.71	1	1001.08	1	40.593575	17.116091
325	2024-01-14 12:00:00	25	massafra	10.41	1	41.9	1	0.0	1	null	6	null	6	173.81	1	1000.58	1	40.593575	17.116091
326	2024-01-14 13:00:00	25	massafra	11.19	1	43.66	1	0.0	1	null	6	null	6	228.77	1	999.62	1	40.593575	17.116091
327	2024-01-14 14:00:00	25	massafra	12.28	1	38.79	1	0.0	1	null	6	null	6	332.71	1	998.84	1	40.593575	17.116091
328	2024-01-14 15:00:00	25	massafra	12.57	1	44.53	1	0.0	1	null	6	null	6	168.34	1	998.33	1	40.593575	17.116091
329	2024-01-14 16:00:00	25	massafra	11.67	1	51.07	1	0.0	1	null	6	null	6	26.45	1	998.08	1	40.593575	17.116091
330	2024-01-14 17:00:00	25	massafra	11.07	1	57.74	1	0.0	1	null	6	null	6	5.27	1	997.79	1	40.593575	17.116091
331	2024-01-14 18:00:00	25	massafra	10.52	1	63.69	1	0.0	1	null	6	null	6	0.0	1	997.33	1	40.593575	17.116091
332	2024-01-14 19:00:00	25	massafra	10.32	1	64.37	1	0.0	1	null	6	null	6	0.0	1	997.06	1	40.593575	17.116091
333	2024-01-14 20:00:00	25	massafra	10.18	1	63.6	1	0.0	1	null	6	null	6	0.0	1	996.81	1	40.593575	17.116091
334	2024-01-14 21:00:00	25	massafra	9.59	1	65.61	1	0.0	1	null	6	null	6	0.0	1	996.62	1	40.593575	17.116091
335	2024-01-14 22:00:00	25	massafra	8.87	1	68.86	1	0.0	1	null	6	null	6	0.0	1	996.21	1	40.593575	17.116091
336	2024-01-14 23:00:00	25	massafra	8.45	1	69.58	1	0.0	1	null	6	null	6	0.0	1	995.74	1	40.593575	17.116091
337	2024-01-15 00:00:00	25	massafra	8.65	1	68.54	1	0.0	1	null	6	null	6	0.0	1	995.31	1	40.593575	17.116091
338	2024-01-15 01:00:00	25	massafra	9.01	1	66.4	1	0.0	1	null	6	null	6	0.0	1	994.59	1	40.593575	17.116091
339	2024-01-15 02:00:00	25	massafra	9.86	1	67.0	1	0.0	1	null	6	null	6	0.0	1	993.69	1	40.593575	17.116091
340	2024-01-15 03:00:00	25	massafra	10.47	1	66.62	1	0.0	1	null	6	null	6	0.0	1	993.16	1	40.593575	17.116091
341	2024-01-15 04:00:00	25	massafra	10.54	1	68.83	1	0.0	1	null	6	null	6	0.0	1	992.38	1	40.593575	17.116091
342	2024-01-15 05:00:00	25	massafra	10.63	1	72.16	1	0.0	1	null	6	null	6	0.0	1	991.43	1	40.593575	17.116091
343	2024-01-15 06:00:00	25	massafra	10.71	1	76.67	1	0.0	1	null	6	null	6	0.0	1	990.73	1	40.593575	17.116091
344	2024-01-15 07:00:00	25	massafra	10.97	1	79.62	1	0.2	1	null	6	null	6	0.0	1	990.23	1	40.593575	17.116091
345	2024-01-15 08:00:00	25	massafra	11.43	1	81.63	1	0.0	1	null	6	null	6	0.0	5	989.7	1	40.593575	17.116091
346	2024-01-15 09:00:00	25	massafra	12.0	1	74.84	1	0.0	1	null	6	null	6	27.16	1	989.19	1	40.593575	17.116091
347	2024-01-15 10:00:00	25	massafra	12.47	1	69.16	1	0.6	1	null	6	null	6	33.19	1	989.2	1	40.593575	17.116091
348	2024-01-15 11:00:00	25	massafra	12.63	1	76.02	1	0.6	1	null	6	null	6	81.4	1	988.8	1	40.593575	17.116091
349	2024-01-15 12:00:00	25	massafra	13.19	1	81.51	1	0.6	1	null	6	null	6	114.48	1	987.87	1	40.593575	17.116091
350	2024-01-15 13:00:00	25	massafra	14.35	1	78.38	1	0.0	1	null	6	null	6	269.0	1	986.84	1	40.593575	17.116091
351	2024-01-15 14:00:00	25	massafra	14.63	1	67.7	1	0.0	1	null	6	null	6	186.9	1	985.87	1	40.593575	17.116091
352	2024-01-15 15:00:00	25	massafra	14.45	1	68.77	1	0.0	1	null	6	null	6	117.37	1	985.7	1	40.593575	17.116091
353	2024-01-15 16:00:00	25	massafra	14.15	1	70.95	1	0.0	1	null	6	null	6	42.13	1	985.53	1	40.593575	17.116091
354	2024-01-15 17:00:00	25	massafra	13.88	1	72.99	1	0.0	1	null	6	null	6	20.9	1	985.52	1	40.593575	17.116091
355	2024-01-15 18:00:00	25	massafra	12.35	1	78.63	1	0.0	1	null	6	null	6	0.0	1	985.68	1	40.593575	17.116091
356	2024-01-15 19:00:00	25	massafra	11.6	1	82.49	1	0.0	1	null	6	null	6	0.0	1	986.15	1	40.593575	17.116091
357	2024-01-15 20:00:00	25	massafra	11.37	1	83.08	1	0.0	1	null	6	null	6	0.0	1	986.15	1	40.593575	17.116091
358	2024-01-15 21:00:00	25	massafra	10.9	1	83.68	1	0.0	1	null	6	null	6	0.0	1	986.22	1	40.593575	17.116091
359	2024-01-15 22:00:00	25	massafra	10.5	1	83.56	1	0.0	1	null	6	null	6	0.0	1	986.48	1	40.593575	17.116091
360	2024-01-15 23:00:00	25	massafra	9.64	1	82.36	1	0.0	1	null	6	null	6	0.0	1	986.66	1	40.593575	17.116091
361	2024-01-16 00:00:00	25	massafra	8.8	1	82.28	1	0.0	1	null	6	null	6	0.0	1	986.84	1	40.593575	17.116091
362	2024-01-16 01:00:00	25	massafra	8.6	1	82.18	1	0.0	1	null	6	null	6	0.0	1	987.05	1	40.593575	17.116091
363	2024-01-16 02:00:00	25	massafra	8.23	1	81.59	1	0.0	1	null	6	null	6	0.0	1	987.48	1	40.593575	17.116091
364	2024-01-16 03:00:00	25	massafra	8.06	1	79.06	1	0.0	1	null	6	null	6	0.0	1	987.95	1	40.593575	17.116091
365	2024-01-16 04:00:00	25	massafra	8.97	1	77.86	1	0.0	1	null	6	null	6	0.0	1	987.94	1	40.593575	17.116091
366	2024-01-16 05:00:00	25	massafra	8.89	1	76.51	1	0.0	1	null	6	null	6	0.0	1	988.55	1	40.593575	17.116091
367	2024-01-16 06:00:00	25	massafra	8.69	1	78.37	1	0.0	1	null	6	null	6	0.0	1	989.2	1	40.593575	17.116091
368	2024-01-16 07:00:00	25	massafra	8.96	1	76.91	1	0.0	1	null	6	null	6	0.0	1	990.08	1	40.593575	17.116091
369	2024-01-16 08:00:00	25	massafra	9.13	1	76.44	1	0.0	1	null	6	null	6	7.48	1	990.75	1	40.593575	17.116091
370	2024-01-16 09:00:00	25	massafra	11.65	1	69.16	1	0.0	1	null	6	null	6	147.6	1	991.69	1	40.593575	17.116091
371	2024-01-16 10:00:00	25	massafra	14.69	1	54.97	1	0.0	1	null	6	null	6	252.51	1	992.46	1	40.593575	17.116091
372	2024-01-16 11:00:00	25	massafra	16.39	1	53.16	1	0.0	1	null	6	null	6	391.91	1	992.93	1	40.593575	17.116091
373	2024-01-16 12:00:00	25	massafra	18.06	1	48.27	1	0.0	1	null	6	null	6	450.95	1	992.83	1	40.593575	17.116091
374	2024-01-16 13:00:00	25	massafra	19.72	1	38.63	1	0.0	1	null	6	null	6	459.6	1	992.55	1	40.593575	17.116091
375	2024-01-16 14:00:00	25	massafra	19.72	1	33.15	1	0.0	1	null	6	null	6	380.82	1	992.43	1	40.593575	17.116091
376	2024-01-16 15:00:00	25	massafra	18.41	1	43.91	1	0.0	1	null	6	null	6	143.06	1	992.46	1	40.593575	17.116091
377	2024-01-16 16:00:00	25	massafra	16.75	1	49.43	1	0.0	1	null	6	null	6	56.13	1	993.18	1	40.593575	17.116091
378	2024-01-16 17:00:00	25	massafra	15.25	1	62.89	1	0.0	1	null	6	null	6	10.06	1	994.17	1	40.593575	17.116091
379	2024-01-16 18:00:00	25	massafra	14.1	1	65.16	1	0.0	1	null	6	null	6	0.0	1	994.63	1	40.593575	17.116091
380	2024-01-16 19:00:00	25	massafra	13.64	1	61.77	1	0.0	1	null	6	null	6	0.0	1	995.03	1	40.593575	17.116091
381	2024-01-16 20:00:00	25	massafra	12.64	1	65.09	1	0.0	1	null	6	null	6	0.0	1	995.25	1	40.593575	17.116091
382	2024-01-16 21:00:00	25	massafra	12.28	1	67.66	1	0.0	1	null	6	null	6	0.0	1	995.34	1	40.593575	17.116091
383	2024-01-16 22:00:00	25	massafra	11.98	1	72.73	1	0.0	1	null	6	null	6	0.0	1	995.88	1	40.593575	17.116091
384	2024-01-16 23:00:00	25	massafra	11.34	1	75.09	1	0.0	1	null	6	null	6	0.0	1	996.27	1	40.593575	17.116091
385	2024-01-17 00:00:00	25	massafra	11.31	1	82.16	1	0.0	1	null	6	null	6	0.0	1	996.16	1	40.593575	17.116091
386	2024-01-17 01:00:00	25	massafra	10.82	1	84.32	1	0.0	1	null	6	null	6	0.0	1	995.65	1	40.593575	17.116091
387	2024-01-17 02:00:00	25	massafra	9.86	1	83.54	1	0.0	1	null	6	null	6	0.0	1	995.83	1	40.593575	17.116091
388	2024-01-17 03:00:00	25	massafra	9.43	1	82.86	1	0.0	1	null	6	null	6	0.0	1	996.36	1	40.593575	17.116091
389	2024-01-17 04:00:00	25	massafra	9.46	1	81.52	1	0.0	1	null	6	null	6	0.0	1	996.37	1	40.593575	17.116091
390	2024-01-17 05:00:00	25	massafra	9.6	1	80.91	1	0.0	1	null	6	null	6	0.0	1	995.97	1	40.593575	17.116091
391	2024-01-17 06:00:00	25	massafra	10.28	1	80.51	1	0.0	1	null	6	null	6	0.0	1	995.97	1	40.593575	17.116091
392	2024-01-17 07:00:00	25	massafra	10.65	1	80.71	1	0.0	1	null	6	null	6	0.0	1	996.3	1	40.593575	17.116091
393	2024-01-17 08:00:00	25	massafra	10.68	1	83.7	1	0.0	1	null	6	null	6	17.35	1	996.91	1	40.593575	17.116091
394	2024-01-17 09:00:00	25	massafra	12.25	1	80.45	1	0.0	1	null	6	null	6	118.95	1	997.13	1	40.593575	17.116091
395	2024-01-17 10:00:00	25	massafra	15.19	1	66.18	1	0.0	1	null	6	null	6	203.54	1	996.99	1	40.593575	17.116091
396	2024-01-17 11:00:00	25	massafra	17.37	1	53.81	1	0.0	1	null	6	null	6	316.75	1	996.74	1	40.593575	17.116091
397	2024-01-17 12:00:00	25	massafra	17.16	1	56.34	1	0.0	1	null	6	null	6	192.9	1	996.23	1	40.593575	17.116091
398	2024-01-17 13:00:00	25	massafra	16.54	1	61.96	1	0.0	1	null	6	null	6	174.28	1	995.67	1	40.593575	17.116091
399	2024-01-17 14:00:00	25	massafra	17.12	1	55.97	1	0.0	1	null	6	null	6	157.04	1	994.94	1	40.593575	17.116091
400	2024-01-17 15:00:00	25	massafra	16.75	1	61.0	1	0.0	1	null	6	null	6	94.19	1	994.43	1	40.593575	17.116091
401	2024-01-17 16:00:00	25	massafra	15.83	1	68.17	1	0.0	1	null	6	null	6	35.6	1	994.23	1	40.593575	17.116091
402	2024-01-17 17:00:00	25	massafra	15.3	1	68.75	1	0.0	1	null	6	null	6	6.34	1	994.35	1	40.593575	17.116091
403	2024-01-17 18:00:00	25	massafra	15.03	1	71.67	1	0.4	1	null	6	null	6	0.0	1	994.77	1	40.593575	17.116091
404	2024-01-17 19:00:00	25	massafra	14.53	1	80.28	1	0.2	1	null	6	null	6	0.0	1	995.15	1	40.593575	17.116091
405	2024-01-17 20:00:00	25	massafra	13.99	1	85.35	1	0.0	1	null	6	null	6	0.0	1	994.65	1	40.593575	17.116091
406	2024-01-17 21:00:00	25	massafra	14.06	1	86.25	1	0.2	1	null	6	null	6	0.0	1	994.49	1	40.593575	17.116091
407	2024-01-17 22:00:00	25	massafra	14.34	1	84.52	1	0.0	1	null	6	null	6	0.0	1	994.21	1	40.593575	17.116091
408	2024-01-17 23:00:00	25	massafra	14.2	1	85.0	1	0.0	1	null	6	null	6	0.0	1	993.59	1	40.593575	17.116091
409	2024-01-18 00:00:00	25	massafra	13.88	1	86.45	1	0.0	1	null	6	null	6	0.0	1	993.03	1	40.593575	17.116091
410	2024-01-18 01:00:00	25	massafra	13.89	1	89.08	1	0.0	1	null	6	null	6	0.0	1	992.3	1	40.593575	17.116091
411	2024-01-18 02:00:00	25	massafra	13.92	1	91.03	1	0.0	1	null	6	null	6	0.0	1	992.32	1	40.593575	17.116091
412	2024-01-18 03:00:00	25	massafra	13.99	1	92.83	1	0.0	1	null	6	null	6	0.0	1	991.23	1	40.593575	17.116091
413	2024-01-18 04:00:00	25	massafra	14.08	1	94.38	1	0.0	1	null	6	null	6	0.0	1	990.56	1	40.593575	17.116091
414	2024-01-18 05:00:00	25	massafra	13.57	1	94.9	1	0.0	1	null	6	null	6	0.0	1	989.97	1	40.593575	17.116091
415	2024-01-18 06:00:00	25	massafra	13.34	1	95.53	1	0.0	1	null	6	null	6	0.0	1	989.09	1	40.593575	17.116091
416	2024-01-18 07:00:00	25	massafra	12.94	1	95.33	1	0.0	1	null	6	null	6	0.0	1	989.33	1	40.593575	17.116091
417	2024-01-18 08:00:00	25	massafra	12.51	1	94.8	1	0.2	1	null	6	null	6	8.91	1	989.38	1	40.593575	17.116091
418	2024-01-18 09:00:00	25	massafra	14.27	1	89.38	1	0.0	1	null	6	null	6	146.52	1	988.86	1	40.593575	17.116091
419	2024-01-18 10:00:00	25	massafra	17.67	1	62.96	1	0.0	1	null	6	null	6	254.38	1	988.75	1	40.593575	17.116091
420	2024-01-18 11:00:00	25	massafra	19.71	1	52.73	1	0.0	1	null	6	null	6	380.78	1	989.12	1	40.593575	17.116091
421	2024-01-18 12:00:00	25	massafra	20.94	1	47.88	1	0.0	1	null	6	null	6	428.7	1	988.47	1	40.593575	17.116091
422	2024-01-18 13:00:00	25	massafra	21.71	1	44.48	1	0.0	1	null	6	null	6	462.96	1	987.58	1	40.593575	17.116091
423	2024-01-18 14:00:00	25	massafra	21.94	1	42.68	1	0.0	1	null	6	null	6	398.02	1	987.17	1	40.593575	17.116091
424	2024-01-18 15:00:00	25	massafra	21.48	1	43.27	1	0.0	1	null	6	null	6	157.64	1	987.25	1	40.593575	17.116091
425	2024-01-18 16:00:00	25	massafra	19.77	1	47.76	1	0.0	1	null	6	null	6	55.23	1	987.8	1	40.593575	17.116091
426	2024-01-18 17:00:00	25	massafra	18.59	1	48.35	1	0.0	1	null	6	null	6	17.14	1	988.42	1	40.593575	17.116091
427	2024-01-18 18:00:00	25	massafra	16.94	1	53.32	1	0.0	1	null	6	null	6	0.0	1	988.88	1	40.593575	17.116091
428	2024-01-18 19:00:00	25	massafra	16.45	1	52.84	1	0.0	1	null	6	null	6	0.0	1	989.12	1	40.593575	17.116091
429	2024-01-18 20:00:00	25	massafra	15.6	1	55.98	1	0.0	1	null	6	null	6	0.0	1	989.38	1	40.593575	17.116091
430	2024-01-18 21:00:00	25	massafra	15.06	1	60.26	1	0.0	1	null	6	null	6	0.0	1	989.55	1	40.593575	17.116091
431	2024-01-18 22:00:00	25	massafra	14.65	1	58.85	1	0.0	1	null	6	null	6	0.0	1	989.94	1	40.593575	17.116091
432	2024-01-18 23:00:00	25	massafra	14.05	1	57.12	1	0.0	1	null	6	null	6	0.0	1	990.03	1	40.593575	17.116091
433	2024-01-19 00:00:00	25	massafra	12.65	1	61.91	1	0.0	1	null	6	null	6	0.0	1	990.3	1	40.593575	17.116091
434	2024-01-19 01:00:00	25	massafra	11.93	1	63.15	1	0.0	1	null	6	null	6	0.0	1	990.29	1	40.593575	17.116091
435	2024-01-19 02:00:00	25	massafra	11.77	1	61.66	1	0.0	1	null	6	null	6	0.0	1	990.38	1	40.593575	17.116091
436	2024-01-19 03:00:00	25	massafra	11.28	1	61.78	1	0.0	1	null	6	null	6	0.0	1	990.49	1	40.593575	17.116091
437	2024-01-19 04:00:00	25	massafra	11.21	1	63.62	1	0.0	1	null	6	null	6	0.0	1	990.92	1	40.593575	17.116091
438	2024-01-19 05:00:00	25	massafra	11.23	1	64.24	1	0.0	1	null	6	null	6	0.0	1	990.91	1	40.593575	17.116091
439	2024-01-19 06:00:00	25	massafra	12.78	1	56.83	1	0.0	1	null	6	null	6	0.0	1	991.07	1	40.593575	17.116091
440	2024-01-19 07:00:00	25	massafra	11.47	1	61.65	1	0.0	1	null	6	null	6	0.0	1	991.66	1	40.593575	17.116091
441	2024-01-19 08:00:00	25	massafra	12.46	1	57.0	1	0.0	1	null	6	null	6	10.9	1	992.07	1	40.593575	17.116091
442	2024-01-19 09:00:00	25	massafra	14.52	1	53.49	1	0.0	1	null	6	null	6	124.09	1	992.43	1	40.593575	17.116091
443	2024-01-19 10:00:00	25	massafra	16.83	1	49.4	1	0.0	1	null	6	null	6	198.99	1	992.38	1	40.593575	17.116091
444	2024-01-19 11:00:00	25	massafra	18.82	1	49.39	1	0.0	1	null	6	null	6	349.03	1	992.89	1	40.593575	17.116091
445	2024-01-19 12:00:00	25	massafra	19.65	1	49.82	1	0.0	1	null	6	null	6	325.93	1	992.87	1	40.593575	17.116091
446	2024-01-19 13:00:00	25	massafra	18.42	1	55.19	1	0.0	1	null	6	null	6	179.42	1	992.68	1	40.593575	17.116091
447	2024-01-19 14:00:00	25	massafra	17.67	1	59.21	1	0.0	1	null	6	null	6	102.36	1	991.97	1	40.593575	17.116091
448	2024-01-19 15:00:00	25	massafra	17.22	1	60.46	1	0.0	1	null	6	null	6	57.68	1	992.05	1	40.593575	17.116091
449	2024-01-19 16:00:00	25	massafra	17.07	1	60.79	1	0.0	1	null	6	null	6	68.35	1	992.15	1	40.593575	17.116091
450	2024-01-19 17:00:00	25	massafra	17.1	1	58.69	1	0.0	1	null	6	null	6	21.8	1	992.27	1	40.593575	17.116091
451	2024-01-19 18:00:00	25	massafra	16.14	1	60.99	1	0.0	1	null	6	null	6	0.0	1	992.55	1	40.593575	17.116091
452	2024-01-19 19:00:00	25	massafra	15.44	1	60.18	1	0.0	1	null	6	null	6	0.0	1	992.76	1	40.593575	17.116091
453	2024-01-19 20:00:00	25	massafra	15.12	1	60.34	1	0.0	1	null	6	null	6	0.0	1	992.95	1	40.593575	17.116091
454	2024-01-19 21:00:00	25	massafra	14.76	1	60.58	1	0.0	1	null	6	null	6	0.0	1	993.34	1	40.593575	17.116091
455	2024-01-19 22:00:00	25	massafra	13.67	1	66.01	1	0.0	1	null	6	null	6	0.0	1	993.57	1	40.593575	17.116091
456	2024-01-19 23:00:00	25	massafra	14.01	1	64.77	1	0.0	1	null	6	null	6	0.0	1	993.91	1	40.593575	17.116091
457	2024-01-20 00:00:00	25	massafra	14.06	1	64.3	1	0.0	1	null	6	null	6	0.0	1	993.92	1	40.593575	17.116091
458	2024-01-20 01:00:00	25	massafra	14.1	1	64.01	1	0.0	1	null	6	null	6	0.0	1	993.87	1	40.593575	17.116091
459	2024-01-20 02:00:00	25	massafra	14.4	1	62.08	1	0.0	1	null	6	null	6	0.0	1	994.09	1	40.593575	17.116091
460	2024-01-20 03:00:00	25	massafra	13.23	1	68.62	1	0.0	1	null	6	null	6	0.0	1	994.35	1	40.593575	17.116091
461	2024-01-20 04:00:00	25	massafra	12.27	1	69.75	1	0.0	1	null	6	null	6	0.0	1	994.48	1	40.593575	17.116091
462	2024-01-20 05:00:00	25	massafra	11.35	1	72.31	1	0.0	1	null	6	null	6	0.0	1	994.77	1	40.593575	17.116091
463	2024-01-20 06:00:00	25	massafra	10.23	1	67.96	1	0.0	1	null	6	null	6	0.0	1	995.54	1	40.593575	17.116091
464	2024-01-20 07:00:00	25	massafra	9.95	1	64.57	1	0.0	1	null	6	null	6	0.0	1	996.29	1	40.593575	17.116091
465	2024-01-20 08:00:00	25	massafra	9.64	1	66.14	1	0.0	1	null	6	null	6	0.0	5	997.22	1	40.593575	17.116091
466	2024-01-20 09:00:00	25	massafra	9.05	1	71.05	1	0.0	1	null	6	null	6	18.35	1	998.07	1	40.593575	17.116091
467	2024-01-20 10:00:00	25	massafra	8.43	1	72.33	1	0.2	1	null	6	null	6	47.8	1	998.95	1	40.593575	17.116091
468	2024-01-20 11:00:00	25	massafra	8.25	1	70.23	1	0.0	1	null	6	null	6	116.3	1	999.66	1	40.593575	17.116091
469	2024-01-20 12:00:00	25	massafra	7.34	1	66.81	1	0.0	1	null	6	null	6	111.29	1	999.41	1	40.593575	17.116091
470	2024-01-20 13:00:00	25	massafra	6.75	1	68.0	1	0.0	1	null	6	null	6	94.52	1	999.69	1	40.593575	17.116091
471	2024-01-20 14:00:00	25	massafra	6.91	1	65.56	1	0.0	1	null	6	null	6	81.44	1	999.49	1	40.593575	17.116091
472	2024-01-20 15:00:00	25	massafra	6.74	1	68.67	1	0.4	1	null	6	null	6	57.87	1	999.95	1	40.593575	17.116091
473	2024-01-20 16:00:00	25	massafra	6.4	1	69.04	1	0.0	1	null	6	null	6	30.66	1	1000.84	1	40.593575	17.116091
474	2024-01-20 17:00:00	25	massafra	7.03	1	64.06	1	0.0	1	null	6	null	6	13.58	1	1001.08	1	40.593575	17.116091
475	2024-01-20 18:00:00	25	massafra	7.29	1	60.25	1	0.0	1	null	6	null	6	0.0	1	1001.7	1	40.593575	17.116091
476	2024-01-20 19:00:00	25	massafra	7.32	1	58.13	1	0.0	1	null	6	null	6	0.0	1	1002.32	1	40.593575	17.116091
477	2024-01-20 20:00:00	25	massafra	7.47	1	49.55	1	0.0	1	null	6	null	6	0.0	1	1002.72	1	40.593575	17.116091
478	2024-01-20 21:00:00	25	massafra	7.32	1	48.32	1	0.0	1	null	6	null	6	0.0	1	1003.08	1	40.593575	17.116091
479	2024-01-20 22:00:00	25	massafra	7.05	1	49.98	1	0.0	1	null	6	null	6	0.0	1	1003.34	1	40.593575	17.116091
480	2024-01-20 23:00:00	25	massafra	6.96	1	50.25	1	0.0	1	null	6	null	6	0.0	1	1003.59	1	40.593575	17.116091
481	2024-01-21 00:00:00	25	massafra	6.26	1	51.2	1	0.0	1	null	6	null	6	0.0	1	1003.87	1	40.593575	17.116091
482	2024-01-21 01:00:00	25	massafra	5.67	1	51.25	1	0.0	1	null	6	null	6	0.0	1	1004.19	1	40.593575	17.116091
483	2024-01-21 02:00:00	25	massafra	5.5	1	46.55	1	0.0	1	null	6	null	6	0.0	1	1004.64	1	40.593575	17.116091
484	2024-01-21 03:00:00	25	massafra	4.75	1	48.77	1	0.0	1	null	6	null	6	0.0	1	1005.09	1	40.593575	17.116091
485	2024-01-21 04:00:00	25	massafra	4.8	1	47.87	1	0.0	1	null	6	null	6	0.0	1	1004.7	1	40.593575	17.116091
486	2024-01-21 05:00:00	25	massafra	5.25	1	45.05	1	0.0	1	null	6	null	6	0.0	1	1004.96	1	40.593575	17.116091
487	2024-01-21 06:00:00	25	massafra	4.7	1	48.16	1	0.0	1	null	6	null	6	0.0	1	1005.61	1	40.593575	17.116091
488	2024-01-21 07:00:00	25	massafra	4.3	1	49.68	1	0.0	1	null	6	null	6	0.0	1	1006.21	1	40.593575	17.116091
489	2024-01-21 08:00:00	25	massafra	4.15	1	51.2	1	0.0	1	null	6	null	6	7.34	1	1007.04	1	40.593575	17.116091
490	2024-01-21 09:00:00	25	massafra	5.83	1	48.84	1	0.0	1	null	6	null	6	132.12	1	1007.57	1	40.593575	17.116091
491	2024-01-21 10:00:00	25	massafra	8.34	1	42.46	1	0.0	1	null	6	null	6	233.82	1	1007.99	1	40.593575	17.116091
492	2024-01-21 11:00:00	25	massafra	10.18	1	38.64	1	0.0	1	null	6	null	6	423.44	1	1008.25	1	40.593575	17.116091
493	2024-01-21 12:00:00	25	massafra	11.31	1	38.15	1	0.0	1	null	6	null	6	435.53	1	1008.49	1	40.593575	17.116091
494	2024-01-21 13:00:00	25	massafra	11.7	1	35.24	1	0.0	1	null	6	null	6	430.15	1	1008.61	1	40.593575	17.116091
495	2024-01-21 14:00:00	25	massafra	12.35	1	30.64	1	0.0	1	null	6	null	6	419.39	1	1008.35	1	40.593575	17.116091
496	2024-01-21 15:00:00	25	massafra	11.73	1	33.38	1	0.0	1	null	6	null	6	201.2	1	1008.55	1	40.593575	17.116091
497	2024-01-21 16:00:00	25	massafra	10.83	1	35.06	1	0.0	1	null	6	null	6	34.23	1	1009.18	1	40.593575	17.116091
498	2024-01-21 17:00:00	25	massafra	10.14	1	35.95	1	0.0	1	null	6	null	6	10.86	1	1009.93	1	40.593575	17.116091
499	2024-01-21 18:00:00	25	massafra	8.68	1	42.98	1	0.0	1	null	6	null	6	0.0	1	1010.56	1	40.593575	17.116091
500	2024-01-21 19:00:00	25	massafra	7.44	1	46.78	1	0.0	1	null	6	null	6	0.0	1	1011.34	1	40.593575	17.116091
501	2024-01-21 20:00:00	25	massafra	7.78	1	44.32	1	0.0	1	null	6	null	6	0.0	1	1011.71	1	40.593575	17.116091
502	2024-01-21 21:00:00	25	massafra	9.25	1	36.23	1	0.0	1	null	6	null	6	0.0	1	1011.92	1	40.593575	17.116091
503	2024-01-21 22:00:00	25	massafra	6.91	1	42.73	1	0.0	1	null	6	null	6	0.0	1	1012.38	1	40.593575	17.116091
504	2024-01-21 23:00:00	25	massafra	6.1	1	45.33	1	0.0	1	null	6	null	6	0.0	1	1012.92	1	40.593575	17.116091
505	2024-01-22 00:00:00	25	massafra	6.01	1	50.05	1	0.0	1	null	6	null	6	0.0	1	1013.02	1	40.593575	17.116091
506	2024-01-22 01:00:00	25	massafra	5.87	1	52.74	1	0.0	1	null	6	null	6	0.0	1	1013.02	1	40.593575	17.116091
507	2024-01-22 02:00:00	25	massafra	6.04	1	54.43	1	0.0	1	null	6	null	6	0.0	1	1013.03	1	40.593575	17.116091
508	2024-01-22 03:00:00	25	massafra	6.49	1	54.05	1	0.0	1	null	6	null	6	0.0	1	1013.02	1	40.593575	17.116091
509	2024-01-22 04:00:00	25	massafra	6.24	1	54.8	1	0.0	1	null	6	null	6	0.0	1	1013.12	1	40.593575	17.116091
510	2024-01-22 05:00:00	25	massafra	6.79	1	52.87	1	0.0	1	null	6	null	6	0.0	1	1013.15	1	40.593575	17.116091
511	2024-01-22 06:00:00	25	massafra	6.98	1	52.93	1	0.0	1	null	6	null	6	0.0	1	1013.3	1	40.593575	17.116091
512	2024-01-22 07:00:00	25	massafra	6.54	1	56.57	1	0.0	1	null	6	null	6	0.0	1	1013.59	1	40.593575	17.116091
513	2024-01-22 08:00:00	25	massafra	6.61	1	56.76	1	0.0	1	null	6	null	6	8.47	1	1013.83	1	40.593575	17.116091
514	2024-01-22 09:00:00	25	massafra	8.58	1	52.19	1	0.0	1	null	6	null	6	174.4	1	1014.23	1	40.593575	17.116091
515	2024-01-22 10:00:00	25	massafra	11.47	1	42.9	1	0.0	1	null	6	null	6	321.21	1	1014.56	1	40.593575	17.116091
516	2024-01-22 11:00:00	25	massafra	12.69	1	36.44	1	0.0	1	null	6	null	6	433.4	1	1014.73	1	40.593575	17.116091
517	2024-01-22 12:00:00	25	massafra	13.79	1	34.22	1	0.0	1	null	6	null	6	488.67	1	1014.39	1	40.593575	17.116091
518	2024-01-22 13:00:00	25	massafra	14.62	1	32.92	1	0.0	1	null	6	null	6	487.44	1	1013.82	1	40.593575	17.116091
519	2024-01-22 14:00:00	25	massafra	14.99	1	31.52	1	0.0	1	null	6	null	6	431.63	1	1013.28	1	40.593575	17.116091
520	2024-01-22 15:00:00	25	massafra	14.38	1	32.74	1	0.0	1	null	6	null	6	209.52	1	1012.86	1	40.593575	17.116091
521	2024-01-22 16:00:00	25	massafra	13.25	1	35.07	1	0.0	1	null	6	null	6	33.61	1	1012.6	1	40.593575	17.116091
522	2024-01-22 17:00:00	25	massafra	12.37	1	40.15	1	0.0	1	null	6	null	6	10.87	1	1012.32	1	40.593575	17.116091
523	2024-01-22 18:00:00	25	massafra	10.13	1	49.25	1	0.0	1	null	6	null	6	0.0	1	1012.22	1	40.593575	17.116091
524	2024-01-22 19:00:00	25	massafra	8.66	1	56.86	1	0.0	1	null	6	null	6	0.0	1	1012.26	1	40.593575	17.116091
525	2024-01-22 20:00:00	25	massafra	7.89	1	59.69	1	0.0	1	null	6	null	6	0.0	1	1012.28	1	40.593575	17.116091
526	2024-01-22 21:00:00	25	massafra	7.01	1	61.45	1	0.0	1	null	6	null	6	0.0	1	1012.17	1	40.593575	17.116091
527	2024-01-22 22:00:00	25	massafra	6.06	1	63.77	1	0.0	1	null	6	null	6	0.0	1	1011.91	1	40.593575	17.116091
528	2024-01-22 23:00:00	25	massafra	5.65	1	62.8	1	0.0	1	null	6	null	6	0.0	1	1011.64	1	40.593575	17.116091
529	2024-01-23 00:00:00	25	massafra	5.68	1	57.53	1	0.0	1	null	6	null	6	0.0	1	1011.17	1	40.593575	17.116091
530	2024-01-23 01:00:00	25	massafra	5.65	1	54.51	1	0.0	1	null	6	null	6	0.0	1	1010.66	1	40.593575	17.116091
531	2024-01-23 02:00:00	25	massafra	5.38	1	58.05	1	0.0	1	null	6	null	6	0.0	1	1010.0	1	40.593575	17.116091
532	2024-01-23 03:00:00	25	massafra	5.45	1	63.47	1	0.0	1	null	6	null	6	0.0	1	1009.66	1	40.593575	17.116091
533	2024-01-23 04:00:00	25	massafra	5.13	1	63.63	1	0.0	1	null	6	null	6	0.0	1	1009.16	1	40.593575	17.116091
534	2024-01-23 05:00:00	25	massafra	5.12	1	59.29	1	0.0	1	null	6	null	6	0.0	1	1008.76	1	40.593575	17.116091
535	2024-01-23 06:00:00	25	massafra	5.63	1	54.08	1	0.0	1	null	6	null	6	0.0	1	1008.95	1	40.593575	17.116091
536	2024-01-23 07:00:00	25	massafra	6.02	1	51.12	1	0.0	1	null	6	null	6	0.0	1	1009.02	1	40.593575	17.116091
537	2024-01-23 08:00:00	25	massafra	6.45	1	50.42	1	0.0	1	null	6	null	6	10.93	1	1009.09	1	40.593575	17.116091
538	2024-01-23 09:00:00	25	massafra	8.52	1	47.38	1	0.0	1	null	6	null	6	108.51	1	1008.97	1	40.593575	17.116091
539	2024-01-23 10:00:00	25	massafra	10.72	1	42.82	1	0.0	1	null	6	null	6	257.78	1	1009.04	1	40.593575	17.116091
540	2024-01-23 11:00:00	25	massafra	12.25	1	37.49	1	0.0	1	null	6	null	6	193.25	1	1009.02	1	40.593575	17.116091
541	2024-01-23 12:00:00	25	massafra	12.17	1	43.07	1	0.0	1	null	6	null	6	181.4	1	1008.97	1	40.593575	17.116091
542	2024-01-23 13:00:00	25	massafra	12.56	1	45.32	1	0.0	1	null	6	null	6	185.88	1	1008.43	1	40.593575	17.116091
543	2024-01-23 14:00:00	25	massafra	12.05	1	50.79	1	0.0	1	null	6	null	6	105.26	1	1008.32	1	40.593575	17.116091
544	2024-01-23 15:00:00	25	massafra	11.52	1	56.63	1	0.0	1	null	6	null	6	157.57	1	1008.32	1	40.593575	17.116091
545	2024-01-23 16:00:00	25	massafra	11.37	1	58.91	1	0.0	1	null	6	null	6	87.8	1	1008.55	1	40.593575	17.116091
546	2024-01-23 17:00:00	25	massafra	10.45	1	65.53	1	0.0	1	null	6	null	6	8.77	1	1008.93	1	40.593575	17.116091
547	2024-01-23 18:00:00	25	massafra	9.98	1	67.12	1	0.0	1	null	6	null	6	0.0	1	1009.22	1	40.593575	17.116091
548	2024-01-23 19:00:00	25	massafra	9.91	1	67.46	1	0.0	1	null	6	null	6	0.0	1	1009.68	1	40.593575	17.116091
549	2024-01-23 20:00:00	25	massafra	9.99	1	65.15	1	0.0	1	null	6	null	6	0.0	1	1010.48	1	40.593575	17.116091
550	2024-01-23 21:00:00	25	massafra	9.87	1	64.66	1	0.0	1	null	6	null	6	0.0	1	1010.88	1	40.593575	17.116091
551	2024-01-23 22:00:00	25	massafra	9.21	1	68.36	1	0.0	1	null	6	null	6	0.0	1	1011.04	1	40.593575	17.116091
552	2024-01-23 23:00:00	25	massafra	9.15	1	73.63	1	0.0	1	null	6	null	6	0.0	1	1011.02	1	40.593575	17.116091
553	2024-01-24 00:00:00	25	massafra	9.35	1	73.67	1	0.0	1	null	6	null	6	0.0	1	1011.21	1	40.593575	17.116091
554	2024-01-24 01:00:00	25	massafra	9.0	1	73.57	1	0.0	1	null	6	null	6	0.0	1	1011.21	1	40.593575	17.116091
555	2024-01-24 02:00:00	25	massafra	8.02	1	73.87	1	0.0	1	null	6	null	6	0.0	1	1011.42	1	40.593575	17.116091
556	2024-01-24 03:00:00	25	massafra	7.13	1	68.96	1	0.0	1	null	6	null	6	0.0	1	1011.44	1	40.593575	17.116091
557	2024-01-24 04:00:00	25	massafra	6.52	1	65.67	1	0.0	1	null	6	null	6	0.0	1	1011.5	1	40.593575	17.116091
558	2024-01-24 05:00:00	25	massafra	5.91	1	62.29	1	0.0	1	null	6	null	6	0.0	1	1011.56	1	40.593575	17.116091
559	2024-01-24 06:00:00	25	massafra	6.39	1	59.54	1	0.0	1	null	6	null	6	0.0	1	1011.79	1	40.593575	17.116091
560	2024-01-24 07:00:00	25	massafra	6.55	1	56.55	1	0.0	1	null	6	null	6	0.0	1	1012.09	1	40.593575	17.116091
561	2024-01-24 08:00:00	25	massafra	6.38	1	59.32	1	0.0	1	null	6	null	6	9.09	1	1012.3	1	40.593575	17.116091
562	2024-01-24 09:00:00	25	massafra	8.77	1	53.89	1	0.0	1	null	6	null	6	167.23	1	1012.36	1	40.593575	17.116091
563	2024-01-24 10:00:00	25	massafra	11.66	1	44.9	1	0.0	1	null	6	null	6	321.4	1	1012.45	1	40.593575	17.116091
564	2024-01-24 11:00:00	25	massafra	13.2	1	37.79	1	0.0	1	null	6	null	6	431.24	1	1012.15	1	40.593575	17.116091
565	2024-01-24 12:00:00	25	massafra	14.25	1	33.03	1	0.0	1	null	6	null	6	493.33	1	1011.39	1	40.593575	17.116091
566	2024-01-24 13:00:00	25	massafra	15.35	1	32.25	1	0.0	1	null	6	null	6	539.8	1	1011.55	1	40.593575	17.116091
567	2024-01-24 14:00:00	25	massafra	15.81	1	31.96	1	0.0	1	null	6	null	6	437.75	1	1010.92	1	40.593575	17.116091
568	2024-01-24 15:00:00	25	massafra	15.5	1	28.77	1	0.0	1	null	6	null	6	236.25	1	1010.99	1	40.593575	17.116091
569	2024-01-24 16:00:00	25	massafra	14.83	1	28.5	1	0.0	1	null	6	null	6	39.29	1	1010.65	1	40.593575	17.116091
570	2024-01-24 17:00:00	25	massafra	13.86	1	30.52	1	0.0	1	null	6	null	6	15.87	1	1010.43	1	40.593575	17.116091
571	2024-01-24 18:00:00	25	massafra	12.25	1	38.08	1	0.0	1	null	6	null	6	0.0	1	1009.97	1	40.593575	17.116091
572	2024-01-24 19:00:00	25	massafra	11.07	1	39.37	1	0.0	1	null	6	null	6	0.0	1	1009.94	1	40.593575	17.116091
573	2024-01-24 20:00:00	25	massafra	10.7	1	39.61	1	0.0	1	null	6	null	6	0.0	1	1009.69	1	40.593575	17.116091
574	2024-01-24 21:00:00	25	massafra	11.03	1	37.87	1	0.0	1	null	6	null	6	0.0	1	1009.72	1	40.593575	17.116091
575	2024-01-24 22:00:00	25	massafra	9.66	1	43.89	1	0.0	1	null	6	null	6	0.0	1	1009.83	1	40.593575	17.116091
576	2024-01-24 23:00:00	25	massafra	8.84	1	47.68	1	0.0	1	null	6	null	6	0.0	1	1009.2	1	40.593575	17.116091
577	2024-01-25 00:00:00	25	massafra	9.26	1	46.94	1	0.0	1	null	6	null	6	0.0	1	1008.78	1	40.593575	17.116091
578	2024-01-25 01:00:00	25	massafra	8.75	1	51.24	1	0.0	1	null	6	null	6	0.0	1	1007.97	1	40.593575	17.116091
579	2024-01-25 02:00:00	25	massafra	8.41	1	55.25	1	0.0	1	null	6	null	6	0.0	1	1007.3	1	40.593575	17.116091
580	2024-01-25 03:00:00	25	massafra	8.13	1	57.48	1	0.0	1	null	6	null	6	0.0	1	1007.15	1	40.593575	17.116091
581	2024-01-25 04:00:00	25	massafra	8.04	1	55.98	1	0.0	1	null	6	null	6	0.0	1	1006.44	1	40.593575	17.116091
582	2024-01-25 05:00:00	25	massafra	7.53	1	55.29	1	0.0	1	null	6	null	6	0.0	1	1006.35	1	40.593575	17.116091
583	2024-01-25 06:00:00	25	massafra	7.34	1	51.01	1	0.0	1	null	6	null	6	0.0	1	1006.43	1	40.593575	17.116091
584	2024-01-25 07:00:00	25	massafra	7.3	1	51.72	1	0.0	1	null	6	null	6	0.0	1	1006.66	1	40.593575	17.116091
585	2024-01-25 08:00:00	25	massafra	7.9	1	51.57	1	0.0	1	null	6	null	6	10.62	1	1006.7	1	40.593575	17.116091
586	2024-01-25 09:00:00	25	massafra	10.86	1	48.17	1	0.0	1	null	6	null	6	161.78	1	1006.42	1	40.593575	17.116091
587	2024-01-25 10:00:00	25	massafra	15.02	1	36.27	1	0.0	1	null	6	null	6	318.8	1	1005.86	1	40.593575	17.116091
588	2024-01-25 11:00:00	25	massafra	17.1	1	33.25	1	0.0	1	null	6	null	6	418.74	1	1005.77	1	40.593575	17.116091
589	2024-01-25 12:00:00	25	massafra	18.68	1	26.79	1	0.0	1	null	6	null	6	486.25	1	1005.33	1	40.593575	17.116091
590	2024-01-25 13:00:00	25	massafra	18.91	1	24.46	1	0.0	1	null	6	null	6	483.54	1	1005.16	1	40.593575	17.116091
591	2024-01-25 14:00:00	25	massafra	18.41	1	26.27	1	0.0	1	null	6	null	6	432.14	1	1005.17	1	40.593575	17.116091
592	2024-01-25 15:00:00	25	massafra	17.26	1	32.78	1	0.0	1	null	6	null	6	251.15	1	1005.79	1	40.593575	17.116091
593	2024-01-25 16:00:00	25	massafra	15.57	1	44.93	1	0.0	1	null	6	null	6	47.86	1	1006.16	1	40.593575	17.116091
594	2024-01-25 17:00:00	25	massafra	14.07	1	51.44	1	0.0	1	null	6	null	6	15.13	1	1006.54	1	40.593575	17.116091
595	2024-01-25 18:00:00	25	massafra	12.73	1	56.18	1	0.0	1	null	6	null	6	0.0	1	1007.16	1	40.593575	17.116091
596	2024-01-25 19:00:00	25	massafra	11.67	1	62.82	1	0.0	1	null	6	null	6	0.0	1	1007.0	1	40.593575	17.116091
597	2024-01-25 20:00:00	25	massafra	11.46	1	63.55	1	0.0	1	null	6	null	6	0.0	1	1007.04	1	40.593575	17.116091
598	2024-01-25 21:00:00	25	massafra	11.32	1	59.11	1	0.0	1	null	6	null	6	0.0	1	1007.25	1	40.593575	17.116091
599	2024-01-25 22:00:00	25	massafra	11.01	1	57.36	1	0.0	1	null	6	null	6	0.0	1	1007.28	1	40.593575	17.116091
600	2024-01-25 23:00:00	25	massafra	10.79	1	56.22	1	0.0	1	null	6	null	6	0.0	1	1007.23	1	40.593575	17.116091
601	2024-01-26 00:00:00	25	massafra	10.57	1	57.91	1	0.0	1	null	6	null	6	0.0	1	1007.42	1	40.593575	17.116091
602	2024-01-26 01:00:00	25	massafra	10.8	1	62.23	1	0.0	1	null	6	null	6	0.0	1	1007.11	1	40.593575	17.116091
603	2024-01-26 02:00:00	25	massafra	10.5	1	59.59	1	0.0	1	null	6	null	6	0.0	1	1007.13	1	40.593575	17.116091
604	2024-01-26 03:00:00	25	massafra	10.33	1	60.7	1	0.0	1	null	6	null	6	0.0	1	1007.18	1	40.593575	17.116091
605	2024-01-26 04:00:00	25	massafra	10.04	1	64.48	1	0.0	1	null	6	null	6	0.0	1	1007.33	1	40.593575	17.116091
606	2024-01-26 05:00:00	25	massafra	9.79	1	69.73	1	0.0	1	null	6	null	6	0.0	1	1007.26	1	40.593575	17.116091
607	2024-01-26 06:00:00	25	massafra	9.56	1	72.25	1	0.0	1	null	6	null	6	0.0	1	1007.55	1	40.593575	17.116091
608	2024-01-26 07:00:00	25	massafra	9.24	1	75.13	1	0.0	1	null	6	null	6	0.0	1	1008.07	1	40.593575	17.116091
609	2024-01-26 08:00:00	25	massafra	8.08	1	77.36	1	0.0	1	null	6	null	6	7.41	1	1008.55	1	40.593575	17.116091
610	2024-01-26 09:00:00	25	massafra	9.64	1	75.0	1	0.0	1	null	6	null	6	181.61	1	1008.88	1	40.593575	17.116091
611	2024-01-26 10:00:00	25	massafra	13.06	1	57.64	1	0.0	1	null	6	null	6	332.46	1	1008.76	1	40.593575	17.116091
612	2024-01-26 11:00:00	25	massafra	15.89	1	46.82	1	0.0	1	null	6	null	6	434.9	1	1008.8	1	40.593575	17.116091
613	2024-01-26 12:00:00	25	massafra	18.51	1	28.09	1	0.0	1	null	6	null	6	496.34	1	1008.36	1	40.593575	17.116091
614	2024-01-26 13:00:00	25	massafra	19.83	1	18.95	1	0.0	1	null	6	null	6	499.43	1	1007.65	1	40.593575	17.116091
615	2024-01-26 14:00:00	25	massafra	20.49	1	17.03	1	0.0	1	null	6	null	6	444.62	1	1007.09	1	40.593575	17.116091
616	2024-01-26 15:00:00	25	massafra	20.05	1	18.69	1	0.0	1	null	6	null	6	268.97	1	1007.01	1	40.593575	17.116091
617	2024-01-26 16:00:00	25	massafra	18.15	1	26.67	1	0.0	1	null	6	null	6	45.77	1	1007.06	1	40.593575	17.116091
618	2024-01-26 17:00:00	25	massafra	15.75	1	42.35	1	0.0	1	null	6	null	6	13.08	1	1007.33	1	40.593575	17.116091
619	2024-01-26 18:00:00	25	massafra	13.46	1	49.17	1	0.0	1	null	6	null	6	0.0	1	1007.73	1	40.593575	17.116091
620	2024-01-26 19:00:00	25	massafra	11.76	1	51.65	1	0.0	1	null	6	null	6	0.0	1	1008.03	1	40.593575	17.116091
621	2024-01-26 20:00:00	25	massafra	11.06	1	52.84	1	0.0	1	null	6	null	6	0.0	1	1008.03	1	40.593575	17.116091
622	2024-01-26 21:00:00	25	massafra	10.22	1	51.16	1	0.0	1	null	6	null	6	0.0	1	1007.91	1	40.593575	17.116091
623	2024-01-26 22:00:00	25	massafra	9.82	1	49.01	1	0.0	1	null	6	null	6	0.0	1	1007.94	1	40.593575	17.116091
624	2024-01-26 23:00:00	25	massafra	9.78	1	44.0	1	0.0	1	null	6	null	6	0.0	1	1007.8	1	40.593575	17.116091
625	2024-01-27 00:00:00	25	massafra	9.64	1	38.2	1	0.0	1	null	6	null	6	0.0	1	1007.71	1	40.593575	17.116091
626	2024-01-27 01:00:00	25	massafra	9.62	1	35.42	1	0.0	1	null	6	null	6	0.0	1	1007.57	1	40.593575	17.116091
627	2024-01-27 02:00:00	25	massafra	10.55	1	35.55	1	0.0	1	null	6	null	6	0.0	1	1007.33	1	40.593575	17.116091
628	2024-01-27 03:00:00	25	massafra	10.65	1	41.69	1	0.0	1	null	6	null	6	0.0	1	1007.37	1	40.593575	17.116091
629	2024-01-27 04:00:00	25	massafra	10.65	1	36.76	1	0.0	1	null	6	null	6	0.0	1	1007.4	1	40.593575	17.116091
630	2024-01-27 05:00:00	25	massafra	10.83	1	36.25	1	0.0	1	null	6	null	6	0.0	1	1007.18	1	40.593575	17.116091
631	2024-01-27 06:00:00	25	massafra	9.78	1	44.75	1	0.0	1	null	6	null	6	0.0	1	1007.69	1	40.593575	17.116091
632	2024-01-27 07:00:00	25	massafra	10.02	1	63.5	1	0.0	1	null	6	null	6	0.0	1	1008.33	1	40.593575	17.116091
633	2024-01-27 08:00:00	25	massafra	10.2	1	67.28	1	0.0	1	null	6	null	6	20.09	1	1008.71	1	40.593575	17.116091
634	2024-01-27 09:00:00	25	massafra	11.27	1	67.08	1	0.0	1	null	6	null	6	63.65	1	1009.02	1	40.593575	17.116091
635	2024-01-27 10:00:00	25	massafra	13.12	1	61.5	1	0.0	1	null	6	null	6	179.81	1	1008.55	1	40.593575	17.116091
636	2024-01-27 11:00:00	25	massafra	14.46	1	57.31	1	0.0	1	null	6	null	6	236.3	1	1009.39	1	40.593575	17.116091
637	2024-01-27 12:00:00	25	massafra	14.23	1	59.39	1	0.0	1	null	6	null	6	278.28	1	1009.48	1	40.593575	17.116091
638	2024-01-27 13:00:00	25	massafra	14.91	1	55.12	1	0.0	1	null	6	null	6	422.54	1	1009.48	1	40.593575	17.116091
639	2024-01-27 14:00:00	25	massafra	15.6	1	50.84	1	0.0	1	null	6	null	6	432.1	1	1008.99	1	40.593575	17.116091
640	2024-01-27 15:00:00	25	massafra	15.33	1	52.21	1	0.0	1	null	6	null	6	274.39	1	1008.64	1	40.593575	17.116091
641	2024-01-27 16:00:00	25	massafra	14.51	1	55.96	1	0.0	1	null	6	null	6	65.75	1	1008.66	1	40.593575	17.116091
642	2024-01-27 17:00:00	25	massafra	13.51	1	58.94	1	0.0	1	null	6	null	6	20.17	1	1009.17	1	40.593575	17.116091
643	2024-01-27 18:00:00	25	massafra	12.46	1	62.15	1	0.0	1	null	6	null	6	0.0	1	1009.8	1	40.593575	17.116091
644	2024-01-27 19:00:00	25	massafra	11.71	1	66.39	1	0.0	1	null	6	null	6	0.0	1	1010.57	1	40.593575	17.116091
645	2024-01-27 20:00:00	25	massafra	11.38	1	70.32	1	0.0	1	null	6	null	6	0.0	1	1011.12	1	40.593575	17.116091
646	2024-01-27 21:00:00	25	massafra	11.05	1	70.78	1	0.0	1	null	6	null	6	0.0	1	1011.82	1	40.593575	17.116091
647	2024-01-27 22:00:00	25	massafra	10.37	1	71.77	1	0.0	1	null	6	null	6	0.0	1	1012.41	1	40.593575	17.116091
648	2024-01-27 23:00:00	25	massafra	10.19	1	72.43	1	0.0	1	null	6	null	6	0.0	1	1012.62	1	40.593575	17.116091
649	2024-01-28 00:00:00	25	massafra	9.28	1	71.85	1	0.0	1	null	6	null	6	0.0	1	1012.85	1	40.593575	17.116091
650	2024-01-28 01:00:00	25	massafra	8.8	1	72.47	1	0.0	1	null	6	null	6	0.0	1	1012.94	1	40.593575	17.116091
651	2024-01-28 02:00:00	25	massafra	9.5	1	67.75	1	0.0	1	null	6	null	6	0.0	1	1013.27	1	40.593575	17.116091
652	2024-01-28 03:00:00	25	massafra	8.66	1	67.9	1	0.0	1	null	6	null	6	0.0	1	1013.41	1	40.593575	17.116091
653	2024-01-28 04:00:00	25	massafra	7.57	1	68.78	1	0.0	1	null	6	null	6	0.0	1	1013.49	1	40.593575	17.116091
654	2024-01-28 05:00:00	25	massafra	6.39	1	68.07	1	0.0	1	null	6	null	6	0.0	1	1013.7	1	40.593575	17.116091
655	2024-01-28 06:00:00	25	massafra	5.76	1	63.67	1	0.0	1	null	6	null	6	0.0	1	1014.01	1	40.593575	17.116091
656	2024-01-28 07:00:00	25	massafra	4.78	1	63.18	1	0.0	1	null	6	null	6	0.0	1	1014.57	1	40.593575	17.116091
657	2024-01-28 08:00:00	25	massafra	5.21	1	59.56	1	0.0	1	null	6	null	6	14.02	1	1015.02	1	40.593575	17.116091
658	2024-01-28 09:00:00	25	massafra	7.93	1	52.22	1	0.0	1	null	6	null	6	149.57	1	1015.23	1	40.593575	17.116091
659	2024-01-28 10:00:00	25	massafra	11.39	1	39.92	1	0.0	1	null	6	null	6	292.93	1	1015.33	1	40.593575	17.116091
660	2024-01-28 11:00:00	25	massafra	11.75	1	35.29	1	0.0	1	null	6	null	6	351.4	1	1015.85	1	40.593575	17.116091
661	2024-01-28 12:00:00	25	massafra	12.63	1	32.31	1	0.0	1	null	6	null	6	515.01	1	1015.7	1	40.593575	17.116091
662	2024-01-28 13:00:00	25	massafra	12.93	1	31.56	1	0.0	1	null	6	null	6	480.52	1	1015.43	1	40.593575	17.116091
663	2024-01-28 14:00:00	25	massafra	12.39	1	32.25	1	0.0	1	null	6	null	6	357.19	1	1015.12	1	40.593575	17.116091
664	2024-01-28 15:00:00	25	massafra	11.66	1	34.27	1	0.0	1	null	6	null	6	196.03	1	1015.16	1	40.593575	17.116091
665	2024-01-28 16:00:00	25	massafra	11.02	1	36.63	1	0.0	1	null	6	null	6	73.43	1	1015.26	1	40.593575	17.116091
666	2024-01-28 17:00:00	25	massafra	10.45	1	40.68	1	0.0	1	null	6	null	6	24.79	1	1015.39	1	40.593575	17.116091
667	2024-01-28 18:00:00	25	massafra	9.5	1	44.76	1	0.0	1	null	6	null	6	0.0	5	1015.77	1	40.593575	17.116091
668	2024-01-28 19:00:00	25	massafra	8.65	1	48.24	1	0.0	1	null	6	null	6	0.0	1	1016.12	1	40.593575	17.116091
669	2024-01-28 20:00:00	25	massafra	7.67	1	50.2	1	0.0	1	null	6	null	6	0.0	1	1016.43	1	40.593575	17.116091
670	2024-01-28 21:00:00	25	massafra	7.11	1	52.47	1	0.0	1	null	6	null	6	0.0	1	1016.47	1	40.593575	17.116091
671	2024-01-28 22:00:00	25	massafra	6.45	1	54.0	1	0.0	1	null	6	null	6	0.0	1	1016.37	1	40.593575	17.116091
672	2024-01-28 23:00:00	25	massafra	5.97	1	54.85	1	0.0	1	null	6	null	6	0.0	1	1016.49	1	40.593575	17.116091
673	2024-01-29 00:00:00	25	massafra	5.71	1	54.78	1	0.0	1	null	6	null	6	0.0	1	1016.47	1	40.593575	17.116091
674	2024-01-29 01:00:00	25	massafra	5.99	1	56.58	1	0.0	1	null	6	null	6	0.0	1	1016.29	1	40.593575	17.116091
675	2024-01-29 02:00:00	25	massafra	6.05	1	57.16	1	0.0	1	null	6	null	6	0.0	1	1016.3	1	40.593575	17.116091
676	2024-01-29 03:00:00	25	massafra	5.64	1	58.89	1	0.0	1	null	6	null	6	0.0	1	1016.42	1	40.593575	17.116091
677	2024-01-29 04:00:00	25	massafra	5.57	1	60.9	1	0.0	1	null	6	null	6	0.0	1	1016.29	1	40.593575	17.116091
678	2024-01-29 05:00:00	25	massafra	5.98	1	62.74	1	0.0	1	null	6	null	6	0.0	1	1016.33	1	40.593575	17.116091
679	2024-01-29 06:00:00	25	massafra	6.17	1	63.8	1	0.0	1	null	6	null	6	0.0	1	1016.36	1	40.593575	17.116091
680	2024-01-29 07:00:00	25	massafra	6.2	1	64.24	1	0.0	1	null	6	null	6	0.0	1	1016.84	1	40.593575	17.116091
681	2024-01-29 08:00:00	25	massafra	6.31	1	65.12	1	0.0	1	null	6	null	6	14.88	1	1017.07	1	40.593575	17.116091
682	2024-01-29 09:00:00	25	massafra	7.36	1	61.58	1	0.0	1	null	6	null	6	82.62	1	1017.17	1	40.593575	17.116091
683	2024-01-29 10:00:00	25	massafra	10.53	1	51.3	1	0.0	1	null	6	null	6	340.93	1	1017.24	1	40.593575	17.116091
684	2024-01-29 11:00:00	25	massafra	12.27	1	40.27	1	0.0	1	null	6	null	6	385.67	1	1017.34	1	40.593575	17.116091
685	2024-01-29 12:00:00	25	massafra	11.84	1	41.49	1	0.0	1	null	6	null	6	149.68	1	1017.1	1	40.593575	17.116091
686	2024-01-29 13:00:00	25	massafra	11.74	1	41.89	1	0.0	1	null	6	null	6	170.63	1	1016.7	1	40.593575	17.116091
687	2024-01-29 14:00:00	25	massafra	12.33	1	38.82	1	0.0	1	null	6	null	6	261.77	1	1016.27	1	40.593575	17.116091
688	2024-01-29 15:00:00	25	massafra	12.17	1	37.15	1	0.0	1	null	6	null	6	186.96	1	1016.04	1	40.593575	17.116091
689	2024-01-29 16:00:00	25	massafra	11.71	1	35.7	1	0.0	1	null	6	null	6	69.64	1	1015.91	1	40.593575	17.116091
690	2024-01-29 17:00:00	25	massafra	11.1	1	32.41	1	0.0	1	null	6	null	6	25.59	1	1015.92	1	40.593575	17.116091
691	2024-01-29 18:00:00	25	massafra	9.33	1	39.26	1	0.0	1	null	6	null	6	0.0	1	1016.21	1	40.593575	17.116091
692	2024-01-29 19:00:00	25	massafra	7.67	1	44.11	1	0.0	1	null	6	null	6	0.0	1	1016.5	1	40.593575	17.116091
693	2024-01-29 20:00:00	25	massafra	7.05	1	48.79	1	0.0	1	null	6	null	6	0.0	1	1016.86	1	40.593575	17.116091
694	2024-01-29 21:00:00	25	massafra	6.59	1	50.13	1	0.0	1	null	6	null	6	0.0	1	1017.24	1	40.593575	17.116091
695	2024-01-29 22:00:00	25	massafra	5.74	1	53.87	1	0.0	1	null	6	null	6	0.0	1	1017.38	1	40.593575	17.116091
696	2024-01-29 23:00:00	25	massafra	6.08	1	55.43	1	0.0	1	null	6	null	6	0.0	1	1017.48	1	40.593575	17.116091
697	2024-01-30 00:00:00	25	massafra	6.73	1	54.41	1	0.0	1	null	6	null	6	0.0	1	1017.64	1	40.593575	17.116091
698	2024-01-30 01:00:00	25	massafra	6.93	1	53.87	1	0.0	1	null	6	null	6	0.0	1	1017.49	1	40.593575	17.116091
699	2024-01-30 02:00:00	25	massafra	6.8	1	55.18	1	0.0	1	null	6	null	6	0.0	1	1017.35	1	40.593575	17.116091
700	2024-01-30 03:00:00	25	massafra	6.7	1	57.09	1	0.0	1	null	6	null	6	0.0	1	1017.28	1	40.593575	17.116091
701	2024-01-30 04:00:00	25	massafra	6.63	1	58.68	1	0.0	1	null	6	null	6	0.0	1	1017.06	1	40.593575	17.116091
702	2024-01-30 05:00:00	25	massafra	6.24	1	60.22	1	0.0	1	null	6	null	6	0.0	1	1016.98	1	40.593575	17.116091
703	2024-01-30 06:00:00	25	massafra	5.8	1	60.86	1	0.0	1	null	6	null	6	0.0	1	1016.89	1	40.593575	17.116091
704	2024-01-30 07:00:00	25	massafra	5.11	1	63.56	1	0.0	1	null	6	null	6	0.0	1	1017.27	1	40.593575	17.116091
705	2024-01-30 08:00:00	25	massafra	5.22	1	63.27	1	0.0	1	null	6	null	6	14.14	1	1017.65	1	40.593575	17.116091
706	2024-01-30 09:00:00	25	massafra	7.59	1	56.18	1	0.0	1	null	6	null	6	179.81	1	1018.02	1	40.593575	17.116091
707	2024-01-30 10:00:00	25	massafra	10.81	1	42.47	1	0.0	1	null	6	null	6	304.61	1	1017.93	1	40.593575	17.116091
708	2024-01-30 11:00:00	25	massafra	11.59	1	38.83	1	0.0	1	null	6	null	6	405.62	1	1018.04	1	40.593575	17.116091
709	2024-01-30 12:00:00	25	massafra	12.41	1	35.84	1	0.0	1	null	6	null	6	510.51	1	1017.68	1	40.593575	17.116091
710	2024-01-30 13:00:00	25	massafra	13.14	1	32.88	1	0.0	1	null	6	null	6	521.33	1	1017.15	1	40.593575	17.116091
711	2024-01-30 14:00:00	25	massafra	13.21	1	31.02	1	0.0	1	null	6	null	6	468.46	1	1016.65	1	40.593575	17.116091
712	2024-01-30 15:00:00	25	massafra	12.73	1	30.18	1	0.0	1	null	6	null	6	338.93	1	1016.59	1	40.593575	17.116091
713	2024-01-30 16:00:00	25	massafra	11.48	1	33.57	1	0.0	1	null	6	null	6	63.45	1	1016.79	1	40.593575	17.116091
714	2024-01-30 17:00:00	25	massafra	10.48	1	36.11	1	0.0	1	null	6	null	6	30.19	1	1016.99	1	40.593575	17.116091
715	2024-01-30 18:00:00	25	massafra	8.78	1	40.72	1	0.0	1	null	6	null	6	0.0	1	1017.21	1	40.593575	17.116091
716	2024-01-30 19:00:00	25	massafra	7.91	1	43.68	1	0.0	1	null	6	null	6	0.0	1	1017.42	1	40.593575	17.116091
717	2024-01-30 20:00:00	25	massafra	6.45	1	47.57	1	0.0	1	null	6	null	6	0.0	1	1017.41	1	40.593575	17.116091
718	2024-01-30 21:00:00	25	massafra	5.72	1	51.49	1	0.0	1	null	6	null	6	0.0	1	1017.53	1	40.593575	17.116091
719	2024-01-30 22:00:00	25	massafra	5.6	1	53.5	1	0.0	1	null	6	null	6	0.0	1	1017.62	1	40.593575	17.116091
720	2024-01-30 23:00:00	25	massafra	5.38	1	54.77	1	0.0	1	null	6	null	6	0.0	1	1017.49	1	40.593575	17.116091
721	2024-01-31 00:00:00	25	massafra	4.71	1	57.5	1	0.0	1	null	6	null	6	0.0	1	1017.38	1	40.593575	17.116091
722	2024-01-31 01:00:00	25	massafra	4.75	1	59.64	1	0.0	1	null	6	null	6	0.0	1	1017.11	1	40.593575	17.116091
723	2024-01-31 02:00:00	25	massafra	4.78	1	61.26	1	0.0	1	null	6	null	6	0.0	1	1016.85	1	40.593575	17.116091
724	2024-01-31 03:00:00	25	massafra	5.46	1	64.71	1	0.0	1	null	6	null	6	0.0	1	1016.77	1	40.593575	17.116091
725	2024-01-31 04:00:00	25	massafra	5.74	1	66.56	1	0.0	1	null	6	null	6	0.0	1	1016.46	1	40.593575	17.116091
726	2024-01-31 05:00:00	25	massafra	5.56	1	70.83	1	0.0	1	null	6	null	6	0.0	1	1015.81	1	40.593575	17.116091
727	2024-01-31 06:00:00	25	massafra	6.54	1	73.16	1	0.0	1	null	6	null	6	0.0	1	1015.72	1	40.593575	17.116091
728	2024-01-31 07:00:00	25	massafra	6.22	1	72.32	1	0.0	1	null	6	null	6	0.0	1	1015.85	1	40.593575	17.116091
729	2024-01-31 08:00:00	25	massafra	5.42	1	72.3	1	0.0	1	null	6	null	6	9.84	1	1016.15	1	40.593575	17.116091
730	2024-01-31 09:00:00	25	massafra	8.14	1	68.42	1	0.0	1	null	6	null	6	185.91	1	1016.07	1	40.593575	17.116091
731	2024-01-31 10:00:00	25	massafra	11.76	1	53.43	1	0.0	1	null	6	null	6	354.6	1	1015.79	1	40.593575	17.116091
732	2024-01-31 11:00:00	25	massafra	13.16	1	45.49	1	0.0	1	null	6	null	6	463.17	1	1015.53	1	40.593575	17.116091
733	2024-01-31 12:00:00	25	massafra	14.96	1	34.15	1	0.0	1	null	6	null	6	526.13	1	1014.89	1	40.593575	17.116091
734	2024-01-31 13:00:00	25	massafra	15.26	1	32.65	1	0.0	1	null	6	null	6	526.16	1	1014.38	1	40.593575	17.116091
735	2024-01-31 14:00:00	25	massafra	15.4	1	33.54	1	0.0	1	null	6	null	6	472.22	1	1013.87	1	40.593575	17.116091
736	2024-01-31 15:00:00	25	massafra	15.0	1	36.67	1	0.0	1	null	6	null	6	356.0	1	1013.74	1	40.593575	17.116091
737	2024-01-31 16:00:00	25	massafra	13.79	1	39.98	1	0.0	1	null	6	null	6	65.26	1	1013.77	1	40.593575	17.116091
738	2024-01-31 17:00:00	25	massafra	12.73	1	44.65	1	0.0	1	null	6	null	6	33.2	1	1013.75	1	40.593575	17.116091
739	2024-01-31 18:00:00	25	massafra	10.87	1	49.07	1	0.0	1	null	6	null	6	0.0	5	1014.0	1	40.593575	17.116091
740	2024-01-31 19:00:00	25	massafra	9.99	1	56.19	1	0.0	1	null	6	null	6	0.0	1	1014.1	1	40.593575	17.116091
741	2024-01-31 20:00:00	25	massafra	9.43	1	62.21	1	0.0	1	null	6	null	6	0.0	1	1013.83	1	40.593575	17.116091
742	2024-01-31 21:00:00	25	massafra	9.0	1	65.24	1	0.0	1	null	6	null	6	0.0	1	1013.58	1	40.593575	17.116091
743	2024-01-31 22:00:00	25	massafra	8.38	1	68.0	1	0.0	1	null	6	null	6	0.0	1	1013.43	1	40.593575	17.116091
744	2024-01-31 23:00:00	25	massafra	7.26	1	71.05	1	0.0	1	null	6	null	6	0.0	1	1013.38	1	40.593575	17.116091
745	2024-02-01 00:00:00	25	massafra	6.23	1	74.83	1	0.0	1	null	6	null	6	0.0	1	1013.26	1	40.593575	17.116091
746	2024-02-01 01:00:00	25	massafra	5.99	1	77.46	1	0.0	1	null	6	null	6	0.0	1	1013.14	1	40.593575	17.116091
747	2024-02-01 02:00:00	25	massafra	6.32	1	77.81	1	0.0	1	null	6	null	6	0.0	1	1012.99	1	40.593575	17.116091
748	2024-02-01 03:00:00	25	massafra	6.2	1	78.77	1	0.0	1	null	6	null	6	0.0	1	1012.72	1	40.593575	17.116091
749	2024-02-01 04:00:00	25	massafra	6.9	1	77.73	1	0.0	1	null	6	null	6	0.0	1	1012.21	1	40.593575	17.116091
750	2024-02-01 05:00:00	25	massafra	5.87	1	76.3	1	0.0	1	null	6	null	6	0.0	1	1011.89	1	40.593575	17.116091
751	2024-02-01 06:00:00	25	massafra	5.06	1	78.47	1	0.0	1	null	6	null	6	0.0	1	1011.77	1	40.593575	17.116091
752	2024-02-01 07:00:00	25	massafra	4.9	1	79.81	1	0.0	1	null	6	null	6	0.0	1	1011.78	1	40.593575	17.116091
753	2024-02-01 08:00:00	25	massafra	5.39	1	79.57	1	0.0	1	null	6	null	6	29.29	1	1011.85	1	40.593575	17.116091
754	2024-02-01 09:00:00	25	massafra	7.29	1	72.11	1	0.0	1	null	6	null	6	108.66	1	1012.05	1	40.593575	17.116091
755	2024-02-01 10:00:00	25	massafra	10.38	1	57.34	1	0.0	1	null	6	null	6	349.55	1	1012.01	1	40.593575	17.116091
756	2024-02-01 11:00:00	25	massafra	12.41	1	49.85	1	0.0	1	null	6	null	6	379.23	1	1011.61	1	40.593575	17.116091
757	2024-02-01 12:00:00	25	massafra	14.34	1	41.15	1	0.0	1	null	6	null	6	448.92	1	1010.83	1	40.593575	17.116091
758	2024-02-01 13:00:00	25	massafra	15.54	1	30.15	1	0.0	1	null	6	null	6	443.82	1	1009.95	1	40.593575	17.116091
759	2024-02-01 14:00:00	25	massafra	16.46	1	27.77	1	0.0	1	null	6	null	6	474.84	1	1009.06	1	40.593575	17.116091
760	2024-02-01 15:00:00	25	massafra	15.81	1	35.65	1	0.0	1	null	6	null	6	336.79	1	1008.52	1	40.593575	17.116091
761	2024-02-01 16:00:00	25	massafra	13.81	1	41.25	1	0.0	1	null	6	null	6	73.83	1	1008.21	1	40.593575	17.116091
762	2024-02-01 17:00:00	25	massafra	12.72	1	44.96	1	0.0	1	null	6	null	6	35.58	1	1008.09	1	40.593575	17.116091
763	2024-02-01 18:00:00	25	massafra	10.8	1	51.83	1	0.0	1	null	6	null	6	0.0	5	1008.36	1	40.593575	17.116091
764	2024-02-01 19:00:00	25	massafra	9.56	1	55.73	1	0.0	1	null	6	null	6	0.0	1	1008.72	1	40.593575	17.116091
765	2024-02-01 20:00:00	25	massafra	8.43	1	60.09	1	0.0	1	null	6	null	6	0.0	1	1008.65	1	40.593575	17.116091
766	2024-02-01 21:00:00	25	massafra	8.16	1	59.27	1	0.0	1	null	6	null	6	0.0	1	1008.53	1	40.593575	17.116091
767	2024-02-01 22:00:00	25	massafra	7.72	1	58.99	1	0.0	1	null	6	null	6	0.0	1	1008.2	1	40.593575	17.116091
768	2024-02-01 23:00:00	25	massafra	6.97	1	61.09	1	0.0	1	null	6	null	6	0.0	1	1008.03	1	40.593575	17.116091
769	2024-02-02 00:00:00	25	massafra	6.62	1	62.76	1	0.0	1	null	6	null	6	0.0	1	1008.1	1	40.593575	17.116091
770	2024-02-02 01:00:00	25	massafra	7.34	1	60.73	1	0.0	1	null	6	null	6	0.0	1	1007.89	1	40.593575	17.116091
771	2024-02-02 02:00:00	25	massafra	7.04	1	61.44	1	0.0	1	null	6	null	6	0.0	1	1007.47	1	40.593575	17.116091
772	2024-02-02 03:00:00	25	massafra	6.83	1	63.0	1	0.0	1	null	6	null	6	0.0	1	1007.36	1	40.593575	17.116091
773	2024-02-02 04:00:00	25	massafra	6.68	1	66.53	1	0.0	1	null	6	null	6	0.0	1	1007.24	1	40.593575	17.116091
774	2024-02-02 05:00:00	25	massafra	6.2	1	70.35	1	0.0	1	null	6	null	6	0.0	1	1007.26	1	40.593575	17.116091
775	2024-02-02 06:00:00	25	massafra	6.31	1	74.39	1	0.0	1	null	6	null	6	0.0	1	1007.32	1	40.593575	17.116091
776	2024-02-02 07:00:00	25	massafra	5.9	1	73.57	1	0.0	1	null	6	null	6	0.0	1	1007.71	1	40.593575	17.116091
777	2024-02-02 08:00:00	25	massafra	7.16	1	73.55	1	0.0	1	null	6	null	6	14.73	1	1007.98	1	40.593575	17.116091
778	2024-02-02 09:00:00	25	massafra	9.21	1	65.54	1	0.0	1	null	6	null	6	141.75	1	1008.15	1	40.593575	17.116091
779	2024-02-02 10:00:00	25	massafra	11.86	1	54.95	1	0.0	1	null	6	null	6	328.46	1	1008.17	1	40.593575	17.116091
780	2024-02-02 11:00:00	25	massafra	12.72	1	53.32	1	0.0	1	null	6	null	6	309.76	1	1008.21	1	40.593575	17.116091
781	2024-02-02 12:00:00	25	massafra	13.65	1	49.47	1	0.0	1	null	6	null	6	447.49	1	1008.16	1	40.593575	17.116091
782	2024-02-02 13:00:00	25	massafra	14.5	1	44.97	1	0.0	1	null	6	null	6	381.9	1	1007.86	1	40.593575	17.116091
783	2024-02-02 14:00:00	25	massafra	14.2	1	45.79	1	0.0	1	null	6	null	6	264.82	1	1007.62	1	40.593575	17.116091
784	2024-02-02 15:00:00	25	massafra	15.11	1	39.34	1	0.0	1	null	6	null	6	328.46	1	1007.42	1	40.593575	17.116091
785	2024-02-02 16:00:00	25	massafra	14.56	1	37.43	1	0.0	1	null	6	null	6	83.25	1	1007.65	1	40.593575	17.116091
786	2024-02-02 17:00:00	25	massafra	13.26	1	40.3	1	0.0	1	null	6	null	6	40.65	1	1007.9	1	40.593575	17.116091
787	2024-02-02 18:00:00	25	massafra	11.54	1	44.86	1	0.0	1	null	6	null	6	0.0	5	1008.27	1	40.593575	17.116091
788	2024-02-02 19:00:00	25	massafra	10.42	1	46.79	1	0.0	1	null	6	null	6	0.0	1	1008.75	1	40.593575	17.116091
789	2024-02-02 20:00:00	25	massafra	9.67	1	53.07	1	0.0	1	null	6	null	6	0.0	1	1009.05	1	40.593575	17.116091
790	2024-02-02 21:00:00	25	massafra	8.92	1	59.38	1	0.0	1	null	6	null	6	0.0	1	1009.23	1	40.593575	17.116091
791	2024-02-02 22:00:00	25	massafra	8.55	1	64.53	1	0.0	1	null	6	null	6	0.0	1	1009.23	1	40.593575	17.116091
792	2024-02-02 23:00:00	25	massafra	8.33	1	66.57	1	0.0	1	null	6	null	6	0.0	1	1009.11	1	40.593575	17.116091
793	2024-02-03 00:00:00	25	massafra	7.33	1	65.79	1	0.0	1	null	6	null	6	0.0	1	1009.04	1	40.593575	17.116091
794	2024-02-03 01:00:00	25	massafra	6.71	1	64.29	1	0.0	1	null	6	null	6	0.0	1	1009.0	1	40.593575	17.116091
795	2024-02-03 02:00:00	25	massafra	6.15	1	65.59	1	0.0	1	null	6	null	6	0.0	1	1008.95	1	40.593575	17.116091
796	2024-02-03 03:00:00	25	massafra	6.59	1	64.89	1	0.0	1	null	6	null	6	0.0	1	1009.14	1	40.593575	17.116091
797	2024-02-03 04:00:00	25	massafra	6.28	1	64.21	1	0.0	1	null	6	null	6	0.0	1	1009.07	1	40.593575	17.116091
798	2024-02-03 05:00:00	25	massafra	6.29	1	62.47	1	0.0	1	null	6	null	6	0.0	1	1009.26	1	40.593575	17.116091
799	2024-02-03 06:00:00	25	massafra	5.72	1	65.41	1	0.0	1	null	6	null	6	0.0	1	1009.38	1	40.593575	17.116091
800	2024-02-03 07:00:00	25	massafra	5.49	1	66.19	1	0.0	1	null	6	null	6	0.0	1	1009.54	1	40.593575	17.116091
801	2024-02-03 08:00:00	25	massafra	6.08	1	67.84	1	0.0	1	null	6	null	6	11.3	1	1009.7	1	40.593575	17.116091
802	2024-02-03 09:00:00	25	massafra	9.64	1	58.72	1	0.0	1	null	6	null	6	176.87	1	1009.7	1	40.593575	17.116091
803	2024-02-03 10:00:00	25	massafra	12.42	1	49.6	1	0.0	1	null	6	null	6	347.28	1	1009.78	1	40.593575	17.116091
804	2024-02-03 11:00:00	25	massafra	14.97	1	37.27	1	0.0	1	null	6	null	6	449.22	1	1009.84	1	40.593575	17.116091
805	2024-02-03 12:00:00	25	massafra	16.21	1	32.23	1	0.0	1	null	6	null	6	511.41	1	1009.64	1	40.593575	17.116091
806	2024-02-03 13:00:00	25	massafra	17.21	1	31.76	1	0.0	1	null	6	null	6	518.81	1	1009.35	1	40.593575	17.116091
807	2024-02-03 14:00:00	25	massafra	17.82	1	30.26	1	0.0	1	null	6	null	6	469.76	1	1008.7	1	40.593575	17.116091
808	2024-02-03 15:00:00	25	massafra	17.89	1	26.78	1	0.0	1	null	6	null	6	374.81	1	1008.4	1	40.593575	17.116091
809	2024-02-03 16:00:00	25	massafra	17.38	1	27.43	1	0.0	1	null	6	null	6	90.61	1	1008.31	1	40.593575	17.116091
810	2024-02-03 17:00:00	25	massafra	16.59	1	28.59	1	0.0	1	null	6	null	6	43.18	1	1008.05	1	40.593575	17.116091
811	2024-02-03 18:00:00	25	massafra	13.86	1	35.64	1	0.0	1	null	6	null	6	0.0	5	1008.14	1	40.593575	17.116091
812	2024-02-03 19:00:00	25	massafra	11.8	1	40.82	1	0.0	1	null	6	null	6	0.0	1	1008.38	1	40.593575	17.116091
813	2024-02-03 20:00:00	25	massafra	10.68	1	46.66	1	0.0	1	null	6	null	6	0.0	1	1008.67	1	40.593575	17.116091
814	2024-02-03 21:00:00	25	massafra	10.16	1	49.86	1	0.0	1	null	6	null	6	0.0	1	1008.8	1	40.593575	17.116091
815	2024-02-03 22:00:00	25	massafra	10.09	1	47.92	1	0.0	1	null	6	null	6	0.0	1	1008.56	1	40.593575	17.116091
816	2024-02-03 23:00:00	25	massafra	10.02	1	46.35	1	0.0	1	null	6	null	6	0.0	1	1008.37	1	40.593575	17.116091
817	2024-02-04 00:00:00	25	massafra	9.23	1	48.09	1	0.0	1	null	6	null	6	0.0	1	1008.23	1	40.593575	17.116091
818	2024-02-04 01:00:00	25	massafra	8.49	1	49.52	1	0.0	1	null	6	null	6	0.0	1	1008.08	1	40.593575	17.116091
819	2024-02-04 02:00:00	25	massafra	7.77	1	51.91	1	0.0	1	null	6	null	6	0.0	1	1007.98	1	40.593575	17.116091
820	2024-02-04 03:00:00	25	massafra	7.46	1	55.22	1	0.0	1	null	6	null	6	0.0	1	1008.04	1	40.593575	17.116091
821	2024-02-04 04:00:00	25	massafra	7.14	1	59.66	1	0.0	1	null	6	null	6	0.0	1	1007.84	1	40.593575	17.116091
822	2024-02-04 05:00:00	25	massafra	7.08	1	65.5	1	0.0	1	null	6	null	6	0.0	1	1007.6	1	40.593575	17.116091
823	2024-02-04 06:00:00	25	massafra	6.82	1	64.32	1	0.0	1	null	6	null	6	0.0	1	1007.32	1	40.593575	17.116091
824	2024-02-04 07:00:00	25	massafra	7.82	1	55.52	1	0.0	1	null	6	null	6	0.0	1	1007.34	1	40.593575	17.116091
825	2024-02-04 08:00:00	25	massafra	8.6	1	52.4	1	0.0	1	null	6	null	6	21.98	1	1007.6	1	40.593575	17.116091
826	2024-02-04 09:00:00	25	massafra	12.32	1	47.37	1	0.0	1	null	6	null	6	164.05	1	1007.61	1	40.593575	17.116091
827	2024-02-04 10:00:00	25	massafra	15.04	1	40.93	1	0.0	1	null	6	null	6	239.15	1	1007.47	1	40.593575	17.116091
828	2024-02-04 11:00:00	25	massafra	15.96	1	41.87	1	0.0	1	null	6	null	6	305.66	1	1007.8	1	40.593575	17.116091
829	2024-02-04 12:00:00	25	massafra	18.64	1	38.12	1	0.0	1	null	6	null	6	486.73	1	1007.68	1	40.593575	17.116091
830	2024-02-04 13:00:00	25	massafra	20.85	1	31.78	1	0.0	1	null	6	null	6	511.87	1	1007.09	1	40.593575	17.116091
831	2024-02-04 14:00:00	25	massafra	21.08	1	31.86	1	0.0	1	null	6	null	6	461.36	1	1006.49	1	40.593575	17.116091
832	2024-02-04 15:00:00	25	massafra	20.22	1	33.7	1	0.0	1	null	6	null	6	358.26	1	1006.18	1	40.593575	17.116091
833	2024-02-04 16:00:00	25	massafra	18.3	1	39.23	1	0.0	1	null	6	null	6	109.17	1	1006.22	1	40.593575	17.116091
834	2024-02-04 17:00:00	25	massafra	16.84	1	47.22	1	0.0	1	null	6	null	6	44.13	1	1006.32	1	40.593575	17.116091
835	2024-02-04 18:00:00	25	massafra	14.26	1	55.76	1	0.0	1	null	6	null	6	0.0	5	1006.9	1	40.593575	17.116091
836	2024-02-04 19:00:00	25	massafra	12.86	1	57.03	1	0.0	1	null	6	null	6	0.0	1	1007.29	1	40.593575	17.116091
837	2024-02-04 20:00:00	25	massafra	12.03	1	52.73	1	0.0	1	null	6	null	6	0.0	1	1007.4	1	40.593575	17.116091
838	2024-02-04 21:00:00	25	massafra	11.25	1	54.67	1	0.0	1	null	6	null	6	0.0	1	1007.7	1	40.593575	17.116091
839	2024-02-04 22:00:00	25	massafra	10.92	1	55.55	1	0.0	1	null	6	null	6	0.0	1	1007.99	1	40.593575	17.116091
840	2024-02-04 23:00:00	25	massafra	10.25	1	57.26	1	0.0	1	null	6	null	6	0.0	1	1008.05	1	40.593575	17.116091
841	2024-02-05 00:00:00	25	massafra	10.23	1	59.49	1	0.0	1	null	6	null	6	0.0	1	1008.09	1	40.593575	17.116091
842	2024-02-05 01:00:00	25	massafra	9.7	1	62.71	1	0.0	1	null	6	null	6	0.0	1	1008.14	1	40.593575	17.116091
843	2024-02-05 02:00:00	25	massafra	9.2	1	65.11	1	0.0	1	null	6	null	6	0.0	1	1008.14	1	40.593575	17.116091
844	2024-02-05 03:00:00	25	massafra	8.78	1	66.22	1	0.0	1	null	6	null	6	0.0	1	1008.07	1	40.593575	17.116091
845	2024-02-05 04:00:00	25	massafra	8.58	1	66.19	1	0.0	1	null	6	null	6	0.0	1	1007.75	1	40.593575	17.116091
846	2024-02-05 05:00:00	25	massafra	8.64	1	66.61	1	0.0	1	null	6	null	6	0.0	1	1007.81	1	40.593575	17.116091
847	2024-02-05 06:00:00	25	massafra	8.77	1	66.88	1	0.0	1	null	6	null	6	0.0	1	1007.67	1	40.593575	17.116091
848	2024-02-05 07:00:00	25	massafra	8.59	1	67.48	1	0.0	1	null	6	null	6	0.0	1	1007.91	1	40.593575	17.116091
849	2024-02-05 08:00:00	25	massafra	8.67	1	68.3	1	0.0	1	null	6	null	6	28.04	1	1007.96	1	40.593575	17.116091
850	2024-02-05 09:00:00	25	massafra	11.18	1	64.34	1	0.0	1	null	6	null	6	130.57	1	1008.06	1	40.593575	17.116091
851	2024-02-05 10:00:00	25	massafra	14.77	1	51.83	1	0.0	1	null	6	null	6	307.43	1	1008.25	1	40.593575	17.116091
852	2024-02-05 11:00:00	25	massafra	15.92	1	49.7	1	0.0	1	null	6	null	6	368.29	1	1008.23	1	40.593575	17.116091
853	2024-02-05 12:00:00	25	massafra	17.23	1	47.31	1	0.0	1	null	6	null	6	482.06	1	1008.07	1	40.593575	17.116091
854	2024-02-05 13:00:00	25	massafra	19.34	1	40.37	1	0.0	1	null	6	null	6	499.3	1	1007.45	1	40.593575	17.116091
855	2024-02-05 14:00:00	25	massafra	19.73	1	37.75	1	0.0	1	null	6	null	6	426.5	1	1006.77	1	40.593575	17.116091
856	2024-02-05 15:00:00	25	massafra	19.71	1	38.44	1	0.0	1	null	6	null	6	384.39	1	1006.49	1	40.593575	17.116091
857	2024-02-05 16:00:00	25	massafra	17.08	1	46.71	1	0.0	1	null	6	null	6	106.78	1	1006.7	1	40.593575	17.116091
858	2024-02-05 17:00:00	25	massafra	15.09	1	51.86	1	0.0	1	null	6	null	6	34.2	1	1007.01	1	40.593575	17.116091
859	2024-02-05 18:00:00	25	massafra	13.64	1	54.73	1	0.0	1	null	6	null	6	0.0	5	1007.42	1	40.593575	17.116091
860	2024-02-05 19:00:00	25	massafra	11.97	1	58.73	1	0.0	1	null	6	null	6	0.0	1	1008.04	1	40.593575	17.116091
861	2024-02-05 20:00:00	25	massafra	11.14	1	63.05	1	0.0	1	null	6	null	6	0.0	1	1008.24	1	40.593575	17.116091
862	2024-02-05 21:00:00	25	massafra	10.73	1	66.53	1	0.0	1	null	6	null	6	0.0	1	1008.25	1	40.593575	17.116091
863	2024-02-05 22:00:00	25	massafra	10.45	1	68.63	1	0.0	1	null	6	null	6	0.0	1	1008.07	1	40.593575	17.116091
864	2024-02-05 23:00:00	25	massafra	10.23	1	70.24	1	0.0	1	null	6	null	6	0.0	1	1007.99	1	40.593575	17.116091
865	2024-02-06 00:00:00	25	massafra	10.16	1	74.29	1	0.0	1	null	6	null	6	0.0	1	1008.28	1	40.593575	17.116091
866	2024-02-06 01:00:00	25	massafra	10.68	1	77.16	1	0.0	1	null	6	null	6	0.0	1	1008.21	1	40.593575	17.116091
867	2024-02-06 02:00:00	25	massafra	10.03	1	81.92	1	0.0	1	null	6	null	6	0.0	1	1007.98	1	40.593575	17.116091
868	2024-02-06 03:00:00	25	massafra	9.27	1	84.4	1	0.0	1	null	6	null	6	0.0	1	1007.96	1	40.593575	17.116091
869	2024-02-06 04:00:00	25	massafra	9.92	1	83.52	1	0.0	1	null	6	null	6	0.0	1	1007.52	1	40.593575	17.116091
870	2024-02-06 05:00:00	25	massafra	9.6	1	84.06	1	0.0	1	null	6	null	6	0.0	1	1007.43	1	40.593575	17.116091
871	2024-02-06 06:00:00	25	massafra	9.19	1	86.76	1	0.0	1	null	6	null	6	0.0	1	1007.31	1	40.593575	17.116091
872	2024-02-06 07:00:00	25	massafra	8.25	1	87.65	1	0.0	1	null	6	null	6	0.0	1	1007.13	1	40.593575	17.116091
873	2024-02-06 08:00:00	25	massafra	8.35	1	88.69	1	0.0	1	null	6	null	6	16.19	1	1007.16	1	40.593575	17.116091
874	2024-02-06 09:00:00	25	massafra	10.87	1	87.72	1	0.0	1	null	6	null	6	175.36	1	1007.23	1	40.593575	17.116091
875	2024-02-06 10:00:00	25	massafra	14.02	1	69.6	1	0.0	1	null	6	null	6	346.06	1	1007.17	1	40.593575	17.116091
876	2024-02-06 11:00:00	25	massafra	15.81	1	59.38	1	0.0	1	null	6	null	6	448.58	1	1007.1	1	40.593575	17.116091
877	2024-02-06 12:00:00	25	massafra	17.48	1	54.11	1	0.0	1	null	6	null	6	510.68	1	1006.59	1	40.593575	17.116091
878	2024-02-06 13:00:00	25	massafra	17.54	1	52.27	1	0.0	1	null	6	null	6	511.82	1	1005.97	1	40.593575	17.116091
879	2024-02-06 14:00:00	25	massafra	18.97	1	47.78	1	0.0	1	null	6	null	6	455.69	1	1005.2	1	40.593575	17.116091
880	2024-02-06 15:00:00	25	massafra	19.05	1	47.04	1	0.0	1	null	6	null	6	355.83	1	1004.87	1	40.593575	17.116091
881	2024-02-06 16:00:00	25	massafra	16.83	1	52.74	1	0.0	1	null	6	null	6	141.67	1	1004.85	1	40.593575	17.116091
882	2024-02-06 17:00:00	25	massafra	15.03	1	56.56	1	0.0	1	null	6	null	6	62.83	1	1004.92	1	40.593575	17.116091
883	2024-02-06 18:00:00	25	massafra	13.29	1	64.45	1	0.0	1	null	6	null	6	0.0	5	1005.25	1	40.593575	17.116091
884	2024-02-06 19:00:00	25	massafra	12.03	1	71.02	1	0.0	1	null	6	null	6	0.0	1	1005.65	1	40.593575	17.116091
885	2024-02-06 20:00:00	25	massafra	11.5	1	76.89	1	0.0	1	null	6	null	6	0.0	1	1005.74	1	40.593575	17.116091
886	2024-02-06 21:00:00	25	massafra	11.05	1	81.57	1	0.0	1	null	6	null	6	0.0	1	1005.67	1	40.593575	17.116091
887	2024-02-06 22:00:00	25	massafra	11.39	1	83.55	1	0.0	1	null	6	null	6	0.0	1	1005.45	1	40.593575	17.116091
888	2024-02-06 23:00:00	25	massafra	11.72	1	84.51	1	0.0	1	null	6	null	6	0.0	1	1005.13	1	40.593575	17.116091
889	2024-02-07 00:00:00	25	massafra	11.58	1	84.36	1	0.0	1	null	6	null	6	0.0	1	1004.6	1	40.593575	17.116091
890	2024-02-07 01:00:00	25	massafra	11.88	1	84.58	1	0.0	1	null	6	null	6	0.0	1	1004.41	1	40.593575	17.116091
891	2024-02-07 02:00:00	25	massafra	11.86	1	83.65	1	0.0	1	null	6	null	6	0.0	1	1003.95	1	40.593575	17.116091
892	2024-02-07 03:00:00	25	massafra	12.01	1	82.98	1	0.0	1	null	6	null	6	0.0	1	1003.45	1	40.593575	17.116091
893	2024-02-07 04:00:00	25	massafra	12.06	1	82.05	1	0.0	1	null	6	null	6	0.0	1	1002.91	1	40.593575	17.116091
894	2024-02-07 05:00:00	25	massafra	11.91	1	81.83	1	0.0	1	null	6	null	6	0.0	1	1002.38	1	40.593575	17.116091
895	2024-02-07 06:00:00	25	massafra	11.33	1	83.24	1	0.0	1	null	6	null	6	0.0	1	1001.94	1	40.593575	17.116091
896	2024-02-07 07:00:00	25	massafra	11.69	1	86.58	1	0.0	1	null	6	null	6	0.0	1	1001.96	1	40.593575	17.116091
897	2024-02-07 08:00:00	25	massafra	11.55	1	88.12	1	0.0	1	null	6	null	6	21.92	1	1001.97	1	40.593575	17.116091
898	2024-02-07 09:00:00	25	massafra	12.55	1	88.66	1	0.0	1	null	6	null	6	133.94	1	1001.84	1	40.593575	17.116091
899	2024-02-07 10:00:00	25	massafra	14.35	1	77.56	1	0.0	1	null	6	null	6	264.39	1	1001.39	1	40.593575	17.116091
900	2024-02-07 11:00:00	25	massafra	16.59	1	63.59	1	0.0	1	null	6	null	6	354.01	1	1000.83	1	40.593575	17.116091
901	2024-02-07 12:00:00	25	massafra	16.9	1	60.24	1	0.0	1	null	6	null	6	298.55	1	1000.24	1	40.593575	17.116091
902	2024-02-07 13:00:00	25	massafra	17.25	1	62.09	1	0.0	1	null	6	null	6	357.47	1	999.35	1	40.593575	17.116091
903	2024-02-07 14:00:00	25	massafra	17.6	1	58.62	1	0.0	1	null	6	null	6	315.05	1	998.49	1	40.593575	17.116091
904	2024-02-07 15:00:00	25	massafra	16.94	1	61.56	1	0.0	1	null	6	null	6	191.23	1	997.81	1	40.593575	17.116091
905	2024-02-07 16:00:00	25	massafra	15.68	1	67.4	1	0.0	1	null	6	null	6	105.21	1	997.62	1	40.593575	17.116091
906	2024-02-07 17:00:00	25	massafra	14.8	1	73.82	1	0.0	1	null	6	null	6	22.27	1	997.48	1	40.593575	17.116091
907	2024-02-07 18:00:00	25	massafra	14.06	1	78.17	1	0.0	1	null	6	null	6	0.0	5	997.53	1	40.593575	17.116091
908	2024-02-07 19:00:00	25	massafra	13.37	1	80.3	1	0.0	1	null	6	null	6	0.0	1	997.71	1	40.593575	17.116091
909	2024-02-07 20:00:00	25	massafra	12.85	1	83.21	1	0.0	1	null	6	null	6	0.0	1	997.57	1	40.593575	17.116091
910	2024-02-07 21:00:00	25	massafra	12.48	1	85.56	1	0.0	1	null	6	null	6	0.0	1	997.16	1	40.593575	17.116091
911	2024-02-07 22:00:00	25	massafra	12.09	1	87.77	1	0.0	1	null	6	null	6	0.0	1	996.85	1	40.593575	17.116091
912	2024-02-07 23:00:00	25	massafra	12.39	1	89.7	1	0.0	1	null	6	null	6	0.0	1	996.58	1	40.593575	17.116091
913	2024-02-08 00:00:00	25	massafra	12.52	1	91.23	1	0.0	1	null	6	null	6	0.0	1	996.45	1	40.593575	17.116091
914	2024-02-08 01:00:00	25	massafra	12.09	1	91.75	1	0.0	1	null	6	null	6	0.0	1	996.27	1	40.593575	17.116091
915	2024-02-08 02:00:00	25	massafra	10.74	1	91.8	1	0.0	1	null	6	null	6	0.0	1	996.07	1	40.593575	17.116091
916	2024-02-08 03:00:00	25	massafra	9.71	1	91.57	1	0.0	1	null	6	null	6	0.0	1	995.94	1	40.593575	17.116091
917	2024-02-08 04:00:00	25	massafra	8.82	1	90.08	1	0.0	1	null	6	null	6	0.0	1	995.67	1	40.593575	17.116091
918	2024-02-08 05:00:00	25	massafra	8.67	1	85.24	1	0.0	1	null	6	null	6	0.0	1	995.59	1	40.593575	17.116091
919	2024-02-08 06:00:00	25	massafra	8.38	1	78.55	1	0.0	1	null	6	null	6	0.0	1	995.71	1	40.593575	17.116091
920	2024-02-08 07:00:00	25	massafra	7.94	1	76.14	1	0.0	1	null	6	null	6	0.0	1	995.86	1	40.593575	17.116091
921	2024-02-08 08:00:00	25	massafra	8.04	1	76.44	1	0.0	1	null	6	null	6	16.02	1	996.34	1	40.593575	17.116091
922	2024-02-08 09:00:00	25	massafra	11.81	1	68.61	1	0.0	1	null	6	null	6	176.69	1	996.71	1	40.593575	17.116091
923	2024-02-08 10:00:00	25	massafra	16.24	1	47.1	1	0.0	1	null	6	null	6	355.08	1	996.67	1	40.593575	17.116091
924	2024-02-08 11:00:00	25	massafra	16.89	1	45.71	1	0.0	1	null	6	null	6	467.54	1	996.88	1	40.593575	17.116091
925	2024-02-08 12:00:00	25	massafra	18.01	1	44.77	1	0.0	1	null	6	null	6	526.0	1	996.69	1	40.593575	17.116091
926	2024-02-08 13:00:00	25	massafra	19.64	1	40.05	1	0.0	1	null	6	null	6	533.33	1	995.98	1	40.593575	17.116091
927	2024-02-08 14:00:00	25	massafra	19.96	1	38.43	1	0.0	1	null	6	null	6	480.44	1	995.46	1	40.593575	17.116091
928	2024-02-08 15:00:00	25	massafra	19.3	1	39.69	1	0.0	1	null	6	null	6	356.05	1	995.3	1	40.593575	17.116091
929	2024-02-08 16:00:00	25	massafra	18.04	1	45.57	1	0.0	1	null	6	null	6	146.99	1	995.43	1	40.593575	17.116091
930	2024-02-08 17:00:00	25	massafra	17.17	1	53.26	1	0.0	1	null	6	null	6	56.45	1	995.51	1	40.593575	17.116091
931	2024-02-08 18:00:00	25	massafra	15.12	1	62.62	1	0.0	1	null	6	null	6	0.0	5	995.47	1	40.593575	17.116091
932	2024-02-08 19:00:00	25	massafra	13.46	1	67.99	1	0.0	1	null	6	null	6	0.0	1	995.95	1	40.593575	17.116091
933	2024-02-08 20:00:00	25	massafra	12.66	1	71.62	1	0.0	1	null	6	null	6	0.0	1	996.23	1	40.593575	17.116091
934	2024-02-08 21:00:00	25	massafra	11.7	1	71.64	1	0.0	1	null	6	null	6	0.0	1	996.38	1	40.593575	17.116091
935	2024-02-08 22:00:00	25	massafra	10.91	1	71.77	1	0.0	1	null	6	null	6	0.0	1	996.49	1	40.593575	17.116091
936	2024-02-08 23:00:00	25	massafra	10.26	1	72.5	1	0.0	1	null	6	null	6	0.0	1	996.61	1	40.593575	17.116091
937	2024-02-09 00:00:00	25	massafra	9.69	1	70.6	1	0.0	1	null	6	null	6	0.0	1	996.73	1	40.593575	17.116091
938	2024-02-09 01:00:00	25	massafra	9.57	1	71.89	1	0.0	1	null	6	null	6	0.0	1	996.65	1	40.593575	17.116091
939	2024-02-09 02:00:00	25	massafra	9.23	1	73.65	1	0.0	1	null	6	null	6	0.0	1	996.24	1	40.593575	17.116091
940	2024-02-09 03:00:00	25	massafra	9.44	1	79.33	1	0.0	1	null	6	null	6	0.0	1	995.94	1	40.593575	17.116091
941	2024-02-09 04:00:00	25	massafra	8.8	1	77.21	1	0.0	1	null	6	null	6	0.0	1	995.76	1	40.593575	17.116091
942	2024-02-09 05:00:00	25	massafra	8.62	1	74.26	1	0.0	1	null	6	null	6	0.0	1	995.77	1	40.593575	17.116091
943	2024-02-09 06:00:00	25	massafra	8.61	1	73.07	1	0.0	1	null	6	null	6	0.0	1	995.54	1	40.593575	17.116091
944	2024-02-09 07:00:00	25	massafra	8.47	1	72.28	1	0.0	1	null	6	null	6	0.0	5	995.51	1	40.593575	17.116091
945	2024-02-09 08:00:00	25	massafra	9.39	1	70.45	1	0.0	1	null	6	null	6	27.92	1	995.85	1	40.593575	17.116091
946	2024-02-09 09:00:00	25	massafra	13.32	1	63.38	1	0.0	1	null	6	null	6	191.58	1	995.85	1	40.593575	17.116091
947	2024-02-09 10:00:00	25	massafra	16.82	1	45.51	1	0.0	1	null	6	null	6	356.85	1	995.37	1	40.593575	17.116091
948	2024-02-09 11:00:00	25	massafra	17.53	1	40.65	1	0.0	1	null	6	null	6	371.13	1	995.32	1	40.593575	17.116091
949	2024-02-09 12:00:00	25	massafra	19.0	1	38.65	1	0.0	1	null	6	null	6	535.91	1	994.97	1	40.593575	17.116091
950	2024-02-09 13:00:00	25	massafra	18.71	1	39.31	1	0.0	1	null	6	null	6	422.3	1	994.22	1	40.593575	17.116091
951	2024-02-09 14:00:00	25	massafra	18.62	1	38.04	1	0.0	1	null	6	null	6	310.83	1	993.42	1	40.593575	17.116091
952	2024-02-09 15:00:00	25	massafra	17.07	1	42.83	1	0.0	1	null	6	null	6	121.46	1	992.95	1	40.593575	17.116091
953	2024-02-09 16:00:00	25	massafra	15.91	1	56.35	1	0.0	1	null	6	null	6	75.07	1	992.87	1	40.593575	17.116091
954	2024-02-09 17:00:00	25	massafra	15.31	1	65.3	1	0.0	1	null	6	null	6	76.39	1	992.45	1	40.593575	17.116091
955	2024-02-09 18:00:00	25	massafra	14.1	1	74.55	1	0.0	1	null	6	null	6	0.0	5	991.95	1	40.593575	17.116091
956	2024-02-09 19:00:00	25	massafra	13.46	1	81.47	1	0.0	1	null	6	null	6	0.0	1	991.82	1	40.593575	17.116091
957	2024-02-09 20:00:00	25	massafra	13.04	1	85.16	1	0.0	1	null	6	null	6	0.0	1	991.88	1	40.593575	17.116091
958	2024-02-09 21:00:00	25	massafra	12.97	1	87.21	1	0.0	1	null	6	null	6	0.0	1	991.51	1	40.593575	17.116091
959	2024-02-09 22:00:00	25	massafra	13.65	1	88.24	1	0.0	1	null	6	null	6	0.0	1	991.25	1	40.593575	17.116091
960	2024-02-09 23:00:00	25	massafra	13.99	1	87.66	1	0.0	1	null	6	null	6	0.0	1	991.24	1	40.593575	17.116091
961	2024-02-10 00:00:00	25	massafra	14.03	1	87.41	1	0.0	1	null	6	null	6	0.0	1	990.94	1	40.593575	17.116091
962	2024-02-10 01:00:00	25	massafra	14.14	1	87.42	1	0.0	1	null	6	null	6	0.0	1	990.2	1	40.593575	17.116091
963	2024-02-10 02:00:00	25	massafra	14.18	1	87.25	1	0.0	1	null	6	null	6	0.0	1	989.96	1	40.593575	17.116091
964	2024-02-10 03:00:00	25	massafra	14.17	1	87.42	1	0.0	1	null	6	null	6	0.0	1	989.52	1	40.593575	17.116091
965	2024-02-10 04:00:00	25	massafra	14.07	1	87.72	1	0.0	1	null	6	null	6	0.0	1	989.04	1	40.593575	17.116091
966	2024-02-10 05:00:00	25	massafra	13.85	1	88.53	1	0.0	1	null	6	null	6	0.0	1	989.12	1	40.593575	17.116091
967	2024-02-10 06:00:00	25	massafra	13.76	1	89.16	1	0.0	1	null	6	null	6	0.0	1	988.83	1	40.593575	17.116091
968	2024-02-10 07:00:00	25	massafra	13.56	1	89.83	1	0.0	1	null	6	null	6	0.0	1	988.46	1	40.593575	17.116091
969	2024-02-10 08:00:00	25	massafra	13.53	1	89.7	1	0.0	1	null	6	null	6	0.0	5	988.49	1	40.593575	17.116091
970	2024-02-10 09:00:00	25	massafra	13.82	1	88.85	1	0.0	1	null	6	null	6	38.13	1	988.44	1	40.593575	17.116091
971	2024-02-10 10:00:00	25	massafra	14.45	1	86.79	1	0.0	1	null	6	null	6	75.07	1	988.49	1	40.593575	17.116091
972	2024-02-10 11:00:00	25	massafra	14.96	1	82.4	1	0.0	1	null	6	null	6	65.94	1	988.33	1	40.593575	17.116091
973	2024-02-10 12:00:00	25	massafra	15.47	1	77.53	1	0.0	1	null	6	null	6	133.65	1	988.03	1	40.593575	17.116091
974	2024-02-10 13:00:00	25	massafra	15.96	1	75.36	1	0.0	1	null	6	null	6	120.85	1	987.11	1	40.593575	17.116091
975	2024-02-10 14:00:00	25	massafra	15.68	1	69.65	1	0.0	1	null	6	null	6	46.33	1	986.19	1	40.593575	17.116091
976	2024-02-10 15:00:00	25	massafra	15.34	1	78.21	1	0.0	1	null	6	null	6	38.76	1	985.54	1	40.593575	17.116091
977	2024-02-10 16:00:00	25	massafra	15.02	1	84.19	1	0.0	1	null	6	null	6	22.02	1	985.28	1	40.593575	17.116091
978	2024-02-10 17:00:00	25	massafra	14.79	1	86.94	1	0.0	1	null	6	null	6	8.05	1	984.4	1	40.593575	17.116091
979	2024-02-10 18:00:00	25	massafra	14.72	1	89.16	1	0.0	1	null	6	null	6	0.0	1	983.63	1	40.593575	17.116091
980	2024-02-10 19:00:00	25	massafra	14.76	1	89.08	1	0.0	1	null	6	null	6	0.0	1	983.22	1	40.593575	17.116091
981	2024-02-10 20:00:00	25	massafra	14.78	1	86.66	1	0.0	1	null	6	null	6	0.0	1	983.49	1	40.593575	17.116091
982	2024-02-10 21:00:00	25	massafra	14.68	1	83.83	1	0.0	1	null	6	null	6	0.0	1	983.99	1	40.593575	17.116091
983	2024-02-10 22:00:00	25	massafra	14.24	1	85.49	1	0.2	1	null	6	null	6	0.0	1	984.25	1	40.593575	17.116091
984	2024-02-10 23:00:00	25	massafra	14.44	1	86.79	1	0.0	1	null	6	null	6	0.0	1	984.06	1	40.593575	17.116091
985	2024-02-11 00:00:00	25	massafra	14.4	1	87.67	1	0.4	1	null	6	null	6	0.0	1	983.44	1	40.593575	17.116091
986	2024-02-11 01:00:00	25	massafra	13.57	1	87.19	1	0.0	1	null	6	null	6	0.0	1	983.12	1	40.593575	17.116091
987	2024-02-11 02:00:00	25	massafra	13.93	1	75.17	1	0.0	1	null	6	null	6	0.0	1	983.25	1	40.593575	17.116091
988	2024-02-11 03:00:00	25	massafra	14.22	1	68.0	1	0.0	1	null	6	null	6	0.0	1	982.76	1	40.593575	17.116091
989	2024-02-11 04:00:00	25	massafra	13.79	1	70.91	1	0.0	1	null	6	null	6	0.0	1	981.97	1	40.593575	17.116091
990	2024-02-11 05:00:00	25	massafra	13.54	1	78.79	1	0.0	1	null	6	null	6	0.0	1	981.57	1	40.593575	17.116091
991	2024-02-11 06:00:00	25	massafra	13.68	1	71.47	1	0.0	1	null	6	null	6	0.0	1	981.32	1	40.593575	17.116091
992	2024-02-11 07:00:00	25	massafra	13.32	1	71.92	1	0.0	1	null	6	null	6	0.0	1	981.18	1	40.593575	17.116091
993	2024-02-11 08:00:00	25	massafra	12.91	1	74.97	1	0.0	1	null	6	null	6	16.37	1	981.42	1	40.593575	17.116091
994	2024-02-11 09:00:00	25	massafra	14.03	1	74.15	1	0.0	1	null	6	null	6	144.76	1	981.92	1	40.593575	17.116091
995	2024-02-11 10:00:00	25	massafra	15.9	1	62.26	1	0.0	1	null	6	null	6	360.2	1	982.31	1	40.593575	17.116091
996	2024-02-11 11:00:00	25	massafra	17.14	1	53.52	1	0.0	1	null	6	null	6	482.1	1	982.79	1	40.593575	17.116091
997	2024-02-11 12:00:00	25	massafra	18.54	1	48.77	1	0.0	1	null	6	null	6	505.39	1	982.91	1	40.593575	17.116091
998	2024-02-11 13:00:00	25	massafra	18.37	1	44.78	1	0.0	1	null	6	null	6	377.21	1	982.69	1	40.593575	17.116091
999	2024-02-11 14:00:00	25	massafra	17.19	1	47.06	1	0.0	1	null	6	null	6	272.55	1	982.5	1	40.593575	17.116091
1000	2024-02-11 15:00:00	25	massafra	16.32	1	50.61	1	0.0	1	null	6	null	6	151.23	1	982.63	1	40.593575	17.116091
1001	2024-02-11 16:00:00	25	massafra	14.98	1	56.1	1	0.0	1	null	6	null	6	40.99	1	982.84	1	40.593575	17.116091
1002	2024-02-11 17:00:00	25	massafra	14.05	1	53.82	1	0.0	1	null	6	null	6	14.34	1	983.04	1	40.593575	17.116091
1003	2024-02-11 18:00:00	25	massafra	13.5	1	55.7	1	0.0	1	null	6	null	6	0.0	5	983.18	1	40.593575	17.116091
1004	2024-02-11 19:00:00	25	massafra	12.66	1	62.79	1	0.0	1	null	6	null	6	0.0	1	983.62	1	40.593575	17.116091
1005	2024-02-11 20:00:00	25	massafra	12.34	1	60.26	1	0.0	1	null	6	null	6	0.0	1	983.99	1	40.593575	17.116091
1006	2024-02-11 21:00:00	25	massafra	11.77	1	58.65	1	0.0	1	null	6	null	6	0.0	1	984.45	1	40.593575	17.116091
1007	2024-02-11 22:00:00	25	massafra	11.38	1	56.91	1	0.0	1	null	6	null	6	0.0	1	985.05	1	40.593575	17.116091
1008	2024-02-11 23:00:00	25	massafra	10.65	1	57.4	1	0.0	1	null	6	null	6	0.0	1	985.29	1	40.593575	17.116091
1009	2024-02-12 00:00:00	25	massafra	9.69	1	60.52	1	0.0	1	null	6	null	6	0.0	1	985.21	1	40.593575	17.116091
1010	2024-02-12 01:00:00	25	massafra	9.43	1	60.35	1	0.0	1	null	6	null	6	0.0	1	985.32	1	40.593575	17.116091
1011	2024-02-12 02:00:00	25	massafra	8.91	1	61.51	1	0.0	1	null	6	null	6	0.0	1	985.42	1	40.593575	17.116091
1012	2024-02-12 03:00:00	25	massafra	8.5	1	62.72	1	0.0	1	null	6	null	6	0.0	1	985.52	1	40.593575	17.116091
1013	2024-02-12 04:00:00	25	massafra	8.65	1	61.18	1	0.0	1	null	6	null	6	0.0	1	985.54	1	40.593575	17.116091
1014	2024-02-12 05:00:00	25	massafra	8.18	1	61.74	1	0.0	1	null	6	null	6	0.0	1	985.8	1	40.593575	17.116091
1015	2024-02-12 06:00:00	25	massafra	8.08	1	61.88	1	0.0	1	null	6	null	6	0.0	1	986.1	1	40.593575	17.116091
1016	2024-02-12 07:00:00	25	massafra	8.62	1	62.82	1	0.0	1	null	6	null	6	0.0	5	986.28	1	40.593575	17.116091
1017	2024-02-12 08:00:00	25	massafra	9.52	1	63.43	1	0.0	1	null	6	null	6	20.58	1	986.85	1	40.593575	17.116091
1018	2024-02-12 09:00:00	25	massafra	11.33	1	56.62	1	0.0	1	null	6	null	6	102.62	1	987.42	1	40.593575	17.116091
1019	2024-02-12 10:00:00	25	massafra	13.02	1	51.74	1	0.0	1	null	6	null	6	253.93	1	987.7	1	40.593575	17.116091
1020	2024-02-12 11:00:00	25	massafra	15.04	1	46.54	1	0.0	1	null	6	null	6	455.82	1	987.87	1	40.593575	17.116091
1021	2024-02-12 12:00:00	25	massafra	16.89	1	40.4	1	0.0	1	null	6	null	6	562.65	1	987.39	1	40.593575	17.116091
1022	2024-02-12 13:00:00	25	massafra	18.27	1	35.78	1	0.0	1	null	6	null	6	518.78	1	986.89	1	40.593575	17.116091
1023	2024-02-12 14:00:00	25	massafra	17.29	1	40.25	1	0.0	1	null	6	null	6	301.02	1	986.81	1	40.593575	17.116091
1024	2024-02-12 15:00:00	25	massafra	16.03	1	44.15	1	0.0	1	null	6	null	6	115.61	1	987.08	1	40.593575	17.116091
1025	2024-02-12 16:00:00	25	massafra	15.69	1	49.26	1	0.0	1	null	6	null	6	136.89	1	987.52	1	40.593575	17.116091
1026	2024-02-12 17:00:00	25	massafra	14.49	1	55.69	1	0.0	1	null	6	null	6	71.02	1	987.98	1	40.593575	17.116091
1027	2024-02-12 18:00:00	25	massafra	13.48	1	59.18	1	0.0	1	null	6	null	6	0.0	5	988.82	1	40.593575	17.116091
1028	2024-02-12 19:00:00	25	massafra	13.07	1	63.24	1	0.0	1	null	6	null	6	0.0	1	989.86	1	40.593575	17.116091
1029	2024-02-12 20:00:00	25	massafra	12.77	1	61.83	1	0.0	1	null	6	null	6	0.0	1	990.29	1	40.593575	17.116091
1030	2024-02-12 21:00:00	25	massafra	12.52	1	62.52	1	0.0	1	null	6	null	6	0.0	1	991.05	1	40.593575	17.116091
1031	2024-02-12 22:00:00	25	massafra	11.9	1	66.75	1	0.0	1	null	6	null	6	0.0	1	991.57	1	40.593575	17.116091
1032	2024-02-12 23:00:00	25	massafra	11.13	1	69.16	1	0.0	1	null	6	null	6	0.0	1	991.87	1	40.593575	17.116091
1033	2024-02-13 00:00:00	25	massafra	10.53	1	67.64	1	0.0	1	null	6	null	6	0.0	1	992.15	1	40.593575	17.116091
1034	2024-02-13 01:00:00	25	massafra	10.23	1	66.58	1	0.0	1	null	6	null	6	0.0	1	992.34	1	40.593575	17.116091
1035	2024-02-13 02:00:00	25	massafra	10.55	1	63.79	1	0.0	1	null	6	null	6	0.0	1	992.31	1	40.593575	17.116091
1036	2024-02-13 03:00:00	25	massafra	10.18	1	63.03	1	0.0	1	null	6	null	6	0.0	1	992.46	1	40.593575	17.116091
1037	2024-02-13 04:00:00	25	massafra	9.87	1	61.53	1	0.0	1	null	6	null	6	0.0	1	992.63	1	40.593575	17.116091
1038	2024-02-13 05:00:00	25	massafra	9.75	1	65.17	1	0.0	1	null	6	null	6	0.0	1	992.97	1	40.593575	17.116091
1039	2024-02-13 06:00:00	25	massafra	9.96	1	68.4	1	0.0	1	null	6	null	6	0.0	1	993.33	1	40.593575	17.116091
1040	2024-02-13 07:00:00	25	massafra	9.98	1	66.8	1	0.0	1	null	6	null	6	0.0	5	993.92	1	40.593575	17.116091
1041	2024-02-13 08:00:00	25	massafra	9.49	1	67.64	1	0.0	1	null	6	null	6	30.83	1	994.91	1	40.593575	17.116091
1042	2024-02-13 09:00:00	25	massafra	10.43	1	66.27	1	0.0	1	null	6	null	6	116.92	1	995.5	1	40.593575	17.116091
1043	2024-02-13 10:00:00	25	massafra	12.85	1	58.97	1	0.0	1	null	6	null	6	230.36	1	995.87	1	40.593575	17.116091
1044	2024-02-13 11:00:00	25	massafra	13.87	1	53.9	1	0.0	1	null	6	null	6	281.93	1	996.34	1	40.593575	17.116091
1045	2024-02-13 12:00:00	25	massafra	13.99	1	52.53	1	0.0	1	null	6	null	6	204.19	1	996.18	1	40.593575	17.116091
1046	2024-02-13 13:00:00	25	massafra	14.08	1	50.37	1	0.0	1	null	6	null	6	216.43	1	995.93	1	40.593575	17.116091
1047	2024-02-13 14:00:00	25	massafra	13.88	1	49.81	1	0.0	1	null	6	null	6	112.33	1	995.72	1	40.593575	17.116091
1048	2024-02-13 15:00:00	25	massafra	13.94	1	50.7	1	0.0	1	null	6	null	6	89.91	1	995.75	1	40.593575	17.116091
1049	2024-02-13 16:00:00	25	massafra	13.84	1	52.84	1	0.0	1	null	6	null	6	81.85	1	996.14	1	40.593575	17.116091
1050	2024-02-13 17:00:00	25	massafra	12.06	1	58.31	1	0.0	1	null	6	null	6	23.58	1	996.76	1	40.593575	17.116091
1051	2024-02-13 18:00:00	25	massafra	10.85	1	63.16	1	0.0	1	null	6	null	6	0.0	5	997.57	1	40.593575	17.116091
1052	2024-02-13 19:00:00	25	massafra	10.58	1	63.46	1	0.0	1	null	6	null	6	0.0	1	998.24	1	40.593575	17.116091
1053	2024-02-13 20:00:00	25	massafra	10.73	1	60.46	1	0.0	1	null	6	null	6	0.0	1	998.68	1	40.593575	17.116091
1054	2024-02-13 21:00:00	25	massafra	10.79	1	62.74	1	0.0	1	null	6	null	6	0.0	1	998.97	1	40.593575	17.116091
1055	2024-02-13 22:00:00	25	massafra	10.72	1	64.2	1	0.0	1	null	6	null	6	0.0	1	999.16	1	40.593575	17.116091
1056	2024-02-13 23:00:00	25	massafra	10.48	1	63.4	1	0.0	1	null	6	null	6	0.0	1	999.08	1	40.593575	17.116091
1057	2024-02-14 00:00:00	25	massafra	10.85	1	59.78	1	0.0	1	null	6	null	6	0.0	1	999.17	1	40.593575	17.116091
1058	2024-02-14 01:00:00	25	massafra	10.58	1	61.92	1	0.0	1	null	6	null	6	0.0	1	999.51	1	40.593575	17.116091
1059	2024-02-14 02:00:00	25	massafra	9.97	1	65.24	1	0.0	1	null	6	null	6	0.0	1	1000.22	1	40.593575	17.116091
1060	2024-02-14 03:00:00	25	massafra	9.03	1	67.31	1	0.0	1	null	6	null	6	0.0	1	1000.5	1	40.593575	17.116091
1061	2024-02-14 04:00:00	25	massafra	8.7	1	68.78	1	0.0	1	null	6	null	6	0.0	1	1000.65	1	40.593575	17.116091
1062	2024-02-14 05:00:00	25	massafra	8.51	1	69.02	1	0.0	1	null	6	null	6	0.0	1	1001.26	1	40.593575	17.116091
1063	2024-02-14 06:00:00	25	massafra	8.94	1	67.17	1	0.0	1	null	6	null	6	0.0	1	1001.66	1	40.593575	17.116091
1064	2024-02-14 07:00:00	25	massafra	8.42	1	67.99	1	0.0	1	null	6	null	6	0.0	5	1002.05	1	40.593575	17.116091
1065	2024-02-14 08:00:00	25	massafra	8.52	1	66.12	1	0.0	1	null	6	null	6	24.38	1	1002.55	1	40.593575	17.116091
1066	2024-02-14 09:00:00	25	massafra	10.85	1	54.84	1	0.0	1	null	6	null	6	217.93	1	1002.94	1	40.593575	17.116091
1067	2024-02-14 10:00:00	25	massafra	12.59	1	43.08	1	0.0	1	null	6	null	6	338.64	1	1002.98	1	40.593575	17.116091
1068	2024-02-14 11:00:00	25	massafra	13.34	1	36.93	1	0.0	1	null	6	null	6	478.21	1	1002.95	1	40.593575	17.116091
1069	2024-02-14 12:00:00	25	massafra	14.44	1	34.59	1	0.0	1	null	6	null	6	598.67	1	1002.73	1	40.593575	17.116091
1070	2024-02-14 13:00:00	25	massafra	14.59	1	32.57	1	0.0	1	null	6	null	6	593.84	1	1002.68	1	40.593575	17.116091
1071	2024-02-14 14:00:00	25	massafra	14.57	1	32.76	1	0.0	1	null	6	null	6	556.74	1	1002.61	1	40.593575	17.116091
1072	2024-02-14 15:00:00	25	massafra	14.18	1	33.1	1	0.0	1	null	6	null	6	439.78	1	1002.55	1	40.593575	17.116091
1073	2024-02-14 16:00:00	25	massafra	13.75	1	35.82	1	0.0	1	null	6	null	6	284.72	1	1002.66	1	40.593575	17.116091
1074	2024-02-14 17:00:00	25	massafra	13.03	1	37.94	1	0.0	1	null	6	null	6	88.38	1	1002.87	1	40.593575	17.116091
1075	2024-02-14 18:00:00	25	massafra	11.72	1	45.46	1	0.0	1	null	6	null	6	0.0	5	1002.72	1	40.593575	17.116091
1076	2024-02-14 19:00:00	25	massafra	11.17	1	48.0	1	0.0	1	null	6	null	6	0.0	1	1002.98	1	40.593575	17.116091
1077	2024-02-14 20:00:00	25	massafra	10.9	1	50.77	1	0.0	1	null	6	null	6	0.0	1	1003.31	1	40.593575	17.116091
1078	2024-02-14 21:00:00	25	massafra	10.71	1	53.15	1	0.0	1	null	6	null	6	0.0	1	1004.27	1	40.593575	17.116091
1079	2024-02-14 22:00:00	25	massafra	10.29	1	53.8	1	0.0	1	null	6	null	6	0.0	1	1004.89	1	40.593575	17.116091
1080	2024-02-14 23:00:00	25	massafra	10.21	1	48.64	1	0.0	1	null	6	null	6	0.0	1	1004.53	1	40.593575	17.116091
1081	2024-02-15 00:00:00	25	massafra	10.22	1	48.46	1	0.0	1	null	6	null	6	0.0	1	1004.65	1	40.593575	17.116091
1082	2024-02-15 01:00:00	25	massafra	10.18	1	48.84	1	0.0	1	null	6	null	6	0.0	1	1004.63	1	40.593575	17.116091
1083	2024-02-15 02:00:00	25	massafra	10.1	1	52.32	1	0.0	1	null	6	null	6	0.0	1	1004.64	1	40.593575	17.116091
1084	2024-02-15 03:00:00	25	massafra	10.09	1	54.86	1	0.0	1	null	6	null	6	0.0	1	1004.44	1	40.593575	17.116091
1085	2024-02-15 04:00:00	25	massafra	9.88	1	55.97	1	0.0	1	null	6	null	6	0.0	1	1004.27	1	40.593575	17.116091
1086	2024-02-15 05:00:00	25	massafra	9.7	1	56.98	1	0.0	1	null	6	null	6	0.0	1	1004.44	1	40.593575	17.116091
1087	2024-02-15 06:00:00	25	massafra	9.72	1	59.09	1	0.0	1	null	6	null	6	0.0	1	1004.86	1	40.593575	17.116091
1088	2024-02-15 07:00:00	25	massafra	9.83	1	57.0	1	0.0	1	null	6	null	6	0.0	5	1004.89	1	40.593575	17.116091
1089	2024-02-15 08:00:00	25	massafra	10.41	1	57.28	1	0.0	1	null	6	null	6	20.66	1	1005.26	1	40.593575	17.116091
1090	2024-02-15 09:00:00	25	massafra	12.42	1	53.97	1	0.0	1	null	6	null	6	235.78	1	1005.36	1	40.593575	17.116091
1091	2024-02-15 10:00:00	25	massafra	13.86	1	52.69	1	0.0	1	null	6	null	6	410.04	1	1005.29	1	40.593575	17.116091
1092	2024-02-15 11:00:00	25	massafra	15.09	1	43.35	1	0.0	1	null	6	null	6	524.2	1	1005.23	1	40.593575	17.116091
1093	2024-02-15 12:00:00	25	massafra	16.34	1	37.53	1	0.0	1	null	6	null	6	583.64	1	1004.96	1	40.593575	17.116091
1094	2024-02-15 13:00:00	25	massafra	16.67	1	37.71	1	0.0	1	null	6	null	6	588.45	1	1004.59	1	40.593575	17.116091
1095	2024-02-15 14:00:00	25	massafra	16.68	1	37.78	1	0.0	1	null	6	null	6	539.95	1	1004.09	1	40.593575	17.116091
1096	2024-02-15 15:00:00	25	massafra	16.68	1	39.51	1	0.0	1	null	6	null	6	434.64	1	1003.67	1	40.593575	17.116091
1097	2024-02-15 16:00:00	25	massafra	16.36	1	40.96	1	0.0	1	null	6	null	6	288.26	1	1003.3	1	40.593575	17.116091
1098	2024-02-15 17:00:00	25	massafra	15.36	1	42.8	1	0.0	1	null	6	null	6	97.02	1	1003.34	1	40.593575	17.116091
1099	2024-02-15 18:00:00	25	massafra	13.63	1	47.11	1	0.0	1	null	6	null	6	0.0	5	1003.59	1	40.593575	17.116091
1100	2024-02-15 19:00:00	25	massafra	12.64	1	52.47	1	0.0	1	null	6	null	6	0.0	1	1003.95	1	40.593575	17.116091
1101	2024-02-15 20:00:00	25	massafra	11.76	1	64.62	1	0.0	1	null	6	null	6	0.0	1	1004.54	1	40.593575	17.116091
1102	2024-02-15 21:00:00	25	massafra	10.81	1	69.24	1	0.0	1	null	6	null	6	0.0	1	1004.7	1	40.593575	17.116091
1103	2024-02-15 22:00:00	25	massafra	10.78	1	71.79	1	0.0	1	null	6	null	6	0.0	1	1004.89	1	40.593575	17.116091
1104	2024-02-15 23:00:00	25	massafra	10.58	1	74.32	1	0.0	1	null	6	null	6	0.0	1	1004.54	1	40.593575	17.116091
1105	2024-02-16 00:00:00	25	massafra	10.58	1	70.52	1	0.0	1	null	6	null	6	0.0	1	1004.31	1	40.593575	17.116091
1106	2024-02-16 01:00:00	25	massafra	11.08	1	67.43	1	0.0	1	null	6	null	6	0.0	1	1004.14	1	40.593575	17.116091
1107	2024-02-16 02:00:00	25	massafra	10.3	1	72.87	1	0.0	1	null	6	null	6	0.0	1	1004.09	1	40.593575	17.116091
1108	2024-02-16 03:00:00	25	massafra	10.06	1	67.59	1	0.0	1	null	6	null	6	0.0	1	1003.98	1	40.593575	17.116091
1109	2024-02-16 04:00:00	25	massafra	9.3	1	62.99	1	0.0	1	null	6	null	6	0.0	1	1003.73	1	40.593575	17.116091
1110	2024-02-16 05:00:00	25	massafra	9.0	1	61.0	1	0.0	1	null	6	null	6	0.0	1	1003.76	1	40.593575	17.116091
1111	2024-02-16 06:00:00	25	massafra	9.31	1	58.1	1	0.0	1	null	6	null	6	0.0	1	1003.7	1	40.593575	17.116091
1112	2024-02-16 07:00:00	25	massafra	9.09	1	57.59	1	0.0	1	null	6	null	6	0.0	5	1003.86	1	40.593575	17.116091
1113	2024-02-16 08:00:00	25	massafra	8.76	1	60.3	1	0.0	1	null	6	null	6	16.49	1	1004.35	1	40.593575	17.116091
1114	2024-02-16 09:00:00	25	massafra	12.56	1	51.54	1	0.0	1	null	6	null	6	242.29	1	1004.59	1	40.593575	17.116091
1115	2024-02-16 10:00:00	25	massafra	15.54	1	44.0	1	0.0	1	null	6	null	6	414.37	1	1004.3	1	40.593575	17.116091
1116	2024-02-16 11:00:00	25	massafra	18.94	1	34.44	1	0.0	1	null	6	null	6	521.9	1	1004.22	1	40.593575	17.116091
1117	2024-02-16 12:00:00	25	massafra	20.35	1	27.58	1	0.0	1	null	6	null	6	582.76	1	1003.8	1	40.593575	17.116091
1118	2024-02-16 13:00:00	25	massafra	20.79	1	28.82	1	0.0	1	null	6	null	6	584.99	1	1003.33	1	40.593575	17.116091
1119	2024-02-16 14:00:00	25	massafra	20.62	1	30.9	1	0.0	1	null	6	null	6	528.12	1	1002.91	1	40.593575	17.116091
1120	2024-02-16 15:00:00	25	massafra	20.75	1	27.85	1	0.0	1	null	6	null	6	420.61	1	1002.72	1	40.593575	17.116091
1121	2024-02-16 16:00:00	25	massafra	19.0	1	34.24	1	0.0	1	null	6	null	6	274.18	1	1002.91	1	40.593575	17.116091
1122	2024-02-16 17:00:00	25	massafra	16.99	1	43.67	1	0.0	1	null	6	null	6	92.5	1	1003.27	1	40.593575	17.116091
1123	2024-02-16 18:00:00	25	massafra	14.37	1	56.18	1	0.0	1	null	6	null	6	0.0	5	1003.8	1	40.593575	17.116091
1124	2024-02-16 19:00:00	25	massafra	12.62	1	64.07	1	0.0	1	null	6	null	6	0.0	1	1004.48	1	40.593575	17.116091
1125	2024-02-16 20:00:00	25	massafra	11.47	1	63.19	1	0.0	1	null	6	null	6	0.0	1	1004.91	1	40.593575	17.116091
1126	2024-02-16 21:00:00	25	massafra	10.72	1	64.36	1	0.0	1	null	6	null	6	0.0	1	1005.22	1	40.593575	17.116091
1127	2024-02-16 22:00:00	25	massafra	10.37	1	65.1	1	0.0	1	null	6	null	6	0.0	1	1005.6	1	40.593575	17.116091
1128	2024-02-16 23:00:00	25	massafra	9.75	1	66.06	1	0.0	1	null	6	null	6	0.0	1	1005.92	1	40.593575	17.116091
1129	2024-02-17 00:00:00	25	massafra	9.73	1	67.32	1	0.0	1	null	6	null	6	0.0	1	1006.04	1	40.593575	17.116091
1130	2024-02-17 01:00:00	25	massafra	9.17	1	68.55	1	0.0	1	null	6	null	6	0.0	1	1006.04	1	40.593575	17.116091
1131	2024-02-17 02:00:00	25	massafra	9.01	1	68.83	1	0.0	1	null	6	null	6	0.0	1	1006.03	1	40.593575	17.116091
1132	2024-02-17 03:00:00	25	massafra	8.73	1	66.18	1	0.0	1	null	6	null	6	0.0	1	1006.03	1	40.593575	17.116091
1133	2024-02-17 04:00:00	25	massafra	7.96	1	56.77	1	0.0	1	null	6	null	6	0.0	1	1006.05	1	40.593575	17.116091
1134	2024-02-17 05:00:00	25	massafra	7.71	1	47.07	1	0.0	1	null	6	null	6	0.0	1	1006.19	1	40.593575	17.116091
1135	2024-02-17 06:00:00	25	massafra	7.43	1	45.16	1	0.0	1	null	6	null	6	0.0	1	1006.59	1	40.593575	17.116091
1136	2024-02-17 07:00:00	25	massafra	6.9	1	44.87	1	0.0	1	null	6	null	6	0.0	5	1007.05	1	40.593575	17.116091
1137	2024-02-17 08:00:00	25	massafra	7.45	1	44.29	1	0.0	1	null	6	null	6	18.12	1	1007.67	1	40.593575	17.116091
1138	2024-02-17 09:00:00	25	massafra	12.38	1	42.68	1	0.0	1	null	6	null	6	245.03	1	1008.2	1	40.593575	17.116091
1139	2024-02-17 10:00:00	25	massafra	16.52	1	36.04	1	0.0	1	null	6	null	6	418.05	1	1008.31	1	40.593575	17.116091
1140	2024-02-17 11:00:00	25	massafra	18.18	1	30.9	1	0.0	1	null	6	null	6	522.69	1	1008.48	1	40.593575	17.116091
1141	2024-02-17 12:00:00	25	massafra	18.77	1	31.78	1	0.0	1	null	6	null	6	580.59	1	1008.45	1	40.593575	17.116091
1142	2024-02-17 13:00:00	25	massafra	19.74	1	33.31	1	0.0	1	null	6	null	6	581.68	1	1008.16	1	40.593575	17.116091
1143	2024-02-17 14:00:00	25	massafra	20.15	1	29.36	1	0.0	1	null	6	null	6	529.06	1	1007.83	1	40.593575	17.116091
1144	2024-02-17 15:00:00	25	massafra	19.72	1	29.75	1	0.0	1	null	6	null	6	425.28	1	1007.99	1	40.593575	17.116091
1145	2024-02-17 16:00:00	25	massafra	18.97	1	30.51	1	0.0	1	null	6	null	6	274.78	1	1008.43	1	40.593575	17.116091
1146	2024-02-17 17:00:00	25	massafra	17.33	1	36.19	1	0.0	1	null	6	null	6	93.3	1	1008.95	1	40.593575	17.116091
1147	2024-02-17 18:00:00	25	massafra	14.22	1	48.82	1	0.0	1	null	6	null	6	0.0	5	1009.68	1	40.593575	17.116091
1148	2024-02-17 19:00:00	25	massafra	12.76	1	53.02	1	0.0	1	null	6	null	6	0.0	1	1010.38	1	40.593575	17.116091
1149	2024-02-17 20:00:00	25	massafra	11.45	1	53.0	1	0.0	1	null	6	null	6	0.0	1	1010.81	1	40.593575	17.116091
1150	2024-02-17 21:00:00	25	massafra	11.2	1	57.07	1	0.0	1	null	6	null	6	0.0	1	1011.41	1	40.593575	17.116091
1151	2024-02-17 22:00:00	25	massafra	11.05	1	61.87	1	0.0	1	null	6	null	6	0.0	1	1011.77	1	40.593575	17.116091
1152	2024-02-17 23:00:00	25	massafra	10.76	1	65.42	1	0.0	1	null	6	null	6	0.0	1	1011.9	1	40.593575	17.116091
1153	2024-02-18 00:00:00	25	massafra	10.38	1	66.74	1	0.0	1	null	6	null	6	0.0	1	1012.05	1	40.593575	17.116091
1154	2024-02-18 01:00:00	25	massafra	9.89	1	71.97	1	0.0	1	null	6	null	6	0.0	1	1012.19	1	40.593575	17.116091
1155	2024-02-18 02:00:00	25	massafra	9.99	1	75.65	1	0.0	1	null	6	null	6	0.0	1	1012.24	1	40.593575	17.116091
1156	2024-02-18 03:00:00	25	massafra	9.51	1	78.01	1	0.0	1	null	6	null	6	0.0	1	1012.28	1	40.593575	17.116091
1157	2024-02-18 04:00:00	25	massafra	8.93	1	80.16	1	0.0	1	null	6	null	6	0.0	1	1012.26	1	40.593575	17.116091
1158	2024-02-18 05:00:00	25	massafra	8.73	1	82.43	1	0.0	1	null	6	null	6	0.0	1	1012.3	1	40.593575	17.116091
1159	2024-02-18 06:00:00	25	massafra	8.91	1	83.38	1	0.0	1	null	6	null	6	0.0	1	1012.61	1	40.593575	17.116091
1160	2024-02-18 07:00:00	25	massafra	8.65	1	82.36	1	0.0	1	null	6	null	6	0.0	5	1012.79	1	40.593575	17.116091
1161	2024-02-18 08:00:00	25	massafra	9.21	1	79.25	1	0.0	1	null	6	null	6	23.4	1	1013.35	1	40.593575	17.116091
1162	2024-02-18 09:00:00	25	massafra	11.14	1	69.98	1	0.0	1	null	6	null	6	234.77	1	1013.61	1	40.593575	17.116091
1163	2024-02-18 10:00:00	25	massafra	13.57	1	58.02	1	0.0	1	null	6	null	6	400.98	1	1013.4	1	40.593575	17.116091
1164	2024-02-18 11:00:00	25	massafra	15.27	1	51.33	1	0.0	1	null	6	null	6	515.33	1	1013.09	1	40.593575	17.116091
1165	2024-02-18 12:00:00	25	massafra	17.7	1	43.42	1	0.0	1	null	6	null	6	571.98	1	1012.58	1	40.593575	17.116091
1166	2024-02-18 13:00:00	25	massafra	18.98	1	34.05	1	0.0	1	null	6	null	6	573.54	1	1011.96	1	40.593575	17.116091
1167	2024-02-18 14:00:00	25	massafra	19.79	1	31.74	1	0.0	1	null	6	null	6	522.71	1	1011.19	1	40.593575	17.116091
1168	2024-02-18 15:00:00	25	massafra	19.78	1	31.61	1	0.0	1	null	6	null	6	410.02	1	1010.69	1	40.593575	17.116091
1169	2024-02-18 16:00:00	25	massafra	19.33	1	35.52	1	0.0	1	null	6	null	6	277.22	1	1010.6	1	40.593575	17.116091
1170	2024-02-18 17:00:00	25	massafra	18.18	1	43.52	1	0.0	1	null	6	null	6	102.18	1	1010.48	1	40.593575	17.116091
1171	2024-02-18 18:00:00	25	massafra	15.3	1	51.9	1	0.0	1	null	6	null	6	0.0	5	1010.42	1	40.593575	17.116091
1172	2024-02-18 19:00:00	25	massafra	13.95	1	54.77	1	0.0	1	null	6	null	6	0.0	1	1010.51	1	40.593575	17.116091
1173	2024-02-18 20:00:00	25	massafra	13.0	1	61.58	1	0.0	1	null	6	null	6	0.0	1	1010.46	1	40.593575	17.116091
1174	2024-02-18 21:00:00	25	massafra	12.41	1	60.62	1	0.0	1	null	6	null	6	0.0	1	1010.2	1	40.593575	17.116091
1175	2024-02-18 22:00:00	25	massafra	11.81	1	64.03	1	0.0	1	null	6	null	6	0.0	1	1010.19	1	40.593575	17.116091
1176	2024-02-18 23:00:00	25	massafra	12.21	1	63.28	1	0.0	1	null	6	null	6	0.0	1	1009.62	1	40.593575	17.116091
1177	2024-02-19 00:00:00	25	massafra	12.33	1	60.31	1	0.0	1	null	6	null	6	0.0	1	1009.28	1	40.593575	17.116091
1178	2024-02-19 01:00:00	25	massafra	12.22	1	58.92	1	0.0	1	null	6	null	6	0.0	1	1009.05	1	40.593575	17.116091
1179	2024-02-19 02:00:00	25	massafra	12.52	1	56.94	1	0.0	1	null	6	null	6	0.0	1	1008.63	1	40.593575	17.116091
1180	2024-02-19 03:00:00	25	massafra	12.0	1	59.99	1	0.0	1	null	6	null	6	0.0	1	1008.06	1	40.593575	17.116091
1181	2024-02-19 04:00:00	25	massafra	11.68	1	63.46	1	0.0	1	null	6	null	6	0.0	1	1007.69	1	40.593575	17.116091
1182	2024-02-19 05:00:00	25	massafra	10.14	1	70.47	1	0.0	1	null	6	null	6	0.0	1	1007.41	1	40.593575	17.116091
1183	2024-02-19 06:00:00	25	massafra	9.74	1	71.73	1	0.0	1	null	6	null	6	0.0	1	1007.15	1	40.593575	17.116091
1184	2024-02-19 07:00:00	25	massafra	9.99	1	64.48	1	0.0	1	null	6	null	6	0.0	5	1007.09	1	40.593575	17.116091
1185	2024-02-19 08:00:00	25	massafra	10.61	1	62.39	1	0.0	1	null	6	null	6	35.42	1	1007.19	1	40.593575	17.116091
1186	2024-02-19 09:00:00	25	massafra	12.62	1	56.17	1	0.0	1	null	6	null	6	135.7	1	1007.21	1	40.593575	17.116091
1187	2024-02-19 10:00:00	25	massafra	16.46	1	43.43	1	0.0	1	null	6	null	6	398.34	1	1006.69	1	40.593575	17.116091
1188	2024-02-19 11:00:00	25	massafra	18.37	1	40.66	1	0.0	1	null	6	null	6	503.74	1	1006.24	1	40.593575	17.116091
1189	2024-02-19 12:00:00	25	massafra	19.79	1	35.36	1	0.0	1	null	6	null	6	554.55	1	1005.98	1	40.593575	17.116091
1190	2024-02-19 13:00:00	25	massafra	20.37	1	33.96	1	0.0	1	null	6	null	6	562.61	1	1005.02	1	40.593575	17.116091
1191	2024-02-19 14:00:00	25	massafra	20.64	1	33.01	1	0.0	1	null	6	null	6	518.1	1	1004.19	1	40.593575	17.116091
1192	2024-02-19 15:00:00	25	massafra	19.94	1	35.29	1	0.0	1	null	6	null	6	413.02	1	1003.89	1	40.593575	17.116091
1193	2024-02-19 16:00:00	25	massafra	17.42	1	45.72	1	0.0	1	null	6	null	6	204.09	1	1004.04	1	40.593575	17.116091
1194	2024-02-19 17:00:00	25	massafra	16.07	1	51.53	1	0.0	1	null	6	null	6	90.89	1	1004.17	1	40.593575	17.116091
1195	2024-02-19 18:00:00	25	massafra	14.35	1	61.5	1	0.0	1	null	6	null	6	0.0	5	1004.68	1	40.593575	17.116091
1196	2024-02-19 19:00:00	25	massafra	13.68	1	65.13	1	0.0	1	null	6	null	6	0.0	1	1004.9	1	40.593575	17.116091
1197	2024-02-19 20:00:00	25	massafra	12.87	1	66.19	1	0.0	1	null	6	null	6	0.0	1	1005.02	1	40.593575	17.116091
1198	2024-02-19 21:00:00	25	massafra	12.24	1	63.49	1	0.0	1	null	6	null	6	0.0	1	1004.97	1	40.593575	17.116091
1199	2024-02-19 22:00:00	25	massafra	11.76	1	61.75	1	0.0	1	null	6	null	6	0.0	1	1004.98	1	40.593575	17.116091
1200	2024-02-19 23:00:00	25	massafra	11.63	1	58.28	1	0.0	1	null	6	null	6	0.0	1	1004.85	1	40.593575	17.116091
1201	2024-02-20 00:00:00	25	massafra	11.65	1	56.84	1	0.0	1	null	6	null	6	0.0	1	1004.61	1	40.593575	17.116091
1202	2024-02-20 01:00:00	25	massafra	11.93	1	64.22	1	0.0	1	null	6	null	6	0.0	1	1004.36	1	40.593575	17.116091
1203	2024-02-20 02:00:00	25	massafra	11.97	1	67.96	1	0.0	1	null	6	null	6	0.0	1	1003.95	1	40.593575	17.116091
1204	2024-02-20 03:00:00	25	massafra	11.91	1	71.66	1	0.0	1	null	6	null	6	0.0	1	1003.51	1	40.593575	17.116091
1205	2024-02-20 04:00:00	25	massafra	11.93	1	73.07	1	0.0	1	null	6	null	6	0.0	1	1003.14	1	40.593575	17.116091
1206	2024-02-20 05:00:00	25	massafra	12.01	1	71.42	1	0.0	1	null	6	null	6	0.0	1	1002.99	1	40.593575	17.116091
1207	2024-02-20 06:00:00	25	massafra	12.09	1	68.96	1	0.0	1	null	6	null	6	0.0	1	1003.08	1	40.593575	17.116091
1208	2024-02-20 07:00:00	25	massafra	12.06	1	67.59	1	0.0	1	null	6	null	6	0.0	5	1003.37	1	40.593575	17.116091
1209	2024-02-20 08:00:00	25	massafra	12.43	1	68.44	1	0.0	1	null	6	null	6	60.41	1	1003.76	1	40.593575	17.116091
1210	2024-02-20 09:00:00	25	massafra	13.41	1	65.22	1	0.0	1	null	6	null	6	133.15	1	1004.3	1	40.593575	17.116091
1211	2024-02-20 10:00:00	25	massafra	13.98	1	62.05	1	0.0	1	null	6	null	6	184.68	1	1004.37	1	40.593575	17.116091
1212	2024-02-20 11:00:00	25	massafra	14.81	1	57.4	1	0.0	1	null	6	null	6	271.7	1	1004.43	1	40.593575	17.116091
1213	2024-02-20 12:00:00	25	massafra	15.65	1	51.53	1	0.0	1	null	6	null	6	251.29	1	1004.16	1	40.593575	17.116091
1214	2024-02-20 13:00:00	25	massafra	17.6	1	43.49	1	0.0	1	null	6	null	6	405.47	1	1003.42	1	40.593575	17.116091
1215	2024-02-20 14:00:00	25	massafra	15.76	1	52.94	1	2.6	1	null	6	null	6	34.2	1	1003.09	1	40.593575	17.116091
1216	2024-02-20 15:00:00	25	massafra	12.48	1	68.13	1	0.2	1	null	6	null	6	47.55	1	1003.21	1	40.593575	17.116091
1217	2024-02-20 16:00:00	25	massafra	12.81	1	68.65	1	0.0	1	null	6	null	6	52.99	1	1003.19	1	40.593575	17.116091
1218	2024-02-20 17:00:00	25	massafra	13.44	1	66.64	1	0.0	1	null	6	null	6	60.24	1	1003.08	1	40.593575	17.116091
1219	2024-02-20 18:00:00	25	massafra	12.29	1	69.18	1	0.0	1	null	6	null	6	0.0	5	1003.61	1	40.593575	17.116091
1220	2024-02-20 19:00:00	25	massafra	11.39	1	71.04	1	0.0	1	null	6	null	6	0.0	1	1004.26	1	40.593575	17.116091
1221	2024-02-20 20:00:00	25	massafra	10.83	1	74.32	1	0.0	1	null	6	null	6	0.0	1	1004.45	1	40.593575	17.116091
1222	2024-02-20 21:00:00	25	massafra	10.82	1	76.21	1	0.0	1	null	6	null	6	0.0	1	1004.56	1	40.593575	17.116091
1223	2024-02-20 22:00:00	25	massafra	11.16	1	75.68	1	0.0	1	null	6	null	6	0.0	1	1004.79	1	40.593575	17.116091
1224	2024-02-20 23:00:00	25	massafra	11.23	1	73.15	1	0.0	1	null	6	null	6	0.0	1	1004.9	1	40.593575	17.116091
1225	2024-02-21 00:00:00	25	massafra	11.14	1	69.48	1	0.0	1	null	6	null	6	0.0	1	1005.24	1	40.593575	17.116091
1226	2024-02-21 01:00:00	25	massafra	10.27	1	72.66	1	0.0	1	null	6	null	6	0.0	1	1005.65	1	40.593575	17.116091
1227	2024-02-21 02:00:00	25	massafra	10.42	1	74.73	1	0.0	1	null	6	null	6	0.0	1	1005.5	1	40.593575	17.116091
1228	2024-02-21 03:00:00	25	massafra	10.49	1	70.88	1	0.0	1	null	6	null	6	0.0	1	1005.09	1	40.593575	17.116091
1229	2024-02-21 04:00:00	25	massafra	10.04	1	75.39	1	0.0	1	null	6	null	6	0.0	1	1004.73	1	40.593575	17.116091
1230	2024-02-21 05:00:00	25	massafra	9.81	1	78.03	1	0.0	1	null	6	null	6	0.0	1	1004.54	1	40.593575	17.116091
1231	2024-02-21 06:00:00	25	massafra	9.08	1	77.06	1	0.0	1	null	6	null	6	0.0	1	1004.57	1	40.593575	17.116091
1232	2024-02-21 07:00:00	25	massafra	9.02	1	76.04	1	0.0	1	null	6	null	6	0.0	5	1004.93	1	40.593575	17.116091
1233	2024-02-21 08:00:00	25	massafra	9.75	1	76.28	1	0.0	1	null	6	null	6	30.7	1	1005.75	1	40.593575	17.116091
1234	2024-02-21 09:00:00	25	massafra	12.34	1	67.59	1	0.0	1	null	6	null	6	268.6	1	1006.37	1	40.593575	17.116091
1235	2024-02-21 10:00:00	25	massafra	13.9	1	60.48	1	0.0	1	null	6	null	6	431.0	1	1006.6	1	40.593575	17.116091
1236	2024-02-21 11:00:00	25	massafra	15.42	1	51.61	1	0.0	1	null	6	null	6	522.86	1	1006.87	1	40.593575	17.116091
1237	2024-02-21 12:00:00	25	massafra	17.07	1	43.35	1	0.0	1	null	6	null	6	597.25	1	1006.6	1	40.593575	17.116091
1238	2024-02-21 13:00:00	25	massafra	17.74	1	36.93	1	0.0	1	null	6	null	6	609.36	1	1005.99	1	40.593575	17.116091
1239	2024-02-21 14:00:00	25	massafra	18.26	1	31.69	1	0.0	1	null	6	null	6	535.36	1	1005.44	1	40.593575	17.116091
1240	2024-02-21 15:00:00	25	massafra	18.23	1	27.72	1	0.0	1	null	6	null	6	421.63	1	1005.1	1	40.593575	17.116091
1241	2024-02-21 16:00:00	25	massafra	17.95	1	28.4	1	0.0	1	null	6	null	6	298.32	1	1005.09	1	40.593575	17.116091
1242	2024-02-21 17:00:00	25	massafra	17.02	1	30.42	1	0.0	1	null	6	null	6	114.94	1	1005.04	1	40.593575	17.116091
1243	2024-02-21 18:00:00	25	massafra	14.17	1	41.28	1	0.0	1	null	6	null	6	0.0	5	1005.34	1	40.593575	17.116091
1244	2024-02-21 19:00:00	25	massafra	12.22	1	49.85	1	0.0	1	null	6	null	6	0.0	1	1005.72	1	40.593575	17.116091
1245	2024-02-21 20:00:00	25	massafra	11.49	1	52.95	1	0.0	1	null	6	null	6	0.0	1	1006.2	1	40.593575	17.116091
1246	2024-02-21 21:00:00	25	massafra	11.16	1	58.98	1	0.0	1	null	6	null	6	0.0	1	1006.34	1	40.593575	17.116091
1247	2024-02-21 22:00:00	25	massafra	10.92	1	61.8	1	0.0	1	null	6	null	6	0.0	1	1006.41	1	40.593575	17.116091
1248	2024-02-21 23:00:00	25	massafra	9.61	1	65.77	1	0.0	1	null	6	null	6	0.0	1	1006.18	1	40.593575	17.116091
1249	2024-02-22 00:00:00	25	massafra	8.75	1	67.15	1	0.0	1	null	6	null	6	0.0	1	1005.97	1	40.593575	17.116091
1250	2024-02-22 01:00:00	25	massafra	8.43	1	64.86	1	0.0	1	null	6	null	6	0.0	1	1005.79	1	40.593575	17.116091
1251	2024-02-22 02:00:00	25	massafra	7.76	1	64.35	1	0.0	1	null	6	null	6	0.0	1	1005.53	1	40.593575	17.116091
1252	2024-02-22 03:00:00	25	massafra	7.82	1	60.83	1	0.0	1	null	6	null	6	0.0	1	1005.0	1	40.593575	17.116091
1253	2024-02-22 04:00:00	25	massafra	7.67	1	59.0	1	0.0	1	null	6	null	6	0.0	1	1004.39	1	40.593575	17.116091
1254	2024-02-22 05:00:00	25	massafra	6.9	1	58.97	1	0.0	1	null	6	null	6	0.0	1	1004.28	1	40.593575	17.116091
1255	2024-02-22 06:00:00	25	massafra	6.52	1	59.2	1	0.0	1	null	6	null	6	0.0	1	1004.18	1	40.593575	17.116091
1256	2024-02-22 07:00:00	25	massafra	6.55	1	59.27	1	0.0	1	null	6	null	6	0.0	5	1004.14	1	40.593575	17.116091
1257	2024-02-22 08:00:00	25	massafra	7.15	1	61.15	1	0.0	1	null	6	null	6	30.12	1	1004.27	1	40.593575	17.116091
1258	2024-02-22 09:00:00	25	massafra	12.47	1	50.54	1	0.0	1	null	6	null	6	280.47	1	1004.18	1	40.593575	17.116091
1259	2024-02-22 10:00:00	25	massafra	14.63	1	45.76	1	0.0	1	null	6	null	6	388.08	1	1004.1	1	40.593575	17.116091
1260	2024-02-22 11:00:00	25	massafra	15.68	1	48.64	1	0.0	1	null	6	null	6	518.1	1	1003.85	1	40.593575	17.116091
1261	2024-02-22 12:00:00	25	massafra	16.73	1	47.81	1	0.0	1	null	6	null	6	582.21	1	1003.4	1	40.593575	17.116091
1262	2024-02-22 13:00:00	25	massafra	17.21	1	45.49	1	0.0	1	null	6	null	6	604.39	1	1002.74	1	40.593575	17.116091
1263	2024-02-22 14:00:00	25	massafra	16.74	1	46.91	1	0.0	1	null	6	null	6	451.15	1	1001.81	1	40.593575	17.116091
1264	2024-02-22 15:00:00	25	massafra	16.52	1	48.23	1	0.0	1	null	6	null	6	377.93	1	1001.09	1	40.593575	17.116091
1265	2024-02-22 16:00:00	25	massafra	16.43	1	47.26	1	0.0	1	null	6	null	6	290.19	1	1000.6	1	40.593575	17.116091
1266	2024-02-22 17:00:00	25	massafra	15.19	1	47.71	1	0.0	1	null	6	null	6	93.56	1	1000.42	1	40.593575	17.116091
1267	2024-02-22 18:00:00	25	massafra	13.62	1	52.19	1	0.0	1	null	6	null	6	8.06	1	1000.39	1	40.593575	17.116091
1268	2024-02-22 19:00:00	25	massafra	12.66	1	59.46	1	0.0	1	null	6	null	6	0.0	1	1000.4	1	40.593575	17.116091
1269	2024-02-22 20:00:00	25	massafra	12.47	1	65.85	1	0.0	1	null	6	null	6	0.0	1	1000.02	1	40.593575	17.116091
1270	2024-02-22 21:00:00	25	massafra	12.55	1	68.82	1	0.0	1	null	6	null	6	0.0	1	999.55	1	40.593575	17.116091
1271	2024-02-22 22:00:00	25	massafra	12.38	1	74.11	1	0.0	1	null	6	null	6	0.0	1	999.17	1	40.593575	17.116091
1272	2024-02-22 23:00:00	25	massafra	12.06	1	76.72	1	0.0	1	null	6	null	6	0.0	1	998.87	1	40.593575	17.116091
1273	2024-02-23 00:00:00	25	massafra	11.76	1	75.66	1	0.0	1	null	6	null	6	0.0	1	998.44	1	40.593575	17.116091
1274	2024-02-23 01:00:00	25	massafra	11.47	1	78.76	1	0.0	1	null	6	null	6	0.0	1	997.78	1	40.593575	17.116091
1275	2024-02-23 02:00:00	25	massafra	11.38	1	80.63	1	0.0	1	null	6	null	6	0.0	1	997.26	1	40.593575	17.116091
1276	2024-02-23 03:00:00	25	massafra	10.63	1	77.21	1	0.0	1	null	6	null	6	0.0	1	996.78	1	40.593575	17.116091
1277	2024-02-23 04:00:00	25	massafra	10.92	1	74.0	1	0.0	1	null	6	null	6	0.0	1	996.46	1	40.593575	17.116091
1278	2024-02-23 05:00:00	25	massafra	11.18	1	67.9	1	0.0	1	null	6	null	6	0.0	1	996.13	1	40.593575	17.116091
1279	2024-02-23 06:00:00	25	massafra	10.97	1	68.37	1	0.0	1	null	6	null	6	0.0	1	995.9	1	40.593575	17.116091
1280	2024-02-23 07:00:00	25	massafra	10.16	1	69.97	1	0.0	1	null	6	null	6	0.0	5	995.77	1	40.593575	17.116091
1281	2024-02-23 08:00:00	25	massafra	10.84	1	66.7	1	0.0	1	null	6	null	6	33.69	1	995.96	1	40.593575	17.116091
1282	2024-02-23 09:00:00	25	massafra	13.26	1	63.01	1	0.0	1	null	6	null	6	183.94	1	995.89	1	40.593575	17.116091
1283	2024-02-23 10:00:00	25	massafra	15.59	1	55.57	1	0.0	1	null	6	null	6	382.41	1	995.82	1	40.593575	17.116091
1284	2024-02-23 11:00:00	25	massafra	16.45	1	49.71	1	0.0	1	null	6	null	6	278.88	1	995.77	1	40.593575	17.116091
1285	2024-02-23 12:00:00	25	massafra	16.08	1	47.93	1	0.0	1	null	6	null	6	249.15	1	995.21	1	40.593575	17.116091
1286	2024-02-23 13:00:00	25	massafra	16.16	1	50.01	1	0.0	1	null	6	null	6	249.86	1	994.84	1	40.593575	17.116091
1287	2024-02-23 14:00:00	25	massafra	16.23	1	52.93	1	0.0	1	null	6	null	6	251.69	1	994.48	1	40.593575	17.116091
1288	2024-02-23 15:00:00	25	massafra	15.73	1	59.78	1	0.0	1	null	6	null	6	113.81	1	994.01	1	40.593575	17.116091
1289	2024-02-23 16:00:00	25	massafra	14.96	1	68.59	1	0.0	1	null	6	null	6	56.68	1	993.78	1	40.593575	17.116091
1290	2024-02-23 17:00:00	25	massafra	14.62	1	73.18	1	0.0	1	null	6	null	6	34.29	1	993.58	1	40.593575	17.116091
1291	2024-02-23 18:00:00	25	massafra	14.37	1	73.59	1	0.0	1	null	6	null	6	5.16	1	993.39	1	40.593575	17.116091
1292	2024-02-23 19:00:00	25	massafra	14.3	1	73.04	1	0.0	1	null	6	null	6	0.0	1	993.71	1	40.593575	17.116091
1293	2024-02-23 20:00:00	25	massafra	14.11	1	76.69	1	0.0	1	null	6	null	6	0.0	1	993.88	1	40.593575	17.116091
1294	2024-02-23 21:00:00	25	massafra	14.01	1	78.98	1	0.0	1	null	6	null	6	0.0	1	993.9	1	40.593575	17.116091
1295	2024-02-23 22:00:00	25	massafra	14.0	1	77.95	1	0.0	1	null	6	null	6	0.0	1	993.98	1	40.593575	17.116091
1296	2024-02-23 23:00:00	25	massafra	13.98	1	78.49	1	0.0	1	null	6	null	6	0.0	1	993.98	1	40.593575	17.116091
1297	2024-02-24 00:00:00	25	massafra	13.81	1	79.9	1	0.0	1	null	6	null	6	0.0	1	993.95	1	40.593575	17.116091
1298	2024-02-24 01:00:00	25	massafra	13.74	1	81.01	1	0.0	1	null	6	null	6	0.0	1	993.89	1	40.593575	17.116091
1299	2024-02-24 02:00:00	25	massafra	13.5	1	81.78	1	0.0	1	null	6	null	6	0.0	1	993.91	1	40.593575	17.116091
1300	2024-02-24 03:00:00	25	massafra	13.5	1	83.43	1	0.0	1	null	6	null	6	0.0	1	993.92	1	40.593575	17.116091
1301	2024-02-24 04:00:00	25	massafra	13.39	1	82.7	1	0.2	1	null	6	null	6	0.0	1	993.83	1	40.593575	17.116091
1302	2024-02-24 05:00:00	25	massafra	13.4	1	81.51	1	0.4	1	null	6	null	6	0.0	1	993.89	1	40.593575	17.116091
1303	2024-02-24 06:00:00	25	massafra	13.09	1	84.46	1	0.8	1	null	6	null	6	0.0	1	994.29	1	40.593575	17.116091
1304	2024-02-24 07:00:00	25	massafra	12.94	1	86.54	1	1.8	1	null	6	null	6	0.0	5	994.93	1	40.593575	17.116091
1305	2024-02-24 08:00:00	25	massafra	12.95	1	89.2	1	1.4	1	null	6	null	6	11.64	1	995.35	1	40.593575	17.116091
1306	2024-02-24 09:00:00	25	massafra	13.16	1	90.95	1	0.8	1	null	6	null	6	74.34	1	995.67	1	40.593575	17.116091
1307	2024-02-24 10:00:00	25	massafra	13.76	1	91.37	1	0.2	1	null	6	null	6	179.87	1	995.82	1	40.593575	17.116091
1308	2024-02-24 11:00:00	25	massafra	14.04	1	87.2	1	0.2	1	null	6	null	6	165.96	1	995.92	1	40.593575	17.116091
1309	2024-02-24 12:00:00	25	massafra	14.18	1	81.78	1	0.2	1	null	6	null	6	132.49	1	996.14	1	40.593575	17.116091
1310	2024-02-24 13:00:00	25	massafra	14.19	1	82.75	1	0.2	1	null	6	null	6	121.1	1	995.89	1	40.593575	17.116091
1311	2024-02-24 14:00:00	25	massafra	14.59	1	82.99	1	0.0	1	null	6	null	6	108.71	1	995.31	1	40.593575	17.116091
1312	2024-02-24 15:00:00	25	massafra	15.02	1	84.32	1	0.0	1	null	6	null	6	71.23	1	995.04	1	40.593575	17.116091
1313	2024-02-24 16:00:00	25	massafra	14.96	1	86.91	1	0.0	1	null	6	null	6	34.94	1	994.91	1	40.593575	17.116091
1314	2024-02-24 17:00:00	25	massafra	14.96	1	89.6	1	0.0	1	null	6	null	6	31.17	1	994.79	1	40.593575	17.116091
1315	2024-02-24 18:00:00	25	massafra	14.83	1	90.98	1	2.6	1	null	6	null	6	0.0	5	994.87	1	40.593575	17.116091
1316	2024-02-24 19:00:00	25	massafra	14.65	1	93.12	1	0.6	1	null	6	null	6	0.0	1	995.22	1	40.593575	17.116091
1317	2024-02-24 20:00:00	25	massafra	13.82	1	93.56	1	2.4	1	null	6	null	6	0.0	1	995.58	1	40.593575	17.116091
1318	2024-02-24 21:00:00	25	massafra	13.38	1	93.44	1	6.2	1	null	6	null	6	0.0	1	996.13	1	40.593575	17.116091
1319	2024-02-24 22:00:00	25	massafra	12.28	1	93.49	1	0.0	1	null	6	null	6	0.0	1	995.93	1	40.593575	17.116091
1320	2024-02-24 23:00:00	25	massafra	12.05	1	92.99	1	0.0	1	null	6	null	6	0.0	1	996.2	1	40.593575	17.116091
1321	2024-02-25 00:00:00	25	massafra	11.93	1	91.67	1	0.0	1	null	6	null	6	0.0	1	995.8	1	40.593575	17.116091
1322	2024-02-25 01:00:00	25	massafra	13.77	1	92.88	1	0.0	1	null	6	null	6	0.0	1	995.37	1	40.593575	17.116091
1323	2024-02-25 02:00:00	25	massafra	14.43	1	93.37	1	0.0	1	null	6	null	6	0.0	1	995.3	1	40.593575	17.116091
1324	2024-02-25 03:00:00	25	massafra	14.48	1	93.54	1	0.0	1	null	6	null	6	0.0	1	994.66	1	40.593575	17.116091
1325	2024-02-25 04:00:00	25	massafra	14.41	1	93.42	1	0.0	1	null	6	null	6	0.0	1	994.05	1	40.593575	17.116091
1326	2024-02-25 05:00:00	25	massafra	14.37	1	92.72	1	0.0	1	null	6	null	6	0.0	1	993.56	1	40.593575	17.116091
1327	2024-02-25 06:00:00	25	massafra	14.41	1	91.6	1	0.0	1	null	6	null	6	0.0	1	993.38	1	40.593575	17.116091
1328	2024-02-25 07:00:00	25	massafra	14.52	1	90.62	1	0.0	1	null	6	null	6	0.0	5	993.19	1	40.593575	17.116091
1329	2024-02-25 08:00:00	25	massafra	14.64	1	91.35	1	0.0	1	null	6	null	6	25.62	1	993.29	1	40.593575	17.116091
1330	2024-02-25 09:00:00	25	massafra	14.79	1	91.9	1	0.0	1	null	6	null	6	35.32	1	993.19	1	40.593575	17.116091
1331	2024-02-25 10:00:00	25	massafra	14.84	1	92.62	1	0.0	1	null	6	null	6	42.22	1	993.09	1	40.593575	17.116091
1332	2024-02-25 11:00:00	25	massafra	14.82	1	92.03	1	0.0	1	null	6	null	6	102.16	1	992.42	1	40.593575	17.116091
1333	2024-02-25 12:00:00	25	massafra	14.24	1	88.86	1	8.6	1	null	6	null	6	8.8	1	992.05	1	40.593575	17.116091
1334	2024-02-25 13:00:00	25	massafra	12.84	1	90.8	1	7.6	1	null	6	null	6	0.0	5	992.03	1	40.593575	17.116091
1335	2024-02-25 14:00:00	25	massafra	12.02	1	92.22	1	5.4	1	null	6	null	6	6.21	1	991.06	1	40.593575	17.116091
1336	2024-02-25 15:00:00	25	massafra	11.46	1	92.41	1	4.2	1	null	6	null	6	0.0	5	990.59	1	40.593575	17.116091
1337	2024-02-25 16:00:00	25	massafra	10.95	1	91.97	1	4.4	1	null	6	null	6	5.02	1	990.49	1	40.593575	17.116091
1338	2024-02-25 17:00:00	25	massafra	10.7	1	91.44	1	2.8	1	null	6	null	6	0.0	5	990.23	1	40.593575	17.116091
1339	2024-02-25 18:00:00	25	massafra	10.67	1	90.91	1	0.4	1	null	6	null	6	0.0	5	990.61	1	40.593575	17.116091
1340	2024-02-25 19:00:00	25	massafra	10.61	1	89.85	1	0.8	1	null	6	null	6	0.0	1	991.1	1	40.593575	17.116091
1341	2024-02-25 20:00:00	25	massafra	10.76	1	89.21	1	0.0	1	null	6	null	6	0.0	1	990.99	1	40.593575	17.116091
1342	2024-02-25 21:00:00	25	massafra	11.1	1	86.97	1	0.0	1	null	6	null	6	0.0	1	990.37	1	40.593575	17.116091
1343	2024-02-25 22:00:00	25	massafra	11.33	1	84.66	1	0.0	1	null	6	null	6	0.0	1	990.64	1	40.593575	17.116091
1344	2024-02-25 23:00:00	25	massafra	11.15	1	85.43	1	0.0	1	null	6	null	6	0.0	1	990.84	1	40.593575	17.116091
1345	2024-02-26 00:00:00	25	massafra	11.04	1	84.89	1	0.0	1	null	6	null	6	0.0	1	990.87	1	40.593575	17.116091
1346	2024-02-26 01:00:00	25	massafra	11.28	1	80.92	1	0.0	1	null	6	null	6	0.0	1	990.93	1	40.593575	17.116091
1347	2024-02-26 02:00:00	25	massafra	11.46	1	81.22	1	0.0	1	null	6	null	6	0.0	1	990.77	1	40.593575	17.116091
1348	2024-02-26 03:00:00	25	massafra	11.39	1	83.09	1	0.0	1	null	6	null	6	0.0	1	990.49	1	40.593575	17.116091
1349	2024-02-26 04:00:00	25	massafra	11.29	1	83.34	1	0.0	1	null	6	null	6	0.0	1	990.07	1	40.593575	17.116091
1350	2024-02-26 05:00:00	25	massafra	10.94	1	83.11	1	0.0	1	null	6	null	6	0.0	1	990.13	1	40.593575	17.116091
1351	2024-02-26 06:00:00	25	massafra	10.59	1	85.34	1	0.0	1	null	6	null	6	0.0	1	990.46	1	40.593575	17.116091
1352	2024-02-26 07:00:00	25	massafra	10.46	1	85.23	1	0.0	1	null	6	null	6	0.0	5	990.51	1	40.593575	17.116091
1353	2024-02-26 08:00:00	25	massafra	10.52	1	85.67	1	0.0	1	null	6	null	6	49.66	1	991.11	1	40.593575	17.116091
1354	2024-02-26 09:00:00	25	massafra	12.38	1	80.56	1	0.0	1	null	6	null	6	250.33	1	991.41	1	40.593575	17.116091
1355	2024-02-26 10:00:00	25	massafra	15.45	1	65.51	1	0.0	1	null	6	null	6	416.47	1	991.51	1	40.593575	17.116091
1356	2024-02-26 11:00:00	25	massafra	18.13	1	52.02	1	0.0	1	null	6	null	6	519.68	1	991.4	1	40.593575	17.116091
1357	2024-02-26 12:00:00	25	massafra	18.62	1	50.62	1	0.0	1	null	6	null	6	597.18	1	991.38	1	40.593575	17.116091
1358	2024-02-26 13:00:00	25	massafra	19.46	1	46.62	1	0.0	1	null	6	null	6	595.48	1	990.88	1	40.593575	17.116091
1359	2024-02-26 14:00:00	25	massafra	20.16	1	43.58	1	0.2	1	null	6	null	6	522.59	1	990.46	1	40.593575	17.116091
1360	2024-02-26 15:00:00	25	massafra	19.57	1	48.48	1	0.0	1	null	6	null	6	435.29	1	990.6	1	40.593575	17.116091
1361	2024-02-26 16:00:00	25	massafra	18.26	1	51.84	1	0.0	1	null	6	null	6	291.39	1	990.85	1	40.593575	17.116091
1362	2024-02-26 17:00:00	25	massafra	16.85	1	56.43	1	0.0	1	null	6	null	6	84.79	1	991.0	1	40.593575	17.116091
1363	2024-02-26 18:00:00	25	massafra	14.55	1	63.03	1	0.0	1	null	6	null	6	6.78	1	991.44	1	40.593575	17.116091
1364	2024-02-26 19:00:00	25	massafra	13.58	1	68.56	1	0.0	1	null	6	null	6	0.0	1	991.92	1	40.593575	17.116091
1365	2024-02-26 20:00:00	25	massafra	12.77	1	69.88	1	0.0	1	null	6	null	6	0.0	1	992.37	1	40.593575	17.116091
1366	2024-02-26 21:00:00	25	massafra	12.76	1	69.51	1	0.0	1	null	6	null	6	0.0	1	992.75	1	40.593575	17.116091
1367	2024-02-26 22:00:00	25	massafra	13.09	1	69.74	1	0.0	1	null	6	null	6	0.0	1	993.21	1	40.593575	17.116091
1368	2024-02-26 23:00:00	25	massafra	12.92	1	72.39	1	0.0	1	null	6	null	6	0.0	1	993.45	1	40.593575	17.116091
1369	2024-02-27 00:00:00	25	massafra	12.53	1	73.25	1	0.0	1	null	6	null	6	0.0	1	993.63	1	40.593575	17.116091
1370	2024-02-27 01:00:00	25	massafra	11.9	1	74.84	1	0.0	1	null	6	null	6	0.0	1	993.72	1	40.593575	17.116091
1371	2024-02-27 02:00:00	25	massafra	11.73	1	79.55	1	0.0	1	null	6	null	6	0.0	1	993.59	1	40.593575	17.116091
1372	2024-02-27 03:00:00	25	massafra	11.82	1	85.79	1	0.0	1	null	6	null	6	0.0	1	993.66	1	40.593575	17.116091
1373	2024-02-27 04:00:00	25	massafra	11.73	1	89.1	1	0.0	1	null	6	null	6	0.0	1	993.41	1	40.593575	17.116091
1374	2024-02-27 05:00:00	25	massafra	11.7	1	90.06	1	0.0	1	null	6	null	6	0.0	1	993.69	1	40.593575	17.116091
1375	2024-02-27 06:00:00	25	massafra	11.93	1	91.23	1	0.0	1	null	6	null	6	0.0	1	993.91	1	40.593575	17.116091
1376	2024-02-27 07:00:00	25	massafra	11.92	1	92.54	1	0.0	1	null	6	null	6	0.0	5	993.9	1	40.593575	17.116091
1377	2024-02-27 08:00:00	25	massafra	12.4	1	93.67	1	0.0	1	null	6	null	6	66.01	1	994.28	1	40.593575	17.116091
1378	2024-02-27 09:00:00	25	massafra	13.37	1	92.91	1	0.0	1	null	6	null	6	145.47	1	994.43	1	40.593575	17.116091
1379	2024-02-27 10:00:00	25	massafra	14.98	1	82.0	1	0.0	1	null	6	null	6	308.09	1	994.73	1	40.593575	17.116091
1380	2024-02-27 11:00:00	25	massafra	16.44	1	65.49	1	0.0	1	null	6	null	6	492.2	1	995.16	1	40.593575	17.116091
1381	2024-02-27 12:00:00	25	massafra	17.2	1	62.88	1	0.0	1	null	6	null	6	497.23	1	995.2	1	40.593575	17.116091
1382	2024-02-27 13:00:00	25	massafra	17.77	1	58.25	1	0.0	1	null	6	null	6	578.77	1	994.8	1	40.593575	17.116091
1383	2024-02-27 14:00:00	25	massafra	16.96	1	60.74	1	0.0	1	null	6	null	6	351.56	1	994.59	1	40.593575	17.116091
1384	2024-02-27 15:00:00	25	massafra	16.64	1	64.6	1	0.0	1	null	6	null	6	240.89	1	994.44	1	40.593575	17.116091
1385	2024-02-27 16:00:00	25	massafra	16.11	1	67.43	1	0.0	1	null	6	null	6	119.19	1	994.29	1	40.593575	17.116091
1386	2024-02-27 17:00:00	25	massafra	15.44	1	70.01	1	0.0	1	null	6	null	6	58.09	1	994.35	1	40.593575	17.116091
1387	2024-02-27 18:00:00	25	massafra	14.94	1	73.62	1	0.0	1	null	6	null	6	5.91	1	994.69	1	40.593575	17.116091
1388	2024-02-27 19:00:00	25	massafra	14.78	1	75.61	1	0.0	1	null	6	null	6	0.0	1	995.06	1	40.593575	17.116091
1389	2024-02-27 20:00:00	25	massafra	14.76	1	76.54	1	0.0	1	null	6	null	6	0.0	1	995.42	1	40.593575	17.116091
1390	2024-02-27 21:00:00	25	massafra	14.78	1	76.42	1	0.0	1	null	6	null	6	0.0	1	995.89	1	40.593575	17.116091
1391	2024-02-27 22:00:00	25	massafra	14.73	1	76.93	1	0.0	1	null	6	null	6	0.0	1	996.35	1	40.593575	17.116091
1392	2024-02-27 23:00:00	25	massafra	14.75	1	77.77	1	0.0	1	null	6	null	6	0.0	1	996.52	1	40.593575	17.116091
1393	2024-02-28 00:00:00	25	massafra	14.66	1	78.91	1	0.0	1	null	6	null	6	0.0	1	996.62	1	40.593575	17.116091
1394	2024-02-28 01:00:00	25	massafra	14.55	1	82.07	1	0.0	1	null	6	null	6	0.0	1	996.73	1	40.593575	17.116091
1395	2024-02-28 02:00:00	25	massafra	14.39	1	82.69	1	0.0	1	null	6	null	6	0.0	1	997.08	1	40.593575	17.116091
1396	2024-02-28 03:00:00	25	massafra	14.29	1	81.82	1	0.0	1	null	6	null	6	0.0	1	997.19	1	40.593575	17.116091
1397	2024-02-28 04:00:00	25	massafra	13.99	1	81.63	1	0.0	1	null	6	null	6	0.0	1	997.31	1	40.593575	17.116091
1398	2024-02-28 05:00:00	25	massafra	13.82	1	83.49	1	0.0	1	null	6	null	6	0.0	1	997.44	1	40.593575	17.116091
1399	2024-02-28 06:00:00	25	massafra	13.63	1	83.64	1	0.0	1	null	6	null	6	0.0	1	997.27	1	40.593575	17.116091
1400	2024-02-28 07:00:00	25	massafra	13.38	1	86.7	1	0.0	1	null	6	null	6	0.0	5	997.25	1	40.593575	17.116091
1401	2024-02-28 08:00:00	25	massafra	13.82	1	86.14	1	0.0	1	null	6	null	6	48.62	1	997.74	1	40.593575	17.116091
1402	2024-02-28 09:00:00	25	massafra	14.48	1	81.93	1	0.0	1	null	6	null	6	71.75	1	997.87	1	40.593575	17.116091
1403	2024-02-28 10:00:00	25	massafra	15.11	1	79.2	1	0.0	1	null	6	null	6	103.69	1	997.77	1	40.593575	17.116091
1404	2024-02-28 11:00:00	25	massafra	16.1	1	73.29	1	0.0	1	null	6	null	6	217.5	1	997.83	1	40.593575	17.116091
1405	2024-02-28 12:00:00	25	massafra	17.53	1	63.44	1	0.0	1	null	6	null	6	367.08	1	997.56	1	40.593575	17.116091
1406	2024-02-28 13:00:00	25	massafra	17.6	1	60.95	1	0.0	1	null	6	null	6	242.46	1	996.96	1	40.593575	17.116091
1407	2024-02-28 14:00:00	25	massafra	17.58	1	57.08	1	0.0	1	null	6	null	6	262.56	1	996.45	1	40.593575	17.116091
1408	2024-02-28 15:00:00	25	massafra	17.43	1	57.45	1	0.0	1	null	6	null	6	164.26	1	996.13	1	40.593575	17.116091
1409	2024-02-28 16:00:00	25	massafra	16.94	1	62.28	1	0.0	1	null	6	null	6	141.98	1	996.0	1	40.593575	17.116091
1410	2024-02-28 17:00:00	25	massafra	16.75	1	62.44	1	0.0	1	null	6	null	6	80.05	1	996.04	1	40.593575	17.116091
1411	2024-02-28 18:00:00	25	massafra	16.21	1	64.18	1	0.0	1	null	6	null	6	9.81	1	996.27	1	40.593575	17.116091
1412	2024-02-28 19:00:00	25	massafra	15.64	1	66.45	1	0.0	1	null	6	null	6	0.0	1	996.33	1	40.593575	17.116091
1413	2024-02-28 20:00:00	25	massafra	15.9	1	62.71	1	0.0	1	null	6	null	6	0.0	1	996.44	1	40.593575	17.116091
1414	2024-02-28 21:00:00	25	massafra	16.03	1	62.28	1	0.0	1	null	6	null	6	0.0	1	996.75	1	40.593575	17.116091
1415	2024-02-28 22:00:00	25	massafra	16.21	1	59.14	1	0.0	1	null	6	null	6	0.0	1	996.89	1	40.593575	17.116091
1416	2024-02-28 23:00:00	25	massafra	16.09	1	61.24	1	0.0	1	null	6	null	6	0.0	1	996.74	1	40.593575	17.116091
1417	2024-02-29 00:00:00	25	massafra	15.38	1	67.43	1	0.0	1	null	6	null	6	0.0	1	996.62	1	40.593575	17.116091
1418	2024-02-29 01:00:00	25	massafra	15.06	1	67.34	1	0.0	1	null	6	null	6	0.0	1	996.35	1	40.593575	17.116091
1419	2024-02-29 02:00:00	25	massafra	15.15	1	69.62	1	0.0	1	null	6	null	6	0.0	1	996.16	1	40.593575	17.116091
1420	2024-02-29 03:00:00	25	massafra	15.15	1	73.29	1	0.0	1	null	6	null	6	0.0	1	995.46	1	40.593575	17.116091
1421	2024-02-29 04:00:00	25	massafra	15.16	1	74.55	1	0.0	1	null	6	null	6	0.0	1	994.82	1	40.593575	17.116091
1422	2024-02-29 05:00:00	25	massafra	15.31	1	71.59	1	0.0	1	null	6	null	6	0.0	1	994.25	1	40.593575	17.116091
1423	2024-02-29 06:00:00	25	massafra	15.42	1	68.22	1	0.0	1	null	6	null	6	0.0	1	993.59	1	40.593575	17.116091
1424	2024-02-29 07:00:00	25	massafra	15.82	1	62.73	1	0.0	1	null	6	null	6	0.0	5	992.97	1	40.593575	17.116091
1425	2024-02-29 08:00:00	25	massafra	16.11	1	60.45	1	0.0	1	null	6	null	6	38.41	1	992.91	1	40.593575	17.116091
1426	2024-02-29 09:00:00	25	massafra	16.47	1	58.36	1	0.0	1	null	6	null	6	45.21	1	993.15	1	40.593575	17.116091
1427	2024-02-29 10:00:00	25	massafra	16.38	1	60.8	1	0.0	1	null	6	null	6	42.66	1	993.62	1	40.593575	17.116091
1428	2024-02-29 11:00:00	25	massafra	16.47	1	64.5	1	0.0	1	null	6	null	6	112.62	1	993.54	1	40.593575	17.116091
1429	2024-02-29 12:00:00	25	massafra	17.57	1	60.12	1	0.0	1	null	6	null	6	202.55	1	992.91	1	40.593575	17.116091
1430	2024-02-29 13:00:00	25	massafra	17.3	1	60.83	1	0.0	1	null	6	null	6	85.51	1	992.2	1	40.593575	17.116091
1431	2024-02-29 14:00:00	25	massafra	15.08	1	69.42	1	7.4	1	null	6	null	6	13.94	1	991.75	1	40.593575	17.116091
1432	2024-02-29 15:00:00	25	massafra	13.6	1	86.98	1	4.0	1	null	6	null	6	10.68	1	991.54	1	40.593575	17.116091
1433	2024-02-29 16:00:00	25	massafra	14.39	1	89.56	1	3.6	1	null	6	null	6	7.61	1	991.71	1	40.593575	17.116091
1434	2024-02-29 17:00:00	25	massafra	13.11	1	90.43	1	3.6	1	null	6	null	6	0.0	5	991.44	1	40.593575	17.116091
1435	2024-02-29 18:00:00	25	massafra	13.07	1	92.56	1	2.6	1	null	6	null	6	0.0	5	990.64	1	40.593575	17.116091
1436	2024-02-29 19:00:00	25	massafra	12.47	1	92.98	1	4.0	1	null	6	null	6	0.0	1	990.9	1	40.593575	17.116091
1437	2024-02-29 20:00:00	25	massafra	11.99	1	93.52	1	2.0	1	null	6	null	6	0.0	1	990.77	1	40.593575	17.116091
1438	2024-02-29 21:00:00	25	massafra	11.84	1	94.01	1	2.0	1	null	6	null	6	0.0	1	990.18	1	40.593575	17.116091
1439	2024-02-29 22:00:00	25	massafra	11.6	1	94.21	1	0.2	1	null	6	null	6	0.0	1	989.93	1	40.593575	17.116091
1440	2024-02-29 23:00:00	25	massafra	11.53	1	94.1	1	0.0	1	null	6	null	6	0.0	1	990.43	1	40.593575	17.116091
1441	2024-03-01 00:00:00	25	massafra	11.05	1	93.74	1	1.0	1	null	6	null	6	0.0	1	989.98	1	40.593575	17.116091
1442	2024-03-01 01:00:00	25	massafra	11.23	1	93.97	1	0.0	1	null	6	null	6	0.0	1	989.95	1	40.593575	17.116091
1443	2024-03-01 02:00:00	25	massafra	11.38	1	93.64	1	0.0	1	null	6	null	6	0.0	1	989.69	1	40.593575	17.116091
1444	2024-03-01 03:00:00	25	massafra	11.68	1	93.41	1	0.0	1	null	6	null	6	0.0	1	989.63	1	40.593575	17.116091
1445	2024-03-01 04:00:00	25	massafra	11.45	1	91.43	1	0.0	1	null	6	null	6	0.0	1	989.57	1	40.593575	17.116091
1446	2024-03-01 05:00:00	25	massafra	10.72	1	89.95	1	0.0	1	null	6	null	6	0.0	1	990.04	1	40.593575	17.116091
1447	2024-03-01 06:00:00	25	massafra	10.53	1	88.99	1	0.0	1	null	6	null	6	0.0	1	990.49	1	40.593575	17.116091
1448	2024-03-01 07:00:00	25	massafra	10.17	1	88.65	1	0.0	1	null	6	null	6	0.0	5	990.59	1	40.593575	17.116091
1449	2024-03-01 08:00:00	25	massafra	10.31	1	89.84	1	0.0	1	null	6	null	6	57.93	1	991.0	1	40.593575	17.116091
1450	2024-03-01 09:00:00	25	massafra	13.75	1	80.17	1	0.0	1	null	6	null	6	254.81	1	991.28	1	40.593575	17.116091
1451	2024-03-01 10:00:00	25	massafra	14.37	1	65.51	1	0.0	1	null	6	null	6	276.35	1	991.48	1	40.593575	17.116091
1452	2024-03-01 11:00:00	25	massafra	15.88	1	57.65	1	0.0	1	null	6	null	6	370.69	1	991.6	1	40.593575	17.116091
1453	2024-03-01 12:00:00	25	massafra	17.81	1	52.35	1	0.0	1	null	6	null	6	653.36	1	991.58	1	40.593575	17.116091
1454	2024-03-01 13:00:00	25	massafra	18.01	1	49.11	1	0.0	1	null	6	null	6	650.1	1	991.25	1	40.593575	17.116091
1455	2024-03-01 14:00:00	25	massafra	17.92	1	51.49	1	0.0	1	null	6	null	6	615.97	1	991.15	1	40.593575	17.116091
1456	2024-03-01 15:00:00	25	massafra	17.54	5	null	6	0.0	5	null	6	null	6	null	6	991.17	5	40.593575	17.116091
1457	2024-03-01 16:00:00	25	massafra	17.16	1	53.43	1	0.0	1	null	6	null	6	297.85	1	991.19	1	40.593575	17.116091
1458	2024-03-01 17:00:00	25	massafra	16.45	1	56.59	1	0.0	1	null	6	null	6	161.33	1	991.44	1	40.593575	17.116091
1459	2024-03-01 18:00:00	25	massafra	14.83	1	63.23	1	0.0	1	null	6	null	6	19.88	1	991.78	1	40.593575	17.116091
1460	2024-03-01 19:00:00	25	massafra	13.31	1	67.62	1	0.0	1	null	6	null	6	0.0	1	992.0	1	40.593575	17.116091
1461	2024-03-01 20:00:00	25	massafra	12.65	1	71.86	1	0.0	1	null	6	null	6	0.0	1	992.21	1	40.593575	17.116091
1462	2024-03-01 21:00:00	25	massafra	12.5	1	74.55	1	0.0	1	null	6	null	6	0.0	1	992.32	1	40.593575	17.116091
1463	2024-03-01 22:00:00	25	massafra	11.88	1	77.64	1	0.0	1	null	6	null	6	0.0	1	992.2	1	40.593575	17.116091
1464	2024-03-01 23:00:00	25	massafra	11.35	1	81.1	1	0.0	1	null	6	null	6	0.0	1	992.27	1	40.593575	17.116091
1465	2024-03-02 00:00:00	25	massafra	11.05	1	84.34	1	0.0	1	null	6	null	6	0.0	1	992.03	1	40.593575	17.116091
1466	2024-03-02 01:00:00	25	massafra	10.5	1	85.39	1	0.0	1	null	6	null	6	0.0	1	992.08	1	40.593575	17.116091
1467	2024-03-02 02:00:00	25	massafra	10.25	1	86.35	1	0.0	1	null	6	null	6	0.0	1	992.25	1	40.593575	17.116091
1468	2024-03-02 03:00:00	25	massafra	9.86	1	86.47	1	0.0	1	null	6	null	6	0.0	1	992.31	1	40.593575	17.116091
1469	2024-03-02 04:00:00	25	massafra	9.89	1	87.5	1	0.0	1	null	6	null	6	0.0	1	992.16	1	40.593575	17.116091
1470	2024-03-02 05:00:00	25	massafra	10.09	1	87.37	1	0.0	1	null	6	null	6	0.0	1	992.44	1	40.593575	17.116091
1471	2024-03-02 06:00:00	25	massafra	10.19	1	85.98	1	0.0	1	null	6	null	6	0.0	1	992.75	1	40.593575	17.116091
1472	2024-03-02 07:00:00	25	massafra	9.16	1	86.59	1	0.0	1	null	6	null	6	5.13	1	993.15	1	40.593575	17.116091
1473	2024-03-02 08:00:00	25	massafra	9.63	1	88.89	1	0.0	1	null	6	null	6	38.18	1	993.75	1	40.593575	17.116091
1474	2024-03-02 09:00:00	25	massafra	12.81	1	85.73	1	0.0	1	null	6	null	6	293.99	1	994.49	1	40.593575	17.116091
1475	2024-03-02 10:00:00	25	massafra	15.2	1	66.2	1	0.0	1	null	6	null	6	474.49	1	994.96	1	40.593575	17.116091
1476	2024-03-02 11:00:00	25	massafra	17.37	1	53.12	1	0.0	1	null	6	null	6	587.81	1	995.06	1	40.593575	17.116091
1477	2024-03-02 12:00:00	25	massafra	18.89	1	44.41	1	0.0	1	null	6	null	6	647.39	1	995.11	1	40.593575	17.116091
1478	2024-03-02 13:00:00	25	massafra	18.97	1	40.38	1	0.0	1	null	6	null	6	649.48	1	994.81	1	40.593575	17.116091
1479	2024-03-02 14:00:00	25	massafra	18.26	1	41.99	1	0.0	1	null	6	null	6	595.77	1	994.81	1	40.593575	17.116091
1480	2024-03-02 15:00:00	25	massafra	17.93	1	46.86	1	0.0	1	null	6	null	6	486.4	1	995.04	1	40.593575	17.116091
1481	2024-03-02 16:00:00	25	massafra	17.28	1	49.26	1	0.0	1	null	6	null	6	330.15	1	995.21	1	40.593575	17.116091
1482	2024-03-02 17:00:00	25	massafra	16.07	1	50.81	1	0.0	1	null	6	null	6	96.16	1	995.44	1	40.593575	17.116091
1483	2024-03-02 18:00:00	25	massafra	14.43	1	64.52	1	0.0	1	null	6	null	6	6.09	1	995.87	1	40.593575	17.116091
1484	2024-03-02 19:00:00	25	massafra	14.14	1	65.63	1	0.0	1	null	6	null	6	0.0	1	996.25	1	40.593575	17.116091
1485	2024-03-02 20:00:00	25	massafra	13.72	1	67.87	1	0.0	1	null	6	null	6	0.0	1	996.42	1	40.593575	17.116091
1486	2024-03-02 21:00:00	25	massafra	12.98	1	70.91	1	0.0	1	null	6	null	6	0.0	1	996.61	1	40.593575	17.116091
1487	2024-03-02 22:00:00	25	massafra	12.45	1	74.38	1	0.0	1	null	6	null	6	0.0	1	996.68	1	40.593575	17.116091
1488	2024-03-02 23:00:00	25	massafra	11.83	1	79.67	1	0.0	1	null	6	null	6	0.0	1	996.8	1	40.593575	17.116091
1489	2024-03-03 00:00:00	25	massafra	11.32	1	81.33	1	0.0	1	null	6	null	6	0.0	1	997.15	1	40.593575	17.116091
1490	2024-03-03 01:00:00	25	massafra	10.61	1	83.24	1	0.0	1	null	6	null	6	0.0	1	997.21	1	40.593575	17.116091
1491	2024-03-03 02:00:00	25	massafra	10.33	1	84.87	1	0.0	1	null	6	null	6	0.0	1	997.1	1	40.593575	17.116091
1492	2024-03-03 03:00:00	25	massafra	10.09	1	86.64	1	0.0	1	null	6	null	6	0.0	1	996.77	1	40.593575	17.116091
1493	2024-03-03 04:00:00	25	massafra	9.79	1	87.12	1	0.0	1	null	6	null	6	0.0	1	996.56	1	40.593575	17.116091
1494	2024-03-03 05:00:00	25	massafra	8.83	1	81.64	1	0.0	1	null	6	null	6	0.0	1	996.56	1	40.593575	17.116091
1495	2024-03-03 06:00:00	25	massafra	8.25	1	75.39	1	0.0	1	null	6	null	6	0.0	1	996.65	1	40.593575	17.116091
1496	2024-03-03 07:00:00	25	massafra	8.22	1	70.02	1	0.0	1	null	6	null	6	5.45	1	996.39	1	40.593575	17.116091
1497	2024-03-03 08:00:00	25	massafra	9.35	1	66.41	1	0.0	1	null	6	null	6	35.53	1	996.47	1	40.593575	17.116091
1498	2024-03-03 09:00:00	25	massafra	13.43	1	53.34	1	0.0	1	null	6	null	6	296.07	1	996.84	1	40.593575	17.116091
1499	2024-03-03 10:00:00	25	massafra	15.91	1	50.39	1	0.0	1	null	6	null	6	478.78	1	996.82	1	40.593575	17.116091
1500	2024-03-03 11:00:00	25	massafra	17.55	1	43.63	1	0.0	1	null	6	null	6	553.35	1	996.58	1	40.593575	17.116091
1501	2024-03-03 12:00:00	25	massafra	18.04	1	42.27	1	0.0	1	null	6	null	6	631.84	1	996.26	1	40.593575	17.116091
1502	2024-03-03 13:00:00	25	massafra	17.08	1	46.8	1	0.0	1	null	6	null	6	452.34	1	995.81	1	40.593575	17.116091
1503	2024-03-03 14:00:00	25	massafra	17.66	1	46.01	1	0.0	1	null	6	null	6	562.35	1	995.04	1	40.593575	17.116091
1504	2024-03-03 15:00:00	25	massafra	18.11	1	44.64	1	0.0	1	null	6	null	6	518.31	1	994.51	1	40.593575	17.116091
1505	2024-03-03 16:00:00	25	massafra	17.39	1	46.51	1	0.0	1	null	6	null	6	346.36	1	994.34	1	40.593575	17.116091
1506	2024-03-03 17:00:00	25	massafra	16.54	1	44.06	1	0.0	1	null	6	null	6	165.37	1	994.1	1	40.593575	17.116091
1507	2024-03-03 18:00:00	25	massafra	14.89	1	56.68	1	0.0	1	null	6	null	6	11.27	1	993.9	1	40.593575	17.116091
1508	2024-03-03 19:00:00	25	massafra	14.2	1	66.05	1	0.0	1	null	6	null	6	0.0	1	993.95	1	40.593575	17.116091
1509	2024-03-03 20:00:00	25	massafra	13.72	1	67.64	1	0.0	1	null	6	null	6	0.0	1	993.93	1	40.593575	17.116091
1510	2024-03-03 21:00:00	25	massafra	13.82	1	70.27	1	0.0	1	null	6	null	6	0.0	1	993.85	1	40.593575	17.116091
1511	2024-03-03 22:00:00	25	massafra	13.96	1	69.74	1	0.0	1	null	6	null	6	0.0	1	993.53	1	40.593575	17.116091
1512	2024-03-03 23:00:00	25	massafra	14.15	1	71.12	1	0.0	1	null	6	null	6	0.0	1	992.89	1	40.593575	17.116091
1513	2024-03-04 00:00:00	25	massafra	14.28	1	74.39	1	0.0	1	null	6	null	6	0.0	1	992.53	1	40.593575	17.116091
1514	2024-03-04 01:00:00	25	massafra	14.36	1	77.88	1	0.0	1	null	6	null	6	0.0	1	992.05	1	40.593575	17.116091
1515	2024-03-04 02:00:00	25	massafra	14.41	1	80.09	1	0.0	1	null	6	null	6	0.0	1	991.65	1	40.593575	17.116091
1516	2024-03-04 03:00:00	25	massafra	14.39	1	81.83	1	0.0	1	null	6	null	6	0.0	1	991.08	1	40.593575	17.116091
1517	2024-03-04 04:00:00	25	massafra	14.34	1	83.11	1	0.0	1	null	6	null	6	0.0	1	990.53	1	40.593575	17.116091
1518	2024-03-04 05:00:00	25	massafra	14.25	1	82.94	1	0.0	1	null	6	null	6	0.0	1	990.03	1	40.593575	17.116091
1519	2024-03-04 06:00:00	25	massafra	14.24	1	83.32	1	0.0	1	null	6	null	6	0.0	1	990.0	1	40.593575	17.116091
1520	2024-03-04 07:00:00	25	massafra	14.21	1	83.54	1	0.0	1	null	6	null	6	0.0	5	989.52	1	40.593575	17.116091
1521	2024-03-04 08:00:00	25	massafra	14.29	1	82.97	1	0.0	1	null	6	null	6	15.27	1	989.11	1	40.593575	17.116091
1522	2024-03-04 09:00:00	25	massafra	14.28	1	81.09	1	0.0	1	null	6	null	6	8.62	1	988.41	1	40.593575	17.116091
1523	2024-03-04 10:00:00	25	massafra	10.56	1	81.26	1	10.8	1	null	6	null	6	0.0	5	989.78	1	40.593575	17.116091
1524	2024-03-04 11:00:00	25	massafra	9.42	1	87.12	1	6.2	1	null	6	null	6	17.62	1	990.23	1	40.593575	17.116091
1525	2024-03-04 12:00:00	25	massafra	9.63	1	87.9	1	0.2	1	null	6	null	6	177.35	1	989.69	1	40.593575	17.116091
1526	2024-03-04 13:00:00	25	massafra	10.22	1	75.0	1	0.0	1	null	6	null	6	130.58	1	989.2	1	40.593575	17.116091
1527	2024-03-04 14:00:00	25	massafra	11.06	1	66.46	1	0.0	1	null	6	null	6	117.79	1	989.06	1	40.593575	17.116091
1528	2024-03-04 15:00:00	25	massafra	11.06	1	71.78	1	0.4	1	null	6	null	6	181.09	1	989.06	1	40.593575	17.116091
1529	2024-03-04 16:00:00	25	massafra	12.44	1	67.29	1	0.0	1	null	6	null	6	291.84	1	988.57	1	40.593575	17.116091
1530	2024-03-04 17:00:00	25	massafra	13.1	1	57.49	1	0.0	1	null	6	null	6	172.79	1	988.5	1	40.593575	17.116091
1531	2024-03-04 18:00:00	25	massafra	11.09	1	63.9	1	0.0	1	null	6	null	6	7.37	1	988.81	1	40.593575	17.116091
1532	2024-03-04 19:00:00	25	massafra	9.66	1	71.53	1	0.0	1	null	6	null	6	0.0	1	989.33	1	40.593575	17.116091
1533	2024-03-04 20:00:00	25	massafra	9.2	1	73.68	1	0.0	1	null	6	null	6	0.0	1	989.58	1	40.593575	17.116091
1534	2024-03-04 21:00:00	25	massafra	8.93	1	74.35	1	0.0	1	null	6	null	6	0.0	1	989.37	1	40.593575	17.116091
1535	2024-03-04 22:00:00	25	massafra	8.76	1	75.16	1	0.0	1	null	6	null	6	0.0	1	989.37	1	40.593575	17.116091
1536	2024-03-04 23:00:00	25	massafra	8.56	1	75.84	1	0.0	1	null	6	null	6	0.0	1	989.64	1	40.593575	17.116091
1537	2024-03-05 00:00:00	25	massafra	7.94	1	75.4	1	0.0	1	null	6	null	6	0.0	1	989.97	1	40.593575	17.116091
1538	2024-03-05 01:00:00	25	massafra	7.32	1	75.89	1	0.0	1	null	6	null	6	0.0	1	990.31	1	40.593575	17.116091
1539	2024-03-05 02:00:00	25	massafra	7.08	1	75.42	1	0.0	1	null	6	null	6	0.0	1	990.76	1	40.593575	17.116091
1540	2024-03-05 03:00:00	25	massafra	6.98	1	73.7	1	0.0	1	null	6	null	6	0.0	1	990.67	1	40.593575	17.116091
1541	2024-03-05 04:00:00	25	massafra	7.0	1	69.72	1	0.0	1	null	6	null	6	0.0	1	990.75	1	40.593575	17.116091
1542	2024-03-05 05:00:00	25	massafra	7.41	1	73.13	1	0.0	1	null	6	null	6	0.0	1	991.04	1	40.593575	17.116091
1543	2024-03-05 06:00:00	25	massafra	7.85	1	76.14	1	0.0	1	null	6	null	6	0.0	1	991.37	1	40.593575	17.116091
1544	2024-03-05 07:00:00	25	massafra	7.79	1	78.47	1	0.0	1	null	6	null	6	6.33	1	991.57	1	40.593575	17.116091
1545	2024-03-05 08:00:00	25	massafra	8.79	1	79.29	1	0.0	1	null	6	null	6	42.18	1	992.23	1	40.593575	17.116091
1546	2024-03-05 09:00:00	25	massafra	11.53	1	72.01	1	0.0	1	null	6	null	6	303.26	1	993.06	1	40.593575	17.116091
1547	2024-03-05 10:00:00	25	massafra	13.88	1	54.12	1	0.0	1	null	6	null	6	501.9	1	993.22	1	40.593575	17.116091
1548	2024-03-05 11:00:00	25	massafra	14.81	1	48.69	1	0.0	1	null	6	null	6	498.77	1	993.57	1	40.593575	17.116091
1549	2024-03-05 12:00:00	25	massafra	15.7	1	46.04	1	0.0	1	null	6	null	6	519.08	1	994.05	1	40.593575	17.116091
1550	2024-03-05 13:00:00	25	massafra	15.57	1	45.84	1	0.0	1	null	6	null	6	327.89	1	994.2	1	40.593575	17.116091
1551	2024-03-05 14:00:00	25	massafra	15.31	1	46.89	1	0.0	1	null	6	null	6	183.42	1	994.2	1	40.593575	17.116091
1552	2024-03-05 15:00:00	25	massafra	16.02	1	45.4	1	0.0	1	null	6	null	6	376.66	1	994.26	1	40.593575	17.116091
1553	2024-03-05 16:00:00	25	massafra	16.71	1	46.39	1	0.0	1	null	6	null	6	362.63	1	994.46	1	40.593575	17.116091
1554	2024-03-05 17:00:00	25	massafra	16.28	1	49.26	1	0.0	1	null	6	null	6	165.04	1	994.87	1	40.593575	17.116091
1555	2024-03-05 18:00:00	25	massafra	14.59	1	53.69	1	0.0	1	null	6	null	6	11.79	1	995.46	1	40.593575	17.116091
1556	2024-03-05 19:00:00	25	massafra	13.1	1	59.56	1	0.0	1	null	6	null	6	0.0	1	995.95	1	40.593575	17.116091
1557	2024-03-05 20:00:00	25	massafra	11.84	1	65.5	1	0.0	1	null	6	null	6	0.0	1	996.49	1	40.593575	17.116091
1558	2024-03-05 21:00:00	25	massafra	11.1	1	69.99	1	0.0	1	null	6	null	6	0.0	1	997.03	1	40.593575	17.116091
1559	2024-03-05 22:00:00	25	massafra	10.78	1	71.92	1	0.0	1	null	6	null	6	0.0	1	997.48	1	40.593575	17.116091
1560	2024-03-05 23:00:00	25	massafra	10.8	1	72.44	1	0.0	1	null	6	null	6	0.0	1	997.82	1	40.593575	17.116091
1561	2024-03-06 00:00:00	25	massafra	10.16	1	72.58	1	0.0	1	null	6	null	6	0.0	1	998.04	1	40.593575	17.116091
1562	2024-03-06 01:00:00	25	massafra	10.13	1	73.34	1	0.0	1	null	6	null	6	0.0	1	998.22	1	40.593575	17.116091
1563	2024-03-06 02:00:00	25	massafra	9.83	1	74.16	1	0.0	1	null	6	null	6	0.0	1	998.28	1	40.593575	17.116091
1564	2024-03-06 03:00:00	25	massafra	9.96	1	69.81	1	0.0	1	null	6	null	6	0.0	1	998.17	1	40.593575	17.116091
1565	2024-03-06 04:00:00	25	massafra	9.94	1	67.88	1	0.0	1	null	6	null	6	0.0	1	998.13	1	40.593575	17.116091
1566	2024-03-06 05:00:00	25	massafra	10.38	1	62.77	1	0.0	1	null	6	null	6	0.0	1	998.19	1	40.593575	17.116091
1567	2024-03-06 06:00:00	25	massafra	10.32	1	60.54	1	0.0	1	null	6	null	6	0.0	1	998.21	1	40.593575	17.116091
1568	2024-03-06 07:00:00	25	massafra	9.18	1	65.04	1	0.0	1	null	6	null	6	8.13	1	998.53	1	40.593575	17.116091
1569	2024-03-06 08:00:00	25	massafra	9.83	1	65.9	1	0.0	1	null	6	null	6	45.51	1	999.18	1	40.593575	17.116091
1570	2024-03-06 09:00:00	25	massafra	14.08	1	52.58	1	0.0	1	null	6	null	6	284.71	1	999.26	1	40.593575	17.116091
1571	2024-03-06 10:00:00	25	massafra	18.02	1	40.82	1	0.0	1	null	6	null	6	479.07	1	999.34	1	40.593575	17.116091
1572	2024-03-06 11:00:00	25	massafra	19.16	1	38.45	1	0.0	1	null	6	null	6	595.91	1	999.33	1	40.593575	17.116091
1573	2024-03-06 12:00:00	25	massafra	19.74	1	37.12	1	0.0	1	null	6	null	6	651.99	1	999.19	1	40.593575	17.116091
1574	2024-03-06 13:00:00	25	massafra	20.66	1	35.98	1	0.0	1	null	6	null	6	676.29	1	998.7	1	40.593575	17.116091
1575	2024-03-06 14:00:00	25	massafra	19.04	1	42.08	1	0.8	1	null	6	null	6	311.94	1	998.35	1	40.593575	17.116091
1576	2024-03-06 15:00:00	25	massafra	14.87	1	64.32	1	8.0	1	null	6	null	6	471.82	1	998.42	1	40.593575	17.116091
1577	2024-03-06 16:00:00	25	massafra	17.59	1	50.95	1	0.0	1	null	6	null	6	360.36	1	997.74	1	40.593575	17.116091
1578	2024-03-06 17:00:00	25	massafra	18.21	1	46.87	1	0.0	1	null	6	null	6	170.93	1	997.69	1	40.593575	17.116091
1579	2024-03-06 18:00:00	25	massafra	15.81	1	55.4	1	0.0	1	null	6	null	6	10.65	1	997.82	1	40.593575	17.116091
1580	2024-03-06 19:00:00	25	massafra	14.28	1	51.52	1	0.0	1	null	6	null	6	0.0	1	998.58	1	40.593575	17.116091
1581	2024-03-06 20:00:00	25	massafra	13.3	1	37.68	1	0.0	1	null	6	null	6	0.0	1	999.24	1	40.593575	17.116091
1582	2024-03-06 21:00:00	25	massafra	12.76	1	39.35	1	0.0	1	null	6	null	6	0.0	1	999.69	1	40.593575	17.116091
1583	2024-03-06 22:00:00	25	massafra	11.68	1	44.68	1	0.0	1	null	6	null	6	0.0	1	1000.09	1	40.593575	17.116091
1584	2024-03-06 23:00:00	25	massafra	11.0	1	46.17	1	0.0	1	null	6	null	6	0.0	1	1000.26	1	40.593575	17.116091
1585	2024-03-07 00:00:00	25	massafra	11.06	1	46.25	1	0.0	1	null	6	null	6	0.0	1	1000.29	1	40.593575	17.116091
1586	2024-03-07 01:00:00	25	massafra	10.62	1	47.67	1	0.0	1	null	6	null	6	0.0	1	1000.19	1	40.593575	17.116091
1587	2024-03-07 02:00:00	25	massafra	9.05	1	55.16	1	0.0	1	null	6	null	6	0.0	1	1000.03	1	40.593575	17.116091
1588	2024-03-07 03:00:00	25	massafra	8.49	1	58.67	1	0.0	1	null	6	null	6	0.0	1	999.62	1	40.593575	17.116091
1589	2024-03-07 04:00:00	25	massafra	8.45	1	60.78	1	0.0	1	null	6	null	6	0.0	1	999.19	1	40.593575	17.116091
1590	2024-03-07 05:00:00	25	massafra	7.75	1	63.07	1	0.0	1	null	6	null	6	0.0	1	999.23	1	40.593575	17.116091
1591	2024-03-07 06:00:00	25	massafra	7.78	1	61.63	1	0.0	1	null	6	null	6	0.0	1	999.04	1	40.593575	17.116091
1592	2024-03-07 07:00:00	25	massafra	6.81	1	64.13	1	0.0	1	null	6	null	6	6.15	1	998.84	1	40.593575	17.116091
1593	2024-03-07 08:00:00	25	massafra	8.12	1	62.62	1	0.0	1	null	6	null	6	29.87	1	999.14	1	40.593575	17.116091
1594	2024-03-07 09:00:00	25	massafra	11.67	1	51.88	1	0.0	1	null	6	null	6	294.72	1	999.33	1	40.593575	17.116091
1595	2024-03-07 10:00:00	25	massafra	15.37	1	39.65	1	0.0	1	null	6	null	6	524.99	1	999.17	1	40.593575	17.116091
1596	2024-03-07 11:00:00	25	massafra	16.33	1	35.08	1	0.0	1	null	6	null	6	509.37	1	999.01	1	40.593575	17.116091
1597	2024-03-07 12:00:00	25	massafra	14.65	1	33.99	1	0.0	1	null	6	null	6	239.29	1	999.05	1	40.593575	17.116091
1598	2024-03-07 13:00:00	25	massafra	15.2	1	32.07	1	0.0	1	null	6	null	6	294.34	1	998.53	1	40.593575	17.116091
1599	2024-03-07 14:00:00	25	massafra	15.27	1	37.45	1	0.0	1	null	6	null	6	192.88	1	998.07	1	40.593575	17.116091
1600	2024-03-07 15:00:00	25	massafra	13.67	1	48.78	1	0.8	1	null	6	null	6	185.86	1	998.15	1	40.593575	17.116091
1601	2024-03-07 16:00:00	25	massafra	13.88	1	52.71	1	0.0	1	null	6	null	6	179.99	1	998.17	1	40.593575	17.116091
1602	2024-03-07 17:00:00	25	massafra	14.01	1	48.59	1	0.0	1	null	6	null	6	140.71	1	998.29	1	40.593575	17.116091
1603	2024-03-07 18:00:00	25	massafra	11.89	1	52.18	1	0.0	1	null	6	null	6	6.37	1	998.71	1	40.593575	17.116091
1604	2024-03-07 19:00:00	25	massafra	10.55	1	59.77	1	0.0	1	null	6	null	6	0.0	1	999.27	1	40.593575	17.116091
1605	2024-03-07 20:00:00	25	massafra	10.35	1	60.75	1	0.0	1	null	6	null	6	0.0	1	999.65	1	40.593575	17.116091
1606	2024-03-07 21:00:00	25	massafra	9.57	1	63.46	1	0.0	1	null	6	null	6	0.0	1	1000.09	1	40.593575	17.116091
1607	2024-03-07 22:00:00	25	massafra	9.57	1	64.47	1	0.0	1	null	6	null	6	0.0	1	1000.2	1	40.593575	17.116091
1608	2024-03-07 23:00:00	25	massafra	9.1	1	67.62	1	0.0	1	null	6	null	6	0.0	1	1000.26	1	40.593575	17.116091
1609	2024-03-08 00:00:00	25	massafra	8.04	1	70.86	1	0.0	1	null	6	null	6	0.0	1	1000.48	1	40.593575	17.116091
1610	2024-03-08 01:00:00	25	massafra	7.54	1	72.2	1	0.0	1	null	6	null	6	0.0	1	1000.5	1	40.593575	17.116091
1611	2024-03-08 02:00:00	25	massafra	6.99	1	73.06	1	0.0	1	null	6	null	6	0.0	1	1000.49	1	40.593575	17.116091
1612	2024-03-08 03:00:00	25	massafra	7.16	1	72.38	1	0.0	1	null	6	null	6	0.0	1	1000.26	1	40.593575	17.116091
1613	2024-03-08 04:00:00	25	massafra	7.62	1	70.91	1	0.0	1	null	6	null	6	0.0	1	1000.05	1	40.593575	17.116091
1614	2024-03-08 05:00:00	25	massafra	7.62	1	68.94	1	0.0	1	null	6	null	6	0.0	1	999.93	1	40.593575	17.116091
1615	2024-03-08 06:00:00	25	massafra	7.59	1	69.13	1	0.0	1	null	6	null	6	0.0	1	999.93	1	40.593575	17.116091
1616	2024-03-08 07:00:00	25	massafra	7.48	1	70.12	1	0.0	1	null	6	null	6	9.46	1	1000.09	1	40.593575	17.116091
1617	2024-03-08 08:00:00	25	massafra	8.64	1	70.01	1	0.0	1	null	6	null	6	37.24	1	1000.36	1	40.593575	17.116091
1618	2024-03-08 09:00:00	25	massafra	12.15	1	57.41	1	0.0	1	null	6	null	6	299.27	1	1000.52	1	40.593575	17.116091
1619	2024-03-08 10:00:00	25	massafra	15.66	1	43.73	1	0.0	1	null	6	null	6	523.13	1	1000.37	1	40.593575	17.116091
1620	2024-03-08 11:00:00	25	massafra	16.65	1	41.43	1	0.0	1	null	6	null	6	633.37	1	1000.3	1	40.593575	17.116091
1621	2024-03-08 12:00:00	25	massafra	17.13	1	39.86	1	0.0	1	null	6	null	6	697.99	1	1000.32	1	40.593575	17.116091
1622	2024-03-08 13:00:00	25	massafra	17.32	1	36.43	1	0.0	1	null	6	null	6	701.0	1	1000.04	1	40.593575	17.116091
1623	2024-03-08 14:00:00	25	massafra	17.33	1	36.37	1	0.0	1	null	6	null	6	645.62	1	999.69	1	40.593575	17.116091
1624	2024-03-08 15:00:00	25	massafra	16.96	1	37.15	1	0.0	1	null	6	null	6	518.14	1	999.66	1	40.593575	17.116091
1625	2024-03-08 16:00:00	25	massafra	16.66	1	38.65	1	0.0	1	null	6	null	6	381.91	1	999.41	1	40.593575	17.116091
1626	2024-03-08 17:00:00	25	massafra	15.91	1	41.51	1	0.0	1	null	6	null	6	176.81	1	999.31	1	40.593575	17.116091
1627	2024-03-08 18:00:00	25	massafra	13.3	1	53.59	1	0.0	1	null	6	null	6	8.03	1	999.42	1	40.593575	17.116091
1628	2024-03-08 19:00:00	25	massafra	12.31	1	59.7	1	0.0	1	null	6	null	6	0.0	1	999.73	1	40.593575	17.116091
1629	2024-03-08 20:00:00	25	massafra	11.38	1	64.44	1	0.0	1	null	6	null	6	0.0	1	999.83	1	40.593575	17.116091
1630	2024-03-08 21:00:00	25	massafra	11.4	1	65.67	1	0.0	1	null	6	null	6	0.0	1	999.93	1	40.593575	17.116091
1631	2024-03-08 22:00:00	25	massafra	11.81	1	65.84	1	0.0	1	null	6	null	6	0.0	1	1000.04	1	40.593575	17.116091
1632	2024-03-08 23:00:00	25	massafra	11.83	1	66.92	1	0.0	1	null	6	null	6	0.0	1	999.76	1	40.593575	17.116091
1633	2024-03-09 00:00:00	25	massafra	11.93	1	68.18	1	0.0	1	null	6	null	6	0.0	1	999.36	1	40.593575	17.116091
1634	2024-03-09 01:00:00	25	massafra	12.35	1	69.16	1	0.0	1	null	6	null	6	0.0	1	999.17	1	40.593575	17.116091
1635	2024-03-09 02:00:00	25	massafra	12.64	1	70.93	1	0.0	1	null	6	null	6	0.0	1	998.84	1	40.593575	17.116091
1636	2024-03-09 03:00:00	25	massafra	12.83	1	74.34	1	0.0	1	null	6	null	6	0.0	1	998.34	1	40.593575	17.116091
1637	2024-03-09 04:00:00	25	massafra	12.64	1	81.86	1	0.4	1	null	6	null	6	0.0	1	997.81	1	40.593575	17.116091
1638	2024-03-09 05:00:00	25	massafra	12.78	1	87.88	1	0.4	1	null	6	null	6	0.0	1	997.88	1	40.593575	17.116091
1639	2024-03-09 06:00:00	25	massafra	13.0	1	90.59	1	0.4	1	null	6	null	6	0.0	1	997.91	1	40.593575	17.116091
1640	2024-03-09 07:00:00	25	massafra	13.15	1	92.56	1	0.2	1	null	6	null	6	0.0	5	997.88	1	40.593575	17.116091
1641	2024-03-09 08:00:00	25	massafra	13.52	1	93.88	1	0.4	1	null	6	null	6	34.0	1	997.88	1	40.593575	17.116091
1642	2024-03-09 09:00:00	25	massafra	14.05	1	94.07	1	0.0	1	null	6	null	6	143.96	1	998.0	1	40.593575	17.116091
1643	2024-03-09 10:00:00	25	massafra	14.91	1	92.11	1	0.0	1	null	6	null	6	259.08	1	998.04	1	40.593575	17.116091
1644	2024-03-09 11:00:00	25	massafra	15.83	1	85.73	1	0.0	1	null	6	null	6	233.51	1	998.09	1	40.593575	17.116091
1645	2024-03-09 12:00:00	25	massafra	17.23	1	74.45	1	0.0	1	null	6	null	6	379.97	1	997.9	1	40.593575	17.116091
1646	2024-03-09 13:00:00	25	massafra	17.72	1	67.36	1	0.0	1	null	6	null	6	447.8	1	997.44	1	40.593575	17.116091
1647	2024-03-09 14:00:00	25	massafra	17.59	1	66.42	1	0.0	1	null	6	null	6	263.62	1	997.28	1	40.593575	17.116091
1648	2024-03-09 15:00:00	25	massafra	16.9	1	70.26	1	0.0	1	null	6	null	6	258.92	1	997.29	1	40.593575	17.116091
1649	2024-03-09 16:00:00	25	massafra	17.69	1	60.17	1	0.0	1	null	6	null	6	270.88	1	996.63	1	40.593575	17.116091
1650	2024-03-09 17:00:00	25	massafra	16.75	1	65.73	1	0.0	1	null	6	null	6	91.67	1	996.29	1	40.593575	17.116091
1651	2024-03-09 18:00:00	25	massafra	15.54	1	74.93	1	0.0	1	null	6	null	6	16.98	1	996.63	1	40.593575	17.116091
1652	2024-03-09 19:00:00	25	massafra	14.48	1	83.27	1	0.0	1	null	6	null	6	0.0	1	996.96	1	40.593575	17.116091
1653	2024-03-09 20:00:00	25	massafra	13.94	1	87.79	1	0.0	1	null	6	null	6	0.0	1	997.03	1	40.593575	17.116091
1654	2024-03-09 21:00:00	25	massafra	13.72	1	90.06	1	0.0	1	null	6	null	6	0.0	1	997.15	1	40.593575	17.116091
1655	2024-03-09 22:00:00	25	massafra	13.42	1	89.83	1	0.0	1	null	6	null	6	0.0	1	996.92	1	40.593575	17.116091
1656	2024-03-09 23:00:00	25	massafra	13.55	1	88.47	1	0.0	1	null	6	null	6	0.0	1	997.02	1	40.593575	17.116091
1657	2024-03-10 00:00:00	25	massafra	13.89	1	86.83	1	0.0	1	null	6	null	6	0.0	1	996.88	1	40.593575	17.116091
1658	2024-03-10 01:00:00	25	massafra	14.19	1	85.29	1	0.0	1	null	6	null	6	0.0	1	996.84	1	40.593575	17.116091
1659	2024-03-10 02:00:00	25	massafra	14.2	1	84.19	1	0.0	1	null	6	null	6	0.0	1	996.73	1	40.593575	17.116091
1660	2024-03-10 03:00:00	25	massafra	14.13	1	82.79	1	0.0	1	null	6	null	6	0.0	1	996.37	1	40.593575	17.116091
1661	2024-03-10 04:00:00	25	massafra	14.17	1	82.21	1	0.0	1	null	6	null	6	0.0	1	996.1	1	40.593575	17.116091
1662	2024-03-10 05:00:00	25	massafra	14.19	1	81.64	1	0.0	1	null	6	null	6	0.0	1	995.95	1	40.593575	17.116091
1663	2024-03-10 06:00:00	25	massafra	14.21	1	81.44	1	0.0	1	null	6	null	6	0.0	1	996.02	1	40.593575	17.116091
1664	2024-03-10 07:00:00	25	massafra	14.28	1	80.47	1	0.0	1	null	6	null	6	0.0	5	996.22	1	40.593575	17.116091
1665	2024-03-10 08:00:00	25	massafra	14.44	1	79.59	1	0.0	1	null	6	null	6	24.87	1	996.58	1	40.593575	17.116091
1666	2024-03-10 09:00:00	25	massafra	14.71	1	77.97	1	0.0	1	null	6	null	6	67.58	1	996.82	1	40.593575	17.116091
1667	2024-03-10 10:00:00	25	massafra	14.93	1	75.63	1	0.0	1	null	6	null	6	71.4	1	996.84	1	40.593575	17.116091
1668	2024-03-10 11:00:00	25	massafra	15.11	1	74.6	1	0.0	1	null	6	null	6	104.68	1	997.09	1	40.593575	17.116091
1669	2024-03-10 12:00:00	25	massafra	15.79	1	70.5	1	0.0	1	null	6	null	6	166.22	1	996.86	1	40.593575	17.116091
1670	2024-03-10 13:00:00	25	massafra	15.76	1	70.04	1	0.0	1	null	6	null	6	154.71	1	996.42	1	40.593575	17.116091
1671	2024-03-10 14:00:00	25	massafra	15.56	1	70.53	1	0.0	1	null	6	null	6	83.63	1	995.8	1	40.593575	17.116091
1672	2024-03-10 15:00:00	25	massafra	15.48	1	69.22	1	0.0	1	null	6	null	6	78.87	1	995.31	1	40.593575	17.116091
1673	2024-03-10 16:00:00	25	massafra	15.38	1	70.05	1	0.0	1	null	6	null	6	54.46	1	994.67	1	40.593575	17.116091
1674	2024-03-10 17:00:00	25	massafra	15.24	1	71.76	1	0.0	1	null	6	null	6	36.64	1	994.21	1	40.593575	17.116091
1675	2024-03-10 18:00:00	25	massafra	14.95	1	73.52	1	0.0	1	null	6	null	6	0.0	5	993.67	1	40.593575	17.116091
1676	2024-03-10 19:00:00	25	massafra	14.78	1	74.04	1	0.0	1	null	6	null	6	0.0	1	993.68	1	40.593575	17.116091
1677	2024-03-10 20:00:00	25	massafra	14.75	1	74.35	1	0.0	1	null	6	null	6	0.0	1	993.94	1	40.593575	17.116091
1678	2024-03-10 21:00:00	25	massafra	14.68	1	75.13	1	0.0	1	null	6	null	6	0.0	1	993.64	1	40.593575	17.116091
1679	2024-03-10 22:00:00	25	massafra	14.6	1	75.7	1	0.0	1	null	6	null	6	0.0	1	993.42	1	40.593575	17.116091
1680	2024-03-10 23:00:00	25	massafra	14.72	1	75.64	1	0.0	1	null	6	null	6	0.0	1	992.92	1	40.593575	17.116091
1681	2024-03-11 00:00:00	25	massafra	14.67	1	76.96	1	0.0	1	null	6	null	6	0.0	1	992.49	1	40.593575	17.116091
1682	2024-03-11 01:00:00	25	massafra	14.71	1	77.42	1	0.0	1	null	6	null	6	0.0	1	991.98	1	40.593575	17.116091
1683	2024-03-11 02:00:00	25	massafra	14.72	1	77.78	1	0.0	1	null	6	null	6	0.0	1	991.64	1	40.593575	17.116091
1684	2024-03-11 03:00:00	25	massafra	14.69	1	77.61	1	0.0	1	null	6	null	6	0.0	1	991.1	1	40.593575	17.116091
1685	2024-03-11 04:00:00	25	massafra	14.78	1	77.37	1	0.0	1	null	6	null	6	0.0	1	990.43	1	40.593575	17.116091
1686	2024-03-11 05:00:00	25	massafra	14.8	1	78.58	1	0.0	1	null	6	null	6	0.0	1	989.4	1	40.593575	17.116091
1687	2024-03-11 06:00:00	25	massafra	14.8	1	79.09	1	0.0	1	null	6	null	6	0.0	1	988.14	1	40.593575	17.116091
1688	2024-03-11 07:00:00	25	massafra	14.97	1	78.61	1	0.0	1	null	6	null	6	0.0	5	988.31	1	40.593575	17.116091
1689	2024-03-11 08:00:00	25	massafra	13.25	1	81.15	1	12.6	1	null	6	null	6	5.23	1	989.35	1	40.593575	17.116091
1690	2024-03-11 09:00:00	25	massafra	13.0	1	88.61	1	0.0	1	null	6	null	6	248.73	1	989.74	1	40.593575	17.116091
1691	2024-03-11 10:00:00	25	massafra	16.13	1	67.99	1	0.0	1	null	6	null	6	383.65	1	989.89	1	40.593575	17.116091
1692	2024-03-11 11:00:00	25	massafra	17.71	1	52.83	1	0.0	1	null	6	null	6	558.8	1	989.97	1	40.593575	17.116091
1693	2024-03-11 12:00:00	25	massafra	19.77	1	44.16	1	0.0	1	null	6	null	6	639.72	1	990.09	1	40.593575	17.116091
1694	2024-03-11 13:00:00	25	massafra	21.38	1	43.04	1	0.2	1	null	6	null	6	713.54	1	989.91	1	40.593575	17.116091
1695	2024-03-11 14:00:00	25	massafra	20.21	1	43.9	1	0.0	1	null	6	null	6	417.74	1	989.72	1	40.593575	17.116091
1696	2024-03-11 15:00:00	25	massafra	20.34	1	40.17	1	0.0	1	null	6	null	6	299.98	1	989.73	1	40.593575	17.116091
1697	2024-03-11 16:00:00	25	massafra	18.69	1	42.96	1	0.0	1	null	6	null	6	172.19	1	990.47	1	40.593575	17.116091
1698	2024-03-11 17:00:00	25	massafra	15.98	1	46.41	1	0.0	1	null	6	null	6	65.51	1	991.28	1	40.593575	17.116091
1699	2024-03-11 18:00:00	25	massafra	14.94	1	49.8	1	0.0	1	null	6	null	6	14.5	1	991.5	1	40.593575	17.116091
1700	2024-03-11 19:00:00	25	massafra	14.57	1	52.34	1	0.0	1	null	6	null	6	0.0	1	992.12	1	40.593575	17.116091
1701	2024-03-11 20:00:00	25	massafra	14.1	1	53.43	1	0.0	1	null	6	null	6	0.0	1	992.78	1	40.593575	17.116091
1702	2024-03-11 21:00:00	25	massafra	13.23	1	55.87	1	0.0	1	null	6	null	6	0.0	1	993.07	1	40.593575	17.116091
1703	2024-03-11 22:00:00	25	massafra	12.31	1	57.62	1	0.0	1	null	6	null	6	0.0	1	993.46	1	40.593575	17.116091
1704	2024-03-11 23:00:00	25	massafra	11.61	1	60.35	1	0.0	1	null	6	null	6	0.0	1	993.38	1	40.593575	17.116091
1705	2024-03-12 00:00:00	25	massafra	11.46	1	60.15	1	0.0	1	null	6	null	6	0.0	1	993.14	1	40.593575	17.116091
1706	2024-03-12 01:00:00	25	massafra	11.05	1	61.4	1	0.0	1	null	6	null	6	0.0	1	993.48	1	40.593575	17.116091
1707	2024-03-12 02:00:00	25	massafra	11.33	1	60.33	1	0.0	1	null	6	null	6	0.0	1	993.61	1	40.593575	17.116091
1708	2024-03-12 03:00:00	25	massafra	11.25	1	62.06	1	0.0	1	null	6	null	6	0.0	1	993.03	1	40.593575	17.116091
1709	2024-03-12 04:00:00	25	massafra	10.89	1	64.16	1	0.0	1	null	6	null	6	0.0	1	992.77	1	40.593575	17.116091
1710	2024-03-12 05:00:00	25	massafra	10.11	1	56.6	1	0.0	1	null	6	null	6	0.0	1	992.79	1	40.593575	17.116091
1711	2024-03-12 06:00:00	25	massafra	9.87	1	57.87	1	0.0	1	null	6	null	6	0.0	1	992.86	1	40.593575	17.116091
1712	2024-03-12 07:00:00	25	massafra	9.18	1	60.53	1	0.0	1	null	6	null	6	8.54	1	993.23	1	40.593575	17.116091
1713	2024-03-12 08:00:00	25	massafra	10.47	1	56.37	1	0.0	1	null	6	null	6	36.26	1	993.9	1	40.593575	17.116091
1714	2024-03-12 09:00:00	25	massafra	14.17	1	43.36	1	0.0	1	null	6	null	6	297.16	1	994.21	1	40.593575	17.116091
1715	2024-03-12 10:00:00	25	massafra	16.91	1	36.82	1	0.0	1	null	6	null	6	539.08	1	994.16	1	40.593575	17.116091
1716	2024-03-12 11:00:00	25	massafra	18.33	1	32.59	1	0.0	1	null	6	null	6	624.07	1	994.17	1	40.593575	17.116091
1717	2024-03-12 12:00:00	25	massafra	19.38	1	30.88	1	0.0	1	null	6	null	6	756.11	1	994.19	1	40.593575	17.116091
1718	2024-03-12 13:00:00	25	massafra	17.42	1	43.71	1	1.4	1	null	6	null	6	246.84	1	994.38	1	40.593575	17.116091
1719	2024-03-12 14:00:00	25	massafra	13.52	1	63.95	1	0.2	1	null	6	null	6	243.83	1	994.65	1	40.593575	17.116091
1720	2024-03-12 15:00:00	25	massafra	13.3	1	64.29	1	0.4	1	null	6	null	6	130.62	1	994.7	1	40.593575	17.116091
1721	2024-03-12 16:00:00	25	massafra	13.37	1	66.52	1	0.8	1	null	6	null	6	164.64	1	994.85	1	40.593575	17.116091
1722	2024-03-12 17:00:00	25	massafra	12.11	1	73.77	1	0.4	1	null	6	null	6	29.95	1	995.31	1	40.593575	17.116091
1723	2024-03-12 18:00:00	25	massafra	11.61	1	79.75	1	0.0	1	null	6	null	6	12.81	1	995.44	1	40.593575	17.116091
1724	2024-03-12 19:00:00	25	massafra	11.54	1	78.47	1	0.0	1	null	6	null	6	0.0	1	995.81	1	40.593575	17.116091
1725	2024-03-12 20:00:00	25	massafra	11.14	1	76.33	1	0.0	1	null	6	null	6	0.0	1	996.49	1	40.593575	17.116091
1726	2024-03-12 21:00:00	25	massafra	10.39	1	76.53	1	0.0	1	null	6	null	6	0.0	1	996.8	1	40.593575	17.116091
1727	2024-03-12 22:00:00	25	massafra	9.67	1	77.35	1	0.0	1	null	6	null	6	0.0	1	997.1	1	40.593575	17.116091
1728	2024-03-12 23:00:00	25	massafra	9.04	1	77.57	1	0.0	1	null	6	null	6	0.0	1	997.28	1	40.593575	17.116091
1729	2024-03-13 00:00:00	25	massafra	8.44	1	76.67	1	0.0	1	null	6	null	6	0.0	1	997.53	1	40.593575	17.116091
1730	2024-03-13 01:00:00	25	massafra	8.57	1	72.69	1	0.0	1	null	6	null	6	0.0	1	997.66	1	40.593575	17.116091
1731	2024-03-13 02:00:00	25	massafra	8.67	1	70.78	1	0.0	1	null	6	null	6	0.0	1	997.55	1	40.593575	17.116091
1732	2024-03-13 03:00:00	25	massafra	8.13	1	72.28	1	0.0	1	null	6	null	6	0.0	1	997.45	1	40.593575	17.116091
1733	2024-03-13 04:00:00	25	massafra	7.7	1	75.18	1	0.0	1	null	6	null	6	0.0	1	997.22	1	40.593575	17.116091
1734	2024-03-13 05:00:00	25	massafra	8.28	1	77.22	1	0.0	1	null	6	null	6	0.0	1	996.95	1	40.593575	17.116091
1735	2024-03-13 06:00:00	25	massafra	9.38	1	69.88	1	0.0	1	null	6	null	6	0.0	1	997.11	1	40.593575	17.116091
1736	2024-03-13 07:00:00	25	massafra	9.25	1	69.03	1	0.0	1	null	6	null	6	12.56	1	997.33	1	40.593575	17.116091
1737	2024-03-13 08:00:00	25	massafra	9.99	1	67.17	1	0.0	1	null	6	null	6	49.0	1	997.8	1	40.593575	17.116091
1738	2024-03-13 09:00:00	25	massafra	11.77	1	63.12	1	0.0	1	null	6	null	6	292.12	1	998.28	1	40.593575	17.116091
1739	2024-03-13 10:00:00	25	massafra	15.4	1	49.04	1	0.0	1	null	6	null	6	542.55	1	998.4	1	40.593575	17.116091
1740	2024-03-13 11:00:00	25	massafra	16.47	1	42.5	1	0.0	1	null	6	null	6	538.94	1	998.73	1	40.593575	17.116091
1741	2024-03-13 12:00:00	25	massafra	17.22	1	38.56	1	0.2	1	null	6	null	6	645.18	1	998.69	1	40.593575	17.116091
1742	2024-03-13 13:00:00	25	massafra	17.57	1	35.64	1	0.0	1	null	6	null	6	618.75	1	998.47	1	40.593575	17.116091
1743	2024-03-13 14:00:00	25	massafra	18.06	1	34.12	1	0.0	1	null	6	null	6	535.57	1	998.14	1	40.593575	17.116091
1744	2024-03-13 15:00:00	25	massafra	17.18	1	37.11	1	0.0	1	null	6	null	6	427.78	1	998.17	1	40.593575	17.116091
1745	2024-03-13 16:00:00	25	massafra	16.68	1	39.22	1	0.0	1	null	6	null	6	227.97	1	998.27	1	40.593575	17.116091
1746	2024-03-13 17:00:00	25	massafra	15.88	1	44.95	1	0.0	1	null	6	null	6	99.56	1	998.41	1	40.593575	17.116091
1747	2024-03-13 18:00:00	25	massafra	14.19	1	48.12	1	0.0	1	null	6	null	6	16.04	1	998.56	1	40.593575	17.116091
1748	2024-03-13 19:00:00	25	massafra	12.83	1	55.27	1	0.0	1	null	6	null	6	0.0	1	998.98	1	40.593575	17.116091
1749	2024-03-13 20:00:00	25	massafra	11.94	1	62.18	1	0.0	1	null	6	null	6	0.0	1	999.49	1	40.593575	17.116091
1750	2024-03-13 21:00:00	25	massafra	11.22	1	67.18	1	0.0	1	null	6	null	6	0.0	1	999.92	1	40.593575	17.116091
1751	2024-03-13 22:00:00	25	massafra	10.52	1	68.52	1	0.0	1	null	6	null	6	0.0	1	1000.23	1	40.593575	17.116091
1752	2024-03-13 23:00:00	25	massafra	9.8	1	68.77	1	0.0	1	null	6	null	6	0.0	1	1000.26	1	40.593575	17.116091
1753	2024-03-14 00:00:00	25	massafra	9.54	1	71.72	1	0.0	1	null	6	null	6	0.0	1	1000.25	1	40.593575	17.116091
1754	2024-03-14 01:00:00	25	massafra	9.7	1	70.98	1	0.0	1	null	6	null	6	0.0	1	1000.26	1	40.593575	17.116091
1755	2024-03-14 02:00:00	25	massafra	9.49	1	68.26	1	0.0	1	null	6	null	6	0.0	1	1000.34	1	40.593575	17.116091
1756	2024-03-14 03:00:00	25	massafra	9.58	1	59.54	1	0.0	1	null	6	null	6	0.0	1	999.97	1	40.593575	17.116091
1757	2024-03-14 04:00:00	25	massafra	9.74	1	53.98	1	0.0	1	null	6	null	6	0.0	1	999.89	1	40.593575	17.116091
1758	2024-03-14 05:00:00	25	massafra	9.83	1	51.55	1	0.0	1	null	6	null	6	0.0	1	999.89	1	40.593575	17.116091
1759	2024-03-14 06:00:00	25	massafra	9.69	1	49.65	1	0.0	1	null	6	null	6	0.0	1	1000.42	1	40.593575	17.116091
1760	2024-03-14 07:00:00	25	massafra	9.78	1	48.08	1	0.0	1	null	6	null	6	11.28	1	1000.85	1	40.593575	17.116091
1761	2024-03-14 08:00:00	25	massafra	11.64	1	42.07	1	0.0	1	null	6	null	6	35.3	1	1001.1	1	40.593575	17.116091
1762	2024-03-14 09:00:00	25	massafra	15.01	1	33.39	1	0.0	1	null	6	null	6	325.83	1	1001.26	1	40.593575	17.116091
1763	2024-03-14 10:00:00	25	massafra	17.52	1	27.94	1	0.0	1	null	6	null	6	559.01	1	1001.1	1	40.593575	17.116091
1764	2024-03-14 11:00:00	25	massafra	18.59	1	26.91	1	0.0	1	null	6	null	6	668.41	1	1001.08	1	40.593575	17.116091
1765	2024-03-14 12:00:00	25	massafra	19.45	1	24.93	1	0.0	1	null	6	null	6	728.66	1	1000.92	1	40.593575	17.116091
1766	2024-03-14 13:00:00	25	massafra	19.78	1	24.43	1	0.0	1	null	6	null	6	728.26	1	1000.65	1	40.593575	17.116091
1767	2024-03-14 14:00:00	25	massafra	19.75	1	24.19	1	0.0	1	null	6	null	6	674.49	1	1000.38	1	40.593575	17.116091
1768	2024-03-14 15:00:00	25	massafra	19.44	1	24.53	1	0.0	1	null	6	null	6	556.36	1	1000.28	1	40.593575	17.116091
1769	2024-03-14 16:00:00	25	massafra	19.36	1	23.98	1	0.0	1	null	6	null	6	399.87	1	1000.18	1	40.593575	17.116091
1770	2024-03-14 17:00:00	25	massafra	18.44	1	26.45	1	0.0	1	null	6	null	6	199.95	1	1000.16	1	40.593575	17.116091
1771	2024-03-14 18:00:00	25	massafra	16.17	1	33.89	1	0.0	1	null	6	null	6	16.68	1	1000.22	1	40.593575	17.116091
1772	2024-03-14 19:00:00	25	massafra	13.86	1	41.9	1	0.0	1	null	6	null	6	0.0	1	1000.79	1	40.593575	17.116091
1773	2024-03-14 20:00:00	25	massafra	12.64	1	45.92	1	0.0	1	null	6	null	6	0.0	1	1001.34	1	40.593575	17.116091
1774	2024-03-14 21:00:00	25	massafra	11.85	1	49.79	1	0.0	1	null	6	null	6	0.0	1	1001.64	1	40.593575	17.116091
1775	2024-03-14 22:00:00	25	massafra	11.05	1	51.43	1	0.0	1	null	6	null	6	0.0	1	1001.71	1	40.593575	17.116091
1776	2024-03-14 23:00:00	25	massafra	10.93	1	51.38	1	0.0	1	null	6	null	6	0.0	1	1001.69	1	40.593575	17.116091
1777	2024-03-15 00:00:00	25	massafra	11.25	1	42.24	1	0.0	1	null	6	null	6	0.0	1	1001.61	1	40.593575	17.116091
1778	2024-03-15 01:00:00	25	massafra	11.09	1	41.02	1	0.0	1	null	6	null	6	0.0	1	1001.61	1	40.593575	17.116091
1779	2024-03-15 02:00:00	25	massafra	10.38	1	44.0	1	0.0	1	null	6	null	6	0.0	1	1001.5	1	40.593575	17.116091
1780	2024-03-15 03:00:00	25	massafra	10.22	1	44.47	1	0.0	1	null	6	null	6	0.0	1	1001.12	1	40.593575	17.116091
1781	2024-03-15 04:00:00	25	massafra	9.77	1	49.61	1	0.0	1	null	6	null	6	0.0	1	1001.0	1	40.593575	17.116091
1782	2024-03-15 05:00:00	25	massafra	8.82	1	54.36	1	0.0	1	null	6	null	6	0.0	1	1001.09	1	40.593575	17.116091
1783	2024-03-15 06:00:00	25	massafra	8.63	1	54.77	1	0.0	1	null	6	null	6	0.0	1	1001.21	1	40.593575	17.116091
1784	2024-03-15 07:00:00	25	massafra	8.91	1	50.52	1	0.0	1	null	6	null	6	11.4	1	1001.36	1	40.593575	17.116091
1785	2024-03-15 08:00:00	25	massafra	10.87	1	47.65	1	0.0	1	null	6	null	6	34.02	1	1001.64	1	40.593575	17.116091
1786	2024-03-15 09:00:00	25	massafra	15.3	1	36.98	1	0.0	1	null	6	null	6	312.75	1	1001.89	1	40.593575	17.116091
1787	2024-03-15 10:00:00	25	massafra	18.4	1	32.42	1	0.0	1	null	6	null	6	547.82	1	1001.93	1	40.593575	17.116091
1788	2024-03-15 11:00:00	25	massafra	20.32	1	29.97	1	0.0	1	null	6	null	6	677.7	1	1001.77	1	40.593575	17.116091
1789	2024-03-15 12:00:00	25	massafra	21.35	1	31.63	1	0.0	1	null	6	null	6	727.27	1	1001.4	1	40.593575	17.116091
1790	2024-03-15 13:00:00	25	massafra	21.57	1	34.09	1	0.0	1	null	6	null	6	618.36	1	1000.98	1	40.593575	17.116091
1791	2024-03-15 14:00:00	25	massafra	21.81	1	30.9	1	0.0	1	null	6	null	6	647.45	1	1000.64	1	40.593575	17.116091
1792	2024-03-15 15:00:00	25	massafra	20.24	1	28.53	1	0.0	1	null	6	null	6	312.0	1	1000.59	1	40.593575	17.116091
1793	2024-03-15 16:00:00	25	massafra	18.74	1	40.32	1	0.0	1	null	6	null	6	244.5	1	1000.51	1	40.593575	17.116091
1794	2024-03-15 17:00:00	25	massafra	18.5	1	44.61	1	0.0	1	null	6	null	6	161.12	1	1000.57	1	40.593575	17.116091
1795	2024-03-15 18:00:00	25	massafra	15.88	1	54.12	1	0.0	1	null	6	null	6	24.08	1	1000.87	1	40.593575	17.116091
1796	2024-03-15 19:00:00	25	massafra	14.56	1	57.54	1	0.0	1	null	6	null	6	0.0	1	1001.26	1	40.593575	17.116091
1797	2024-03-15 20:00:00	25	massafra	13.52	1	62.33	1	0.0	1	null	6	null	6	0.0	1	1001.76	1	40.593575	17.116091
1798	2024-03-15 21:00:00	25	massafra	12.83	1	64.36	1	0.0	1	null	6	null	6	0.0	1	1002.0	1	40.593575	17.116091
1799	2024-03-15 22:00:00	25	massafra	12.54	1	64.82	1	0.0	1	null	6	null	6	0.0	1	1002.01	1	40.593575	17.116091
1800	2024-03-15 23:00:00	25	massafra	12.49	1	62.78	1	0.0	1	null	6	null	6	0.0	1	1002.01	1	40.593575	17.116091
1801	2024-03-16 00:00:00	25	massafra	12.25	1	61.48	1	0.0	1	null	6	null	6	0.0	1	1001.93	1	40.593575	17.116091
1802	2024-03-16 01:00:00	25	massafra	12.08	1	63.69	1	0.0	1	null	6	null	6	0.0	1	1002.03	1	40.593575	17.116091
1803	2024-03-16 02:00:00	25	massafra	12.0	1	63.34	1	0.0	1	null	6	null	6	0.0	1	1002.01	1	40.593575	17.116091
1804	2024-03-16 03:00:00	25	massafra	12.07	1	61.63	1	0.0	1	null	6	null	6	0.0	1	1001.7	1	40.593575	17.116091
1805	2024-03-16 04:00:00	25	massafra	12.44	1	57.19	1	0.0	1	null	6	null	6	0.0	1	1001.67	1	40.593575	17.116091
1806	2024-03-16 05:00:00	25	massafra	11.67	1	58.36	1	0.0	1	null	6	null	6	0.0	1	1001.67	1	40.593575	17.116091
1807	2024-03-16 06:00:00	25	massafra	11.58	1	58.99	1	0.0	1	null	6	null	6	0.0	1	1001.85	1	40.593575	17.116091
1808	2024-03-16 07:00:00	25	massafra	11.75	1	57.97	1	0.0	1	null	6	null	6	25.7	1	1002.13	1	40.593575	17.116091
1809	2024-03-16 08:00:00	25	massafra	12.7	1	55.24	1	0.0	1	null	6	null	6	55.41	1	1002.4	1	40.593575	17.116091
1810	2024-03-16 09:00:00	25	massafra	14.7	1	53.46	1	0.0	1	null	6	null	6	266.01	1	1002.55	1	40.593575	17.116091
1811	2024-03-16 10:00:00	25	massafra	17.73	1	44.25	1	0.0	1	null	6	null	6	429.13	1	1002.5	1	40.593575	17.116091
1812	2024-03-16 11:00:00	25	massafra	20.07	1	34.94	1	0.0	1	null	6	null	6	537.57	1	1002.33	1	40.593575	17.116091
1813	2024-03-16 12:00:00	25	massafra	20.45	1	34.91	1	0.0	1	null	6	null	6	569.06	1	1002.19	1	40.593575	17.116091
1814	2024-03-16 13:00:00	25	massafra	21.57	1	31.09	1	0.0	1	null	6	null	6	661.45	1	1001.67	1	40.593575	17.116091
1815	2024-03-16 14:00:00	25	massafra	21.29	1	33.03	1	0.0	1	null	6	null	6	458.81	1	1001.09	1	40.593575	17.116091
1816	2024-03-16 15:00:00	25	massafra	20.39	1	37.13	1	0.0	1	null	6	null	6	333.76	1	1000.78	1	40.593575	17.116091
1817	2024-03-16 16:00:00	25	massafra	20.6	1	34.88	1	0.0	1	null	6	null	6	312.56	1	1000.69	1	40.593575	17.116091
1818	2024-03-16 17:00:00	25	massafra	18.7	1	44.12	1	0.0	1	null	6	null	6	150.23	1	1000.72	1	40.593575	17.116091
1819	2024-03-16 18:00:00	25	massafra	16.01	1	51.08	1	2.8	1	null	6	null	6	0.0	5	1001.5	1	40.593575	17.116091
1820	2024-03-16 19:00:00	25	massafra	12.44	1	71.5	1	11.6	1	null	6	null	6	0.0	1	1002.56	1	40.593575	17.116091
1821	2024-03-16 20:00:00	25	massafra	11.7	1	82.79	1	4.8	1	null	6	null	6	0.0	1	1003.14	1	40.593575	17.116091
1822	2024-03-16 21:00:00	25	massafra	11.77	1	86.0	1	1.4	1	null	6	null	6	0.0	1	1003.12	1	40.593575	17.116091
1823	2024-03-16 22:00:00	25	massafra	11.59	1	86.16	1	0.2	1	null	6	null	6	0.0	1	1003.24	1	40.593575	17.116091
1824	2024-03-16 23:00:00	25	massafra	11.7	1	82.89	1	0.0	1	null	6	null	6	0.0	1	1003.36	1	40.593575	17.116091
1825	2024-03-17 00:00:00	25	massafra	12.13	1	76.73	1	0.0	1	null	6	null	6	0.0	1	1003.39	1	40.593575	17.116091
1826	2024-03-17 01:00:00	25	massafra	12.33	1	75.54	1	0.0	1	null	6	null	6	0.0	1	1003.28	1	40.593575	17.116091
1827	2024-03-17 02:00:00	25	massafra	12.35	1	77.32	1	0.0	1	null	6	null	6	0.0	1	1003.14	1	40.593575	17.116091
1828	2024-03-17 03:00:00	25	massafra	12.61	1	79.59	1	0.0	1	null	6	null	6	0.0	1	1002.74	1	40.593575	17.116091
1829	2024-03-17 04:00:00	25	massafra	12.93	1	79.07	1	0.0	1	null	6	null	6	0.0	1	1002.31	1	40.593575	17.116091
1830	2024-03-17 05:00:00	25	massafra	13.24	1	77.24	1	0.0	1	null	6	null	6	0.0	1	1002.17	1	40.593575	17.116091
1831	2024-03-17 06:00:00	25	massafra	12.96	1	75.81	1	0.0	1	null	6	null	6	0.0	1	1002.52	1	40.593575	17.116091
1832	2024-03-17 07:00:00	25	massafra	12.8	1	75.01	1	0.0	1	null	6	null	6	20.29	1	1002.95	1	40.593575	17.116091
1833	2024-03-17 08:00:00	25	massafra	13.1	1	72.08	1	0.0	1	null	6	null	6	63.63	1	1003.34	1	40.593575	17.116091
1834	2024-03-17 09:00:00	25	massafra	14.91	1	61.76	1	0.0	1	null	6	null	6	328.18	1	1003.78	1	40.593575	17.116091
1835	2024-03-17 10:00:00	25	massafra	17.12	1	50.79	1	0.0	1	null	6	null	6	554.36	1	1003.89	1	40.593575	17.116091
1836	2024-03-17 11:00:00	25	massafra	18.4	1	45.69	1	0.0	1	null	6	null	6	663.2	1	1003.94	1	40.593575	17.116091
1837	2024-03-17 12:00:00	25	massafra	19.29	1	42.47	1	0.0	1	null	6	null	6	726.57	1	1003.95	1	40.593575	17.116091
1838	2024-03-17 13:00:00	25	massafra	20.11	1	39.35	1	0.0	1	null	6	null	6	732.57	1	1003.8	1	40.593575	17.116091
1839	2024-03-17 14:00:00	25	massafra	20.5	1	39.23	1	0.0	1	null	6	null	6	644.5	1	1003.36	1	40.593575	17.116091
1840	2024-03-17 15:00:00	25	massafra	20.21	1	39.6	1	0.0	1	null	6	null	6	528.97	1	1002.87	1	40.593575	17.116091
1841	2024-03-17 16:00:00	25	massafra	20.15	1	40.21	1	0.0	1	null	6	null	6	388.58	1	1002.67	1	40.593575	17.116091
1842	2024-03-17 17:00:00	25	massafra	19.32	1	43.86	1	0.0	1	null	6	null	6	192.24	1	1002.61	1	40.593575	17.116091
1843	2024-03-17 18:00:00	25	massafra	16.86	1	50.07	1	0.0	1	null	6	null	6	16.38	1	1002.86	1	40.593575	17.116091
1844	2024-03-17 19:00:00	25	massafra	15.24	1	53.91	1	0.0	1	null	6	null	6	0.0	1	1003.1	1	40.593575	17.116091
1845	2024-03-17 20:00:00	25	massafra	14.32	1	58.62	1	0.0	1	null	6	null	6	0.0	1	1003.36	1	40.593575	17.116091
1846	2024-03-17 21:00:00	25	massafra	13.7	1	59.86	1	0.0	1	null	6	null	6	0.0	1	1003.44	1	40.593575	17.116091
1847	2024-03-17 22:00:00	25	massafra	13.16	1	59.53	1	0.0	1	null	6	null	6	0.0	1	1003.5	1	40.593575	17.116091
1848	2024-03-17 23:00:00	25	massafra	12.97	1	58.94	1	0.0	1	null	6	null	6	0.0	1	1003.63	1	40.593575	17.116091
1849	2024-03-18 00:00:00	25	massafra	12.33	1	62.76	1	0.0	1	null	6	null	6	0.0	1	1003.46	1	40.593575	17.116091
1850	2024-03-18 01:00:00	25	massafra	12.11	1	62.29	1	0.0	1	null	6	null	6	0.0	1	1003.18	1	40.593575	17.116091
1851	2024-03-18 02:00:00	25	massafra	11.78	1	62.86	1	0.0	1	null	6	null	6	0.0	1	1002.82	1	40.593575	17.116091
1852	2024-03-18 03:00:00	25	massafra	11.07	1	64.81	1	0.0	1	null	6	null	6	0.0	1	1002.5	1	40.593575	17.116091
1853	2024-03-18 04:00:00	25	massafra	10.0	1	70.0	1	0.0	1	null	6	null	6	0.0	1	1002.03	1	40.593575	17.116091
1854	2024-03-18 05:00:00	25	massafra	10.21	1	67.6	1	0.0	1	null	6	null	6	0.0	1	1001.56	1	40.593575	17.116091
1855	2024-03-18 06:00:00	25	massafra	10.27	1	67.2	1	0.0	1	null	6	null	6	0.0	1	1001.3	1	40.593575	17.116091
1856	2024-03-18 07:00:00	25	massafra	10.7	1	66.91	1	0.0	1	null	6	null	6	38.1	1	1001.41	1	40.593575	17.116091
1857	2024-03-18 08:00:00	25	massafra	13.11	1	61.1	1	0.0	1	null	6	null	6	64.53	1	1001.26	1	40.593575	17.116091
1858	2024-03-18 09:00:00	25	massafra	15.88	1	54.24	1	0.0	1	null	6	null	6	318.01	1	1001.18	1	40.593575	17.116091
1859	2024-03-18 10:00:00	25	massafra	18.7	1	44.67	1	0.0	1	null	6	null	6	539.15	1	1000.82	1	40.593575	17.116091
1860	2024-03-18 11:00:00	25	massafra	20.6	1	40.83	1	0.0	1	null	6	null	6	646.07	1	1000.11	1	40.593575	17.116091
1861	2024-03-18 12:00:00	25	massafra	21.47	1	38.38	1	0.0	1	null	6	null	6	712.61	1	999.59	1	40.593575	17.116091
1862	2024-03-18 13:00:00	25	massafra	21.12	1	40.88	1	0.0	1	null	6	null	6	652.14	1	998.78	1	40.593575	17.116091
1863	2024-03-18 14:00:00	25	massafra	21.13	1	39.71	1	0.0	1	null	6	null	6	487.39	1	998.03	1	40.593575	17.116091
1864	2024-03-18 15:00:00	25	massafra	20.46	1	42.03	1	0.0	1	null	6	null	6	330.76	1	997.66	1	40.593575	17.116091
1865	2024-03-18 16:00:00	25	massafra	19.26	1	53.21	1	0.0	1	null	6	null	6	209.49	1	997.49	1	40.593575	17.116091
1866	2024-03-18 17:00:00	25	massafra	17.54	1	59.3	1	0.0	1	null	6	null	6	77.63	1	997.2	1	40.593575	17.116091
1867	2024-03-18 18:00:00	25	massafra	16.44	1	62.83	1	0.0	1	null	6	null	6	9.07	1	996.96	1	40.593575	17.116091
1868	2024-03-18 19:00:00	25	massafra	15.93	1	64.58	1	0.0	1	null	6	null	6	0.0	1	996.72	1	40.593575	17.116091
1869	2024-03-18 20:00:00	25	massafra	15.88	1	61.49	1	0.0	1	null	6	null	6	0.0	1	996.94	1	40.593575	17.116091
1870	2024-03-18 21:00:00	25	massafra	15.65	1	62.68	1	0.0	1	null	6	null	6	0.0	1	997.22	1	40.593575	17.116091
1871	2024-03-18 22:00:00	25	massafra	14.93	1	70.95	1	0.0	1	null	6	null	6	0.0	1	997.01	1	40.593575	17.116091
1872	2024-03-18 23:00:00	25	massafra	14.17	1	77.11	1	0.6	1	null	6	null	6	0.0	1	996.57	1	40.593575	17.116091
1873	2024-03-19 00:00:00	25	massafra	13.46	1	81.68	1	1.8	1	null	6	null	6	0.0	1	996.33	1	40.593575	17.116091
1874	2024-03-19 01:00:00	25	massafra	13.17	1	84.85	1	0.6	1	null	6	null	6	0.0	1	995.94	1	40.593575	17.116091
1875	2024-03-19 02:00:00	25	massafra	12.88	1	86.54	1	0.8	1	null	6	null	6	0.0	1	995.51	1	40.593575	17.116091
1876	2024-03-19 03:00:00	25	massafra	12.81	1	87.96	1	0.2	1	null	6	null	6	0.0	1	994.86	1	40.593575	17.116091
1877	2024-03-19 04:00:00	25	massafra	12.76	1	86.6	1	0.0	1	null	6	null	6	0.0	1	994.43	1	40.593575	17.116091
1878	2024-03-19 05:00:00	25	massafra	12.86	1	84.55	1	0.0	1	null	6	null	6	0.0	1	994.42	1	40.593575	17.116091
1879	2024-03-19 06:00:00	25	massafra	12.8	1	83.57	1	1.0	1	null	6	null	6	0.0	1	994.64	1	40.593575	17.116091
1880	2024-03-19 07:00:00	25	massafra	12.49	1	87.26	1	0.0	1	null	6	null	6	12.38	1	994.97	1	40.593575	17.116091
1881	2024-03-19 08:00:00	25	massafra	12.67	1	87.61	1	0.2	1	null	6	null	6	52.65	1	995.37	1	40.593575	17.116091
1882	2024-03-19 09:00:00	25	massafra	13.05	1	84.46	1	0.0	1	null	6	null	6	87.79	1	996.09	1	40.593575	17.116091
1883	2024-03-19 10:00:00	25	massafra	14.16	1	75.76	1	0.0	1	null	6	null	6	214.12	1	996.4	1	40.593575	17.116091
1884	2024-03-19 11:00:00	25	massafra	15.26	1	64.0	1	0.0	1	null	6	null	6	437.33	1	996.73	1	40.593575	17.116091
1885	2024-03-19 12:00:00	25	massafra	17.38	1	53.46	1	0.0	1	null	6	null	6	729.21	1	996.77	1	40.593575	17.116091
1886	2024-03-19 13:00:00	25	massafra	17.61	1	51.14	1	0.0	1	null	6	null	6	723.9	1	996.79	1	40.593575	17.116091
1887	2024-03-19 14:00:00	25	massafra	17.87	1	47.53	1	0.0	1	null	6	null	6	567.06	1	996.68	1	40.593575	17.116091
1888	2024-03-19 15:00:00	25	massafra	17.52	1	47.23	1	0.0	1	null	6	null	6	445.39	1	996.9	1	40.593575	17.116091
1889	2024-03-19 16:00:00	25	massafra	16.97	1	50.47	1	0.0	1	null	6	null	6	331.74	1	997.03	1	40.593575	17.116091
1890	2024-03-19 17:00:00	25	massafra	17.31	1	48.14	1	0.0	1	null	6	null	6	233.34	1	997.24	1	40.593575	17.116091
1891	2024-03-19 18:00:00	25	massafra	15.54	1	51.91	1	0.0	1	null	6	null	6	19.08	1	997.88	1	40.593575	17.116091
1892	2024-03-19 19:00:00	25	massafra	14.16	1	58.43	1	0.0	1	null	6	null	6	0.0	1	998.42	1	40.593575	17.116091
1893	2024-03-19 20:00:00	25	massafra	13.18	1	67.17	1	0.0	1	null	6	null	6	0.0	1	999.08	1	40.593575	17.116091
1894	2024-03-19 21:00:00	25	massafra	13.05	1	67.0	1	0.0	1	null	6	null	6	0.0	1	999.52	1	40.593575	17.116091
1895	2024-03-19 22:00:00	25	massafra	12.55	1	69.42	1	0.0	1	null	6	null	6	0.0	1	999.98	1	40.593575	17.116091
1896	2024-03-19 23:00:00	25	massafra	11.8	1	68.01	1	0.0	1	null	6	null	6	0.0	1	1000.23	1	40.593575	17.116091
1897	2024-03-20 00:00:00	25	massafra	11.19	1	63.95	1	0.0	1	null	6	null	6	0.0	1	1000.47	1	40.593575	17.116091
1898	2024-03-20 01:00:00	25	massafra	10.97	1	62.74	1	0.0	1	null	6	null	6	0.0	1	1000.64	1	40.593575	17.116091
1899	2024-03-20 02:00:00	25	massafra	11.36	1	60.94	1	0.0	1	null	6	null	6	0.0	1	1000.67	1	40.593575	17.116091
1900	2024-03-20 03:00:00	25	massafra	10.49	1	63.59	1	0.0	1	null	6	null	6	0.0	1	1000.58	1	40.593575	17.116091
1901	2024-03-20 04:00:00	25	massafra	9.65	1	64.66	1	0.0	1	null	6	null	6	0.0	1	1000.78	1	40.593575	17.116091
1902	2024-03-20 05:00:00	25	massafra	9.07	1	65.41	1	0.0	1	null	6	null	6	0.0	1	1001.15	1	40.593575	17.116091
1903	2024-03-20 06:00:00	25	massafra	8.14	1	68.51	1	0.0	1	null	6	null	6	0.0	1	1001.78	1	40.593575	17.116091
1904	2024-03-20 07:00:00	25	massafra	7.88	1	71.72	1	0.0	1	null	6	null	6	16.08	1	1002.57	1	40.593575	17.116091
1905	2024-03-20 08:00:00	25	massafra	9.59	1	68.18	1	0.0	1	null	6	null	6	38.49	1	1003.01	1	40.593575	17.116091
1906	2024-03-20 09:00:00	25	massafra	12.74	1	55.37	1	0.0	1	null	6	null	6	297.35	1	1003.39	1	40.593575	17.116091
1907	2024-03-20 10:00:00	25	massafra	15.76	1	39.63	1	0.0	1	null	6	null	6	590.8	1	1003.47	1	40.593575	17.116091
1908	2024-03-20 11:00:00	25	massafra	16.85	1	34.88	1	0.0	1	null	6	null	6	704.02	1	1003.71	1	40.593575	17.116091
1909	2024-03-20 12:00:00	25	massafra	17.42	1	32.09	1	0.0	1	null	6	null	6	784.76	1	1003.74	1	40.593575	17.116091
1910	2024-03-20 13:00:00	25	massafra	17.67	1	29.46	1	0.0	1	null	6	null	6	780.86	1	1003.66	1	40.593575	17.116091
1911	2024-03-20 14:00:00	25	massafra	17.76	1	29.89	1	0.0	1	null	6	null	6	678.01	1	1003.61	1	40.593575	17.116091
1912	2024-03-20 15:00:00	25	massafra	17.83	1	30.52	1	0.0	1	null	6	null	6	574.78	1	1003.62	1	40.593575	17.116091
1913	2024-03-20 16:00:00	25	massafra	17.68	1	28.51	1	0.0	1	null	6	null	6	428.95	1	1003.65	1	40.593575	17.116091
1914	2024-03-20 17:00:00	25	massafra	17.23	1	29.15	1	0.0	1	null	6	null	6	229.62	1	1003.78	1	40.593575	17.116091
1915	2024-03-20 18:00:00	25	massafra	15.33	1	35.1	1	0.0	1	null	6	null	6	17.63	1	1004.07	1	40.593575	17.116091
1916	2024-03-20 19:00:00	25	massafra	13.17	1	46.22	1	0.0	1	null	6	null	6	0.0	1	1004.47	1	40.593575	17.116091
1917	2024-03-20 20:00:00	25	massafra	12.03	1	53.51	1	0.0	1	null	6	null	6	0.0	1	1004.85	1	40.593575	17.116091
1918	2024-03-20 21:00:00	25	massafra	11.32	1	55.19	1	0.0	1	null	6	null	6	0.0	1	1005.59	1	40.593575	17.116091
1919	2024-03-20 22:00:00	25	massafra	10.73	1	57.73	1	0.0	1	null	6	null	6	0.0	1	1006.03	1	40.593575	17.116091
1920	2024-03-20 23:00:00	25	massafra	9.63	1	61.68	1	0.0	1	null	6	null	6	0.0	1	1006.25	1	40.593575	17.116091
1921	2024-03-21 00:00:00	25	massafra	8.8	1	63.48	1	0.0	1	null	6	null	6	0.0	1	1006.37	1	40.593575	17.116091
1922	2024-03-21 01:00:00	25	massafra	8.38	1	65.26	1	0.0	1	null	6	null	6	0.0	1	1006.41	1	40.593575	17.116091
1923	2024-03-21 02:00:00	25	massafra	9.65	1	63.63	1	0.0	1	null	6	null	6	0.0	1	1006.08	1	40.593575	17.116091
1924	2024-03-21 03:00:00	25	massafra	8.1	1	65.95	1	0.0	1	null	6	null	6	0.0	1	1006.06	1	40.593575	17.116091
1925	2024-03-21 04:00:00	25	massafra	7.18	1	70.12	1	0.0	1	null	6	null	6	0.0	1	1006.14	1	40.593575	17.116091
1926	2024-03-21 05:00:00	25	massafra	6.43	1	70.23	1	0.0	1	null	6	null	6	0.0	1	1006.21	1	40.593575	17.116091
1927	2024-03-21 06:00:00	25	massafra	6.38	1	60.61	1	0.0	1	null	6	null	6	0.0	1	1006.18	1	40.593575	17.116091
1928	2024-03-21 07:00:00	25	massafra	7.28	1	47.83	1	0.0	1	null	6	null	6	14.8	1	1006.42	1	40.593575	17.116091
1929	2024-03-21 08:00:00	25	massafra	9.1	1	44.08	1	0.0	1	null	6	null	6	33.53	1	1006.5	1	40.593575	17.116091
1930	2024-03-21 09:00:00	25	massafra	12.72	1	33.44	1	0.0	1	null	6	null	6	292.62	1	1006.86	1	40.593575	17.116091
1931	2024-03-21 10:00:00	25	massafra	17.86	1	23.84	1	0.0	1	null	6	null	6	590.73	1	1006.68	1	40.593575	17.116091
1932	2024-03-21 11:00:00	25	massafra	18.92	1	26.91	1	0.0	1	null	6	null	6	680.16	1	1006.33	1	40.593575	17.116091
1933	2024-03-21 12:00:00	25	massafra	19.97	1	26.67	1	0.0	1	null	6	null	6	795.99	1	1005.89	1	40.593575	17.116091
1934	2024-03-21 13:00:00	25	massafra	20.94	1	28.76	1	0.0	1	null	6	null	6	776.02	1	1005.17	1	40.593575	17.116091
1935	2024-03-21 14:00:00	25	massafra	21.12	1	29.79	1	0.0	1	null	6	null	6	650.44	1	1004.65	1	40.593575	17.116091
1936	2024-03-21 15:00:00	25	massafra	20.48	1	31.16	1	0.0	1	null	6	null	6	563.72	1	1004.1	1	40.593575	17.116091
1937	2024-03-21 16:00:00	25	massafra	19.82	1	34.5	1	0.0	1	null	6	null	6	407.93	1	1003.55	1	40.593575	17.116091
1938	2024-03-21 17:00:00	25	massafra	18.29	1	41.97	1	0.0	1	null	6	null	6	200.46	1	1003.19	1	40.593575	17.116091
1939	2024-03-21 18:00:00	25	massafra	15.77	1	54.98	1	0.0	1	null	6	null	6	19.6	1	1003.02	1	40.593575	17.116091
1940	2024-03-21 19:00:00	25	massafra	14.49	1	62.27	1	0.0	1	null	6	null	6	0.0	1	1002.86	1	40.593575	17.116091
1941	2024-03-21 20:00:00	25	massafra	13.18	1	61.59	1	0.0	1	null	6	null	6	0.0	1	1002.76	1	40.593575	17.116091
1942	2024-03-21 21:00:00	25	massafra	12.59	1	61.15	1	0.0	1	null	6	null	6	0.0	1	1002.94	1	40.593575	17.116091
1943	2024-03-21 22:00:00	25	massafra	12.1	1	57.02	1	0.0	1	null	6	null	6	0.0	1	1002.95	1	40.593575	17.116091
1944	2024-03-21 23:00:00	25	massafra	12.13	1	51.56	1	0.0	1	null	6	null	6	0.0	1	1002.77	1	40.593575	17.116091
1945	2024-03-22 00:00:00	25	massafra	12.0	1	50.18	1	0.0	1	null	6	null	6	0.0	1	1002.28	1	40.593575	17.116091
1946	2024-03-22 01:00:00	25	massafra	11.42	1	52.68	1	0.0	1	null	6	null	6	0.0	1	1002.0	1	40.593575	17.116091
1947	2024-03-22 02:00:00	25	massafra	11.61	1	59.37	1	0.0	1	null	6	null	6	0.0	1	1001.44	1	40.593575	17.116091
1948	2024-03-22 03:00:00	25	massafra	12.62	1	59.32	1	0.0	1	null	6	null	6	0.0	1	1000.75	1	40.593575	17.116091
1949	2024-03-22 04:00:00	25	massafra	12.96	1	58.29	1	0.0	1	null	6	null	6	0.0	1	1000.31	1	40.593575	17.116091
1950	2024-03-22 05:00:00	25	massafra	12.01	1	62.17	1	0.0	1	null	6	null	6	0.0	1	1000.17	1	40.593575	17.116091
1951	2024-03-22 06:00:00	25	massafra	13.12	1	58.49	1	0.0	1	null	6	null	6	0.0	1	1000.15	1	40.593575	17.116091
1952	2024-03-22 07:00:00	25	massafra	13.61	1	59.02	1	0.0	1	null	6	null	6	19.21	1	1000.2	1	40.593575	17.116091
1953	2024-03-22 08:00:00	25	massafra	14.26	1	60.43	1	0.0	1	null	6	null	6	128.93	1	1000.41	1	40.593575	17.116091
1954	2024-03-22 09:00:00	25	massafra	15.87	1	58.25	1	0.0	1	null	6	null	6	297.74	1	1000.87	1	40.593575	17.116091
1955	2024-03-22 10:00:00	25	massafra	17.04	1	51.47	1	0.0	1	null	6	null	6	425.67	1	1001.23	1	40.593575	17.116091
1956	2024-03-22 11:00:00	25	massafra	18.33	1	43.84	1	0.0	1	null	6	null	6	516.88	1	1001.19	1	40.593575	17.116091
1957	2024-03-22 12:00:00	25	massafra	18.53	1	43.4	1	0.0	1	null	6	null	6	683.52	1	1000.76	1	40.593575	17.116091
1958	2024-03-22 13:00:00	25	massafra	19.59	1	41.66	1	0.0	1	null	6	null	6	717.75	1	1000.33	1	40.593575	17.116091
1959	2024-03-22 14:00:00	25	massafra	19.63	1	40.42	1	0.0	1	null	6	null	6	585.49	1	1000.09	1	40.593575	17.116091
1960	2024-03-22 15:00:00	25	massafra	19.21	1	40.05	1	0.0	1	null	6	null	6	365.24	1	999.75	1	40.593575	17.116091
1961	2024-03-22 16:00:00	25	massafra	18.7	1	41.49	1	0.0	1	null	6	null	6	308.22	1	999.28	1	40.593575	17.116091
1962	2024-03-22 17:00:00	25	massafra	18.73	1	42.26	1	0.0	1	null	6	null	6	222.95	1	999.24	1	40.593575	17.116091
1963	2024-03-22 18:00:00	25	massafra	16.59	1	51.54	1	0.0	1	null	6	null	6	25.99	1	999.62	1	40.593575	17.116091
1964	2024-03-22 19:00:00	25	massafra	14.7	1	59.98	1	0.0	1	null	6	null	6	0.0	5	999.87	1	40.593575	17.116091
1965	2024-03-22 20:00:00	25	massafra	13.57	1	66.84	1	0.0	1	null	6	null	6	0.0	1	1000.02	1	40.593575	17.116091
1966	2024-03-22 21:00:00	25	massafra	12.87	1	71.6	1	0.0	1	null	6	null	6	0.0	1	1000.2	1	40.593575	17.116091
1967	2024-03-22 22:00:00	25	massafra	12.67	1	72.02	1	0.0	1	null	6	null	6	0.0	1	1000.22	1	40.593575	17.116091
1968	2024-03-22 23:00:00	25	massafra	12.35	1	72.32	1	0.0	1	null	6	null	6	0.0	1	1000.37	1	40.593575	17.116091
1969	2024-03-23 00:00:00	25	massafra	12.26	1	73.95	1	0.0	1	null	6	null	6	0.0	1	1000.24	1	40.593575	17.116091
1970	2024-03-23 01:00:00	25	massafra	12.17	1	72.34	1	0.0	1	null	6	null	6	0.0	1	1000.03	1	40.593575	17.116091
1971	2024-03-23 02:00:00	25	massafra	12.1	1	68.52	1	0.0	1	null	6	null	6	0.0	1	999.86	1	40.593575	17.116091
1972	2024-03-23 03:00:00	25	massafra	12.29	1	63.61	1	0.0	1	null	6	null	6	0.0	1	999.64	1	40.593575	17.116091
1973	2024-03-23 04:00:00	25	massafra	12.32	1	61.67	1	0.0	1	null	6	null	6	0.0	1	999.52	1	40.593575	17.116091
1974	2024-03-23 05:00:00	25	massafra	12.24	1	60.51	1	0.0	1	null	6	null	6	0.0	1	999.51	1	40.593575	17.116091
1975	2024-03-23 06:00:00	25	massafra	11.57	1	63.15	1	0.0	1	null	6	null	6	0.0	5	999.58	1	40.593575	17.116091
1976	2024-03-23 07:00:00	25	massafra	11.42	1	63.48	1	0.0	1	null	6	null	6	20.47	1	999.76	1	40.593575	17.116091
1977	2024-03-23 08:00:00	25	massafra	12.75	1	59.28	1	0.0	1	null	6	null	6	48.08	1	1000.06	1	40.593575	17.116091
1978	2024-03-23 09:00:00	25	massafra	15.43	1	50.19	1	0.0	1	null	6	null	6	271.31	1	1000.28	1	40.593575	17.116091
1979	2024-03-23 10:00:00	25	massafra	19.66	1	36.21	1	0.0	1	null	6	null	6	577.06	1	1000.15	1	40.593575	17.116091
1980	2024-03-23 11:00:00	25	massafra	21.14	1	30.41	1	0.0	1	null	6	null	6	683.98	1	999.9	1	40.593575	17.116091
1981	2024-03-23 12:00:00	25	massafra	21.76	1	27.33	1	0.0	1	null	6	null	6	789.57	1	999.48	1	40.593575	17.116091
1982	2024-03-23 13:00:00	25	massafra	21.84	1	28.13	1	0.0	1	null	6	null	6	780.94	1	999.02	1	40.593575	17.116091
1983	2024-03-23 14:00:00	25	massafra	21.51	1	30.63	1	0.0	1	null	6	null	6	678.34	1	998.26	1	40.593575	17.116091
1984	2024-03-23 15:00:00	25	massafra	21.0	1	33.23	1	0.0	1	null	6	null	6	555.1	1	997.71	1	40.593575	17.116091
1985	2024-03-23 16:00:00	25	massafra	20.38	1	38.45	1	0.0	1	null	6	null	6	415.7	1	997.31	1	40.593575	17.116091
1986	2024-03-23 17:00:00	25	massafra	19.17	1	42.74	1	0.0	1	null	6	null	6	222.93	1	997.25	1	40.593575	17.116091
1987	2024-03-23 18:00:00	25	massafra	16.51	1	52.67	1	0.0	1	null	6	null	6	25.97	1	997.31	1	40.593575	17.116091
1988	2024-03-23 19:00:00	25	massafra	15.23	1	58.88	1	0.0	1	null	6	null	6	0.0	1	997.35	1	40.593575	17.116091
1989	2024-03-23 20:00:00	25	massafra	14.43	1	66.4	1	0.0	1	null	6	null	6	0.0	1	997.4	1	40.593575	17.116091
1990	2024-03-23 21:00:00	25	massafra	13.93	1	71.57	1	0.0	1	null	6	null	6	0.0	1	997.22	1	40.593575	17.116091
1991	2024-03-23 22:00:00	25	massafra	13.58	1	74.07	1	0.0	1	null	6	null	6	0.0	1	996.69	1	40.593575	17.116091
1992	2024-03-23 23:00:00	25	massafra	13.15	1	79.07	1	0.0	1	null	6	null	6	0.0	1	996.21	1	40.593575	17.116091
1993	2024-03-24 00:00:00	25	massafra	13.06	1	81.57	1	0.0	1	null	6	null	6	0.0	1	995.91	1	40.593575	17.116091
1994	2024-03-24 01:00:00	25	massafra	12.63	1	81.14	1	0.0	1	null	6	null	6	0.0	1	995.47	1	40.593575	17.116091
1995	2024-03-24 02:00:00	25	massafra	12.21	1	80.56	1	0.0	1	null	6	null	6	0.0	1	995.04	1	40.593575	17.116091
1996	2024-03-24 03:00:00	25	massafra	11.83	1	78.75	1	0.0	1	null	6	null	6	0.0	1	994.64	1	40.593575	17.116091
1997	2024-03-24 04:00:00	25	massafra	11.52	1	78.18	1	0.0	1	null	6	null	6	0.0	1	994.22	1	40.593575	17.116091
1998	2024-03-24 05:00:00	25	massafra	11.49	1	74.18	1	0.0	1	null	6	null	6	0.0	1	994.04	1	40.593575	17.116091
1999	2024-03-24 06:00:00	25	massafra	10.92	1	74.79	1	0.0	1	null	6	null	6	0.0	5	993.76	1	40.593575	17.116091
2000	2024-03-24 07:00:00	25	massafra	11.11	1	75.14	1	0.0	1	null	6	null	6	26.23	1	993.77	1	40.593575	17.116091
2001	2024-03-24 08:00:00	25	massafra	13.75	1	60.5	1	0.0	1	null	6	null	6	73.56	1	993.93	1	40.593575	17.116091
2002	2024-03-24 09:00:00	25	massafra	16.33	1	49.49	1	0.0	1	null	6	null	6	299.08	1	993.62	1	40.593575	17.116091
2003	2024-03-24 10:00:00	25	massafra	19.37	1	43.66	1	0.0	1	null	6	null	6	507.36	1	993.42	1	40.593575	17.116091
2004	2024-03-24 11:00:00	25	massafra	20.74	1	40.09	1	0.0	1	null	6	null	6	560.0	1	993.2	1	40.593575	17.116091
2005	2024-03-24 12:00:00	25	massafra	20.72	1	39.68	1	0.0	1	null	6	null	6	395.16	1	992.93	1	40.593575	17.116091
2006	2024-03-24 13:00:00	25	massafra	20.49	1	40.37	1	0.0	1	null	6	null	6	385.94	1	992.27	1	40.593575	17.116091
2007	2024-03-24 14:00:00	25	massafra	21.95	1	35.5	1	0.0	1	null	6	null	6	481.03	1	990.81	1	40.593575	17.116091
2008	2024-03-24 15:00:00	25	massafra	22.42	1	34.87	1	0.0	1	null	6	null	6	581.68	1	989.61	1	40.593575	17.116091
2009	2024-03-24 16:00:00	25	massafra	22.08	1	36.47	1	0.0	1	null	6	null	6	419.59	1	988.79	1	40.593575	17.116091
2010	2024-03-24 17:00:00	25	massafra	20.77	1	39.57	1	0.0	1	null	6	null	6	244.16	1	988.53	1	40.593575	17.116091
2011	2024-03-24 18:00:00	25	massafra	18.47	1	46.06	1	0.0	1	null	6	null	6	38.22	1	988.28	1	40.593575	17.116091
2012	2024-03-24 19:00:00	25	massafra	16.89	1	49.16	1	0.0	1	null	6	null	6	0.0	1	988.47	1	40.593575	17.116091
2013	2024-03-24 20:00:00	25	massafra	16.2	1	47.88	1	0.0	1	null	6	null	6	0.0	1	989.06	1	40.593575	17.116091
2014	2024-03-24 21:00:00	25	massafra	15.66	1	44.19	1	0.0	1	null	6	null	6	0.0	1	989.27	1	40.593575	17.116091
2015	2024-03-24 22:00:00	25	massafra	15.12	1	42.15	1	0.0	1	null	6	null	6	0.0	1	989.55	1	40.593575	17.116091
2016	2024-03-24 23:00:00	25	massafra	14.7	1	39.67	1	0.0	1	null	6	null	6	0.0	1	989.38	1	40.593575	17.116091
2017	2024-03-25 00:00:00	25	massafra	15.03	1	38.93	1	0.0	1	null	6	null	6	0.0	1	989.37	1	40.593575	17.116091
2018	2024-03-25 01:00:00	25	massafra	14.05	1	45.26	1	0.0	1	null	6	null	6	0.0	1	989.4	1	40.593575	17.116091
2019	2024-03-25 02:00:00	25	massafra	13.08	1	51.53	1	0.0	1	null	6	null	6	0.0	1	989.29	1	40.593575	17.116091
2020	2024-03-25 03:00:00	25	massafra	11.91	1	57.43	1	0.0	1	null	6	null	6	0.0	1	989.2	1	40.593575	17.116091
2021	2024-03-25 04:00:00	25	massafra	11.74	1	55.65	1	0.0	1	null	6	null	6	0.0	1	989.19	1	40.593575	17.116091
2022	2024-03-25 05:00:00	25	massafra	11.34	1	56.99	1	0.0	1	null	6	null	6	0.0	1	989.37	1	40.593575	17.116091
2023	2024-03-25 06:00:00	25	massafra	10.28	1	59.97	1	0.0	1	null	6	null	6	0.0	5	990.04	1	40.593575	17.116091
2024	2024-03-25 07:00:00	25	massafra	10.51	1	54.35	1	0.0	1	null	6	null	6	31.54	1	990.74	1	40.593575	17.116091
2025	2024-03-25 08:00:00	25	massafra	12.13	1	50.03	1	0.0	1	null	6	null	6	48.01	1	991.49	1	40.593575	17.116091
2026	2024-03-25 09:00:00	25	massafra	14.31	1	45.15	1	0.0	1	null	6	null	6	280.48	1	992.33	1	40.593575	17.116091
2027	2024-03-25 10:00:00	25	massafra	17.15	1	34.88	1	0.0	1	null	6	null	6	608.23	1	992.85	1	40.593575	17.116091
2028	2024-03-25 11:00:00	25	massafra	18.25	1	28.52	1	0.0	1	null	6	null	6	720.83	1	992.94	1	40.593575	17.116091
2029	2024-03-25 12:00:00	25	massafra	19.12	1	24.21	1	0.0	1	null	6	null	6	830.46	1	993.17	1	40.593575	17.116091
2030	2024-03-25 13:00:00	25	massafra	19.37	1	20.66	1	0.0	1	null	6	null	6	822.71	1	992.96	1	40.593575	17.116091
2031	2024-03-25 14:00:00	25	massafra	18.77	1	21.5	1	0.0	1	null	6	null	6	491.23	1	992.66	1	40.593575	17.116091
2032	2024-03-25 15:00:00	25	massafra	19.29	1	22.64	1	0.0	1	null	6	null	6	605.37	1	992.31	1	40.593575	17.116091
2033	2024-03-25 16:00:00	25	massafra	18.75	1	22.89	1	0.0	1	null	6	null	6	321.58	1	992.02	1	40.593575	17.116091
2034	2024-03-25 17:00:00	25	massafra	17.32	1	24.7	1	0.0	1	null	6	null	6	115.84	1	992.4	1	40.593575	17.116091
2035	2024-03-25 18:00:00	25	massafra	15.37	1	30.87	1	0.0	1	null	6	null	6	23.81	1	992.58	1	40.593575	17.116091
2036	2024-03-25 19:00:00	25	massafra	13.99	1	35.87	1	0.0	1	null	6	null	6	0.0	1	992.32	1	40.593575	17.116091
2037	2024-03-25 20:00:00	25	massafra	13.7	1	34.14	1	0.0	1	null	6	null	6	0.0	1	993.18	1	40.593575	17.116091
2038	2024-03-25 21:00:00	25	massafra	13.17	1	40.97	1	0.0	1	null	6	null	6	0.0	1	993.09	1	40.593575	17.116091
2039	2024-03-25 22:00:00	25	massafra	13.12	1	34.35	1	0.0	1	null	6	null	6	0.0	1	993.33	1	40.593575	17.116091
2040	2024-03-25 23:00:00	25	massafra	12.77	1	44.06	1	0.0	1	null	6	null	6	0.0	1	993.76	1	40.593575	17.116091
2041	2024-03-26 00:00:00	25	massafra	12.48	1	48.66	1	0.0	1	null	6	null	6	0.0	1	993.21	1	40.593575	17.116091
2042	2024-03-26 01:00:00	25	massafra	12.37	1	48.28	1	0.0	1	null	6	null	6	0.0	1	992.75	1	40.593575	17.116091
2043	2024-03-26 02:00:00	25	massafra	12.86	1	48.5	1	0.0	1	null	6	null	6	0.0	1	992.8	1	40.593575	17.116091
2044	2024-03-26 03:00:00	25	massafra	12.55	1	57.95	1	0.0	1	null	6	null	6	0.0	1	991.76	1	40.593575	17.116091
2045	2024-03-26 04:00:00	25	massafra	12.49	1	56.64	1	0.0	1	null	6	null	6	0.0	1	990.97	1	40.593575	17.116091
2046	2024-03-26 05:00:00	25	massafra	12.84	1	54.79	1	0.0	1	null	6	null	6	0.0	1	990.91	1	40.593575	17.116091
2047	2024-03-26 06:00:00	25	massafra	12.87	1	59.02	1	0.0	1	null	6	null	6	0.0	1	990.37	1	40.593575	17.116091
2048	2024-03-26 07:00:00	25	massafra	12.95	1	63.37	1	0.0	1	null	6	null	6	10.97	1	989.63	1	40.593575	17.116091
2049	2024-03-26 08:00:00	25	massafra	13.47	1	66.92	1	0.0	1	null	6	null	6	27.89	1	989.88	1	40.593575	17.116091
2050	2024-03-26 09:00:00	25	massafra	13.84	1	68.94	1	0.0	1	null	6	null	6	54.4	1	989.99	1	40.593575	17.116091
2051	2024-03-26 10:00:00	25	massafra	13.65	1	76.69	1	0.6	1	null	6	null	6	51.54	1	989.53	1	40.593575	17.116091
2052	2024-03-26 11:00:00	25	massafra	13.6	1	83.35	1	0.2	1	null	6	null	6	111.4	1	988.34	1	40.593575	17.116091
2053	2024-03-26 12:00:00	25	massafra	13.98	1	80.11	1	0.0	1	null	6	null	6	74.99	1	987.19	1	40.593575	17.116091
2054	2024-03-26 13:00:00	25	massafra	14.5	1	79.37	1	0.0	1	null	6	null	6	82.68	1	986.01	1	40.593575	17.116091
2055	2024-03-26 14:00:00	25	massafra	15.64	1	82.45	1	0.0	1	null	6	null	6	53.04	1	984.79	1	40.593575	17.116091
2056	2024-03-26 15:00:00	25	massafra	15.53	1	87.75	1	0.6	1	null	6	null	6	34.39	1	983.75	1	40.593575	17.116091
2057	2024-03-26 16:00:00	25	massafra	15.52	1	91.42	1	0.2	1	null	6	null	6	22.65	1	983.22	1	40.593575	17.116091
2058	2024-03-26 17:00:00	25	massafra	15.59	1	93.0	1	1.2	1	null	6	null	6	12.22	1	982.98	1	40.593575	17.116091
2059	2024-03-26 18:00:00	25	massafra	15.36	1	94.14	1	0.2	1	null	6	null	6	11.63	1	981.87	1	40.593575	17.116091
2060	2024-03-26 19:00:00	25	massafra	15.36	1	95.04	1	0.0	1	null	6	null	6	0.0	1	983.0	1	40.593575	17.116091
2061	2024-03-26 20:00:00	25	massafra	15.25	1	95.4	1	0.0	1	null	6	null	6	0.0	1	983.55	1	40.593575	17.116091
2062	2024-03-26 21:00:00	25	massafra	14.89	1	95.58	1	0.0	1	null	6	null	6	0.0	1	984.26	1	40.593575	17.116091
2063	2024-03-26 22:00:00	25	massafra	14.18	1	95.62	1	0.0	1	null	6	null	6	0.0	1	984.76	1	40.593575	17.116091
2064	2024-03-26 23:00:00	25	massafra	14.0	1	96.52	1	0.0	1	null	6	null	6	0.0	1	985.01	1	40.593575	17.116091
2065	2024-03-27 00:00:00	25	massafra	14.47	1	97.09	1	0.0	1	null	6	null	6	0.0	1	984.8	1	40.593575	17.116091
2066	2024-03-27 01:00:00	25	massafra	14.8	1	97.32	1	0.0	1	null	6	null	6	0.0	1	984.38	1	40.593575	17.116091
2067	2024-03-27 02:00:00	25	massafra	14.79	1	97.25	1	0.0	1	null	6	null	6	0.0	1	984.25	1	40.593575	17.116091
2068	2024-03-27 03:00:00	25	massafra	14.74	1	97.25	1	0.0	1	null	6	null	6	0.0	1	984.18	1	40.593575	17.116091
2069	2024-03-27 04:00:00	25	massafra	14.71	1	97.32	1	0.0	1	null	6	null	6	0.0	1	984.3	1	40.593575	17.116091
2070	2024-03-27 05:00:00	25	massafra	14.23	1	97.21	1	0.0	1	null	6	null	6	0.0	1	984.23	1	40.593575	17.116091
2071	2024-03-27 06:00:00	25	massafra	14.09	1	97.17	1	0.0	1	null	6	null	6	0.0	5	984.43	1	40.593575	17.116091
2072	2024-03-27 07:00:00	25	massafra	14.64	1	97.48	1	0.0	1	null	6	null	6	21.7	1	984.38	1	40.593575	17.116091
2073	2024-03-27 08:00:00	25	massafra	15.13	1	97.51	1	0.0	1	null	6	null	6	65.27	1	984.07	1	40.593575	17.116091
2074	2024-03-27 09:00:00	25	massafra	15.59	1	96.41	1	0.0	1	null	6	null	6	136.79	1	983.86	1	40.593575	17.116091
2075	2024-03-27 10:00:00	25	massafra	16.29	1	92.42	1	0.0	1	null	6	null	6	164.83	1	984.06	1	40.593575	17.116091
2076	2024-03-27 11:00:00	25	massafra	16.68	1	87.66	1	0.0	1	null	6	null	6	140.65	1	984.39	1	40.593575	17.116091
2077	2024-03-27 12:00:00	25	massafra	17.02	1	85.07	1	0.0	1	null	6	null	6	123.06	1	984.27	1	40.593575	17.116091
2078	2024-03-27 13:00:00	25	massafra	17.74	1	81.95	1	0.0	1	null	6	null	6	266.87	1	983.55	1	40.593575	17.116091
2079	2024-03-27 14:00:00	25	massafra	18.84	1	74.87	1	0.0	1	null	6	null	6	400.21	1	982.53	1	40.593575	17.116091
2080	2024-03-27 15:00:00	25	massafra	19.66	1	69.59	1	0.0	1	null	6	null	6	330.33	1	981.61	1	40.593575	17.116091
2081	2024-03-27 16:00:00	25	massafra	18.08	1	75.77	1	0.0	1	null	6	null	6	132.62	1	980.57	1	40.593575	17.116091
2082	2024-03-27 17:00:00	25	massafra	17.43	1	79.53	1	0.0	1	null	6	null	6	83.81	1	979.68	1	40.593575	17.116091
2083	2024-03-27 18:00:00	25	massafra	17.28	1	80.18	1	0.0	1	null	6	null	6	34.95	1	980.13	1	40.593575	17.116091
2084	2024-03-27 19:00:00	25	massafra	16.65	1	84.19	1	0.0	1	null	6	null	6	0.0	1	981.06	1	40.593575	17.116091
2085	2024-03-27 20:00:00	25	massafra	15.1	1	74.32	1	0.0	1	null	6	null	6	0.0	1	982.76	1	40.593575	17.116091
2086	2024-03-27 21:00:00	25	massafra	13.48	1	64.92	1	0.2	1	null	6	null	6	0.0	1	984.29	1	40.593575	17.116091
2087	2024-03-27 22:00:00	25	massafra	13.68	1	62.13	1	0.0	1	null	6	null	6	0.0	1	984.72	1	40.593575	17.116091
2088	2024-03-27 23:00:00	25	massafra	13.28	1	57.43	1	0.0	1	null	6	null	6	0.0	1	985.97	1	40.593575	17.116091
2089	2024-03-28 00:00:00	25	massafra	12.27	1	61.42	1	0.0	1	null	6	null	6	0.0	1	987.28	1	40.593575	17.116091
2090	2024-03-28 01:00:00	25	massafra	10.83	1	67.5	1	0.0	1	null	6	null	6	0.0	1	988.43	1	40.593575	17.116091
2091	2024-03-28 02:00:00	25	massafra	10.37	1	67.32	1	0.0	1	null	6	null	6	0.0	1	989.14	1	40.593575	17.116091
2092	2024-03-28 03:00:00	25	massafra	9.68	1	66.18	1	0.0	1	null	6	null	6	0.0	1	989.87	1	40.593575	17.116091
2093	2024-03-28 04:00:00	25	massafra	9.71	1	65.15	1	0.0	1	null	6	null	6	0.0	1	990.97	1	40.593575	17.116091
2094	2024-03-28 05:00:00	25	massafra	9.85	1	63.09	1	0.0	1	null	6	null	6	0.0	1	991.76	1	40.593575	17.116091
2095	2024-03-28 06:00:00	25	massafra	9.89	1	64.65	1	0.0	1	null	6	null	6	0.0	5	992.53	1	40.593575	17.116091
2096	2024-03-28 07:00:00	25	massafra	10.84	1	65.39	1	0.0	1	null	6	null	6	49.55	1	993.58	1	40.593575	17.116091
2097	2024-03-28 08:00:00	25	massafra	13.59	1	59.88	1	0.0	1	null	6	null	6	51.87	1	994.4	1	40.593575	17.116091
2098	2024-03-28 09:00:00	25	massafra	16.19	1	52.61	1	0.0	1	null	6	null	6	325.76	1	994.8	1	40.593575	17.116091
2099	2024-03-28 10:00:00	25	massafra	19.21	1	42.29	1	0.0	1	null	6	null	6	606.95	1	995.63	1	40.593575	17.116091
2100	2024-03-28 11:00:00	25	massafra	20.38	1	35.32	1	0.0	1	null	6	null	6	726.53	1	995.81	1	40.593575	17.116091
2101	2024-03-28 12:00:00	25	massafra	20.84	1	34.12	1	0.0	1	null	6	null	6	695.43	1	996.04	1	40.593575	17.116091
2102	2024-03-28 13:00:00	25	massafra	22.13	1	33.28	1	0.0	1	null	6	null	6	802.12	1	996.23	1	40.593575	17.116091
2103	2024-03-28 14:00:00	25	massafra	22.87	1	31.1	1	0.0	1	null	6	null	6	714.35	1	996.32	1	40.593575	17.116091
2104	2024-03-28 15:00:00	25	massafra	22.75	1	32.0	1	0.0	1	null	6	null	6	591.05	1	996.33	1	40.593575	17.116091
2105	2024-03-28 16:00:00	25	massafra	21.72	1	34.69	1	0.0	1	null	6	null	6	273.82	1	996.52	1	40.593575	17.116091
2106	2024-03-28 17:00:00	25	massafra	20.09	1	38.59	1	0.0	1	null	6	null	6	116.39	1	996.87	1	40.593575	17.116091
2107	2024-03-28 18:00:00	25	massafra	18.66	1	42.89	1	0.0	1	null	6	null	6	28.5	1	997.27	1	40.593575	17.116091
2108	2024-03-28 19:00:00	25	massafra	17.88	1	46.47	1	0.0	1	null	6	null	6	0.0	5	997.63	1	40.593575	17.116091
2109	2024-03-28 20:00:00	25	massafra	17.12	1	48.79	1	0.0	1	null	6	null	6	0.0	1	998.21	1	40.593575	17.116091
2110	2024-03-28 21:00:00	25	massafra	16.17	1	50.88	1	0.0	1	null	6	null	6	0.0	1	998.6	1	40.593575	17.116091
2111	2024-03-28 22:00:00	25	massafra	15.19	1	53.55	1	0.0	1	null	6	null	6	0.0	1	998.82	1	40.593575	17.116091
2112	2024-03-28 23:00:00	25	massafra	14.93	1	53.04	1	0.0	1	null	6	null	6	0.0	1	999.06	1	40.593575	17.116091
2113	2024-03-29 00:00:00	25	massafra	14.52	1	55.58	1	0.0	1	null	6	null	6	0.0	1	999.22	1	40.593575	17.116091
2114	2024-03-29 01:00:00	25	massafra	14.59	1	55.5	1	0.0	1	null	6	null	6	0.0	1	999.52	1	40.593575	17.116091
2115	2024-03-29 02:00:00	25	massafra	14.8	1	61.26	1	0.0	1	null	6	null	6	0.0	1	999.75	1	40.593575	17.116091
2116	2024-03-29 03:00:00	25	massafra	13.72	1	72.14	1	0.0	1	null	6	null	6	0.0	1	999.66	1	40.593575	17.116091
2117	2024-03-29 04:00:00	25	massafra	13.51	1	73.57	1	0.0	1	null	6	null	6	0.0	1	999.67	1	40.593575	17.116091
2118	2024-03-29 05:00:00	25	massafra	13.85	1	68.69	1	0.0	1	null	6	null	6	0.0	1	999.92	1	40.593575	17.116091
2119	2024-03-29 06:00:00	25	massafra	13.76	1	69.16	1	0.0	1	null	6	null	6	0.0	5	1000.68	1	40.593575	17.116091
2120	2024-03-29 07:00:00	25	massafra	14.15	1	69.58	1	0.0	1	null	6	null	6	51.67	1	1001.15	1	40.593575	17.116091
2121	2024-03-29 08:00:00	25	massafra	16.82	1	58.13	1	0.0	1	null	6	null	6	129.92	1	1001.45	1	40.593575	17.116091
2122	2024-03-29 09:00:00	25	massafra	19.42	1	46.85	1	0.0	1	null	6	null	6	314.93	1	1001.62	1	40.593575	17.116091
2123	2024-03-29 10:00:00	25	massafra	21.92	1	40.2	1	0.0	1	null	6	null	6	483.01	1	1001.54	1	40.593575	17.116091
2124	2024-03-29 11:00:00	25	massafra	22.35	1	38.71	1	0.0	1	null	6	null	6	488.03	1	1001.24	1	40.593575	17.116091
2125	2024-03-29 12:00:00	25	massafra	23.05	1	38.66	1	0.0	1	null	6	null	6	604.8	1	1000.77	1	40.593575	17.116091
2126	2024-03-29 13:00:00	25	massafra	24.3	1	37.99	1	0.0	1	null	6	null	6	798.93	1	1000.29	1	40.593575	17.116091
2127	2024-03-29 14:00:00	25	massafra	24.0	1	37.78	1	0.0	1	null	6	null	6	704.18	1	999.92	1	40.593575	17.116091
2128	2024-03-29 15:00:00	25	massafra	23.55	1	37.61	1	0.0	1	null	6	null	6	591.51	1	999.76	1	40.593575	17.116091
2129	2024-03-29 16:00:00	25	massafra	23.01	1	41.66	1	0.0	1	null	6	null	6	441.13	1	999.35	1	40.593575	17.116091
2130	2024-03-29 17:00:00	25	massafra	21.77	1	46.19	1	0.0	1	null	6	null	6	246.44	1	999.06	1	40.593575	17.116091
2131	2024-03-29 18:00:00	25	massafra	19.08	1	51.34	1	0.0	1	null	6	null	6	35.8	1	999.3	1	40.593575	17.116091
2132	2024-03-29 19:00:00	25	massafra	17.4	1	54.07	1	0.0	1	null	6	null	6	0.0	5	999.48	1	40.593575	17.116091
2133	2024-03-29 20:00:00	25	massafra	16.04	1	60.69	1	0.0	1	null	6	null	6	0.0	1	999.75	1	40.593575	17.116091
2134	2024-03-29 21:00:00	25	massafra	15.16	1	65.15	1	0.0	1	null	6	null	6	0.0	1	999.32	1	40.593575	17.116091
2135	2024-03-29 22:00:00	25	massafra	14.73	1	60.05	1	0.0	1	null	6	null	6	0.0	1	999.06	1	40.593575	17.116091
2136	2024-03-29 23:00:00	25	massafra	14.32	1	59.91	1	0.0	1	null	6	null	6	0.0	1	998.9	1	40.593575	17.116091
2137	2024-03-30 00:00:00	25	massafra	14.28	1	63.13	1	0.0	1	null	6	null	6	0.0	1	998.61	1	40.593575	17.116091
2138	2024-03-30 01:00:00	25	massafra	14.16	1	76.11	1	0.0	1	null	6	null	6	0.0	1	998.58	1	40.593575	17.116091
2139	2024-03-30 02:00:00	25	massafra	14.43	1	83.31	1	0.0	1	null	6	null	6	0.0	1	998.4	1	40.593575	17.116091
2140	2024-03-30 03:00:00	25	massafra	14.73	1	84.51	1	0.0	1	null	6	null	6	0.0	1	997.76	1	40.593575	17.116091
2141	2024-03-30 04:00:00	25	massafra	15.02	1	83.72	1	0.0	1	null	6	null	6	0.0	1	997.54	1	40.593575	17.116091
2142	2024-03-30 05:00:00	25	massafra	15.11	1	82.87	1	0.0	1	null	6	null	6	0.0	1	997.77	1	40.593575	17.116091
2143	2024-03-30 06:00:00	25	massafra	15.19	1	80.82	1	0.0	1	null	6	null	6	0.0	5	997.65	1	40.593575	17.116091
2144	2024-03-30 07:00:00	25	massafra	15.44	1	80.16	1	0.0	1	null	6	null	6	51.61	1	997.58	1	40.593575	17.116091
2145	2024-03-30 08:00:00	25	massafra	15.98	1	76.3	1	0.0	1	null	6	null	6	117.49	1	997.65	1	40.593575	17.116091
2146	2024-03-30 09:00:00	25	massafra	17.81	1	60.48	1	0.0	1	null	6	null	6	372.5	1	997.8	1	40.593575	17.116091
2147	2024-03-30 10:00:00	25	massafra	19.69	1	47.61	1	0.0	1	null	6	null	6	611.26	1	997.92	1	40.593575	17.116091
2148	2024-03-30 11:00:00	25	massafra	20.91	1	42.35	1	0.0	1	null	6	null	6	709.54	1	997.74	1	40.593575	17.116091
2149	2024-03-30 12:00:00	25	massafra	21.79	1	36.71	1	0.0	1	null	6	null	6	756.16	1	997.57	1	40.593575	17.116091
2150	2024-03-30 13:00:00	25	massafra	21.82	1	35.34	1	0.0	1	null	6	null	6	727.22	1	997.34	1	40.593575	17.116091
2151	2024-03-30 14:00:00	25	massafra	21.69	1	31.05	1	0.0	1	null	6	null	6	641.85	1	996.99	1	40.593575	17.116091
2152	2024-03-30 15:00:00	25	massafra	21.26	1	29.93	1	0.0	1	null	6	null	6	497.14	1	996.86	1	40.593575	17.116091
2153	2024-03-30 16:00:00	25	massafra	20.68	1	31.44	1	0.0	1	null	6	null	6	325.82	1	996.46	1	40.593575	17.116091
2154	2024-03-30 17:00:00	25	massafra	19.24	1	39.1	1	0.0	1	null	6	null	6	166.09	1	996.1	1	40.593575	17.116091
2155	2024-03-30 18:00:00	25	massafra	18.25	1	42.48	1	0.0	1	null	6	null	6	52.49	1	996.22	1	40.593575	17.116091
2156	2024-03-30 19:00:00	25	massafra	17.19	1	47.27	1	0.0	1	null	6	null	6	0.0	5	996.12	1	40.593575	17.116091
2157	2024-03-30 20:00:00	25	massafra	16.7	1	49.81	1	0.0	1	null	6	null	6	0.0	1	996.39	1	40.593575	17.116091
2158	2024-03-30 21:00:00	25	massafra	16.54	1	54.18	1	0.0	1	null	6	null	6	0.0	1	997.08	1	40.593575	17.116091
2159	2024-03-30 22:00:00	25	massafra	16.09	1	61.86	1	0.0	1	null	6	null	6	0.0	1	997.21	1	40.593575	17.116091
2160	2024-03-30 23:00:00	25	massafra	15.69	1	66.75	1	0.0	1	null	6	null	6	0.0	1	997.31	1	40.593575	17.116091
2161	2024-03-31 00:00:00	25	massafra	15.43	1	70.07	1	0.0	1	null	6	null	6	0.0	1	997.47	1	40.593575	17.116091
2162	2024-03-31 01:00:00	25	massafra	15.34	1	72.11	1	0.0	1	null	6	null	6	0.0	1	997.15	1	40.593575	17.116091
2163	2024-03-31 03:00:00	25	massafra	15.39	1	73.3	1	0.0	1	null	6	null	6	0.0	1	996.66	1	40.593575	17.116091
2164	2024-03-31 03:00:00	25	massafra	15.6	1	73.98	1	0.0	1	null	6	null	6	0.0	1	996.56	1	40.593575	17.116091
2165	2024-03-31 04:00:00	25	massafra	15.62	1	76.03	1	0.0	1	null	6	null	6	0.0	1	996.71	1	40.593575	17.116091
2166	2024-03-31 05:00:00	25	massafra	15.92	1	75.89	1	0.0	1	null	6	null	6	0.0	1	996.6	1	40.593575	17.116091
2167	2024-03-31 06:00:00	25	massafra	16.03	1	75.44	1	0.0	1	null	6	null	6	0.0	5	996.37	1	40.593575	17.116091
2168	2024-03-31 07:00:00	25	massafra	16.22	1	74.68	1	0.0	1	null	6	null	6	13.55	1	996.56	1	40.593575	17.116091
2169	2024-03-31 08:00:00	25	massafra	16.52	1	73.74	1	0.0	1	null	6	null	6	40.1	1	997.12	1	40.593575	17.116091
2170	2024-03-31 09:00:00	25	massafra	17.06	1	70.72	1	0.0	1	null	6	null	6	91.31	1	997.65	1	40.593575	17.116091
2171	2024-03-31 10:00:00	25	massafra	17.66	1	66.07	1	0.0	1	null	6	null	6	118.67	1	998.09	1	40.593575	17.116091
2172	2024-03-31 11:00:00	25	massafra	18.07	1	64.08	1	0.0	1	null	6	null	6	175.4	1	998.16	1	40.593575	17.116091
2173	2024-03-31 12:00:00	25	massafra	18.62	1	62.66	1	0.0	1	null	6	null	6	240.41	1	998.22	1	40.593575	17.116091
2174	2024-03-31 13:00:00	25	massafra	18.74	1	62.67	1	0.0	1	null	6	null	6	253.72	1	998.16	1	40.593575	17.116091
2175	2024-03-31 14:00:00	25	massafra	19.77	1	60.08	1	0.0	1	null	6	null	6	375.99	1	997.58	1	40.593575	17.116091
2176	2024-03-31 15:00:00	25	massafra	19.21	1	63.61	1	0.0	1	null	6	null	6	233.95	1	997.0	1	40.593575	17.116091
2177	2024-03-31 16:00:00	25	massafra	19.07	1	64.77	1	0.0	1	null	6	null	6	171.91	1	996.9	1	40.593575	17.116091
2178	2024-03-31 17:00:00	25	massafra	18.38	1	67.93	1	0.0	1	null	6	null	6	59.39	1	997.09	1	40.593575	17.116091
2179	2024-03-31 18:00:00	25	massafra	17.9	1	70.64	1	0.0	1	null	6	null	6	22.17	1	997.18	1	40.593575	17.116091
2180	2024-03-31 19:00:00	25	massafra	17.39	1	73.78	1	0.0	1	null	6	null	6	0.0	5	997.56	1	40.593575	17.116091
2181	2024-03-31 20:00:00	25	massafra	17.11	1	75.8	1	0.0	1	null	6	null	6	0.0	1	998.22	1	40.593575	17.116091
2182	2024-03-31 21:00:00	25	massafra	16.86	1	77.78	1	0.0	1	null	6	null	6	0.0	1	998.71	1	40.593575	17.116091
2183	2024-03-31 22:00:00	25	massafra	16.88	1	78.57	1	0.0	1	null	6	null	6	0.0	1	998.82	1	40.593575	17.116091
2184	2024-03-31 23:00:00	25	massafra	16.72	1	80.71	1	0.0	1	null	6	null	6	0.0	1	998.65	1	40.593575	17.116091
2185	2024-04-01 00:00:00	25	massafra	16.61	1	82.07	1	0.0	1	null	6	null	6	0.0	1	998.33	1	40.593575	17.116091
2186	2024-04-01 01:00:00	25	massafra	16.53	1	83.12	1	0.0	1	null	6	null	6	0.0	1	998.14	1	40.593575	17.116091
2187	2024-04-01 02:00:00	25	massafra	16.41	1	84.05	1	0.0	1	null	6	null	6	0.0	1	997.73	1	40.593575	17.116091
2188	2024-04-01 03:00:00	25	massafra	16.28	1	85.15	1	0.0	1	null	6	null	6	0.0	1	997.25	1	40.593575	17.116091
2189	2024-04-01 04:00:00	25	massafra	16.13	1	86.35	1	0.0	1	null	6	null	6	0.0	1	996.78	1	40.593575	17.116091
2190	2024-04-01 05:00:00	25	massafra	16.05	1	87.7	1	0.0	1	null	6	null	6	0.0	1	996.74	1	40.593575	17.116091
2191	2024-04-01 06:00:00	25	massafra	16.07	1	88.53	1	0.0	1	null	6	null	6	0.0	5	996.95	1	40.593575	17.116091
2192	2024-04-01 07:00:00	25	massafra	16.11	1	88.91	1	0.0	1	null	6	null	6	9.78	1	997.26	1	40.593575	17.116091
2193	2024-04-01 08:00:00	25	massafra	16.34	1	86.45	1	0.0	1	null	6	null	6	45.01	1	997.37	1	40.593575	17.116091
2194	2024-04-01 09:00:00	25	massafra	16.9	1	81.76	1	0.0	1	null	6	null	6	99.17	1	997.29	1	40.593575	17.116091
2195	2024-04-01 10:00:00	25	massafra	17.3	1	78.59	1	0.0	1	null	6	null	6	121.17	1	997.32	1	40.593575	17.116091
2196	2024-04-01 11:00:00	25	massafra	17.79	1	76.7	1	0.0	1	null	6	null	6	198.91	1	997.17	1	40.593575	17.116091
2197	2024-04-01 12:00:00	25	massafra	18.96	1	70.41	1	0.0	1	null	6	null	6	339.75	1	996.84	1	40.593575	17.116091
2198	2024-04-01 13:00:00	25	massafra	21.12	1	59.04	1	0.0	1	null	6	null	6	742.34	1	996.15	1	40.593575	17.116091
2199	2024-04-01 14:00:00	25	massafra	22.02	1	54.7	1	0.0	1	null	6	null	6	623.25	1	995.51	1	40.593575	17.116091
2200	2024-04-01 15:00:00	25	massafra	22.33	1	53.94	1	0.0	1	null	6	null	6	545.48	1	994.75	1	40.593575	17.116091
2201	2024-04-01 16:00:00	25	massafra	21.35	1	57.61	1	0.0	1	null	6	null	6	324.31	1	994.04	1	40.593575	17.116091
2202	2024-04-01 17:00:00	25	massafra	20.11	1	62.18	1	0.0	1	null	6	null	6	173.45	1	993.41	1	40.593575	17.116091
2203	2024-04-01 18:00:00	25	massafra	19.11	1	65.42	1	0.0	1	null	6	null	6	60.12	1	992.83	1	40.593575	17.116091
2204	2024-04-01 19:00:00	25	massafra	17.84	1	70.54	1	0.0	1	null	6	null	6	0.0	5	992.01	1	40.593575	17.116091
2205	2024-04-01 20:00:00	25	massafra	17.24	1	75.57	1	0.0	1	null	6	null	6	0.0	1	992.39	1	40.593575	17.116091
2206	2024-04-01 21:00:00	25	massafra	17.1	1	76.02	1	0.0	1	null	6	null	6	0.0	1	993.9	1	40.593575	17.116091
2207	2024-04-01 22:00:00	25	massafra	16.45	1	79.42	1	0.0	1	null	6	null	6	0.0	1	995.01	1	40.593575	17.116091
2208	2024-04-01 23:00:00	25	massafra	15.8	1	78.67	1	0.0	1	null	6	null	6	0.0	1	996.12	1	40.593575	17.116091
2209	2024-04-02 00:00:00	25	massafra	15.85	1	56.55	1	0.0	1	null	6	null	6	0.0	1	996.82	1	40.593575	17.116091
2210	2024-04-02 01:00:00	25	massafra	16.06	1	51.93	1	0.0	1	null	6	null	6	0.0	1	996.64	1	40.593575	17.116091
2211	2024-04-02 02:00:00	25	massafra	15.91	1	52.94	1	0.0	1	null	6	null	6	0.0	1	997.36	1	40.593575	17.116091
2212	2024-04-02 03:00:00	25	massafra	15.04	1	56.15	1	0.0	1	null	6	null	6	0.0	1	997.71	1	40.593575	17.116091
2213	2024-04-02 04:00:00	25	massafra	14.23	1	58.21	1	0.0	1	null	6	null	6	0.0	1	998.4	1	40.593575	17.116091
2214	2024-04-02 05:00:00	25	massafra	14.08	1	51.67	1	0.0	1	null	6	null	6	0.0	1	999.06	1	40.593575	17.116091
2215	2024-04-02 06:00:00	25	massafra	14.03	1	47.45	1	0.0	1	null	6	null	6	0.0	5	999.54	1	40.593575	17.116091
2216	2024-04-02 07:00:00	25	massafra	13.95	1	47.24	1	0.0	1	null	6	null	6	48.55	1	1000.05	1	40.593575	17.116091
2217	2024-04-02 08:00:00	25	massafra	15.03	1	46.88	1	0.0	1	null	6	null	6	127.38	1	1000.05	1	40.593575	17.116091
2218	2024-04-02 09:00:00	25	massafra	17.24	1	44.91	1	0.0	1	null	6	null	6	287.18	1	1000.38	1	40.593575	17.116091
2219	2024-04-02 10:00:00	25	massafra	19.82	1	36.14	1	0.0	1	null	6	null	6	635.01	1	1000.57	1	40.593575	17.116091
2220	2024-04-02 11:00:00	25	massafra	21.83	1	29.83	1	0.0	1	null	6	null	6	768.53	1	1000.24	1	40.593575	17.116091
2221	2024-04-02 12:00:00	25	massafra	22.71	1	25.97	1	0.0	1	null	6	null	6	855.15	1	999.95	1	40.593575	17.116091
2222	2024-04-02 13:00:00	25	massafra	23.18	1	23.11	1	0.0	1	null	6	null	6	851.46	1	999.49	1	40.593575	17.116091
2223	2024-04-02 14:00:00	25	massafra	23.87	1	22.54	1	0.0	1	null	6	null	6	701.79	1	999.08	1	40.593575	17.116091
2224	2024-04-02 15:00:00	25	massafra	24.4	1	26.5	1	0.0	1	null	6	null	6	635.55	1	999.06	1	40.593575	17.116091
2225	2024-04-02 16:00:00	25	massafra	23.65	1	26.48	1	0.0	1	null	6	null	6	411.03	1	999.05	1	40.593575	17.116091
2226	2024-04-02 17:00:00	25	massafra	23.47	1	26.5	1	0.0	1	null	6	null	6	284.5	1	999.11	1	40.593575	17.116091
2227	2024-04-02 18:00:00	25	massafra	20.95	1	29.42	1	0.0	1	null	6	null	6	68.73	1	999.53	1	40.593575	17.116091
2228	2024-04-02 19:00:00	25	massafra	19.06	1	35.31	1	0.0	1	null	6	null	6	0.0	5	1000.07	1	40.593575	17.116091
2229	2024-04-02 20:00:00	25	massafra	17.72	1	39.18	1	0.0	1	null	6	null	6	0.0	1	1000.85	1	40.593575	17.116091
2230	2024-04-02 21:00:00	25	massafra	16.29	1	42.79	1	0.0	1	null	6	null	6	0.0	1	1001.46	1	40.593575	17.116091
2231	2024-04-02 22:00:00	25	massafra	15.36	1	44.07	1	0.0	1	null	6	null	6	0.0	1	1001.88	1	40.593575	17.116091
2232	2024-04-02 23:00:00	25	massafra	14.45	1	47.49	1	0.0	1	null	6	null	6	0.0	1	1002.25	1	40.593575	17.116091
2233	2024-04-03 00:00:00	25	massafra	13.3	1	51.44	1	0.0	1	null	6	null	6	0.0	1	1002.33	1	40.593575	17.116091
2234	2024-04-03 01:00:00	25	massafra	12.63	1	53.82	1	0.0	1	null	6	null	6	0.0	1	1002.34	1	40.593575	17.116091
2235	2024-04-03 02:00:00	25	massafra	12.19	1	55.24	1	0.0	1	null	6	null	6	0.0	1	1001.96	1	40.593575	17.116091
2236	2024-04-03 03:00:00	25	massafra	11.87	1	56.1	1	0.0	1	null	6	null	6	0.0	1	1001.61	1	40.593575	17.116091
2237	2024-04-03 04:00:00	25	massafra	11.81	1	55.63	1	0.0	1	null	6	null	6	0.0	1	1001.36	1	40.593575	17.116091
2238	2024-04-03 05:00:00	25	massafra	11.4	1	55.68	1	0.0	1	null	6	null	6	0.0	1	1001.18	1	40.593575	17.116091
2239	2024-04-03 06:00:00	25	massafra	10.87	1	58.32	1	0.0	1	null	6	null	6	0.0	5	1001.16	1	40.593575	17.116091
2240	2024-04-03 07:00:00	25	massafra	12.19	1	55.19	1	0.0	1	null	6	null	6	37.94	1	1001.34	1	40.593575	17.116091
2241	2024-04-03 08:00:00	25	massafra	15.21	1	46.83	1	0.0	1	null	6	null	6	51.3	1	1001.38	1	40.593575	17.116091
2242	2024-04-03 09:00:00	25	massafra	18.03	1	40.25	1	0.0	1	null	6	null	6	395.92	1	1001.65	1	40.593575	17.116091
2243	2024-04-03 10:00:00	25	massafra	21.57	1	31.51	1	0.0	1	null	6	null	6	640.48	1	1001.67	1	40.593575	17.116091
2244	2024-04-03 11:00:00	25	massafra	22.36	1	30.36	1	0.0	1	null	6	null	6	753.72	1	1001.71	1	40.593575	17.116091
2245	2024-04-03 12:00:00	25	massafra	22.08	1	29.68	1	0.0	1	null	6	null	6	817.47	1	1001.85	1	40.593575	17.116091
2246	2024-04-03 13:00:00	25	massafra	22.65	1	28.36	1	0.0	1	null	6	null	6	845.59	1	1001.44	1	40.593575	17.116091
2247	2024-04-03 14:00:00	25	massafra	22.55	1	27.32	1	0.0	1	null	6	null	6	710.41	1	1000.95	1	40.593575	17.116091
2248	2024-04-03 15:00:00	25	massafra	21.68	1	26.94	1	0.0	1	null	6	null	6	329.25	1	1000.57	1	40.593575	17.116091
2249	2024-04-03 16:00:00	25	massafra	20.59	1	28.76	1	0.0	1	null	6	null	6	181.52	1	1000.29	1	40.593575	17.116091
2250	2024-04-03 17:00:00	25	massafra	19.24	1	34.43	1	0.0	1	null	6	null	6	85.81	1	1000.02	1	40.593575	17.116091
2251	2024-04-03 18:00:00	25	massafra	18.02	1	39.55	1	0.0	1	null	6	null	6	60.69	1	1000.18	1	40.593575	17.116091
2252	2024-04-03 19:00:00	25	massafra	16.83	1	44.01	1	0.0	1	null	6	null	6	0.0	5	1000.47	1	40.593575	17.116091
2253	2024-04-03 20:00:00	25	massafra	15.9	1	46.48	1	0.0	1	null	6	null	6	0.0	1	1000.98	1	40.593575	17.116091
2254	2024-04-03 21:00:00	25	massafra	14.73	1	50.59	1	0.0	1	null	6	null	6	0.0	1	1001.29	1	40.593575	17.116091
2255	2024-04-03 22:00:00	25	massafra	13.86	1	52.76	1	0.0	1	null	6	null	6	0.0	1	1001.43	1	40.593575	17.116091
2256	2024-04-03 23:00:00	25	massafra	13.51	1	50.25	1	0.0	1	null	6	null	6	0.0	1	1001.67	1	40.593575	17.116091
2257	2024-04-04 00:00:00	25	massafra	13.57	1	49.89	1	0.0	1	null	6	null	6	0.0	1	1001.8	1	40.593575	17.116091
2258	2024-04-04 01:00:00	25	massafra	13.67	1	50.85	1	0.0	1	null	6	null	6	0.0	1	1001.82	1	40.593575	17.116091
2259	2024-04-04 02:00:00	25	massafra	13.27	1	50.19	1	0.0	1	null	6	null	6	0.0	1	1001.59	1	40.593575	17.116091
2260	2024-04-04 03:00:00	25	massafra	12.69	1	51.58	1	0.0	1	null	6	null	6	0.0	1	1001.58	1	40.593575	17.116091
2261	2024-04-04 04:00:00	25	massafra	12.24	1	52.72	1	0.0	1	null	6	null	6	0.0	1	1001.73	1	40.593575	17.116091
2262	2024-04-04 05:00:00	25	massafra	12.17	1	50.19	1	0.0	1	null	6	null	6	0.0	1	1001.63	1	40.593575	17.116091
2263	2024-04-04 06:00:00	25	massafra	11.89	1	50.25	1	0.0	1	null	6	null	6	0.0	5	1001.75	1	40.593575	17.116091
2264	2024-04-04 07:00:00	25	massafra	12.83	1	49.76	1	0.0	1	null	6	null	6	40.6	1	1002.2	1	40.593575	17.116091
2265	2024-04-04 08:00:00	25	massafra	14.42	1	47.64	1	0.0	1	null	6	null	6	44.45	1	1002.57	1	40.593575	17.116091
2266	2024-04-04 09:00:00	25	massafra	18.47	1	38.66	1	0.0	1	null	6	null	6	403.34	1	1003.13	1	40.593575	17.116091
2267	2024-04-04 10:00:00	25	massafra	21.71	1	29.97	1	0.0	1	null	6	null	6	639.77	1	1003.21	1	40.593575	17.116091
2268	2024-04-04 11:00:00	25	massafra	22.43	1	27.38	1	0.0	1	null	6	null	6	772.58	1	1003.25	1	40.593575	17.116091
2269	2024-04-04 12:00:00	25	massafra	23.33	1	24.44	1	0.0	1	null	6	null	6	777.71	1	1003.29	1	40.593575	17.116091
2270	2024-04-04 13:00:00	25	massafra	24.19	1	24.31	1	0.0	1	null	6	null	6	857.57	1	1003.14	1	40.593575	17.116091
2271	2024-04-04 14:00:00	25	massafra	24.23	1	24.13	1	0.0	1	null	6	null	6	758.9	1	1002.7	1	40.593575	17.116091
2272	2024-04-04 15:00:00	25	massafra	24.8	1	23.01	1	0.0	1	null	6	null	6	614.87	1	1002.38	1	40.593575	17.116091
2273	2024-04-04 16:00:00	25	massafra	24.92	1	23.85	1	0.0	1	null	6	null	6	461.22	1	1002.17	1	40.593575	17.116091
2274	2024-04-04 17:00:00	25	massafra	24.14	1	26.91	1	0.0	1	null	6	null	6	287.98	1	1002.64	1	40.593575	17.116091
2275	2024-04-04 18:00:00	25	massafra	21.0	1	34.43	1	0.0	1	null	6	null	6	49.25	1	1003.3	1	40.593575	17.116091
2276	2024-04-04 19:00:00	25	massafra	18.24	1	44.24	1	0.0	1	null	6	null	6	0.0	5	1003.75	1	40.593575	17.116091
2277	2024-04-04 20:00:00	25	massafra	17.17	1	46.55	1	0.0	1	null	6	null	6	0.0	1	1004.19	1	40.593575	17.116091
2278	2024-04-04 21:00:00	25	massafra	16.16	1	48.12	1	0.0	1	null	6	null	6	0.0	1	1004.64	1	40.593575	17.116091
2279	2024-04-04 22:00:00	25	massafra	15.26	1	50.37	1	0.0	1	null	6	null	6	0.0	1	1004.84	1	40.593575	17.116091
2280	2024-04-04 23:00:00	25	massafra	14.76	1	53.23	1	0.0	1	null	6	null	6	0.0	1	1005.11	1	40.593575	17.116091
2281	2024-04-05 00:00:00	25	massafra	14.22	1	53.87	1	0.0	1	null	6	null	6	0.0	1	1005.1	1	40.593575	17.116091
2282	2024-04-05 01:00:00	25	massafra	13.41	1	53.49	1	0.0	1	null	6	null	6	0.0	1	1004.89	1	40.593575	17.116091
2283	2024-04-05 02:00:00	25	massafra	13.41	1	49.83	1	0.0	1	null	6	null	6	0.0	1	1004.73	1	40.593575	17.116091
2284	2024-04-05 03:00:00	25	massafra	13.27	1	52.15	1	0.0	1	null	6	null	6	0.0	1	1004.94	1	40.593575	17.116091
2285	2024-04-05 04:00:00	25	massafra	13.44	1	52.64	1	0.0	1	null	6	null	6	0.0	1	1004.96	1	40.593575	17.116091
2286	2024-04-05 05:00:00	25	massafra	13.72	1	51.73	1	0.0	1	null	6	null	6	0.0	1	1005.08	1	40.593575	17.116091
2287	2024-04-05 06:00:00	25	massafra	12.63	1	55.09	1	0.0	1	null	6	null	6	0.0	5	1005.32	1	40.593575	17.116091
2288	2024-04-05 07:00:00	25	massafra	13.95	1	53.24	1	0.0	1	null	6	null	6	48.73	1	1005.93	1	40.593575	17.116091
2289	2024-04-05 08:00:00	25	massafra	17.52	1	42.17	1	0.0	1	null	6	null	6	50.97	1	1006.4	1	40.593575	17.116091
2290	2024-04-05 09:00:00	25	massafra	20.11	1	36.44	1	0.0	1	null	6	null	6	410.07	1	1006.81	1	40.593575	17.116091
2291	2024-04-05 10:00:00	25	massafra	23.33	1	29.9	1	0.0	1	null	6	null	6	633.05	1	1006.77	1	40.593575	17.116091
2292	2024-04-05 11:00:00	25	massafra	25.1	1	25.42	1	0.0	1	null	6	null	6	748.4	1	1006.68	1	40.593575	17.116091
2293	2024-04-05 12:00:00	25	massafra	26.21	1	24.54	1	0.0	1	null	6	null	6	845.3	1	1006.36	1	40.593575	17.116091
2294	2024-04-05 13:00:00	25	massafra	26.1	1	29.25	1	0.0	1	null	6	null	6	832.23	1	1006.03	1	40.593575	17.116091
2295	2024-04-05 14:00:00	25	massafra	26.03	1	28.54	1	0.0	1	null	6	null	6	701.02	1	1005.75	1	40.593575	17.116091
2296	2024-04-05 15:00:00	25	massafra	26.6	1	26.27	1	0.0	1	null	6	null	6	547.44	1	1005.56	1	40.593575	17.116091
2297	2024-04-05 16:00:00	25	massafra	24.54	1	32.02	1	0.0	1	null	6	null	6	308.32	1	1005.35	1	40.593575	17.116091
2298	2024-04-05 17:00:00	25	massafra	22.74	1	36.42	1	0.0	1	null	6	null	6	229.45	1	1005.84	1	40.593575	17.116091
2299	2024-04-05 18:00:00	25	massafra	21.22	1	41.96	1	0.0	1	null	6	null	6	49.2	1	1006.0	1	40.593575	17.116091
2300	2024-04-05 19:00:00	25	massafra	18.92	1	50.26	1	0.0	1	null	6	null	6	0.0	5	1006.17	1	40.593575	17.116091
2301	2024-04-05 20:00:00	25	massafra	17.78	1	47.55	1	0.0	1	null	6	null	6	0.0	1	1006.6	1	40.593575	17.116091
2302	2024-04-05 21:00:00	25	massafra	16.75	1	46.0	1	0.0	1	null	6	null	6	0.0	1	1006.87	1	40.593575	17.116091
2303	2024-04-05 22:00:00	25	massafra	15.8	1	46.94	1	0.0	1	null	6	null	6	0.0	1	1006.99	1	40.593575	17.116091
2304	2024-04-05 23:00:00	25	massafra	15.12	1	49.78	1	0.0	1	null	6	null	6	0.0	1	1006.85	1	40.593575	17.116091
2305	2024-04-06 00:00:00	25	massafra	15.37	1	49.65	1	0.0	1	null	6	null	6	0.0	1	1006.76	1	40.593575	17.116091
2306	2024-04-06 01:00:00	25	massafra	15.76	1	46.46	1	0.0	1	null	6	null	6	0.0	1	1006.59	1	40.593575	17.116091
2307	2024-04-06 02:00:00	25	massafra	15.75	1	45.27	1	0.0	1	null	6	null	6	0.0	1	1006.33	1	40.593575	17.116091
2308	2024-04-06 03:00:00	25	massafra	15.48	1	46.14	1	0.0	1	null	6	null	6	0.0	1	1005.94	1	40.593575	17.116091
2309	2024-04-06 04:00:00	25	massafra	15.44	1	45.33	1	0.0	1	null	6	null	6	0.0	1	1005.8	1	40.593575	17.116091
2310	2024-04-06 05:00:00	25	massafra	14.73	1	47.72	1	0.0	1	null	6	null	6	0.0	1	1005.98	1	40.593575	17.116091
2311	2024-04-06 06:00:00	25	massafra	13.87	1	50.86	1	0.0	1	null	6	null	6	5.19	1	1006.3	1	40.593575	17.116091
2312	2024-04-06 07:00:00	25	massafra	15.24	1	50.66	1	0.0	1	null	6	null	6	65.59	1	1006.69	1	40.593575	17.116091
2313	2024-04-06 08:00:00	25	massafra	17.46	1	53.3	1	0.0	1	null	6	null	6	88.41	1	1007.02	1	40.593575	17.116091
2314	2024-04-06 09:00:00	25	massafra	19.72	1	46.04	1	0.0	1	null	6	null	6	377.74	1	1007.23	1	40.593575	17.116091
2315	2024-04-06 10:00:00	25	massafra	23.67	1	35.71	1	0.0	1	null	6	null	6	531.81	1	1006.95	1	40.593575	17.116091
2316	2024-04-06 11:00:00	25	massafra	25.96	1	28.4	1	0.0	1	null	6	null	6	716.35	1	1006.72	1	40.593575	17.116091
2317	2024-04-06 12:00:00	25	massafra	26.07	1	25.91	1	0.0	1	null	6	null	6	769.19	1	1006.48	1	40.593575	17.116091
2318	2024-04-06 13:00:00	25	massafra	25.85	1	26.25	1	0.0	1	null	6	null	6	603.19	1	1006.12	1	40.593575	17.116091
2319	2024-04-06 14:00:00	25	massafra	26.78	1	24.29	1	0.0	1	null	6	null	6	724.99	1	1005.57	1	40.593575	17.116091
2320	2024-04-06 15:00:00	25	massafra	26.41	1	25.31	1	0.0	1	null	6	null	6	395.29	1	1004.99	1	40.593575	17.116091
2321	2024-04-06 16:00:00	25	massafra	25.58	1	33.28	1	0.0	1	null	6	null	6	406.52	1	1004.68	1	40.593575	17.116091
2322	2024-04-06 17:00:00	25	massafra	24.07	1	37.26	1	0.0	1	null	6	null	6	274.23	1	1004.68	1	40.593575	17.116091
2323	2024-04-06 18:00:00	25	massafra	21.78	1	39.28	1	0.0	1	null	6	null	6	53.76	1	1004.64	1	40.593575	17.116091
2324	2024-04-06 19:00:00	25	massafra	19.89	1	44.62	1	0.0	1	null	6	null	6	0.0	5	1004.88	1	40.593575	17.116091
2325	2024-04-06 20:00:00	25	massafra	18.59	1	44.8	1	0.0	1	null	6	null	6	0.0	1	1005.29	1	40.593575	17.116091
2326	2024-04-06 21:00:00	25	massafra	17.73	1	41.28	1	0.0	1	null	6	null	6	0.0	1	1005.39	1	40.593575	17.116091
2327	2024-04-06 22:00:00	25	massafra	17.55	1	39.68	1	0.0	1	null	6	null	6	0.0	1	1005.33	1	40.593575	17.116091
2328	2024-04-06 23:00:00	25	massafra	17.04	1	40.9	1	0.0	1	null	6	null	6	0.0	1	1005.07	1	40.593575	17.116091
2329	2024-04-07 00:00:00	25	massafra	16.31	1	42.5	1	0.0	1	null	6	null	6	0.0	1	1004.84	1	40.593575	17.116091
2330	2024-04-07 01:00:00	25	massafra	16.56	1	42.29	1	0.0	1	null	6	null	6	0.0	1	1004.64	1	40.593575	17.116091
2331	2024-04-07 02:00:00	25	massafra	16.18	1	43.34	1	0.0	1	null	6	null	6	0.0	1	1004.28	1	40.593575	17.116091
2332	2024-04-07 03:00:00	25	massafra	15.46	1	44.79	1	0.0	1	null	6	null	6	0.0	1	1003.93	1	40.593575	17.116091
2333	2024-04-07 04:00:00	25	massafra	15.25	1	45.51	1	0.0	1	null	6	null	6	0.0	1	1003.52	1	40.593575	17.116091
2334	2024-04-07 05:00:00	25	massafra	16.38	1	45.44	1	0.0	1	null	6	null	6	0.0	1	1003.28	1	40.593575	17.116091
2335	2024-04-07 06:00:00	25	massafra	16.03	1	49.56	1	0.0	1	null	6	null	6	0.0	5	1003.32	1	40.593575	17.116091
2336	2024-04-07 07:00:00	25	massafra	16.13	1	52.61	1	0.0	1	null	6	null	6	64.99	1	1003.49	1	40.593575	17.116091
2337	2024-04-07 08:00:00	25	massafra	17.69	1	49.67	1	0.0	1	null	6	null	6	78.51	1	1003.55	1	40.593575	17.116091
2338	2024-04-07 09:00:00	25	massafra	21.74	1	35.73	1	0.0	1	null	6	null	6	422.15	1	1003.52	1	40.593575	17.116091
2339	2024-04-07 10:00:00	25	massafra	24.73	1	29.97	1	0.0	1	null	6	null	6	647.65	1	1003.29	1	40.593575	17.116091
2340	2024-04-07 11:00:00	25	massafra	26.09	1	27.04	1	0.0	1	null	6	null	6	794.72	1	1003.03	1	40.593575	17.116091
2341	2024-04-07 12:00:00	25	massafra	26.93	1	24.9	1	0.0	1	null	6	null	6	863.21	1	1002.62	1	40.593575	17.116091
2342	2024-04-07 13:00:00	25	massafra	27.6	1	23.63	1	0.0	1	null	6	null	6	855.1	1	1002.02	1	40.593575	17.116091
2343	2024-04-07 14:00:00	25	massafra	27.65	1	22.74	1	0.0	1	null	6	null	6	774.46	1	1001.41	1	40.593575	17.116091
2344	2024-04-07 15:00:00	25	massafra	27.05	1	22.95	1	0.0	1	null	6	null	6	636.31	1	1000.74	1	40.593575	17.116091
2345	2024-04-07 16:00:00	25	massafra	26.89	1	22.9	1	0.0	1	null	6	null	6	484.22	1	1000.36	1	40.593575	17.116091
2346	2024-04-07 17:00:00	25	massafra	26.48	1	23.93	1	0.0	1	null	6	null	6	300.26	1	1000.24	1	40.593575	17.116091
2347	2024-04-07 18:00:00	25	massafra	24.06	1	27.53	1	0.0	1	null	6	null	6	60.86	1	1000.22	1	40.593575	17.116091
2348	2024-04-07 19:00:00	25	massafra	21.33	1	32.27	1	0.0	1	null	6	null	6	0.0	5	1000.15	1	40.593575	17.116091
2349	2024-04-07 20:00:00	25	massafra	20.05	1	35.41	1	0.0	1	null	6	null	6	0.0	1	1000.35	1	40.593575	17.116091
2350	2024-04-07 21:00:00	25	massafra	19.89	1	34.57	1	0.0	1	null	6	null	6	0.0	1	1000.56	1	40.593575	17.116091
2351	2024-04-07 22:00:00	25	massafra	20.38	1	29.85	1	0.0	1	null	6	null	6	0.0	1	1000.55	1	40.593575	17.116091
2352	2024-04-07 23:00:00	25	massafra	20.15	1	33.61	1	0.0	1	null	6	null	6	0.0	1	1000.87	1	40.593575	17.116091
2353	2024-04-08 00:00:00	25	massafra	19.85	1	33.11	1	0.0	1	null	6	null	6	0.0	1	1000.79	1	40.593575	17.116091
2354	2024-04-08 01:00:00	25	massafra	19.56	1	31.11	1	0.0	1	null	6	null	6	0.0	1	1000.42	1	40.593575	17.116091
2355	2024-04-08 02:00:00	25	massafra	19.54	1	30.88	1	0.0	1	null	6	null	6	0.0	1	1000.15	1	40.593575	17.116091
2356	2024-04-08 03:00:00	25	massafra	18.38	1	34.73	1	0.0	1	null	6	null	6	0.0	1	1000.77	1	40.593575	17.116091
2357	2024-04-08 04:00:00	25	massafra	16.99	1	40.6	1	0.0	1	null	6	null	6	0.0	1	1000.9	1	40.593575	17.116091
2358	2024-04-08 05:00:00	25	massafra	16.66	1	42.7	1	0.0	1	null	6	null	6	0.0	1	1001.73	1	40.593575	17.116091
2359	2024-04-08 06:00:00	25	massafra	15.74	1	50.92	1	0.0	1	null	6	null	6	0.0	5	1002.03	1	40.593575	17.116091
2360	2024-04-08 07:00:00	25	massafra	16.69	1	53.32	1	0.0	1	null	6	null	6	78.6	1	1002.16	1	40.593575	17.116091
2361	2024-04-08 08:00:00	25	massafra	19.6	1	46.52	1	0.0	1	null	6	null	6	94.45	1	1002.5	1	40.593575	17.116091
2362	2024-04-08 09:00:00	25	massafra	21.13	1	44.88	1	0.0	1	null	6	null	6	415.99	1	1002.74	1	40.593575	17.116091
2363	2024-04-08 10:00:00	25	massafra	23.76	1	41.13	1	0.0	1	null	6	null	6	639.59	1	1002.88	1	40.593575	17.116091
2364	2024-04-08 11:00:00	25	massafra	24.37	1	37.31	1	0.0	1	null	6	null	6	790.07	1	1002.71	1	40.593575	17.116091
2365	2024-04-08 12:00:00	25	massafra	25.52	1	34.45	1	0.0	1	null	6	null	6	848.68	1	1002.32	1	40.593575	17.116091
2366	2024-04-08 13:00:00	25	massafra	26.03	1	33.46	1	0.0	1	null	6	null	6	840.12	1	1001.96	1	40.593575	17.116091
2367	2024-04-08 14:00:00	25	massafra	26.36	1	31.89	1	0.0	1	null	6	null	6	759.73	1	1001.51	1	40.593575	17.116091
2368	2024-04-08 15:00:00	25	massafra	25.43	1	39.52	1	0.0	1	null	6	null	6	571.65	1	1001.27	1	40.593575	17.116091
2369	2024-04-08 16:00:00	25	massafra	24.98	1	37.29	1	0.0	1	null	6	null	6	436.04	1	1001.15	1	40.593575	17.116091
2370	2024-04-08 17:00:00	25	massafra	23.58	1	40.63	1	0.0	1	null	6	null	6	190.31	1	1001.23	1	40.593575	17.116091
2371	2024-04-08 18:00:00	25	massafra	22.44	1	35.23	1	0.0	1	null	6	null	6	84.55	1	1001.17	1	40.593575	17.116091
2372	2024-04-08 19:00:00	25	massafra	20.65	1	39.2	1	0.0	1	null	6	null	6	0.0	5	1001.0	1	40.593575	17.116091
2373	2024-04-08 20:00:00	25	massafra	18.9	1	44.1	1	0.0	1	null	6	null	6	0.0	1	1001.29	1	40.593575	17.116091
2374	2024-04-08 21:00:00	25	massafra	18.05	1	46.05	1	0.0	1	null	6	null	6	0.0	1	1001.57	1	40.593575	17.116091
2375	2024-04-08 22:00:00	25	massafra	17.52	1	48.38	1	0.0	1	null	6	null	6	0.0	1	1001.47	1	40.593575	17.116091
2376	2024-04-08 23:00:00	25	massafra	17.09	1	50.72	1	0.0	1	null	6	null	6	0.0	1	1001.31	1	40.593575	17.116091
2377	2024-04-09 00:00:00	25	massafra	16.75	1	52.22	1	0.0	1	null	6	null	6	0.0	1	1001.19	1	40.593575	17.116091
2378	2024-04-09 01:00:00	25	massafra	17.0	1	50.58	1	0.0	1	null	6	null	6	0.0	1	1000.96	1	40.593575	17.116091
2379	2024-04-09 02:00:00	25	massafra	17.8	1	43.46	1	0.0	1	null	6	null	6	0.0	1	1000.65	1	40.593575	17.116091
2380	2024-04-09 03:00:00	25	massafra	17.53	1	41.66	1	0.0	1	null	6	null	6	0.0	1	1000.36	1	40.593575	17.116091
2381	2024-04-09 04:00:00	25	massafra	16.74	1	43.58	1	0.0	1	null	6	null	6	0.0	1	1000.23	1	40.593575	17.116091
2382	2024-04-09 05:00:00	25	massafra	16.81	1	43.28	1	0.0	1	null	6	null	6	0.0	1	1000.16	1	40.593575	17.116091
2383	2024-04-09 06:00:00	25	massafra	16.75	1	44.15	1	0.0	1	null	6	null	6	7.53	1	1000.35	1	40.593575	17.116091
2384	2024-04-09 07:00:00	25	massafra	18.49	1	43.14	1	0.0	1	null	6	null	6	99.6	1	1000.55	1	40.593575	17.116091
2385	2024-04-09 08:00:00	25	massafra	19.66	1	39.81	1	0.0	1	null	6	null	6	110.57	1	1000.54	1	40.593575	17.116091
2386	2024-04-09 09:00:00	25	massafra	21.84	1	43.51	1	0.0	1	null	6	null	6	397.35	1	1000.58	1	40.593575	17.116091
2387	2024-04-09 10:00:00	25	massafra	24.83	1	35.68	1	0.0	1	null	6	null	6	638.58	1	1000.52	1	40.593575	17.116091
2388	2024-04-09 11:00:00	25	massafra	26.86	1	33.04	1	0.0	1	null	6	null	6	791.24	1	1000.33	1	40.593575	17.116091
2389	2024-04-09 12:00:00	25	massafra	27.15	1	34.86	1	0.0	1	null	6	null	6	844.46	1	1000.24	1	40.593575	17.116091
2390	2024-04-09 13:00:00	25	massafra	27.15	1	29.23	1	0.0	1	null	6	null	6	849.35	1	1000.06	1	40.593575	17.116091
2391	2024-04-09 14:00:00	25	massafra	26.94	1	23.8	1	0.0	1	null	6	null	6	763.38	1	999.75	1	40.593575	17.116091
2392	2024-04-09 15:00:00	25	massafra	26.87	1	21.3	1	0.0	1	null	6	null	6	626.3	1	999.62	1	40.593575	17.116091
2393	2024-04-09 16:00:00	25	massafra	26.3	1	20.13	1	0.0	1	null	6	null	6	475.25	1	999.37	1	40.593575	17.116091
2394	2024-04-09 17:00:00	25	massafra	25.65	1	19.11	1	0.0	1	null	6	null	6	286.99	1	999.23	1	40.593575	17.116091
2395	2024-04-09 18:00:00	25	massafra	23.75	1	23.57	1	0.0	1	null	6	null	6	66.51	1	999.05	1	40.593575	17.116091
2396	2024-04-09 19:00:00	25	massafra	21.05	1	30.14	1	0.0	1	null	6	null	6	0.0	5	998.92	1	40.593575	17.116091
2397	2024-04-09 20:00:00	25	massafra	19.14	1	37.52	1	0.0	1	null	6	null	6	0.0	1	999.17	1	40.593575	17.116091
2398	2024-04-09 21:00:00	25	massafra	18.17	1	44.51	1	0.0	1	null	6	null	6	0.0	1	999.33	1	40.593575	17.116091
2399	2024-04-09 22:00:00	25	massafra	17.43	1	48.05	1	0.0	1	null	6	null	6	0.0	1	999.19	1	40.593575	17.116091
2400	2024-04-09 23:00:00	25	massafra	17.09	1	51.41	1	0.0	1	null	6	null	6	0.0	1	999.03	1	40.593575	17.116091
2401	2024-04-10 00:00:00	25	massafra	16.85	1	55.58	1	0.0	1	null	6	null	6	0.0	1	998.73	1	40.593575	17.116091
2402	2024-04-10 01:00:00	25	massafra	16.62	1	63.0	1	0.0	1	null	6	null	6	0.0	1	998.64	1	40.593575	17.116091
2403	2024-04-10 02:00:00	25	massafra	15.91	1	72.38	1	0.0	1	null	6	null	6	0.0	1	998.36	1	40.593575	17.116091
2404	2024-04-10 03:00:00	25	massafra	15.24	1	81.32	1	0.0	1	null	6	null	6	0.0	1	997.91	1	40.593575	17.116091
2405	2024-04-10 04:00:00	25	massafra	14.58	1	85.5	1	0.0	1	null	6	null	6	0.0	1	997.57	1	40.593575	17.116091
2406	2024-04-10 05:00:00	25	massafra	14.21	1	85.94	1	0.0	1	null	6	null	6	0.0	1	997.75	1	40.593575	17.116091
2407	2024-04-10 06:00:00	25	massafra	13.54	1	84.51	1	0.0	1	null	6	null	6	13.23	1	997.97	1	40.593575	17.116091
2408	2024-04-10 07:00:00	25	massafra	14.83	1	83.57	1	0.0	1	null	6	null	6	131.38	1	998.33	1	40.593575	17.116091
2409	2024-04-10 08:00:00	25	massafra	16.47	1	79.29	1	0.0	1	null	6	null	6	175.93	1	998.4	1	40.593575	17.116091
2410	2024-04-10 09:00:00	25	massafra	18.4	1	70.62	1	0.0	1	null	6	null	6	309.91	1	998.64	1	40.593575	17.116091
2411	2024-04-10 10:00:00	25	massafra	22.2	1	50.96	1	0.0	1	null	6	null	6	530.81	1	998.88	1	40.593575	17.116091
2412	2024-04-10 11:00:00	25	massafra	22.73	1	44.5	1	0.0	1	null	6	null	6	484.8	1	998.93	1	40.593575	17.116091
2413	2024-04-10 12:00:00	25	massafra	24.89	1	39.67	1	0.0	1	null	6	null	6	644.91	1	998.72	1	40.593575	17.116091
2414	2024-04-10 13:00:00	25	massafra	26.25	1	39.71	1	0.0	1	null	6	null	6	654.65	1	998.56	1	40.593575	17.116091
2415	2024-04-10 14:00:00	25	massafra	25.0	1	43.28	1	0.0	1	null	6	null	6	676.9	1	998.79	1	40.593575	17.116091
2416	2024-04-10 15:00:00	25	massafra	25.58	1	38.69	1	0.0	1	null	6	null	6	516.01	1	998.8	1	40.593575	17.116091
2417	2024-04-10 16:00:00	25	massafra	25.7	1	38.85	1	0.0	1	null	6	null	6	385.57	1	999.01	1	40.593575	17.116091
2418	2024-04-10 17:00:00	25	massafra	24.24	1	45.15	1	0.0	1	null	6	null	6	132.56	1	999.29	1	40.593575	17.116091
2419	2024-04-10 18:00:00	25	massafra	23.49	1	44.29	1	0.0	1	null	6	null	6	67.72	1	999.61	1	40.593575	17.116091
2420	2024-04-10 19:00:00	25	massafra	21.44	1	44.88	1	0.0	1	null	6	null	6	0.0	5	1000.24	1	40.593575	17.116091
2421	2024-04-10 20:00:00	25	massafra	19.59	1	45.93	1	0.0	1	null	6	null	6	0.0	1	1001.04	1	40.593575	17.116091
2422	2024-04-10 21:00:00	25	massafra	18.6	1	45.94	1	0.0	1	null	6	null	6	0.0	1	1001.63	1	40.593575	17.116091
2423	2024-04-10 22:00:00	25	massafra	17.8	1	46.12	1	0.0	1	null	6	null	6	0.0	1	1002.16	1	40.593575	17.116091
2424	2024-04-10 23:00:00	25	massafra	17.45	1	45.16	1	0.0	1	null	6	null	6	0.0	1	1002.65	1	40.593575	17.116091
2425	2024-04-11 00:00:00	25	massafra	17.11	1	43.34	1	0.0	1	null	6	null	6	0.0	1	1003.09	1	40.593575	17.116091
2426	2024-04-11 01:00:00	25	massafra	16.92	1	41.4	1	0.0	1	null	6	null	6	0.0	1	1003.03	1	40.593575	17.116091
2427	2024-04-11 02:00:00	25	massafra	17.18	1	36.0	1	0.0	1	null	6	null	6	0.0	1	1002.76	1	40.593575	17.116091
2428	2024-04-11 03:00:00	25	massafra	17.37	1	27.65	1	0.0	1	null	6	null	6	0.0	1	1002.66	1	40.593575	17.116091
2429	2024-04-11 04:00:00	25	massafra	16.82	1	28.55	1	0.0	1	null	6	null	6	0.0	1	1002.38	1	40.593575	17.116091
2430	2024-04-11 05:00:00	25	massafra	16.23	1	34.4	1	0.0	1	null	6	null	6	0.0	1	1002.55	1	40.593575	17.116091
2431	2024-04-11 06:00:00	25	massafra	15.88	1	35.31	1	0.0	1	null	6	null	6	13.39	1	1002.89	1	40.593575	17.116091
2432	2024-04-11 07:00:00	25	massafra	16.52	1	39.17	1	0.0	1	null	6	null	6	85.51	1	1003.39	1	40.593575	17.116091
2433	2024-04-11 08:00:00	25	massafra	17.68	1	42.33	1	0.0	1	null	6	null	6	140.4	1	1003.85	1	40.593575	17.116091
2434	2024-04-11 09:00:00	25	massafra	19.14	1	43.78	1	0.0	1	null	6	null	6	253.1	1	1004.31	1	40.593575	17.116091
2435	2024-04-11 10:00:00	25	massafra	19.62	1	44.68	1	0.0	1	null	6	null	6	242.17	1	1005.03	1	40.593575	17.116091
2436	2024-04-11 11:00:00	25	massafra	20.36	1	44.81	1	0.0	1	null	6	null	6	264.77	1	1005.25	1	40.593575	17.116091
2437	2024-04-11 12:00:00	25	massafra	21.04	1	42.77	1	0.0	1	null	6	null	6	327.55	1	1005.36	1	40.593575	17.116091
2438	2024-04-11 13:00:00	25	massafra	22.13	1	39.15	1	0.0	1	null	6	null	6	491.33	1	1005.3	1	40.593575	17.116091
2439	2024-04-11 14:00:00	25	massafra	23.2	1	34.27	1	0.0	1	null	6	null	6	547.14	1	1005.03	1	40.593575	17.116091
2440	2024-04-11 15:00:00	25	massafra	23.76	1	31.94	1	0.0	1	null	6	null	6	446.99	1	1004.99	1	40.593575	17.116091
2441	2024-04-11 16:00:00	25	massafra	23.58	1	33.62	1	0.0	1	null	6	null	6	295.72	1	1004.85	1	40.593575	17.116091
2442	2024-04-11 17:00:00	25	massafra	22.96	1	36.63	1	0.0	1	null	6	null	6	191.81	1	1004.99	1	40.593575	17.116091
2443	2024-04-11 18:00:00	25	massafra	21.28	1	42.66	1	0.0	1	null	6	null	6	63.08	1	1005.15	1	40.593575	17.116091
2444	2024-04-11 19:00:00	25	massafra	19.79	1	46.53	1	0.0	1	null	6	null	6	0.0	5	1005.14	1	40.593575	17.116091
2445	2024-04-11 20:00:00	25	massafra	19.04	1	48.67	1	0.0	1	null	6	null	6	0.0	1	1005.57	1	40.593575	17.116091
2446	2024-04-11 21:00:00	25	massafra	18.08	1	57.16	1	0.0	1	null	6	null	6	0.0	1	1006.15	1	40.593575	17.116091
2447	2024-04-11 22:00:00	25	massafra	17.35	1	60.76	1	0.0	1	null	6	null	6	0.0	1	1006.72	1	40.593575	17.116091
2448	2024-04-11 23:00:00	25	massafra	16.78	1	59.57	1	0.0	1	null	6	null	6	0.0	1	1007.06	1	40.593575	17.116091
2449	2024-04-12 00:00:00	25	massafra	16.61	1	57.17	1	0.0	1	null	6	null	6	0.0	1	1007.11	1	40.593575	17.116091
2450	2024-04-12 01:00:00	25	massafra	16.68	1	54.13	1	0.0	1	null	6	null	6	0.0	1	1007.14	1	40.593575	17.116091
2451	2024-04-12 02:00:00	25	massafra	16.83	1	50.42	1	0.0	1	null	6	null	6	0.0	1	1006.89	1	40.593575	17.116091
2452	2024-04-12 03:00:00	25	massafra	16.88	1	48.9	1	0.0	1	null	6	null	6	0.0	1	1006.84	1	40.593575	17.116091
2453	2024-04-12 04:00:00	25	massafra	17.23	1	45.91	1	0.0	1	null	6	null	6	0.0	1	1006.58	1	40.593575	17.116091
2454	2024-04-12 05:00:00	25	massafra	17.16	1	45.61	1	0.0	1	null	6	null	6	0.0	1	1006.31	1	40.593575	17.116091
2455	2024-04-12 06:00:00	25	massafra	17.02	1	46.71	1	0.0	1	null	6	null	6	8.88	1	1006.4	1	40.593575	17.116091
2456	2024-04-12 07:00:00	25	massafra	17.71	1	46.1	1	0.0	1	null	6	null	6	119.8	1	1006.61	1	40.593575	17.116091
2457	2024-04-12 08:00:00	25	massafra	19.02	1	45.57	1	0.0	1	null	6	null	6	120.83	1	1006.86	1	40.593575	17.116091
2458	2024-04-12 09:00:00	25	massafra	21.39	1	41.58	1	0.0	1	null	6	null	6	470.1	1	1007.65	1	40.593575	17.116091
2459	2024-04-12 10:00:00	25	massafra	24.32	1	35.89	1	0.0	1	null	6	null	6	652.01	1	1008.1	1	40.593575	17.116091
2460	2024-04-12 11:00:00	25	massafra	25.76	1	32.1	1	0.0	1	null	6	null	6	792.47	1	1008.04	1	40.593575	17.116091
2461	2024-04-12 12:00:00	25	massafra	26.59	1	29.99	1	0.0	1	null	6	null	6	850.89	1	1007.81	1	40.593575	17.116091
2462	2024-04-12 13:00:00	25	massafra	27.24	1	27.53	1	0.0	1	null	6	null	6	843.58	1	1007.52	1	40.593575	17.116091
2463	2024-04-12 14:00:00	25	massafra	27.96	1	23.68	1	0.0	1	null	6	null	6	776.26	1	1006.91	1	40.593575	17.116091
2464	2024-04-12 15:00:00	25	massafra	28.18	1	22.94	1	0.0	1	null	6	null	6	623.74	1	1006.42	1	40.593575	17.116091
2465	2024-04-12 16:00:00	25	massafra	28.0	1	23.48	1	0.0	1	null	6	null	6	465.61	1	1006.26	1	40.593575	17.116091
2466	2024-04-12 17:00:00	25	massafra	26.7	1	27.67	1	0.0	1	null	6	null	6	289.24	1	1006.37	1	40.593575	17.116091
2467	2024-04-12 18:00:00	25	massafra	23.83	1	34.37	1	0.0	1	null	6	null	6	73.41	1	1006.64	1	40.593575	17.116091
2468	2024-04-12 19:00:00	25	massafra	21.38	1	40.63	1	0.0	1	null	6	null	6	0.0	5	1006.71	1	40.593575	17.116091
2469	2024-04-12 20:00:00	25	massafra	19.63	1	44.52	1	0.0	1	null	6	null	6	0.0	1	1006.9	1	40.593575	17.116091
2470	2024-04-12 21:00:00	25	massafra	19.16	1	44.88	1	0.0	1	null	6	null	6	0.0	1	1006.97	1	40.593575	17.116091
2471	2024-04-12 22:00:00	25	massafra	18.74	1	46.61	1	0.0	1	null	6	null	6	0.0	1	1007.19	1	40.593575	17.116091
2472	2024-04-12 23:00:00	25	massafra	18.59	1	47.54	1	0.0	1	null	6	null	6	0.0	1	1007.46	1	40.593575	17.116091
2473	2024-04-13 00:00:00	25	massafra	18.86	1	45.23	1	0.0	1	null	6	null	6	0.0	1	1007.59	1	40.593575	17.116091
2474	2024-04-13 01:00:00	25	massafra	19.12	1	43.94	1	0.0	1	null	6	null	6	0.0	1	1007.58	1	40.593575	17.116091
2475	2024-04-13 02:00:00	25	massafra	18.78	1	44.73	1	0.0	1	null	6	null	6	0.0	1	1007.32	1	40.593575	17.116091
2476	2024-04-13 03:00:00	25	massafra	18.75	1	43.51	1	0.0	1	null	6	null	6	0.0	1	1007.15	1	40.593575	17.116091
2477	2024-04-13 04:00:00	25	massafra	18.74	1	41.61	1	0.0	1	null	6	null	6	0.0	1	1006.97	1	40.593575	17.116091
2478	2024-04-13 05:00:00	25	massafra	18.35	1	42.34	1	0.0	1	null	6	null	6	0.0	1	1006.97	1	40.593575	17.116091
2479	2024-04-13 06:00:00	25	massafra	18.61	1	39.84	1	0.0	1	null	6	null	6	8.86	1	1007.12	1	40.593575	17.116091
2480	2024-04-13 07:00:00	25	massafra	20.28	1	35.71	1	0.0	1	null	6	null	6	129.51	1	1007.32	1	40.593575	17.116091
2481	2024-04-13 08:00:00	25	massafra	21.52	1	34.79	1	0.0	1	null	6	null	6	140.24	1	1007.55	1	40.593575	17.116091
2482	2024-04-13 09:00:00	25	massafra	23.1	1	33.51	1	0.0	1	null	6	null	6	483.78	1	1007.61	1	40.593575	17.116091
2483	2024-04-13 10:00:00	25	massafra	25.28	1	31.05	1	0.0	1	null	6	null	6	666.12	1	1007.44	1	40.593575	17.116091
2484	2024-04-13 11:00:00	25	massafra	26.84	1	29.58	1	0.0	1	null	6	null	6	805.87	1	1007.35	1	40.593575	17.116091
2485	2024-04-13 12:00:00	25	massafra	27.72	1	27.57	1	0.0	1	null	6	null	6	860.21	1	1007.17	1	40.593575	17.116091
2486	2024-04-13 13:00:00	25	massafra	28.34	1	26.5	1	0.0	1	null	6	null	6	847.32	1	1007.06	1	40.593575	17.116091
2487	2024-04-13 14:00:00	25	massafra	28.9	1	25.7	1	0.0	1	null	6	null	6	774.93	1	1006.64	1	40.593575	17.116091
2488	2024-04-13 15:00:00	25	massafra	28.76	1	25.76	1	0.0	1	null	6	null	6	618.89	1	1006.18	1	40.593575	17.116091
2489	2024-04-13 16:00:00	25	massafra	28.6	1	26.07	1	0.0	1	null	6	null	6	466.43	1	1005.87	1	40.593575	17.116091
2490	2024-04-13 17:00:00	25	massafra	27.7	1	27.49	1	0.0	1	null	6	null	6	292.54	1	1005.63	1	40.593575	17.116091
2491	2024-04-13 18:00:00	25	massafra	25.8	1	30.77	1	0.0	1	null	6	null	6	76.72	1	1005.66	1	40.593575	17.116091
2492	2024-04-13 19:00:00	25	massafra	23.1	1	35.76	1	0.0	1	null	6	null	6	0.0	5	1006.04	1	40.593575	17.116091
2493	2024-04-13 20:00:00	25	massafra	21.45	1	38.75	1	0.0	1	null	6	null	6	0.0	1	1006.31	1	40.593575	17.116091
2494	2024-04-13 21:00:00	25	massafra	20.77	1	39.8	1	0.0	1	null	6	null	6	0.0	1	1006.66	1	40.593575	17.116091
2495	2024-04-13 22:00:00	25	massafra	20.37	1	39.03	1	0.0	1	null	6	null	6	0.0	1	1006.7	1	40.593575	17.116091
2496	2024-04-13 23:00:00	25	massafra	19.77	1	41.57	1	0.0	1	null	6	null	6	0.0	1	1006.77	1	40.593575	17.116091
2497	2024-04-14 00:00:00	25	massafra	19.17	1	44.04	1	0.0	1	null	6	null	6	0.0	1	1006.88	1	40.593575	17.116091
2498	2024-04-14 01:00:00	25	massafra	18.33	1	47.37	1	0.0	1	null	6	null	6	0.0	1	1006.99	1	40.593575	17.116091
2499	2024-04-14 02:00:00	25	massafra	17.83	1	49.31	1	0.0	1	null	6	null	6	0.0	1	1006.81	1	40.593575	17.116091
2500	2024-04-14 03:00:00	25	massafra	17.47	1	48.85	1	0.0	1	null	6	null	6	0.0	1	1006.75	1	40.593575	17.116091
2501	2024-04-14 04:00:00	25	massafra	17.02	1	48.63	1	0.0	1	null	6	null	6	0.0	1	1006.77	1	40.593575	17.116091
2502	2024-04-14 05:00:00	25	massafra	16.92	1	47.65	1	0.0	1	null	6	null	6	0.0	1	1006.65	1	40.593575	17.116091
2503	2024-04-14 06:00:00	25	massafra	17.58	1	44.0	1	0.0	1	null	6	null	6	7.77	1	1006.76	1	40.593575	17.116091
2504	2024-04-14 07:00:00	25	massafra	19.28	1	40.72	1	0.0	1	null	6	null	6	150.18	1	1006.83	1	40.593575	17.116091
2505	2024-04-14 08:00:00	25	massafra	22.1	1	35.37	1	0.0	1	null	6	null	6	144.38	1	1006.81	1	40.593575	17.116091
2506	2024-04-14 09:00:00	25	massafra	25.05	1	30.6	1	0.0	1	null	6	null	6	497.83	1	1006.92	1	40.593575	17.116091
2507	2024-04-14 10:00:00	25	massafra	28.16	1	24.41	1	0.0	1	null	6	null	6	667.74	1	1006.83	1	40.593575	17.116091
2508	2024-04-14 11:00:00	25	massafra	30.04	1	23.08	1	0.0	1	null	6	null	6	797.42	1	1006.64	1	40.593575	17.116091
2509	2024-04-14 12:00:00	25	massafra	31.15	1	23.14	1	0.0	1	null	6	null	6	847.2	1	1006.25	1	40.593575	17.116091
2510	2024-04-14 13:00:00	25	massafra	31.22	1	23.16	1	0.0	1	null	6	null	6	833.49	1	1005.98	1	40.593575	17.116091
2511	2024-04-14 14:00:00	25	massafra	31.3	1	22.68	1	0.0	1	null	6	null	6	768.56	1	1005.33	1	40.593575	17.116091
2512	2024-04-14 15:00:00	25	massafra	30.65	1	22.45	1	0.0	1	null	6	null	6	612.17	1	1004.79	1	40.593575	17.116091
2513	2024-04-14 16:00:00	25	massafra	30.34	1	22.46	1	0.0	1	null	6	null	6	462.8	1	1004.48	1	40.593575	17.116091
2514	2024-04-14 17:00:00	25	massafra	29.8	1	23.75	1	0.0	1	null	6	null	6	290.3	1	1004.37	1	40.593575	17.116091
2515	2024-04-14 18:00:00	25	massafra	27.33	1	26.09	1	0.0	1	null	6	null	6	76.12	1	1004.39	1	40.593575	17.116091
2516	2024-04-14 19:00:00	25	massafra	24.86	1	30.28	1	0.0	1	null	6	null	6	0.0	5	1004.39	1	40.593575	17.116091
2517	2024-04-14 20:00:00	25	massafra	22.46	1	35.65	1	0.0	1	null	6	null	6	0.0	1	1005.02	1	40.593575	17.116091
2518	2024-04-14 21:00:00	25	massafra	21.57	1	36.24	1	0.0	1	null	6	null	6	0.0	1	1005.28	1	40.593575	17.116091
2519	2024-04-14 22:00:00	25	massafra	20.72	1	39.82	1	0.0	1	null	6	null	6	0.0	1	1005.3	1	40.593575	17.116091
2520	2024-04-14 23:00:00	25	massafra	20.16	1	37.2	1	0.0	1	null	6	null	6	0.0	1	1004.92	1	40.593575	17.116091
2521	2024-04-15 00:00:00	25	massafra	19.69	1	34.38	1	0.0	1	null	6	null	6	0.0	1	1004.32	1	40.593575	17.116091
2522	2024-04-15 01:00:00	25	massafra	18.84	1	35.72	1	0.0	1	null	6	null	6	0.0	1	1003.99	1	40.593575	17.116091
2523	2024-04-15 02:00:00	25	massafra	18.11	1	36.59	1	0.0	1	null	6	null	6	0.0	1	1003.5	1	40.593575	17.116091
2524	2024-04-15 03:00:00	25	massafra	17.73	1	36.41	1	0.0	1	null	6	null	6	0.0	1	1003.18	1	40.593575	17.116091
2525	2024-04-15 04:00:00	25	massafra	17.49	1	38.09	1	0.0	1	null	6	null	6	0.0	1	1002.74	1	40.593575	17.116091
2526	2024-04-15 05:00:00	25	massafra	17.75	1	40.62	1	0.0	1	null	6	null	6	0.0	1	1002.34	1	40.593575	17.116091
2527	2024-04-15 06:00:00	25	massafra	17.71	1	44.82	1	0.0	1	null	6	null	6	20.37	1	1002.22	1	40.593575	17.116091
2528	2024-04-15 07:00:00	25	massafra	19.29	1	48.01	1	0.0	1	null	6	null	6	116.52	1	1002.36	1	40.593575	17.116091
2529	2024-04-15 08:00:00	25	massafra	20.42	1	46.57	1	0.0	1	null	6	null	6	175.55	1	1002.63	1	40.593575	17.116091
2530	2024-04-15 09:00:00	25	massafra	23.29	1	36.18	1	0.0	1	null	6	null	6	409.02	1	1002.44	1	40.593575	17.116091
2531	2024-04-15 10:00:00	25	massafra	26.93	1	29.21	1	0.0	1	null	6	null	6	606.67	1	1002.25	1	40.593575	17.116091
2532	2024-04-15 11:00:00	25	massafra	28.5	1	25.96	1	0.0	1	null	6	null	6	764.3	1	1001.84	1	40.593575	17.116091
2533	2024-04-15 12:00:00	25	massafra	29.35	1	24.13	1	0.0	1	null	6	null	6	609.17	1	1000.78	1	40.593575	17.116091
2534	2024-04-15 13:00:00	25	massafra	27.84	1	25.53	1	0.0	1	null	6	null	6	458.52	1	1000.14	1	40.593575	17.116091
2535	2024-04-15 14:00:00	25	massafra	26.51	1	28.32	1	0.0	1	null	6	null	6	461.1	1	1000.27	1	40.593575	17.116091
2536	2024-04-15 15:00:00	25	massafra	27.05	1	29.29	1	0.0	1	null	6	null	6	508.75	1	999.34	1	40.593575	17.116091
2537	2024-04-15 16:00:00	25	massafra	27.1	1	28.08	1	0.0	1	null	6	null	6	371.13	1	998.6	1	40.593575	17.116091
2538	2024-04-15 17:00:00	25	massafra	25.13	1	36.44	1	0.0	1	null	6	null	6	185.92	1	998.15	1	40.593575	17.116091
2539	2024-04-15 18:00:00	25	massafra	23.74	1	42.89	1	0.0	1	null	6	null	6	69.87	1	998.15	1	40.593575	17.116091
2540	2024-04-15 19:00:00	25	massafra	22.51	1	44.97	1	0.0	1	null	6	null	6	0.0	5	997.94	1	40.593575	17.116091
2541	2024-04-15 20:00:00	25	massafra	21.48	1	46.84	1	0.0	1	null	6	null	6	0.0	1	997.85	1	40.593575	17.116091
2542	2024-04-15 21:00:00	25	massafra	20.66	1	48.57	1	0.0	1	null	6	null	6	0.0	1	997.63	1	40.593575	17.116091
2543	2024-04-15 22:00:00	25	massafra	20.76	1	46.53	1	0.0	1	null	6	null	6	0.0	1	996.8	1	40.593575	17.116091
2544	2024-04-15 23:00:00	25	massafra	20.57	1	50.52	1	0.0	1	null	6	null	6	0.0	1	996.53	1	40.593575	17.116091
2545	2024-04-16 00:00:00	25	massafra	19.1	1	62.53	1	0.0	1	null	6	null	6	0.0	1	996.16	1	40.593575	17.116091
2546	2024-04-16 01:00:00	25	massafra	19.23	1	62.87	1	0.0	1	null	6	null	6	0.0	1	995.41	1	40.593575	17.116091
2547	2024-04-16 02:00:00	25	massafra	19.63	1	56.8	1	0.0	1	null	6	null	6	0.0	1	994.31	1	40.593575	17.116091
2548	2024-04-16 03:00:00	25	massafra	19.65	1	54.75	1	0.0	1	null	6	null	6	0.0	1	993.59	1	40.593575	17.116091
2549	2024-04-16 04:00:00	25	massafra	19.78	1	50.02	1	0.0	1	null	6	null	6	0.0	1	992.95	1	40.593575	17.116091
2550	2024-04-16 05:00:00	25	massafra	19.95	1	44.86	1	0.0	1	null	6	null	6	0.0	1	992.2	1	40.593575	17.116091
2551	2024-04-16 06:00:00	25	massafra	20.38	1	41.26	1	0.0	1	null	6	null	6	8.1	1	992.05	1	40.593575	17.116091
2552	2024-04-16 07:00:00	25	massafra	20.18	1	52.26	1	0.0	1	null	6	null	6	57.87	1	991.74	1	40.593575	17.116091
2553	2024-04-16 08:00:00	25	massafra	21.2	1	53.22	1	0.0	1	null	6	null	6	198.18	1	991.39	1	40.593575	17.116091
2554	2024-04-16 09:00:00	25	massafra	22.41	1	51.58	1	0.0	1	null	6	null	6	284.18	1	991.27	1	40.593575	17.116091
2555	2024-04-16 10:00:00	25	massafra	23.27	1	48.46	1	0.0	1	null	6	null	6	209.54	1	990.92	1	40.593575	17.116091
2556	2024-04-16 11:00:00	25	massafra	23.95	1	47.83	1	0.0	1	null	6	null	6	404.15	1	990.77	1	40.593575	17.116091
2557	2024-04-16 12:00:00	25	massafra	24.8	1	44.35	1	0.0	1	null	6	null	6	493.57	1	990.6	1	40.593575	17.116091
2558	2024-04-16 13:00:00	25	massafra	24.57	1	42.83	1	0.0	1	null	6	null	6	220.91	1	990.5	1	40.593575	17.116091
2559	2024-04-16 14:00:00	25	massafra	22.61	1	49.03	1	0.0	1	null	6	null	6	131.15	1	990.62	1	40.593575	17.116091
2560	2024-04-16 15:00:00	25	massafra	20.12	1	61.56	1	0.4	1	null	6	null	6	48.27	1	990.96	1	40.593575	17.116091
2561	2024-04-16 16:00:00	25	massafra	18.15	1	76.02	1	0.2	1	null	6	null	6	88.56	1	989.47	1	40.593575	17.116091
2562	2024-04-16 17:00:00	25	massafra	18.65	1	65.03	1	0.0	1	null	6	null	6	53.32	1	988.59	1	40.593575	17.116091
2563	2024-04-16 18:00:00	25	massafra	18.16	1	68.55	1	0.6	1	null	6	null	6	7.92	1	988.45	1	40.593575	17.116091
2564	2024-04-16 19:00:00	25	massafra	16.46	1	82.16	1	4.4	1	null	6	null	6	0.0	1	988.29	1	40.593575	17.116091
2565	2024-04-16 20:00:00	25	massafra	16.19	1	89.76	1	1.4	1	null	6	null	6	0.0	1	988.06	1	40.593575	17.116091
2566	2024-04-16 21:00:00	25	massafra	16.36	1	93.12	1	0.6	1	null	6	null	6	0.0	1	987.9	1	40.593575	17.116091
2567	2024-04-16 22:00:00	25	massafra	16.14	1	94.04	1	0.0	1	null	6	null	6	0.0	1	987.73	1	40.593575	17.116091
2568	2024-04-16 23:00:00	25	massafra	16.18	1	93.33	1	0.0	1	null	6	null	6	0.0	1	987.41	1	40.593575	17.116091
2569	2024-04-17 00:00:00	25	massafra	16.23	1	91.67	1	0.0	1	null	6	null	6	0.0	1	986.6	1	40.593575	17.116091
2570	2024-04-17 01:00:00	25	massafra	16.34	1	89.21	1	0.0	1	null	6	null	6	0.0	1	985.84	1	40.593575	17.116091
2571	2024-04-17 02:00:00	25	massafra	16.32	1	88.06	1	0.0	1	null	6	null	6	0.0	1	984.73	1	40.593575	17.116091
2572	2024-04-17 03:00:00	25	massafra	16.18	1	89.17	1	0.0	1	null	6	null	6	0.0	1	983.95	1	40.593575	17.116091
2573	2024-04-17 04:00:00	25	massafra	15.62	1	90.21	1	0.0	1	null	6	null	6	0.0	1	983.46	1	40.593575	17.116091
2574	2024-04-17 05:00:00	25	massafra	15.18	1	91.1	1	0.0	1	null	6	null	6	0.0	1	983.18	1	40.593575	17.116091
2575	2024-04-17 06:00:00	25	massafra	15.58	1	89.79	1	0.2	1	null	6	null	6	0.0	5	983.3	1	40.593575	17.116091
2576	2024-04-17 07:00:00	25	massafra	15.4	1	82.46	1	0.0	1	null	6	null	6	48.8	1	983.8	1	40.593575	17.116091
2577	2024-04-17 08:00:00	25	massafra	16.01	1	65.52	1	0.0	1	null	6	null	6	133.5	1	983.93	1	40.593575	17.116091
2578	2024-04-17 09:00:00	25	massafra	17.26	1	53.92	1	0.0	1	null	6	null	6	399.68	1	984.13	1	40.593575	17.116091
2579	2024-04-17 10:00:00	25	massafra	20.39	1	40.01	1	0.0	1	null	6	null	6	698.05	1	984.03	1	40.593575	17.116091
2580	2024-04-17 11:00:00	25	massafra	20.2	1	37.74	1	0.0	1	null	6	null	6	408.08	1	984.36	1	40.593575	17.116091
2581	2024-04-17 12:00:00	25	massafra	19.31	1	40.19	1	0.0	1	null	6	null	6	221.89	1	984.52	1	40.593575	17.116091
2582	2024-04-17 13:00:00	25	massafra	18.61	1	44.29	1	0.0	1	null	6	null	6	281.04	1	984.55	1	40.593575	17.116091
2583	2024-04-17 14:00:00	25	massafra	19.89	1	40.09	1	0.0	1	null	6	null	6	227.95	1	984.4	1	40.593575	17.116091
2584	2024-04-17 15:00:00	25	massafra	16.46	1	65.55	1	1.2	1	null	6	null	6	44.76	1	985.09	1	40.593575	17.116091
2585	2024-04-17 16:00:00	25	massafra	14.78	1	77.34	1	0.6	1	null	6	null	6	113.41	1	985.16	1	40.593575	17.116091
2586	2024-04-17 17:00:00	25	massafra	15.02	1	78.65	1	0.8	1	null	6	null	6	37.42	1	985.75	1	40.593575	17.116091
2587	2024-04-17 18:00:00	25	massafra	13.53	1	83.36	1	1.4	1	null	6	null	6	17.99	1	986.43	1	40.593575	17.116091
2588	2024-04-17 19:00:00	25	massafra	12.67	1	76.04	1	0.2	1	null	6	null	6	0.0	5	987.26	1	40.593575	17.116091
2589	2024-04-17 20:00:00	25	massafra	11.57	1	63.9	1	0.0	1	null	6	null	6	0.0	1	988.09	1	40.593575	17.116091
2590	2024-04-17 21:00:00	25	massafra	11.11	1	66.17	1	0.2	1	null	6	null	6	0.0	1	988.65	1	40.593575	17.116091
2591	2024-04-17 22:00:00	25	massafra	10.91	1	66.16	1	0.0	1	null	6	null	6	0.0	1	988.72	1	40.593575	17.116091
2592	2024-04-17 23:00:00	25	massafra	10.32	1	66.81	1	0.0	1	null	6	null	6	0.0	1	988.59	1	40.593575	17.116091
2593	2024-04-18 00:00:00	25	massafra	9.81	1	66.7	1	0.0	1	null	6	null	6	0.0	1	989.12	1	40.593575	17.116091
2594	2024-04-18 01:00:00	25	massafra	8.98	1	70.3	1	0.0	1	null	6	null	6	0.0	1	989.15	1	40.593575	17.116091
2595	2024-04-18 02:00:00	25	massafra	8.98	1	67.83	1	0.0	1	null	6	null	6	0.0	1	989.21	1	40.593575	17.116091
2596	2024-04-18 03:00:00	25	massafra	8.79	1	69.07	1	0.0	1	null	6	null	6	0.0	1	989.2	1	40.593575	17.116091
2597	2024-04-18 04:00:00	25	massafra	8.32	1	72.55	1	0.0	1	null	6	null	6	0.0	1	989.14	1	40.593575	17.116091
2598	2024-04-18 05:00:00	25	massafra	8.57	1	70.88	1	0.0	1	null	6	null	6	0.0	1	989.14	1	40.593575	17.116091
2599	2024-04-18 06:00:00	25	massafra	8.44	1	69.63	1	0.0	1	null	6	null	6	10.79	1	989.68	1	40.593575	17.116091
2600	2024-04-18 07:00:00	25	massafra	10.67	1	63.59	1	0.0	1	null	6	null	6	200.17	1	990.13	1	40.593575	17.116091
2601	2024-04-18 08:00:00	25	massafra	13.91	1	53.35	1	0.0	1	null	6	null	6	236.63	1	990.29	1	40.593575	17.116091
2602	2024-04-18 09:00:00	25	massafra	16.54	1	47.52	1	0.0	1	null	6	null	6	566.86	1	990.41	1	40.593575	17.116091
2603	2024-04-18 10:00:00	25	massafra	18.57	1	35.19	1	0.0	1	null	6	null	6	627.6	1	990.53	1	40.593575	17.116091
2604	2024-04-18 11:00:00	25	massafra	19.13	1	34.08	1	0.0	1	null	6	null	6	646.93	1	990.64	1	40.593575	17.116091
2605	2024-04-18 12:00:00	25	massafra	20.11	1	31.53	1	0.0	1	null	6	null	6	758.59	1	990.41	1	40.593575	17.116091
2606	2024-04-18 13:00:00	25	massafra	18.28	1	37.34	1	0.0	1	null	6	null	6	426.54	1	990.73	1	40.593575	17.116091
2607	2024-04-18 14:00:00	25	massafra	17.01	1	42.98	1	0.0	1	null	6	null	6	335.28	1	990.89	1	40.593575	17.116091
2608	2024-04-18 15:00:00	25	massafra	14.74	1	49.88	1	0.0	1	null	6	null	6	179.91	1	991.64	1	40.593575	17.116091
2609	2024-04-18 16:00:00	25	massafra	15.39	1	45.63	1	0.0	1	null	6	null	6	309.74	1	991.43	1	40.593575	17.116091
2610	2024-04-18 17:00:00	25	massafra	14.39	1	48.18	1	0.0	1	null	6	null	6	63.26	1	991.76	1	40.593575	17.116091
2611	2024-04-18 18:00:00	25	massafra	13.38	1	58.66	1	0.0	1	null	6	null	6	50.23	1	992.23	1	40.593575	17.116091
2612	2024-04-18 19:00:00	25	massafra	12.58	1	64.99	1	0.0	1	null	6	null	6	8.36	1	992.51	1	40.593575	17.116091
2613	2024-04-18 20:00:00	25	massafra	11.46	1	69.9	1	0.0	1	null	6	null	6	0.0	1	993.11	1	40.593575	17.116091
2614	2024-04-18 21:00:00	25	massafra	10.56	1	71.59	1	0.0	1	null	6	null	6	0.0	1	993.66	1	40.593575	17.116091
2615	2024-04-18 22:00:00	25	massafra	10.78	1	67.97	1	0.0	1	null	6	null	6	0.0	1	993.74	1	40.593575	17.116091
2616	2024-04-18 23:00:00	25	massafra	10.86	1	65.54	1	0.0	1	null	6	null	6	0.0	1	993.58	1	40.593575	17.116091
2617	2024-04-19 00:00:00	25	massafra	10.05	1	67.04	1	0.0	1	null	6	null	6	0.0	1	993.6	1	40.593575	17.116091
2618	2024-04-19 01:00:00	25	massafra	9.77	1	69.05	1	0.0	1	null	6	null	6	0.0	1	993.2	1	40.593575	17.116091
2619	2024-04-19 02:00:00	25	massafra	10.18	1	68.73	1	0.0	1	null	6	null	6	0.0	1	992.93	1	40.593575	17.116091
2620	2024-04-19 03:00:00	25	massafra	10.59	1	69.8	1	0.0	1	null	6	null	6	0.0	1	992.37	1	40.593575	17.116091
2621	2024-04-19 04:00:00	25	massafra	11.0	1	70.77	1	0.0	1	null	6	null	6	0.0	1	991.88	1	40.593575	17.116091
2622	2024-04-19 05:00:00	25	massafra	11.47	1	69.76	1	0.0	1	null	6	null	6	0.0	1	991.72	1	40.593575	17.116091
2623	2024-04-19 06:00:00	25	massafra	11.72	1	69.32	1	0.0	1	null	6	null	6	0.0	1	991.91	1	40.593575	17.116091
2624	2024-04-19 07:00:00	25	massafra	10.39	1	78.67	1	2.4	1	null	6	null	6	21.68	1	992.23	1	40.593575	17.116091
2625	2024-04-19 08:00:00	25	massafra	9.94	1	82.6	1	0.6	1	null	6	null	6	34.09	1	992.18	1	40.593575	17.116091
2626	2024-04-19 09:00:00	25	massafra	10.33	1	83.89	1	1.6	1	null	6	null	6	115.59	1	992.64	1	40.593575	17.116091
2627	2024-04-19 10:00:00	25	massafra	10.84	1	85.21	1	0.0	1	null	6	null	6	215.96	1	992.39	1	40.593575	17.116091
2628	2024-04-19 11:00:00	25	massafra	11.66	1	77.55	1	0.2	1	null	6	null	6	157.21	1	992.25	1	40.593575	17.116091
2629	2024-04-19 12:00:00	25	massafra	11.4	1	74.96	1	0.2	1	null	6	null	6	76.48	1	992.23	1	40.593575	17.116091
2630	2024-04-19 13:00:00	25	massafra	10.78	1	76.57	1	0.2	1	null	6	null	6	130.94	1	991.91	1	40.593575	17.116091
2631	2024-04-19 14:00:00	25	massafra	12.71	1	68.98	1	0.0	1	null	6	null	6	388.01	1	991.25	1	40.593575	17.116091
2632	2024-04-19 15:00:00	25	massafra	14.03	1	54.95	1	0.0	1	null	6	null	6	346.59	1	991.08	1	40.593575	17.116091
2633	2024-04-19 16:00:00	25	massafra	14.22	1	54.02	1	0.0	1	null	6	null	6	304.02	1	991.44	1	40.593575	17.116091
2634	2024-04-19 17:00:00	25	massafra	13.09	1	64.21	1	0.4	1	null	6	null	6	120.51	1	992.0	1	40.593575	17.116091
2635	2024-04-19 18:00:00	25	massafra	12.46	1	60.9	1	0.0	1	null	6	null	6	91.68	1	992.39	1	40.593575	17.116091
2636	2024-04-19 19:00:00	25	massafra	12.13	1	58.53	1	0.0	1	null	6	null	6	6.49	1	992.88	1	40.593575	17.116091
2637	2024-04-19 20:00:00	25	massafra	11.4	1	56.92	1	0.0	1	null	6	null	6	0.0	1	993.75	1	40.593575	17.116091
2638	2024-04-19 21:00:00	25	massafra	10.67	1	56.75	1	0.0	1	null	6	null	6	0.0	1	994.13	1	40.593575	17.116091
2639	2024-04-19 22:00:00	25	massafra	9.67	1	58.33	1	0.0	1	null	6	null	6	0.0	1	994.44	1	40.593575	17.116091
2640	2024-04-19 23:00:00	25	massafra	9.57	1	55.62	1	0.0	1	null	6	null	6	0.0	1	994.62	1	40.593575	17.116091
2641	2024-04-20 00:00:00	25	massafra	8.4	1	59.16	1	0.0	1	null	6	null	6	0.0	1	994.53	1	40.593575	17.116091
2642	2024-04-20 01:00:00	25	massafra	8.04	1	58.2	1	0.0	1	null	6	null	6	0.0	1	994.14	1	40.593575	17.116091
2643	2024-04-20 02:00:00	25	massafra	7.53	1	61.98	1	0.0	1	null	6	null	6	0.0	1	993.71	1	40.593575	17.116091
2644	2024-04-20 03:00:00	25	massafra	8.0	1	59.71	1	0.0	1	null	6	null	6	0.0	1	993.46	1	40.593575	17.116091
2645	2024-04-20 04:00:00	25	massafra	7.6	1	58.91	1	0.0	1	null	6	null	6	0.0	1	993.39	1	40.593575	17.116091
2646	2024-04-20 05:00:00	25	massafra	6.28	1	63.93	1	0.0	1	null	6	null	6	0.0	1	993.35	1	40.593575	17.116091
2647	2024-04-20 06:00:00	25	massafra	6.16	1	61.05	1	0.0	1	null	6	null	6	15.2	1	993.27	1	40.593575	17.116091
2648	2024-04-20 07:00:00	25	massafra	10.05	1	47.63	1	0.0	1	null	6	null	6	206.77	1	993.4	1	40.593575	17.116091
2649	2024-04-20 08:00:00	25	massafra	13.74	1	37.15	1	0.0	1	null	6	null	6	265.01	1	993.29	1	40.593575	17.116091
2650	2024-04-20 09:00:00	25	massafra	15.69	1	36.65	1	0.0	1	null	6	null	6	581.49	1	993.09	1	40.593575	17.116091
2651	2024-04-20 10:00:00	25	massafra	17.92	1	35.65	1	0.0	1	null	6	null	6	736.56	1	993.07	1	40.593575	17.116091
2652	2024-04-20 11:00:00	25	massafra	18.66	1	34.49	1	0.0	1	null	6	null	6	720.04	1	993.07	1	40.593575	17.116091
2653	2024-04-20 12:00:00	25	massafra	19.99	1	32.31	1	0.0	1	null	6	null	6	919.56	1	992.59	1	40.593575	17.116091
2654	2024-04-20 13:00:00	25	massafra	19.54	1	33.58	1	0.0	1	null	6	null	6	467.43	1	992.47	1	40.593575	17.116091
2655	2024-04-20 14:00:00	25	massafra	18.91	1	30.54	1	0.0	1	null	6	null	6	302.13	1	992.33	1	40.593575	17.116091
2656	2024-04-20 15:00:00	25	massafra	18.94	1	29.55	1	0.0	1	null	6	null	6	176.59	1	991.87	1	40.593575	17.116091
2657	2024-04-20 16:00:00	25	massafra	17.32	1	39.5	1	0.0	1	null	6	null	6	52.8	1	991.76	1	40.593575	17.116091
2658	2024-04-20 17:00:00	25	massafra	16.2	1	48.22	1	0.0	1	null	6	null	6	57.52	1	991.67	1	40.593575	17.116091
2659	2024-04-20 18:00:00	25	massafra	13.82	1	66.3	1	0.2	1	null	6	null	6	43.59	1	991.55	1	40.593575	17.116091
2660	2024-04-20 19:00:00	25	massafra	13.32	1	69.57	1	0.0	1	null	6	null	6	6.9	1	991.47	1	40.593575	17.116091
2661	2024-04-20 20:00:00	25	massafra	13.01	1	68.37	1	0.0	1	null	6	null	6	0.0	1	991.9	1	40.593575	17.116091
2662	2024-04-20 21:00:00	25	massafra	12.53	1	65.31	1	0.0	1	null	6	null	6	0.0	1	992.28	1	40.593575	17.116091
2663	2024-04-20 22:00:00	25	massafra	11.23	1	67.53	1	0.0	1	null	6	null	6	0.0	1	992.05	1	40.593575	17.116091
2664	2024-04-20 23:00:00	25	massafra	11.17	1	66.7	1	0.0	1	null	6	null	6	0.0	1	991.99	1	40.593575	17.116091
2665	2024-04-21 00:00:00	25	massafra	11.97	1	64.99	1	0.0	1	null	6	null	6	0.0	1	991.73	1	40.593575	17.116091
2666	2024-04-21 01:00:00	25	massafra	12.55	1	66.56	1	0.0	1	null	6	null	6	0.0	1	991.14	1	40.593575	17.116091
2667	2024-04-21 02:00:00	25	massafra	12.4	1	67.89	1	0.0	1	null	6	null	6	0.0	1	990.65	1	40.593575	17.116091
2668	2024-04-21 03:00:00	25	massafra	11.82	1	66.26	1	0.0	1	null	6	null	6	0.0	1	990.53	1	40.593575	17.116091
2669	2024-04-21 04:00:00	25	massafra	11.32	1	64.85	1	0.0	1	null	6	null	6	0.0	1	990.53	1	40.593575	17.116091
2670	2024-04-21 05:00:00	25	massafra	11.18	1	63.94	1	0.0	1	null	6	null	6	0.0	1	990.33	1	40.593575	17.116091
2671	2024-04-21 06:00:00	25	massafra	10.52	1	68.03	1	0.0	1	null	6	null	6	8.94	1	990.24	1	40.593575	17.116091
2672	2024-04-21 07:00:00	25	massafra	10.52	1	68.02	1	0.0	1	null	6	null	6	154.09	1	990.55	1	40.593575	17.116091
2673	2024-04-21 08:00:00	25	massafra	13.06	1	54.82	1	0.0	1	null	6	null	6	256.3	1	991.01	1	40.593575	17.116091
2674	2024-04-21 09:00:00	25	massafra	14.45	1	47.41	1	0.0	1	null	6	null	6	504.51	1	991.25	1	40.593575	17.116091
2675	2024-04-21 10:00:00	25	massafra	15.6	1	42.95	1	0.0	1	null	6	null	6	733.02	1	991.5	1	40.593575	17.116091
2676	2024-04-21 11:00:00	25	massafra	16.26	1	40.79	1	0.0	1	null	6	null	6	793.54	1	992.09	1	40.593575	17.116091
2677	2024-04-21 12:00:00	25	massafra	15.89	1	44.86	1	0.0	1	null	6	null	6	750.9	1	992.49	1	40.593575	17.116091
2678	2024-04-21 13:00:00	25	massafra	16.41	1	43.78	1	0.0	1	null	6	null	6	722.31	1	992.98	1	40.593575	17.116091
2679	2024-04-21 14:00:00	25	massafra	16.08	1	44.38	1	0.0	1	null	6	null	6	607.51	1	993.77	1	40.593575	17.116091
2680	2024-04-21 15:00:00	25	massafra	16.79	1	39.66	1	0.0	1	null	6	null	6	687.28	1	994.14	1	40.593575	17.116091
2681	2024-04-21 16:00:00	25	massafra	16.73	1	41.09	1	0.0	1	null	6	null	6	526.04	1	994.45	1	40.593575	17.116091
2682	2024-04-21 17:00:00	25	massafra	16.24	1	43.79	1	0.0	1	null	6	null	6	323.56	1	994.66	1	40.593575	17.116091
2683	2024-04-21 18:00:00	25	massafra	15.07	1	44.6	1	0.0	1	null	6	null	6	134.89	1	995.36	1	40.593575	17.116091
2684	2024-04-21 19:00:00	25	massafra	13.42	1	49.08	1	0.0	1	null	6	null	6	6.5	1	996.14	1	40.593575	17.116091
2685	2024-04-21 20:00:00	25	massafra	12.05	1	54.62	1	0.0	1	null	6	null	6	0.0	1	996.69	1	40.593575	17.116091
2686	2024-04-21 21:00:00	25	massafra	11.09	1	58.43	1	0.0	1	null	6	null	6	0.0	1	997.43	1	40.593575	17.116091
2687	2024-04-21 22:00:00	25	massafra	10.59	1	61.28	1	0.0	1	null	6	null	6	0.0	1	998.14	1	40.593575	17.116091
2688	2024-04-21 23:00:00	25	massafra	10.2	1	62.95	1	0.0	1	null	6	null	6	0.0	1	998.35	1	40.593575	17.116091
2689	2024-04-22 00:00:00	25	massafra	9.6	1	65.1	1	0.0	1	null	6	null	6	0.0	1	998.55	1	40.593575	17.116091
2690	2024-04-22 01:00:00	25	massafra	9.09	1	66.52	1	0.0	1	null	6	null	6	0.0	1	998.39	1	40.593575	17.116091
2691	2024-04-22 02:00:00	25	massafra	8.85	1	66.56	1	0.0	1	null	6	null	6	0.0	1	998.01	1	40.593575	17.116091
2692	2024-04-22 03:00:00	25	massafra	8.7	1	65.27	1	0.0	1	null	6	null	6	0.0	1	997.74	1	40.593575	17.116091
2693	2024-04-22 04:00:00	25	massafra	8.75	1	64.73	1	0.0	1	null	6	null	6	0.0	1	997.37	1	40.593575	17.116091
2694	2024-04-22 05:00:00	25	massafra	8.7	1	66.28	1	0.0	1	null	6	null	6	0.0	1	997.12	1	40.593575	17.116091
2695	2024-04-22 06:00:00	25	massafra	9.18	1	67.62	1	0.0	1	null	6	null	6	21.12	1	997.0	1	40.593575	17.116091
2696	2024-04-22 07:00:00	25	massafra	10.73	1	64.08	1	0.0	1	null	6	null	6	107.9	1	997.17	1	40.593575	17.116091
2697	2024-04-22 08:00:00	25	massafra	13.78	1	55.21	1	0.0	1	null	6	null	6	258.03	1	997.16	1	40.593575	17.116091
2698	2024-04-22 09:00:00	25	massafra	16.25	1	47.35	1	0.0	1	null	6	null	6	512.91	1	996.95	1	40.593575	17.116091
2699	2024-04-22 10:00:00	25	massafra	17.56	1	40.04	1	0.0	1	null	6	null	6	443.98	1	996.89	1	40.593575	17.116091
2700	2024-04-22 11:00:00	25	massafra	18.06	1	39.73	1	0.0	1	null	6	null	6	781.3	1	996.86	1	40.593575	17.116091
2701	2024-04-22 12:00:00	25	massafra	19.72	1	33.47	1	0.0	1	null	6	null	6	849.35	1	996.41	1	40.593575	17.116091
2702	2024-04-22 13:00:00	25	massafra	19.99	1	33.64	1	0.0	1	null	6	null	6	898.21	1	996.13	1	40.593575	17.116091
2703	2024-04-22 14:00:00	25	massafra	20.69	1	34.21	1	0.0	1	null	6	null	6	840.0	1	995.75	1	40.593575	17.116091
2704	2024-04-22 15:00:00	25	massafra	20.98	1	31.83	1	0.0	1	null	6	null	6	647.73	1	995.21	1	40.593575	17.116091
2705	2024-04-22 16:00:00	25	massafra	21.01	1	33.92	1	0.0	1	null	6	null	6	522.25	1	994.97	1	40.593575	17.116091
2706	2024-04-22 17:00:00	25	massafra	20.54	1	34.34	1	0.0	1	null	6	null	6	299.01	1	994.39	1	40.593575	17.116091
2707	2024-04-22 18:00:00	25	massafra	18.74	1	41.74	1	0.0	1	null	6	null	6	96.62	1	994.04	1	40.593575	17.116091
2708	2024-04-22 19:00:00	25	massafra	16.05	1	52.38	1	0.0	1	null	6	null	6	0.0	5	994.08	1	40.593575	17.116091
2709	2024-04-22 20:00:00	25	massafra	15.12	1	55.61	1	0.0	1	null	6	null	6	0.0	1	994.29	1	40.593575	17.116091
2710	2024-04-22 21:00:00	25	massafra	13.9	1	60.36	1	0.0	1	null	6	null	6	0.0	1	994.41	1	40.593575	17.116091
2711	2024-04-22 22:00:00	25	massafra	13.68	1	61.39	1	0.0	1	null	6	null	6	0.0	1	993.83	1	40.593575	17.116091
2712	2024-04-22 23:00:00	25	massafra	13.38	1	62.39	1	0.0	1	null	6	null	6	0.0	1	993.46	1	40.593575	17.116091
2713	2024-04-23 00:00:00	25	massafra	12.9	1	62.9	1	0.0	1	null	6	null	6	0.0	1	993.21	1	40.593575	17.116091
2714	2024-04-23 01:00:00	25	massafra	12.53	1	63.94	1	0.0	1	null	6	null	6	0.0	1	992.9	1	40.593575	17.116091
2715	2024-04-23 02:00:00	25	massafra	13.22	1	58.52	1	0.0	1	null	6	null	6	0.0	1	992.26	1	40.593575	17.116091
2716	2024-04-23 03:00:00	25	massafra	12.95	1	56.94	1	0.0	1	null	6	null	6	0.0	1	991.83	1	40.593575	17.116091
2717	2024-04-23 04:00:00	25	massafra	13.2	1	54.8	1	0.0	1	null	6	null	6	0.0	1	991.15	1	40.593575	17.116091
2718	2024-04-23 05:00:00	25	massafra	12.56	1	51.4	1	0.0	1	null	6	null	6	0.0	1	990.42	1	40.593575	17.116091
2719	2024-04-23 06:00:00	25	massafra	12.58	1	53.1	1	0.0	1	null	6	null	6	7.26	1	990.38	1	40.593575	17.116091
2720	2024-04-23 07:00:00	25	massafra	13.69	1	55.3	1	0.0	1	null	6	null	6	45.28	1	989.56	1	40.593575	17.116091
2721	2024-04-23 08:00:00	25	massafra	14.94	1	54.66	1	0.0	1	null	6	null	6	47.2	1	989.41	1	40.593575	17.116091
2722	2024-04-23 09:00:00	25	massafra	14.7	1	64.94	1	0.4	1	null	6	null	6	52.95	1	989.69	1	40.593575	17.116091
2723	2024-04-23 10:00:00	25	massafra	14.21	1	77.02	1	0.8	1	null	6	null	6	64.68	1	989.05	1	40.593575	17.116091
2724	2024-04-23 11:00:00	25	massafra	13.97	1	80.17	1	2.2	1	null	6	null	6	65.63	1	988.71	1	40.593575	17.116091
2725	2024-04-23 12:00:00	25	massafra	13.3	1	80.35	1	0.8	1	null	6	null	6	113.11	1	988.91	1	40.593575	17.116091
2726	2024-04-23 13:00:00	25	massafra	15.1	1	71.13	1	0.0	1	null	6	null	6	445.39	1	988.2	1	40.593575	17.116091
2727	2024-04-23 14:00:00	25	massafra	19.01	1	50.09	1	0.0	1	null	6	null	6	769.54	1	987.67	1	40.593575	17.116091
2728	2024-04-23 15:00:00	25	massafra	21.34	1	41.63	1	0.0	1	null	6	null	6	670.92	1	987.19	1	40.593575	17.116091
2729	2024-04-23 16:00:00	25	massafra	20.34	1	50.1	1	0.0	1	null	6	null	6	509.52	1	987.43	1	40.593575	17.116091
2730	2024-04-23 17:00:00	25	massafra	18.7	1	54.83	1	0.0	1	null	6	null	6	182.12	1	988.05	1	40.593575	17.116091
2731	2024-04-23 18:00:00	25	massafra	16.49	1	65.55	1	0.0	1	null	6	null	6	38.54	1	988.67	1	40.593575	17.116091
2732	2024-04-23 19:00:00	25	massafra	15.7	1	68.12	1	0.0	1	null	6	null	6	9.56	1	989.12	1	40.593575	17.116091
2733	2024-04-23 20:00:00	25	massafra	15.25	1	71.35	1	0.0	1	null	6	null	6	0.0	1	990.07	1	40.593575	17.116091
2734	2024-04-23 21:00:00	25	massafra	13.95	1	66.31	1	0.0	1	null	6	null	6	0.0	1	990.9	1	40.593575	17.116091
2735	2024-04-23 22:00:00	25	massafra	13.08	1	44.62	1	0.0	1	null	6	null	6	0.0	1	991.63	1	40.593575	17.116091
2736	2024-04-23 23:00:00	25	massafra	12.04	1	43.43	1	0.0	1	null	6	null	6	0.0	1	992.13	1	40.593575	17.116091
2737	2024-04-24 00:00:00	25	massafra	11.24	1	46.59	1	0.0	1	null	6	null	6	0.0	1	992.48	1	40.593575	17.116091
2738	2024-04-24 01:00:00	25	massafra	10.54	1	49.28	1	0.0	1	null	6	null	6	0.0	1	992.6	1	40.593575	17.116091
2739	2024-04-24 02:00:00	25	massafra	10.03	1	50.89	1	0.0	1	null	6	null	6	0.0	1	992.41	1	40.593575	17.116091
2740	2024-04-24 03:00:00	25	massafra	9.73	1	54.4	1	0.0	1	null	6	null	6	0.0	1	992.13	1	40.593575	17.116091
2741	2024-04-24 04:00:00	25	massafra	9.9	1	52.88	1	0.0	1	null	6	null	6	0.0	1	992.27	1	40.593575	17.116091
2742	2024-04-24 05:00:00	25	massafra	8.75	1	55.11	1	0.0	1	null	6	null	6	0.0	1	992.33	1	40.593575	17.116091
2743	2024-04-24 06:00:00	25	massafra	9.0	1	55.9	1	0.0	1	null	6	null	6	26.85	1	992.04	1	40.593575	17.116091
2744	2024-04-24 07:00:00	25	massafra	13.52	1	43.62	1	0.0	1	null	6	null	6	215.49	1	991.89	1	40.593575	17.116091
2745	2024-04-24 08:00:00	25	massafra	15.92	1	37.72	1	0.0	1	null	6	null	6	339.48	1	992.25	1	40.593575	17.116091
2746	2024-04-24 09:00:00	25	massafra	17.85	1	35.83	1	0.0	1	null	6	null	6	556.99	1	992.03	1	40.593575	17.116091
2747	2024-04-24 10:00:00	25	massafra	17.57	1	37.34	1	0.0	1	null	6	null	6	304.34	1	991.97	1	40.593575	17.116091
2748	2024-04-24 11:00:00	25	massafra	17.36	1	37.29	1	0.0	1	null	6	null	6	577.71	1	991.91	1	40.593575	17.116091
2749	2024-04-24 12:00:00	25	massafra	19.49	1	32.32	1	0.0	1	null	6	null	6	513.91	1	991.33	1	40.593575	17.116091
2750	2024-04-24 13:00:00	25	massafra	17.95	1	41.48	1	0.0	1	null	6	null	6	534.41	1	991.56	1	40.593575	17.116091
2751	2024-04-24 14:00:00	25	massafra	19.28	1	36.83	1	0.0	1	null	6	null	6	558.78	1	991.13	1	40.593575	17.116091
2752	2024-04-24 15:00:00	25	massafra	19.09	1	36.07	1	0.0	1	null	6	null	6	357.68	1	990.36	1	40.593575	17.116091
2753	2024-04-24 16:00:00	25	massafra	17.59	1	41.77	1	0.0	1	null	6	null	6	157.17	1	989.95	1	40.593575	17.116091
2754	2024-04-24 17:00:00	25	massafra	17.08	1	42.98	1	0.0	1	null	6	null	6	88.25	1	989.72	1	40.593575	17.116091
2755	2024-04-24 18:00:00	25	massafra	16.65	1	39.66	1	0.0	1	null	6	null	6	44.04	1	989.67	1	40.593575	17.116091
2756	2024-04-24 19:00:00	25	massafra	15.67	1	36.96	1	0.0	1	null	6	null	6	7.58	1	989.74	1	40.593575	17.116091
2757	2024-04-24 20:00:00	25	massafra	14.62	1	37.16	1	0.0	1	null	6	null	6	0.0	1	990.12	1	40.593575	17.116091
2758	2024-04-24 21:00:00	25	massafra	13.8	1	39.97	1	0.0	1	null	6	null	6	0.0	1	990.48	1	40.593575	17.116091
2759	2024-04-24 22:00:00	25	massafra	12.93	1	55.31	1	0.0	1	null	6	null	6	0.0	1	990.61	1	40.593575	17.116091
2760	2024-04-24 23:00:00	25	massafra	12.45	1	58.43	1	0.0	1	null	6	null	6	0.0	1	990.68	1	40.593575	17.116091
2761	2024-04-25 00:00:00	25	massafra	11.87	1	51.67	1	0.0	1	null	6	null	6	0.0	1	990.58	1	40.593575	17.116091
2762	2024-04-25 01:00:00	25	massafra	11.61	1	47.85	1	0.0	1	null	6	null	6	0.0	1	990.74	1	40.593575	17.116091
2763	2024-04-25 02:00:00	25	massafra	11.35	1	46.35	1	0.0	1	null	6	null	6	0.0	1	990.38	1	40.593575	17.116091
2764	2024-04-25 03:00:00	25	massafra	10.37	1	48.32	1	0.0	1	null	6	null	6	0.0	1	990.19	1	40.593575	17.116091
2765	2024-04-25 04:00:00	25	massafra	10.1	1	49.88	1	0.0	1	null	6	null	6	0.0	1	990.38	1	40.593575	17.116091
2766	2024-04-25 05:00:00	25	massafra	9.79	1	50.14	1	0.0	1	null	6	null	6	0.0	1	990.47	1	40.593575	17.116091
2767	2024-04-25 06:00:00	25	massafra	9.79	1	50.65	1	0.0	1	null	6	null	6	26.7	1	990.56	1	40.593575	17.116091
2768	2024-04-25 07:00:00	25	massafra	12.12	1	46.49	1	0.0	1	null	6	null	6	222.32	1	990.84	1	40.593575	17.116091
2769	2024-04-25 08:00:00	25	massafra	14.5	1	40.36	1	0.0	1	null	6	null	6	368.39	1	991.27	1	40.593575	17.116091
2770	2024-04-25 09:00:00	25	massafra	16.33	1	35.38	1	0.0	1	null	6	null	6	600.92	1	991.29	1	40.593575	17.116091
2771	2024-04-25 10:00:00	25	massafra	17.93	1	31.11	1	0.0	1	null	6	null	6	688.22	1	991.15	1	40.593575	17.116091
2772	2024-04-25 11:00:00	25	massafra	19.16	1	30.11	1	0.0	1	null	6	null	6	771.52	1	991.17	1	40.593575	17.116091
2773	2024-04-25 12:00:00	25	massafra	20.16	1	28.48	1	0.0	1	null	6	null	6	842.52	1	990.96	1	40.593575	17.116091
2774	2024-04-25 13:00:00	25	massafra	21.18	1	28.19	1	0.0	1	null	6	null	6	807.9	1	990.97	1	40.593575	17.116091
2775	2024-04-25 14:00:00	25	massafra	20.21	1	29.42	1	0.0	1	null	6	null	6	617.85	1	991.19	1	40.593575	17.116091
2776	2024-04-25 15:00:00	25	massafra	19.95	1	30.49	1	0.0	1	null	6	null	6	399.84	1	990.96	1	40.593575	17.116091
2777	2024-04-25 16:00:00	25	massafra	18.63	1	38.11	1	0.0	1	null	6	null	6	174.29	1	991.13	1	40.593575	17.116091
2778	2024-04-25 17:00:00	25	massafra	17.13	1	45.59	1	0.0	1	null	6	null	6	62.73	1	991.55	1	40.593575	17.116091
2779	2024-04-25 18:00:00	25	massafra	16.95	1	47.17	1	0.0	1	null	6	null	6	48.84	1	991.36	1	40.593575	17.116091
2780	2024-04-25 19:00:00	25	massafra	16.67	1	49.32	1	0.0	1	null	6	null	6	6.92	1	991.51	1	40.593575	17.116091
2781	2024-04-25 20:00:00	25	massafra	15.56	1	51.42	1	0.0	1	null	6	null	6	0.0	1	992.2	1	40.593575	17.116091
2782	2024-04-25 21:00:00	25	massafra	13.75	1	57.38	1	0.0	1	null	6	null	6	0.0	1	993.41	1	40.593575	17.116091
2783	2024-04-25 22:00:00	25	massafra	12.63	1	58.05	1	0.0	1	null	6	null	6	0.0	1	994.22	1	40.593575	17.116091
2784	2024-04-25 23:00:00	25	massafra	12.17	1	57.13	1	0.0	1	null	6	null	6	0.0	1	994.57	1	40.593575	17.116091
2785	2024-04-26 00:00:00	25	massafra	11.71	1	58.82	1	0.0	1	null	6	null	6	0.0	1	994.91	1	40.593575	17.116091
2786	2024-04-26 01:00:00	25	massafra	11.28	1	61.37	1	0.0	1	null	6	null	6	0.0	1	995.13	1	40.593575	17.116091
2787	2024-04-26 02:00:00	25	massafra	11.3	1	58.34	1	0.0	1	null	6	null	6	0.0	1	995.05	1	40.593575	17.116091
2788	2024-04-26 03:00:00	25	massafra	10.57	1	58.45	1	0.0	1	null	6	null	6	0.0	1	995.25	1	40.593575	17.116091
2789	2024-04-26 04:00:00	25	massafra	10.14	1	58.33	1	0.0	1	null	6	null	6	0.0	1	995.39	1	40.593575	17.116091
2790	2024-04-26 05:00:00	25	massafra	10.07	1	57.39	1	0.0	1	null	6	null	6	0.0	5	995.63	1	40.593575	17.116091
2791	2024-04-26 06:00:00	25	massafra	10.44	1	54.83	1	0.0	1	null	6	null	6	35.62	1	995.94	1	40.593575	17.116091
2792	2024-04-26 07:00:00	25	massafra	13.91	1	46.4	1	0.0	1	null	6	null	6	217.39	1	996.04	1	40.593575	17.116091
2793	2024-04-26 08:00:00	25	massafra	17.26	1	36.5	1	0.0	1	null	6	null	6	304.18	1	996.36	1	40.593575	17.116091
2794	2024-04-26 09:00:00	25	massafra	17.6	1	36.75	1	0.0	1	null	6	null	6	442.04	1	996.6	1	40.593575	17.116091
2795	2024-04-26 10:00:00	25	massafra	19.13	1	33.39	1	0.0	1	null	6	null	6	601.06	1	996.88	1	40.593575	17.116091
2796	2024-04-26 11:00:00	25	massafra	20.55	1	27.83	1	0.0	1	null	6	null	6	787.3	1	997.01	1	40.593575	17.116091
2797	2024-04-26 12:00:00	25	massafra	21.73	1	24.96	1	0.0	1	null	6	null	6	845.55	1	996.74	1	40.593575	17.116091
2798	2024-04-26 13:00:00	25	massafra	21.44	1	25.28	1	0.0	1	null	6	null	6	847.24	1	996.72	1	40.593575	17.116091
2799	2024-04-26 14:00:00	25	massafra	21.76	1	27.51	1	0.0	1	null	6	null	6	815.62	1	996.84	1	40.593575	17.116091
2800	2024-04-26 15:00:00	25	massafra	21.55	1	30.7	1	0.0	1	null	6	null	6	671.42	1	996.67	1	40.593575	17.116091
2801	2024-04-26 16:00:00	25	massafra	20.4	1	33.86	1	0.0	1	null	6	null	6	401.74	1	996.72	1	40.593575	17.116091
2802	2024-04-26 17:00:00	25	massafra	19.09	1	38.17	1	0.0	1	null	6	null	6	236.94	1	996.77	1	40.593575	17.116091
2803	2024-04-26 18:00:00	25	massafra	17.44	1	46.53	1	0.0	1	null	6	null	6	64.81	1	997.1	1	40.593575	17.116091
2804	2024-04-26 19:00:00	25	massafra	16.53	1	52.66	1	0.0	1	null	6	null	6	5.19	1	997.24	1	40.593575	17.116091
2805	2024-04-26 20:00:00	25	massafra	16.02	1	56.98	1	0.0	1	null	6	null	6	0.0	1	997.82	1	40.593575	17.116091
2806	2024-04-26 21:00:00	25	massafra	15.78	1	58.51	1	0.0	1	null	6	null	6	0.0	1	998.29	1	40.593575	17.116091
2807	2024-04-26 22:00:00	25	massafra	15.42	1	60.77	1	0.0	1	null	6	null	6	0.0	1	998.33	1	40.593575	17.116091
2808	2024-04-26 23:00:00	25	massafra	15.17	1	61.72	1	0.0	1	null	6	null	6	0.0	1	998.34	1	40.593575	17.116091
2809	2024-04-27 00:00:00	25	massafra	14.89	1	62.96	1	0.0	1	null	6	null	6	0.0	1	998.3	1	40.593575	17.116091
2810	2024-04-27 01:00:00	25	massafra	14.7	1	64.12	1	0.0	1	null	6	null	6	0.0	1	998.07	1	40.593575	17.116091
2811	2024-04-27 02:00:00	25	massafra	14.16	1	66.53	1	0.0	1	null	6	null	6	0.0	1	997.64	1	40.593575	17.116091
2812	2024-04-27 03:00:00	25	massafra	13.25	1	70.54	1	0.0	1	null	6	null	6	0.0	1	997.53	1	40.593575	17.116091
2813	2024-04-27 04:00:00	25	massafra	12.66	1	72.47	1	0.0	1	null	6	null	6	0.0	1	998.09	1	40.593575	17.116091
2814	2024-04-27 05:00:00	25	massafra	12.56	1	73.9	1	0.0	1	null	6	null	6	0.0	1	998.45	1	40.593575	17.116091
2815	2024-04-27 06:00:00	25	massafra	12.93	1	74.6	1	0.0	1	null	6	null	6	32.06	1	999.13	1	40.593575	17.116091
2816	2024-04-27 07:00:00	25	massafra	16.13	1	67.07	1	0.0	1	null	6	null	6	196.85	1	999.63	1	40.593575	17.116091
2817	2024-04-27 08:00:00	25	massafra	18.42	1	56.24	1	0.0	1	null	6	null	6	319.04	1	999.86	1	40.593575	17.116091
2818	2024-04-27 09:00:00	25	massafra	20.52	1	48.01	1	0.0	1	null	6	null	6	534.13	1	999.91	1	40.593575	17.116091
2819	2024-04-27 10:00:00	25	massafra	22.16	1	41.31	1	0.0	1	null	6	null	6	740.75	1	999.95	1	40.593575	17.116091
2820	2024-04-27 11:00:00	25	massafra	22.74	1	42.19	1	0.0	1	null	6	null	6	856.45	1	1000.06	1	40.593575	17.116091
2821	2024-04-27 12:00:00	25	massafra	23.02	1	41.24	1	0.0	1	null	6	null	6	856.19	1	999.99	1	40.593575	17.116091
2822	2024-04-27 13:00:00	25	massafra	23.02	1	40.55	1	0.0	1	null	6	null	6	875.28	1	999.92	1	40.593575	17.116091
2823	2024-04-27 14:00:00	25	massafra	22.91	1	40.43	1	0.0	1	null	6	null	6	825.62	1	999.98	1	40.593575	17.116091
2824	2024-04-27 15:00:00	25	massafra	23.02	1	40.57	1	0.0	1	null	6	null	6	671.4	1	999.87	1	40.593575	17.116091
2825	2024-04-27 16:00:00	25	massafra	22.85	1	37.84	1	0.0	1	null	6	null	6	505.59	1	999.8	1	40.593575	17.116091
2826	2024-04-27 17:00:00	25	massafra	22.94	1	33.05	1	0.0	1	null	6	null	6	331.25	1	999.78	1	40.593575	17.116091
2827	2024-04-27 18:00:00	25	massafra	21.63	1	34.44	1	0.0	1	null	6	null	6	140.66	1	999.98	1	40.593575	17.116091
2828	2024-04-27 19:00:00	25	massafra	18.62	1	44.8	1	0.0	1	null	6	null	6	7.42	1	1000.19	1	40.593575	17.116091
2829	2024-04-27 20:00:00	25	massafra	17.61	1	48.68	1	0.0	1	null	6	null	6	0.0	1	1000.68	1	40.593575	17.116091
2830	2024-04-27 21:00:00	25	massafra	16.3	1	51.74	1	0.0	1	null	6	null	6	0.0	1	1001.41	1	40.593575	17.116091
2831	2024-04-27 22:00:00	25	massafra	15.8	1	52.61	1	0.0	1	null	6	null	6	0.0	1	1001.75	1	40.593575	17.116091
2832	2024-04-27 23:00:00	25	massafra	15.38	1	52.45	1	0.0	1	null	6	null	6	0.0	1	1001.89	1	40.593575	17.116091
2833	2024-04-28 00:00:00	25	massafra	14.6	1	52.29	1	0.0	1	null	6	null	6	0.0	1	1001.95	1	40.593575	17.116091
2834	2024-04-28 01:00:00	25	massafra	14.18	1	49.23	1	0.0	1	null	6	null	6	0.0	1	1001.9	1	40.593575	17.116091
2835	2024-04-28 02:00:00	25	massafra	13.65	1	49.11	1	0.0	1	null	6	null	6	0.0	1	1001.61	1	40.593575	17.116091
2836	2024-04-28 03:00:00	25	massafra	13.49	1	50.88	1	0.0	1	null	6	null	6	0.0	1	1001.64	1	40.593575	17.116091
2837	2024-04-28 04:00:00	25	massafra	13.06	1	54.96	1	0.0	1	null	6	null	6	0.0	1	1001.55	1	40.593575	17.116091
2838	2024-04-28 05:00:00	25	massafra	12.78	1	57.78	1	0.0	1	null	6	null	6	0.0	1	1001.78	1	40.593575	17.116091
2839	2024-04-28 06:00:00	25	massafra	12.98	1	56.67	1	0.0	1	null	6	null	6	35.68	1	1002.25	1	40.593575	17.116091
2840	2024-04-28 07:00:00	25	massafra	16.75	1	49.54	1	0.0	1	null	6	null	6	216.76	1	1002.47	1	40.593575	17.116091
2841	2024-04-28 08:00:00	25	massafra	20.71	1	38.68	1	0.0	1	null	6	null	6	354.45	1	1002.4	1	40.593575	17.116091
2842	2024-04-28 09:00:00	25	massafra	23.59	1	30.48	1	0.0	1	null	6	null	6	587.63	1	1002.36	1	40.593575	17.116091
2843	2024-04-28 10:00:00	25	massafra	25.08	1	30.3	1	0.0	1	null	6	null	6	753.63	1	1002.33	1	40.593575	17.116091
2844	2024-04-28 11:00:00	25	massafra	26.01	1	26.8	1	0.0	1	null	6	null	6	861.98	1	1002.18	1	40.593575	17.116091
2845	2024-04-28 12:00:00	25	massafra	27.1	1	25.25	1	0.0	1	null	6	null	6	865.78	1	1001.97	1	40.593575	17.116091
2846	2024-04-28 13:00:00	25	massafra	27.46	1	24.27	1	0.0	1	null	6	null	6	887.17	1	1001.7	1	40.593575	17.116091
2847	2024-04-28 14:00:00	25	massafra	27.23	1	25.18	1	0.0	1	null	6	null	6	840.34	1	1001.64	1	40.593575	17.116091
2848	2024-04-28 15:00:00	25	massafra	27.32	1	22.0	1	0.0	1	null	6	null	6	689.97	1	1001.29	1	40.593575	17.116091
2849	2024-04-28 16:00:00	25	massafra	27.27	1	20.61	1	0.0	1	null	6	null	6	524.85	1	1001.11	1	40.593575	17.116091
2850	2024-04-28 17:00:00	25	massafra	26.78	1	21.42	1	0.0	1	null	6	null	6	347.66	1	1001.01	1	40.593575	17.116091
2851	2024-04-28 18:00:00	25	massafra	25.68	1	23.86	1	0.0	1	null	6	null	6	153.18	1	1000.84	1	40.593575	17.116091
2852	2024-04-28 19:00:00	25	massafra	22.86	1	27.85	1	0.0	1	null	6	null	6	5.35	1	1000.8	1	40.593575	17.116091
2853	2024-04-28 20:00:00	25	massafra	20.53	1	32.23	1	0.0	1	null	6	null	6	0.0	1	1001.27	1	40.593575	17.116091
2854	2024-04-28 21:00:00	25	massafra	18.84	1	38.32	1	0.0	1	null	6	null	6	0.0	1	1001.8	1	40.593575	17.116091
2855	2024-04-28 22:00:00	25	massafra	17.89	1	44.94	1	0.0	1	null	6	null	6	0.0	1	1001.85	1	40.593575	17.116091
2856	2024-04-28 23:00:00	25	massafra	17.28	1	47.39	1	0.0	1	null	6	null	6	0.0	1	1002.23	1	40.593575	17.116091
2857	2024-04-29 00:00:00	25	massafra	16.5	1	47.86	1	0.0	1	null	6	null	6	0.0	1	1002.44	1	40.593575	17.116091
2858	2024-04-29 01:00:00	25	massafra	16.04	1	47.75	1	0.0	1	null	6	null	6	0.0	1	1002.23	1	40.593575	17.116091
2859	2024-04-29 02:00:00	25	massafra	15.29	1	42.95	1	0.0	1	null	6	null	6	0.0	1	1002.09	1	40.593575	17.116091
2860	2024-04-29 03:00:00	25	massafra	14.89	1	41.0	1	0.0	1	null	6	null	6	0.0	1	1002.12	1	40.593575	17.116091
2861	2024-04-29 04:00:00	25	massafra	14.51	1	44.18	1	0.0	1	null	6	null	6	0.0	1	1002.11	1	40.593575	17.116091
2862	2024-04-29 05:00:00	25	massafra	14.61	1	45.52	1	0.0	1	null	6	null	6	0.0	5	1001.96	1	40.593575	17.116091
2863	2024-04-29 06:00:00	25	massafra	15.21	1	40.03	1	0.0	1	null	6	null	6	43.24	1	1002.08	1	40.593575	17.116091
2864	2024-04-29 07:00:00	25	massafra	19.95	1	32.81	1	0.0	1	null	6	null	6	213.68	1	1002.38	1	40.593575	17.116091
2865	2024-04-29 08:00:00	25	massafra	23.19	1	27.37	1	0.0	1	null	6	null	6	333.51	1	1002.43	1	40.593575	17.116091
2866	2024-04-29 09:00:00	25	massafra	25.27	1	25.86	1	0.0	1	null	6	null	6	575.04	1	1002.42	1	40.593575	17.116091
2867	2024-04-29 10:00:00	25	massafra	26.84	1	24.73	1	0.0	1	null	6	null	6	736.18	1	1002.4	1	40.593575	17.116091
2868	2024-04-29 11:00:00	25	massafra	28.39	1	24.25	1	0.0	1	null	6	null	6	832.39	1	1002.23	1	40.593575	17.116091
2869	2024-04-29 12:00:00	25	massafra	29.56	1	23.13	1	0.0	1	null	6	null	6	829.13	1	1002.08	1	40.593575	17.116091
2870	2024-04-29 13:00:00	25	massafra	28.53	1	25.0	1	0.0	1	null	6	null	6	844.82	1	1002.01	1	40.593575	17.116091
2871	2024-04-29 14:00:00	25	massafra	28.44	1	25.54	1	0.0	1	null	6	null	6	806.44	1	1001.89	1	40.593575	17.116091
2872	2024-04-29 15:00:00	25	massafra	28.19	1	25.21	1	0.0	1	null	6	null	6	660.91	1	1001.78	1	40.593575	17.116091
2873	2024-04-29 16:00:00	25	massafra	27.23	1	27.58	1	0.0	1	null	6	null	6	495.55	1	1001.56	1	40.593575	17.116091
2874	2024-04-29 17:00:00	25	massafra	26.88	1	27.01	1	0.0	1	null	6	null	6	319.78	1	1001.5	1	40.593575	17.116091
2875	2024-04-29 18:00:00	25	massafra	25.55	1	28.6	1	0.0	1	null	6	null	6	133.16	1	1001.41	1	40.593575	17.116091
2876	2024-04-29 19:00:00	25	massafra	22.7	1	33.74	1	0.0	1	null	6	null	6	8.55	1	1001.57	1	40.593575	17.116091
2877	2024-04-29 20:00:00	25	massafra	20.78	1	40.49	1	0.0	1	null	6	null	6	0.0	1	1002.04	1	40.593575	17.116091
2878	2024-04-29 21:00:00	25	massafra	19.19	1	46.69	1	0.0	1	null	6	null	6	0.0	1	1002.58	1	40.593575	17.116091
2879	2024-04-29 22:00:00	25	massafra	18.39	1	47.93	1	0.0	1	null	6	null	6	0.0	1	1002.61	1	40.593575	17.116091
2880	2024-04-29 23:00:00	25	massafra	17.68	1	48.3	1	0.0	1	null	6	null	6	0.0	1	1002.93	1	40.593575	17.116091
2881	2024-04-30 00:00:00	25	massafra	17.26	1	49.15	1	0.0	1	null	6	null	6	0.0	1	1003.0	1	40.593575	17.116091
2882	2024-04-30 01:00:00	25	massafra	17.12	1	47.73	1	0.0	1	null	6	null	6	0.0	1	1002.81	1	40.593575	17.116091
2883	2024-04-30 02:00:00	25	massafra	16.79	1	47.61	1	0.0	1	null	6	null	6	0.0	1	1002.47	1	40.593575	17.116091
2884	2024-04-30 03:00:00	25	massafra	16.06	1	47.77	1	0.0	1	null	6	null	6	0.0	1	1002.31	1	40.593575	17.116091
2885	2024-04-30 04:00:00	25	massafra	16.17	1	44.36	1	0.0	1	null	6	null	6	0.0	1	1001.8	1	40.593575	17.116091
2886	2024-04-30 05:00:00	25	massafra	16.06	1	41.76	1	0.0	1	null	6	null	6	0.0	5	1001.49	1	40.593575	17.116091
2887	2024-04-30 06:00:00	25	massafra	16.17	1	44.57	1	0.0	1	null	6	null	6	42.85	1	1001.58	1	40.593575	17.116091
2888	2024-04-30 07:00:00	25	massafra	19.99	1	38.16	1	0.0	1	null	6	null	6	217.53	1	1001.58	1	40.593575	17.116091
2889	2024-04-30 08:00:00	25	massafra	24.0	1	31.3	1	0.0	1	null	6	null	6	329.46	1	1001.56	1	40.593575	17.116091
2890	2024-04-30 09:00:00	25	massafra	26.0	1	29.65	1	0.0	1	null	6	null	6	583.51	1	1001.6	1	40.593575	17.116091
2891	2024-04-30 10:00:00	25	massafra	27.45	1	26.14	1	0.0	1	null	6	null	6	729.07	1	1001.22	1	40.593575	17.116091
2892	2024-04-30 11:00:00	25	massafra	28.51	1	21.63	1	0.0	1	null	6	null	6	796.69	1	1001.08	1	40.593575	17.116091
2893	2024-04-30 12:00:00	25	massafra	28.86	1	20.15	1	0.0	1	null	6	null	6	817.11	1	1000.84	1	40.593575	17.116091
2894	2024-04-30 13:00:00	25	massafra	29.33	1	19.28	1	0.0	1	null	6	null	6	834.52	1	1000.1	1	40.593575	17.116091
2895	2024-04-30 14:00:00	25	massafra	28.94	1	19.87	1	0.0	1	null	6	null	6	767.15	1	999.56	1	40.593575	17.116091
2896	2024-04-30 15:00:00	25	massafra	28.58	1	20.99	1	0.0	1	null	6	null	6	584.26	1	999.09	1	40.593575	17.116091
2897	2024-04-30 16:00:00	25	massafra	28.64	1	21.78	1	0.0	1	null	6	null	6	489.89	1	998.67	1	40.593575	17.116091
2898	2024-04-30 17:00:00	25	massafra	26.64	1	26.75	1	0.0	1	null	6	null	6	212.56	1	998.52	1	40.593575	17.116091
2899	2024-04-30 18:00:00	25	massafra	23.55	1	34.14	1	0.0	1	null	6	null	6	68.22	1	998.06	1	40.593575	17.116091
2900	2024-04-30 19:00:00	25	massafra	22.02	1	42.11	1	0.0	1	null	6	null	6	11.19	1	998.17	1	40.593575	17.116091
2901	2024-04-30 20:00:00	25	massafra	20.49	1	52.48	1	0.0	1	null	6	null	6	0.0	1	998.57	1	40.593575	17.116091
2902	2024-04-30 21:00:00	25	massafra	19.77	1	53.99	1	0.0	1	null	6	null	6	0.0	1	998.55	1	40.593575	17.116091
2903	2024-04-30 22:00:00	25	massafra	19.35	1	49.81	1	0.0	1	null	6	null	6	0.0	1	998.31	1	40.593575	17.116091
2904	2024-04-30 23:00:00	25	massafra	19.11	1	50.52	1	0.0	1	null	6	null	6	0.0	1	998.23	1	40.593575	17.116091
2905	2024-05-01 00:00:00	25	massafra	18.38	1	53.61	1	0.0	1	null	6	null	6	0.0	1	997.8	1	40.593575	17.116091
2906	2024-05-01 01:00:00	25	massafra	18.33	1	51.77	1	0.0	1	null	6	null	6	0.0	1	996.99	1	40.593575	17.116091
2907	2024-05-01 02:00:00	25	massafra	18.65	1	47.8	1	0.0	1	null	6	null	6	0.0	1	996.53	1	40.593575	17.116091
2908	2024-05-01 03:00:00	25	massafra	18.45	1	55.6	1	0.0	1	null	6	null	6	0.0	1	996.51	1	40.593575	17.116091
2909	2024-05-01 04:00:00	25	massafra	18.12	1	63.09	1	0.0	1	null	6	null	6	0.0	1	995.98	1	40.593575	17.116091
2910	2024-05-01 05:00:00	25	massafra	17.99	1	67.06	1	0.0	1	null	6	null	6	0.0	5	995.74	1	40.593575	17.116091
2911	2024-05-01 06:00:00	25	massafra	18.07	1	69.27	1	0.0	1	null	6	null	6	27.18	1	995.61	1	40.593575	17.116091
2912	2024-05-01 07:00:00	25	massafra	18.98	1	64.22	1	0.0	1	null	6	null	6	140.7	1	995.7	1	40.593575	17.116091
2913	2024-05-01 08:00:00	25	massafra	20.93	1	51.84	1	0.0	1	null	6	null	6	295.04	1	995.55	1	40.593575	17.116091
2914	2024-05-01 09:00:00	25	massafra	22.53	1	44.03	1	0.0	1	null	6	null	6	534.45	1	995.6	1	40.593575	17.116091
2915	2024-05-01 10:00:00	25	massafra	23.03	1	45.17	1	0.0	1	null	6	null	6	721.44	1	995.72	1	40.593575	17.116091
2916	2024-05-01 11:00:00	25	massafra	23.97	1	40.2	1	0.0	1	null	6	null	6	821.04	1	995.84	1	40.593575	17.116091
2917	2024-05-01 12:00:00	25	massafra	24.37	1	38.29	1	0.0	1	null	6	null	6	826.68	1	995.66	1	40.593575	17.116091
2918	2024-05-01 13:00:00	25	massafra	24.57	1	38.5	1	0.0	1	null	6	null	6	808.93	1	995.37	1	40.593575	17.116091
2919	2024-05-01 14:00:00	25	massafra	24.01	1	44.79	1	0.0	1	null	6	null	6	584.41	1	994.84	1	40.593575	17.116091
2920	2024-05-01 15:00:00	25	massafra	21.81	1	56.51	1	0.0	1	null	6	null	6	217.21	1	994.33	1	40.593575	17.116091
2921	2024-05-01 16:00:00	25	massafra	21.41	1	60.27	1	0.0	1	null	6	null	6	104.21	1	994.4	1	40.593575	17.116091
2922	2024-05-01 17:00:00	25	massafra	20.46	1	64.4	1	0.0	1	null	6	null	6	32.72	1	994.79	1	40.593575	17.116091
2923	2024-05-01 18:00:00	25	massafra	19.86	1	69.44	1	3.4	1	null	6	null	6	0.0	5	994.45	1	40.593575	17.116091
2924	2024-05-01 19:00:00	25	massafra	17.61	1	85.05	1	7.8	1	null	6	null	6	6.23	1	995.06	1	40.593575	17.116091
2925	2024-05-01 20:00:00	25	massafra	17.1	1	88.07	1	0.0	1	null	6	null	6	0.0	1	995.17	1	40.593575	17.116091
2926	2024-05-01 21:00:00	25	massafra	18.06	1	91.44	1	0.0	1	null	6	null	6	0.0	1	995.37	1	40.593575	17.116091
2927	2024-05-01 22:00:00	25	massafra	17.94	1	93.75	1	0.0	1	null	6	null	6	0.0	1	995.41	1	40.593575	17.116091
2928	2024-05-01 23:00:00	25	massafra	17.56	1	94.82	1	0.0	1	null	6	null	6	0.0	1	995.46	1	40.593575	17.116091
2929	2024-05-02 00:00:00	25	massafra	17.34	1	95.83	1	0.0	1	null	6	null	6	0.0	1	995.43	1	40.593575	17.116091
2930	2024-05-02 01:00:00	25	massafra	17.34	1	96.17	1	0.0	1	null	6	null	6	0.0	1	995.41	1	40.593575	17.116091
2931	2024-05-02 02:00:00	25	massafra	17.16	1	94.18	1	0.0	1	null	6	null	6	0.0	1	995.19	1	40.593575	17.116091
2932	2024-05-02 03:00:00	25	massafra	16.4	1	93.54	1	0.0	1	null	6	null	6	0.0	1	995.27	1	40.593575	17.116091
2933	2024-05-02 04:00:00	25	massafra	15.71	1	93.41	1	0.0	1	null	6	null	6	0.0	1	995.33	1	40.593575	17.116091
2934	2024-05-02 05:00:00	25	massafra	14.76	1	91.19	1	0.0	1	null	6	null	6	0.0	5	995.32	1	40.593575	17.116091
2935	2024-05-02 06:00:00	25	massafra	14.56	1	85.46	1	0.0	1	null	6	null	6	46.92	1	995.59	1	40.593575	17.116091
2936	2024-05-02 07:00:00	25	massafra	16.9	1	72.84	1	0.0	1	null	6	null	6	209.99	1	996.06	1	40.593575	17.116091
2937	2024-05-02 08:00:00	25	massafra	20.05	1	51.55	1	0.0	1	null	6	null	6	311.32	1	995.59	1	40.593575	17.116091
2938	2024-05-02 09:00:00	25	massafra	22.27	1	41.87	1	0.0	1	null	6	null	6	588.06	1	995.34	1	40.593575	17.116091
2939	2024-05-02 10:00:00	25	massafra	23.77	1	39.91	1	0.2	1	null	6	null	6	759.69	1	995.63	1	40.593575	17.116091
2940	2024-05-02 11:00:00	25	massafra	24.55	1	36.73	1	0.0	1	null	6	null	6	862.05	1	995.6	1	40.593575	17.116091
2941	2024-05-02 12:00:00	25	massafra	25.38	1	36.61	1	0.0	1	null	6	null	6	837.67	1	995.1	1	40.593575	17.116091
2942	2024-05-02 13:00:00	25	massafra	24.8	1	40.65	1	0.0	1	null	6	null	6	869.35	1	995.03	1	40.593575	17.116091
2943	2024-05-02 14:00:00	25	massafra	25.23	1	35.74	1	0.0	1	null	6	null	6	828.42	1	994.88	1	40.593575	17.116091
2944	2024-05-02 15:00:00	25	massafra	24.71	1	37.34	1	0.0	1	null	6	null	6	402.7	1	994.58	1	40.593575	17.116091
2945	2024-05-02 16:00:00	25	massafra	23.34	1	44.33	1	0.0	1	null	6	null	6	249.54	1	994.15	1	40.593575	17.116091
2946	2024-05-02 17:00:00	25	massafra	23.78	1	38.04	1	0.0	1	null	6	null	6	178.13	1	993.95	1	40.593575	17.116091
2947	2024-05-02 18:00:00	25	massafra	20.49	1	49.33	1	0.0	1	null	6	null	6	13.45	1	994.95	1	40.593575	17.116091
2948	2024-05-02 19:00:00	25	massafra	17.66	1	61.88	1	0.0	1	null	6	null	6	0.0	5	995.87	1	40.593575	17.116091
2949	2024-05-02 20:00:00	25	massafra	16.23	1	59.2	1	0.0	1	null	6	null	6	0.0	1	996.1	1	40.593575	17.116091
2950	2024-05-02 21:00:00	25	massafra	16.09	1	56.16	1	0.0	1	null	6	null	6	0.0	1	995.95	1	40.593575	17.116091
2951	2024-05-02 22:00:00	25	massafra	14.87	1	59.01	1	0.0	1	null	6	null	6	0.0	1	996.49	1	40.593575	17.116091
2952	2024-05-02 23:00:00	25	massafra	13.74	1	58.82	1	0.0	1	null	6	null	6	0.0	1	996.62	1	40.593575	17.116091
2953	2024-05-03 00:00:00	25	massafra	13.48	1	59.75	1	0.0	1	null	6	null	6	0.0	1	996.47	1	40.593575	17.116091
2954	2024-05-03 01:00:00	25	massafra	12.81	1	60.65	1	0.0	1	null	6	null	6	0.0	1	996.16	1	40.593575	17.116091
2955	2024-05-03 02:00:00	25	massafra	12.54	1	60.26	1	0.0	1	null	6	null	6	0.0	1	995.86	1	40.593575	17.116091
2956	2024-05-03 03:00:00	25	massafra	12.31	1	60.43	1	0.0	1	null	6	null	6	0.0	1	995.71	1	40.593575	17.116091
2957	2024-05-03 04:00:00	25	massafra	11.85	1	61.63	1	0.0	1	null	6	null	6	0.0	1	995.31	1	40.593575	17.116091
2958	2024-05-03 05:00:00	25	massafra	11.45	1	63.23	1	0.0	1	null	6	null	6	0.0	5	995.06	1	40.593575	17.116091
2959	2024-05-03 06:00:00	25	massafra	11.81	1	62.84	1	0.0	1	null	6	null	6	53.89	1	995.24	1	40.593575	17.116091
2960	2024-05-03 07:00:00	25	massafra	15.12	1	51.31	1	0.0	1	null	6	null	6	228.13	1	995.66	1	40.593575	17.116091
2961	2024-05-03 08:00:00	25	massafra	17.87	1	39.09	1	0.0	1	null	6	null	6	311.28	1	995.94	1	40.593575	17.116091
2962	2024-05-03 09:00:00	25	massafra	19.92	1	33.29	1	0.0	1	null	6	null	6	613.48	1	996.05	1	40.593575	17.116091
2963	2024-05-03 10:00:00	25	massafra	21.27	1	30.29	1	0.0	1	null	6	null	6	780.17	1	995.9	1	40.593575	17.116091
2964	2024-05-03 11:00:00	25	massafra	20.75	1	29.15	1	0.0	1	null	6	null	6	281.14	1	995.79	1	40.593575	17.116091
2965	2024-05-03 12:00:00	25	massafra	20.64	1	27.73	1	0.0	1	null	6	null	6	332.07	1	995.72	1	40.593575	17.116091
2966	2024-05-03 13:00:00	25	massafra	21.95	1	26.44	1	0.0	1	null	6	null	6	506.7	1	995.48	1	40.593575	17.116091
2967	2024-05-03 14:00:00	25	massafra	22.29	1	28.87	1	0.0	1	null	6	null	6	531.19	1	995.09	1	40.593575	17.116091
2968	2024-05-03 15:00:00	25	massafra	22.54	1	29.96	1	0.0	1	null	6	null	6	379.68	1	994.68	1	40.593575	17.116091
2969	2024-05-03 16:00:00	25	massafra	22.44	1	28.43	1	0.0	1	null	6	null	6	324.22	1	994.46	1	40.593575	17.116091
2970	2024-05-03 17:00:00	25	massafra	22.34	1	26.95	1	0.0	1	null	6	null	6	340.55	1	994.68	1	40.593575	17.116091
2971	2024-05-03 18:00:00	25	massafra	20.5	1	28.35	1	0.0	1	null	6	null	6	84.21	1	995.17	1	40.593575	17.116091
2972	2024-05-03 19:00:00	25	massafra	18.42	1	35.85	1	0.0	1	null	6	null	6	6.88	1	995.55	1	40.593575	17.116091
2973	2024-05-03 20:00:00	25	massafra	17.6	1	40.61	1	0.0	1	null	6	null	6	0.0	1	995.81	1	40.593575	17.116091
2974	2024-05-03 21:00:00	25	massafra	16.16	1	45.6	1	0.0	1	null	6	null	6	0.0	1	996.21	1	40.593575	17.116091
2975	2024-05-03 22:00:00	25	massafra	15.67	1	48.08	1	0.0	1	null	6	null	6	0.0	1	996.4	1	40.593575	17.116091
2976	2024-05-03 23:00:00	25	massafra	15.19	1	49.57	1	0.0	1	null	6	null	6	0.0	1	996.35	1	40.593575	17.116091
2977	2024-05-04 00:00:00	25	massafra	14.22	1	53.96	1	0.0	1	null	6	null	6	0.0	1	996.29	1	40.593575	17.116091
2978	2024-05-04 01:00:00	25	massafra	13.57	1	56.54	1	0.0	1	null	6	null	6	0.0	1	995.93	1	40.593575	17.116091
2979	2024-05-04 02:00:00	25	massafra	12.91	1	59.13	1	0.0	1	null	6	null	6	0.0	1	995.63	1	40.593575	17.116091
2980	2024-05-04 03:00:00	25	massafra	12.88	1	59.14	1	0.0	1	null	6	null	6	0.0	1	995.32	1	40.593575	17.116091
2981	2024-05-04 04:00:00	25	massafra	12.56	1	59.27	1	0.0	1	null	6	null	6	0.0	1	995.49	1	40.593575	17.116091
2982	2024-05-04 05:00:00	25	massafra	12.2	1	60.22	1	0.0	1	null	6	null	6	0.0	5	995.69	1	40.593575	17.116091
2983	2024-05-04 06:00:00	25	massafra	12.16	1	61.15	1	0.0	1	null	6	null	6	57.12	1	996.13	1	40.593575	17.116091
2984	2024-05-04 07:00:00	25	massafra	14.65	1	53.28	1	0.0	1	null	6	null	6	234.32	1	996.35	1	40.593575	17.116091
2985	2024-05-04 08:00:00	25	massafra	17.63	1	45.99	1	0.0	1	null	6	null	6	315.02	1	996.38	1	40.593575	17.116091
2986	2024-05-04 09:00:00	25	massafra	19.6	1	35.08	1	0.0	1	null	6	null	6	616.28	1	996.47	1	40.593575	17.116091
2987	2024-05-04 10:00:00	25	massafra	20.89	1	31.45	1	0.0	1	null	6	null	6	755.23	1	996.46	1	40.593575	17.116091
2988	2024-05-04 11:00:00	25	massafra	21.51	1	30.27	1	0.0	1	null	6	null	6	799.93	1	996.48	1	40.593575	17.116091
2989	2024-05-04 12:00:00	25	massafra	21.86	1	31.41	1	0.0	1	null	6	null	6	721.96	1	996.51	1	40.593575	17.116091
2990	2024-05-04 13:00:00	25	massafra	22.39	1	31.94	1	0.0	1	null	6	null	6	832.98	1	996.49	1	40.593575	17.116091
2991	2024-05-04 14:00:00	25	massafra	22.86	1	32.42	1	0.0	1	null	6	null	6	859.89	1	996.54	1	40.593575	17.116091
2992	2024-05-04 15:00:00	25	massafra	22.95	1	33.51	1	0.0	1	null	6	null	6	706.87	1	996.57	1	40.593575	17.116091
2993	2024-05-04 16:00:00	25	massafra	22.46	1	37.72	1	0.0	1	null	6	null	6	541.14	1	996.68	1	40.593575	17.116091
2994	2024-05-04 17:00:00	25	massafra	21.89	1	40.0	1	0.0	1	null	6	null	6	359.82	1	996.95	1	40.593575	17.116091
2995	2024-05-04 18:00:00	25	massafra	20.92	1	43.41	1	0.0	1	null	6	null	6	161.75	1	997.06	1	40.593575	17.116091
2996	2024-05-04 19:00:00	25	massafra	18.53	1	51.61	1	0.0	1	null	6	null	6	8.83	1	997.64	1	40.593575	17.116091
2997	2024-05-04 20:00:00	25	massafra	16.96	1	58.87	1	0.0	1	null	6	null	6	0.0	1	998.0	1	40.593575	17.116091
2998	2024-05-04 21:00:00	25	massafra	16.13	1	64.44	1	0.0	1	null	6	null	6	0.0	1	998.68	1	40.593575	17.116091
2999	2024-05-04 22:00:00	25	massafra	15.47	1	68.64	1	0.0	1	null	6	null	6	0.0	1	999.14	1	40.593575	17.116091
3000	2024-05-04 23:00:00	25	massafra	15.45	1	70.03	1	0.0	1	null	6	null	6	0.0	1	999.3	1	40.593575	17.116091
3001	2024-05-05 00:00:00	25	massafra	15.14	1	69.82	1	0.0	1	null	6	null	6	0.0	1	999.17	1	40.593575	17.116091
3002	2024-05-05 01:00:00	25	massafra	14.95	1	61.85	1	0.0	1	null	6	null	6	0.0	1	999.11	1	40.593575	17.116091
3003	2024-05-05 02:00:00	25	massafra	14.94	1	58.87	1	0.0	1	null	6	null	6	0.0	1	998.86	1	40.593575	17.116091
3004	2024-05-05 03:00:00	25	massafra	14.84	1	56.22	1	0.0	1	null	6	null	6	0.0	1	998.79	1	40.593575	17.116091
3005	2024-05-05 04:00:00	25	massafra	14.48	1	55.18	1	0.0	1	null	6	null	6	0.0	1	998.81	1	40.593575	17.116091
3006	2024-05-05 05:00:00	25	massafra	14.52	1	53.75	1	0.0	1	null	6	null	6	0.0	5	999.03	1	40.593575	17.116091
3007	2024-05-05 06:00:00	25	massafra	14.99	1	52.57	1	0.0	1	null	6	null	6	59.19	1	999.4	1	40.593575	17.116091
3008	2024-05-05 07:00:00	25	massafra	17.43	1	47.89	1	0.0	1	null	6	null	6	226.85	1	999.56	1	40.593575	17.116091
3009	2024-05-05 08:00:00	25	massafra	20.11	1	41.96	1	0.0	1	null	6	null	6	313.27	1	1000.0	1	40.593575	17.116091
3010	2024-05-05 09:00:00	25	massafra	23.03	1	34.53	1	0.0	1	null	6	null	6	601.57	1	1000.12	1	40.593575	17.116091
3011	2024-05-05 10:00:00	25	massafra	25.59	1	29.48	1	0.0	1	null	6	null	6	771.76	1	999.92	1	40.593575	17.116091
3012	2024-05-05 11:00:00	25	massafra	25.97	1	31.95	1	0.0	1	null	6	null	6	860.9	1	999.78	1	40.593575	17.116091
3013	2024-05-05 12:00:00	25	massafra	27.04	1	28.6	1	0.0	1	null	6	null	6	866.17	1	999.39	1	40.593575	17.116091
3014	2024-05-05 13:00:00	25	massafra	27.53	1	25.65	1	0.0	1	null	6	null	6	869.99	1	999.14	1	40.593575	17.116091
3015	2024-05-05 14:00:00	25	massafra	26.97	1	25.62	1	0.0	1	null	6	null	6	846.93	1	998.91	1	40.593575	17.116091
3016	2024-05-05 15:00:00	25	massafra	26.84	1	25.35	1	0.0	1	null	6	null	6	701.14	1	998.57	1	40.593575	17.116091
3017	2024-05-05 16:00:00	25	massafra	26.09	1	26.73	1	0.0	1	null	6	null	6	529.01	1	998.57	1	40.593575	17.116091
3018	2024-05-05 17:00:00	25	massafra	24.68	1	29.12	1	0.0	1	null	6	null	6	348.68	1	998.55	1	40.593575	17.116091
3019	2024-05-05 18:00:00	25	massafra	23.17	1	30.86	1	0.0	1	null	6	null	6	154.07	1	998.56	1	40.593575	17.116091
3020	2024-05-05 19:00:00	25	massafra	20.72	1	34.22	1	0.0	1	null	6	null	6	8.97	1	998.77	1	40.593575	17.116091
3021	2024-05-05 20:00:00	25	massafra	19.57	1	40.88	1	0.0	1	null	6	null	6	0.0	1	999.13	1	40.593575	17.116091
3022	2024-05-05 21:00:00	25	massafra	18.37	1	44.91	1	0.0	1	null	6	null	6	0.0	1	999.42	1	40.593575	17.116091
3023	2024-05-05 22:00:00	25	massafra	18.15	1	44.48	1	0.0	1	null	6	null	6	0.0	1	999.7	1	40.593575	17.116091
3024	2024-05-05 23:00:00	25	massafra	18.41	1	44.48	1	0.0	1	null	6	null	6	0.0	1	999.46	1	40.593575	17.116091
3025	2024-05-06 00:00:00	25	massafra	17.9	1	46.1	1	0.0	1	null	6	null	6	0.0	1	999.29	1	40.593575	17.116091
3026	2024-05-06 01:00:00	25	massafra	16.95	1	50.22	1	0.0	1	null	6	null	6	0.0	1	999.01	1	40.593575	17.116091
3027	2024-05-06 02:00:00	25	massafra	16.5	1	55.21	1	0.0	1	null	6	null	6	0.0	1	998.82	1	40.593575	17.116091
3028	2024-05-06 03:00:00	25	massafra	16.16	1	57.46	1	0.0	1	null	6	null	6	0.0	1	998.82	1	40.593575	17.116091
3029	2024-05-06 04:00:00	25	massafra	15.58	1	58.34	1	0.0	1	null	6	null	6	0.0	1	998.82	1	40.593575	17.116091
3030	2024-05-06 05:00:00	25	massafra	15.0	1	60.95	1	0.0	1	null	6	null	6	0.0	5	998.85	1	40.593575	17.116091
3031	2024-05-06 06:00:00	25	massafra	15.6	1	62.96	1	0.0	1	null	6	null	6	57.3	1	999.05	1	40.593575	17.116091
3032	2024-05-06 07:00:00	25	massafra	19.26	1	54.9	1	0.0	1	null	6	null	6	219.93	1	999.21	1	40.593575	17.116091
3033	2024-05-06 08:00:00	25	massafra	22.19	1	45.26	1	0.0	1	null	6	null	6	320.83	1	999.36	1	40.593575	17.116091
3034	2024-05-06 09:00:00	25	massafra	24.5	1	38.86	1	0.0	1	null	6	null	6	591.66	1	999.33	1	40.593575	17.116091
3035	2024-05-06 10:00:00	25	massafra	25.65	1	32.43	1	0.0	1	null	6	null	6	767.0	1	999.26	1	40.593575	17.116091
3036	2024-05-06 11:00:00	25	massafra	26.46	1	33.18	1	0.0	1	null	6	null	6	836.33	1	999.1	1	40.593575	17.116091
3037	2024-05-06 12:00:00	25	massafra	26.24	1	37.7	1	0.0	1	null	6	null	6	836.2	1	999.01	1	40.593575	17.116091
3038	2024-05-06 13:00:00	25	massafra	25.96	1	37.95	1	0.0	1	null	6	null	6	751.81	1	998.67	1	40.593575	17.116091
3039	2024-05-06 14:00:00	25	massafra	26.48	1	33.44	1	0.0	1	null	6	null	6	770.44	1	998.29	1	40.593575	17.116091
3040	2024-05-06 15:00:00	25	massafra	26.18	1	40.21	1	0.0	1	null	6	null	6	620.86	1	998.06	1	40.593575	17.116091
3041	2024-05-06 16:00:00	25	massafra	24.47	1	48.4	1	0.0	1	null	6	null	6	527.06	1	998.3	1	40.593575	17.116091
3042	2024-05-06 17:00:00	25	massafra	23.92	1	43.82	1	0.0	1	null	6	null	6	364.74	1	998.26	1	40.593575	17.116091
3043	2024-05-06 18:00:00	25	massafra	22.84	1	41.49	1	0.0	1	null	6	null	6	160.07	1	998.28	1	40.593575	17.116091
3044	2024-05-06 19:00:00	25	massafra	20.27	1	52.51	1	0.0	1	null	6	null	6	6.69	1	998.52	1	40.593575	17.116091
3045	2024-05-06 20:00:00	25	massafra	18.66	1	64.06	1	0.0	1	null	6	null	6	0.0	1	998.83	1	40.593575	17.116091
3046	2024-05-06 21:00:00	25	massafra	17.98	1	66.78	1	0.0	1	null	6	null	6	0.0	1	999.24	1	40.593575	17.116091
3047	2024-05-06 22:00:00	25	massafra	17.06	1	73.28	1	0.0	1	null	6	null	6	0.0	1	999.28	1	40.593575	17.116091
3048	2024-05-06 23:00:00	25	massafra	16.73	1	79.58	1	0.0	1	null	6	null	6	0.0	1	999.18	1	40.593575	17.116091
3049	2024-05-07 00:00:00	25	massafra	16.36	1	83.17	1	0.0	1	null	6	null	6	0.0	1	999.1	1	40.593575	17.116091
3050	2024-05-07 01:00:00	25	massafra	16.59	1	83.74	1	0.0	1	null	6	null	6	0.0	1	998.8	1	40.593575	17.116091
3051	2024-05-07 02:00:00	25	massafra	16.45	1	83.0	1	0.0	1	null	6	null	6	0.0	1	998.18	1	40.593575	17.116091
3052	2024-05-07 03:00:00	25	massafra	15.83	1	84.21	1	0.0	1	null	6	null	6	0.0	1	998.09	1	40.593575	17.116091
3053	2024-05-07 04:00:00	25	massafra	15.47	1	85.32	1	0.0	1	null	6	null	6	0.0	1	997.81	1	40.593575	17.116091
3054	2024-05-07 05:00:00	25	massafra	15.48	1	85.92	1	0.0	1	null	6	null	6	0.0	5	997.47	1	40.593575	17.116091
3055	2024-05-07 06:00:00	25	massafra	16.0	1	86.18	1	0.0	1	null	6	null	6	42.34	1	997.79	1	40.593575	17.116091
3056	2024-05-07 07:00:00	25	massafra	17.4	1	81.77	1	0.0	1	null	6	null	6	109.27	1	997.89	1	40.593575	17.116091
3057	2024-05-07 08:00:00	25	massafra	18.93	1	72.91	1	0.0	1	null	6	null	6	235.55	1	998.1	1	40.593575	17.116091
3058	2024-05-07 09:00:00	25	massafra	20.67	1	63.53	1	0.0	1	null	6	null	6	334.68	1	998.21	1	40.593575	17.116091
3059	2024-05-07 10:00:00	25	massafra	22.07	1	58.41	1	0.0	1	null	6	null	6	487.41	1	998.33	1	40.593575	17.116091
3060	2024-05-07 11:00:00	25	massafra	23.4	1	51.73	1	0.0	1	null	6	null	6	699.13	1	998.13	1	40.593575	17.116091
3061	2024-05-07 12:00:00	25	massafra	25.14	1	46.24	1	0.0	1	null	6	null	6	822.34	1	997.8	1	40.593575	17.116091
3062	2024-05-07 13:00:00	25	massafra	25.2	1	48.36	1	0.0	1	null	6	null	6	741.3	1	997.64	1	40.593575	17.116091
3063	2024-05-07 14:00:00	25	massafra	24.41	1	51.36	1	0.0	1	null	6	null	6	759.27	1	997.37	1	40.593575	17.116091
3064	2024-05-07 15:00:00	25	massafra	23.73	1	53.91	1	0.0	1	null	6	null	6	537.24	1	997.24	1	40.593575	17.116091
3065	2024-05-07 16:00:00	25	massafra	23.01	1	56.01	1	0.0	1	null	6	null	6	360.14	1	997.13	1	40.593575	17.116091
3066	2024-05-07 17:00:00	25	massafra	21.3	1	61.75	1	0.0	1	null	6	null	6	169.76	1	997.67	1	40.593575	17.116091
3067	2024-05-07 18:00:00	25	massafra	20.17	1	65.16	1	0.0	1	null	6	null	6	71.41	1	997.47	1	40.593575	17.116091
3068	2024-05-07 19:00:00	25	massafra	19.4	1	67.96	1	0.0	1	null	6	null	6	14.39	1	997.47	1	40.593575	17.116091
3069	2024-05-07 20:00:00	25	massafra	18.77	1	71.07	1	0.0	1	null	6	null	6	0.0	1	997.3	1	40.593575	17.116091
3070	2024-05-07 21:00:00	25	massafra	18.3	1	74.26	1	0.0	1	null	6	null	6	0.0	1	997.18	1	40.593575	17.116091
3071	2024-05-07 22:00:00	25	massafra	18.32	1	75.43	1	0.0	1	null	6	null	6	0.0	1	997.9	1	40.593575	17.116091
3072	2024-05-07 23:00:00	25	massafra	18.18	1	78.3	1	0.0	1	null	6	null	6	0.0	1	998.24	1	40.593575	17.116091
3073	2024-05-08 00:00:00	25	massafra	17.9	1	80.21	1	0.0	1	null	6	null	6	0.0	1	997.95	1	40.593575	17.116091
3074	2024-05-08 01:00:00	25	massafra	17.9	1	82.4	1	0.0	1	null	6	null	6	0.0	1	997.59	1	40.593575	17.116091
3075	2024-05-08 02:00:00	25	massafra	17.53	1	84.65	1	0.0	1	null	6	null	6	0.0	1	997.36	1	40.593575	17.116091
3076	2024-05-08 03:00:00	25	massafra	16.85	1	86.63	1	0.0	1	null	6	null	6	0.0	1	997.31	1	40.593575	17.116091
3077	2024-05-08 04:00:00	25	massafra	16.27	1	88.48	1	0.0	1	null	6	null	6	0.0	1	997.23	1	40.593575	17.116091
3078	2024-05-08 05:00:00	25	massafra	15.39	1	85.97	1	0.0	1	null	6	null	6	0.0	5	997.16	1	40.593575	17.116091
3079	2024-05-08 06:00:00	25	massafra	15.75	1	74.98	1	0.0	1	null	6	null	6	58.64	1	997.24	1	40.593575	17.116091
3080	2024-05-08 07:00:00	25	massafra	19.73	1	49.88	1	0.0	1	null	6	null	6	213.89	1	997.17	1	40.593575	17.116091
3081	2024-05-08 08:00:00	25	massafra	22.99	1	39.29	1	0.0	1	null	6	null	6	303.55	1	997.27	1	40.593575	17.116091
3082	2024-05-08 09:00:00	25	massafra	24.97	1	35.13	1	0.0	1	null	6	null	6	567.97	1	997.1	1	40.593575	17.116091
3083	2024-05-08 10:00:00	25	massafra	26.45	1	30.46	1	0.0	1	null	6	null	6	720.41	1	997.31	1	40.593575	17.116091
3084	2024-05-08 11:00:00	25	massafra	27.51	1	31.05	1	0.0	1	null	6	null	6	732.28	1	997.05	1	40.593575	17.116091
3085	2024-05-08 12:00:00	25	massafra	28.04	1	30.86	1	0.0	1	null	6	null	6	784.04	1	996.61	1	40.593575	17.116091
3086	2024-05-08 13:00:00	25	massafra	28.2	1	34.39	1	0.0	1	null	6	null	6	808.05	1	996.14	1	40.593575	17.116091
3087	2024-05-08 14:00:00	25	massafra	28.4	1	35.75	1	0.0	1	null	6	null	6	783.65	1	995.51	1	40.593575	17.116091
3088	2024-05-08 15:00:00	25	massafra	27.95	1	38.05	1	0.0	1	null	6	null	6	648.68	1	995.06	1	40.593575	17.116091
3089	2024-05-08 16:00:00	25	massafra	26.86	1	39.92	1	0.0	1	null	6	null	6	420.61	1	994.62	1	40.593575	17.116091
3090	2024-05-08 17:00:00	25	massafra	24.67	1	43.41	1	0.0	1	null	6	null	6	143.84	1	994.85	1	40.593575	17.116091
3091	2024-05-08 18:00:00	25	massafra	22.44	1	48.45	1	0.0	1	null	6	null	6	70.46	1	994.96	1	40.593575	17.116091
3092	2024-05-08 19:00:00	25	massafra	20.88	1	53.4	1	0.0	1	null	6	null	6	17.43	1	995.36	1	40.593575	17.116091
3093	2024-05-08 20:00:00	25	massafra	19.53	1	61.3	1	0.0	1	null	6	null	6	0.0	1	995.92	1	40.593575	17.116091
3094	2024-05-08 21:00:00	25	massafra	18.5	1	67.15	1	0.0	1	null	6	null	6	0.0	1	996.48	1	40.593575	17.116091
3095	2024-05-08 22:00:00	25	massafra	18.44	1	67.85	1	0.0	1	null	6	null	6	0.0	1	996.47	1	40.593575	17.116091
3096	2024-05-08 23:00:00	25	massafra	18.48	1	67.23	1	0.0	1	null	6	null	6	0.0	1	996.34	1	40.593575	17.116091
3097	2024-05-09 00:00:00	25	massafra	18.51	1	67.29	1	0.0	1	null	6	null	6	0.0	1	996.57	1	40.593575	17.116091
3098	2024-05-09 01:00:00	25	massafra	18.33	1	67.87	1	0.0	1	null	6	null	6	0.0	1	995.39	1	40.593575	17.116091
3099	2024-05-09 02:00:00	25	massafra	18.11	1	67.67	1	0.0	1	null	6	null	6	0.0	1	994.85	1	40.593575	17.116091
3100	2024-05-09 03:00:00	25	massafra	17.9	1	67.07	1	0.0	1	null	6	null	6	0.0	1	994.6	1	40.593575	17.116091
3101	2024-05-09 04:00:00	25	massafra	17.82	1	65.22	1	0.0	1	null	6	null	6	0.0	1	994.69	1	40.593575	17.116091
3102	2024-05-09 05:00:00	25	massafra	17.54	1	66.93	1	0.0	1	null	6	null	6	0.0	1	995.12	1	40.593575	17.116091
3103	2024-05-09 06:00:00	25	massafra	17.72	1	65.08	1	0.0	1	null	6	null	6	14.95	1	995.58	1	40.593575	17.116091
3104	2024-05-09 07:00:00	25	massafra	18.09	1	64.21	1	0.0	1	null	6	null	6	55.14	1	995.89	1	40.593575	17.116091
3105	2024-05-09 08:00:00	25	massafra	18.84	1	63.2	1	0.0	1	null	6	null	6	149.79	1	996.12	1	40.593575	17.116091
3106	2024-05-09 09:00:00	25	massafra	20.05	1	59.43	1	0.0	1	null	6	null	6	258.41	1	996.04	1	40.593575	17.116091
3107	2024-05-09 10:00:00	25	massafra	21.1	1	56.9	1	0.0	1	null	6	null	6	322.02	1	996.12	1	40.593575	17.116091
3108	2024-05-09 11:00:00	25	massafra	22.68	1	49.95	1	0.0	1	null	6	null	6	254.1	1	996.03	1	40.593575	17.116091
3109	2024-05-09 12:00:00	25	massafra	23.79	1	46.23	1	0.0	1	null	6	null	6	375.79	1	995.94	1	40.593575	17.116091
3110	2024-05-09 13:00:00	25	massafra	24.51	1	43.7	1	0.0	1	null	6	null	6	435.75	1	995.53	1	40.593575	17.116091
3111	2024-05-09 14:00:00	25	massafra	24.91	1	39.39	1	0.0	1	null	6	null	6	487.38	1	995.07	1	40.593575	17.116091
3112	2024-05-09 15:00:00	25	massafra	25.86	1	36.62	1	0.0	1	null	6	null	6	581.02	1	994.26	1	40.593575	17.116091
3113	2024-05-09 16:00:00	25	massafra	25.39	1	37.0	1	0.0	1	null	6	null	6	459.5	1	993.96	1	40.593575	17.116091
3114	2024-05-09 17:00:00	25	massafra	24.9	1	37.71	1	0.0	1	null	6	null	6	332.91	1	993.77	1	40.593575	17.116091
3115	2024-05-09 18:00:00	25	massafra	23.92	1	39.31	1	0.0	1	null	6	null	6	181.24	1	993.79	1	40.593575	17.116091
3116	2024-05-09 19:00:00	25	massafra	22.18	1	42.91	1	0.0	1	null	6	null	6	27.74	1	994.19	1	40.593575	17.116091
3117	2024-05-09 20:00:00	25	massafra	20.79	1	47.99	1	0.0	1	null	6	null	6	0.0	1	995.05	1	40.593575	17.116091
3118	2024-05-09 21:00:00	25	massafra	19.87	1	54.68	1	0.0	1	null	6	null	6	0.0	1	995.68	1	40.593575	17.116091
3119	2024-05-09 22:00:00	25	massafra	19.51	1	59.05	1	0.0	1	null	6	null	6	0.0	1	995.82	1	40.593575	17.116091
3120	2024-05-09 23:00:00	25	massafra	19.5	1	59.79	1	0.0	1	null	6	null	6	0.0	1	995.95	1	40.593575	17.116091
3121	2024-05-10 00:00:00	25	massafra	19.22	1	62.04	1	0.0	1	null	6	null	6	0.0	1	995.68	1	40.593575	17.116091
3122	2024-05-10 01:00:00	25	massafra	18.6	1	66.17	1	0.0	1	null	6	null	6	0.0	1	995.71	1	40.593575	17.116091
3123	2024-05-10 02:00:00	25	massafra	18.27	1	67.45	1	0.0	1	null	6	null	6	0.0	1	995.8	1	40.593575	17.116091
3124	2024-05-10 03:00:00	25	massafra	18.03	1	67.82	1	0.0	1	null	6	null	6	0.0	1	995.73	1	40.593575	17.116091
3125	2024-05-10 04:00:00	25	massafra	17.95	1	66.67	1	0.0	1	null	6	null	6	0.0	1	995.48	1	40.593575	17.116091
3126	2024-05-10 05:00:00	25	massafra	17.55	1	66.38	1	0.0	1	null	6	null	6	0.0	5	995.64	1	40.593575	17.116091
3127	2024-05-10 06:00:00	25	massafra	17.72	1	65.72	1	0.0	1	null	6	null	6	68.58	1	996.18	1	40.593575	17.116091
3128	2024-05-10 07:00:00	25	massafra	18.44	1	62.91	1	0.0	1	null	6	null	6	51.18	1	996.61	1	40.593575	17.116091
3129	2024-05-10 08:00:00	25	massafra	19.52	1	58.72	1	0.0	1	null	6	null	6	124.92	1	996.91	1	40.593575	17.116091
3130	2024-05-10 09:00:00	25	massafra	20.22	1	56.11	1	0.0	1	null	6	null	6	198.64	1	997.42	1	40.593575	17.116091
3131	2024-05-10 10:00:00	25	massafra	21.83	1	50.44	1	0.0	1	null	6	null	6	388.82	1	997.43	1	40.593575	17.116091
3132	2024-05-10 11:00:00	25	massafra	23.17	1	43.9	1	0.0	1	null	6	null	6	456.12	1	997.25	1	40.593575	17.116091
3133	2024-05-10 12:00:00	25	massafra	24.08	1	39.2	1	0.0	1	null	6	null	6	492.7	1	996.87	1	40.593575	17.116091
3134	2024-05-10 13:00:00	25	massafra	25.1	1	35.03	1	0.0	1	null	6	null	6	672.97	1	996.7	1	40.593575	17.116091
3135	2024-05-10 14:00:00	25	massafra	25.64	1	31.14	1	0.0	1	null	6	null	6	814.72	1	996.4	1	40.593575	17.116091
3136	2024-05-10 15:00:00	25	massafra	25.08	1	30.47	1	0.0	1	null	6	null	6	547.03	1	996.1	1	40.593575	17.116091
3137	2024-05-10 16:00:00	25	massafra	23.79	1	31.19	1	0.0	1	null	6	null	6	267.75	1	995.82	1	40.593575	17.116091
3138	2024-05-10 17:00:00	25	massafra	23.53	1	32.09	1	0.0	1	null	6	null	6	236.21	1	995.82	1	40.593575	17.116091
3139	2024-05-10 18:00:00	25	massafra	23.06	1	33.41	1	0.0	1	null	6	null	6	154.16	1	995.81	1	40.593575	17.116091
3140	2024-05-10 19:00:00	25	massafra	21.66	1	40.13	1	0.0	1	null	6	null	6	21.42	1	996.16	1	40.593575	17.116091
3141	2024-05-10 20:00:00	25	massafra	19.98	1	43.02	1	0.0	1	null	6	null	6	0.0	1	996.52	1	40.593575	17.116091
3142	2024-05-10 21:00:00	25	massafra	19.32	1	41.91	1	0.0	1	null	6	null	6	0.0	1	997.08	1	40.593575	17.116091
3143	2024-05-10 22:00:00	25	massafra	18.95	1	46.36	1	0.0	1	null	6	null	6	0.0	1	997.6	1	40.593575	17.116091
3144	2024-05-10 23:00:00	25	massafra	18.45	1	49.08	1	0.0	1	null	6	null	6	0.0	1	997.58	1	40.593575	17.116091
3145	2024-05-11 00:00:00	25	massafra	18.31	1	49.39	1	0.0	1	null	6	null	6	0.0	1	997.53	1	40.593575	17.116091
3146	2024-05-11 01:00:00	25	massafra	17.93	1	47.0	1	0.0	1	null	6	null	6	0.0	1	997.22	1	40.593575	17.116091
3147	2024-05-11 02:00:00	25	massafra	17.58	1	46.68	1	0.0	1	null	6	null	6	0.0	1	997.13	1	40.593575	17.116091
3148	2024-05-11 03:00:00	25	massafra	17.16	1	48.98	1	0.0	1	null	6	null	6	0.0	1	997.24	1	40.593575	17.116091
3149	2024-05-11 04:00:00	25	massafra	16.98	1	51.57	1	0.0	1	null	6	null	6	0.0	1	997.23	1	40.593575	17.116091
3150	2024-05-11 05:00:00	25	massafra	16.45	1	54.64	1	0.0	1	null	6	null	6	0.0	5	997.29	1	40.593575	17.116091
3151	2024-05-11 06:00:00	25	massafra	16.63	1	55.37	1	0.0	1	null	6	null	6	78.05	1	997.73	1	40.593575	17.116091
3152	2024-05-11 07:00:00	25	massafra	19.25	1	48.81	1	0.0	1	null	6	null	6	275.35	1	998.13	1	40.593575	17.116091
3153	2024-05-11 08:00:00	25	massafra	20.67	1	45.17	1	0.0	1	null	6	null	6	363.5	1	998.33	1	40.593575	17.116091
3154	2024-05-11 09:00:00	25	massafra	22.99	1	37.72	1	0.0	1	null	6	null	6	610.66	1	998.34	1	40.593575	17.116091
3155	2024-05-11 10:00:00	25	massafra	24.4	1	34.74	1	0.0	1	null	6	null	6	681.29	1	998.4	1	40.593575	17.116091
3156	2024-05-11 11:00:00	25	massafra	24.99	1	31.07	1	0.0	1	null	6	null	6	593.79	1	998.46	1	40.593575	17.116091
3157	2024-05-11 12:00:00	25	massafra	25.48	1	29.34	1	0.0	1	null	6	null	6	605.19	1	998.31	1	40.593575	17.116091
3158	2024-05-11 13:00:00	25	massafra	25.19	1	29.88	1	0.0	1	null	6	null	6	444.66	1	998.32	1	40.593575	17.116091
3159	2024-05-11 14:00:00	25	massafra	25.77	1	28.29	1	0.0	1	null	6	null	6	698.81	1	998.32	1	40.593575	17.116091
3160	2024-05-11 15:00:00	25	massafra	26.48	1	27.79	1	0.0	1	null	6	null	6	702.03	1	998.22	1	40.593575	17.116091
3161	2024-05-11 16:00:00	25	massafra	26.29	1	26.85	1	0.0	1	null	6	null	6	551.51	1	998.36	1	40.593575	17.116091
3162	2024-05-11 17:00:00	25	massafra	25.46	1	26.75	1	0.0	1	null	6	null	6	363.45	1	998.73	1	40.593575	17.116091
3163	2024-05-11 18:00:00	25	massafra	24.34	1	25.49	1	0.0	1	null	6	null	6	196.1	1	998.93	1	40.593575	17.116091
3164	2024-05-11 19:00:00	25	massafra	22.06	1	29.0	1	0.0	1	null	6	null	6	18.05	1	999.36	1	40.593575	17.116091
3165	2024-05-11 20:00:00	25	massafra	19.84	1	42.4	1	0.0	1	null	6	null	6	0.0	1	999.92	1	40.593575	17.116091
3166	2024-05-11 21:00:00	25	massafra	17.9	1	50.8	1	0.0	1	null	6	null	6	0.0	1	1000.58	1	40.593575	17.116091
3167	2024-05-11 22:00:00	25	massafra	17.06	1	51.57	1	0.0	1	null	6	null	6	0.0	1	1001.01	1	40.593575	17.116091
3168	2024-05-11 23:00:00	25	massafra	17.05	1	47.7	1	0.0	1	null	6	null	6	0.0	1	1001.13	1	40.593575	17.116091
3169	2024-05-12 00:00:00	25	massafra	17.06	1	46.21	1	0.0	1	null	6	null	6	0.0	1	1001.09	1	40.593575	17.116091
3170	2024-05-12 01:00:00	25	massafra	16.35	1	54.3	1	0.0	1	null	6	null	6	0.0	1	1000.95	1	40.593575	17.116091
3171	2024-05-12 02:00:00	25	massafra	15.91	1	57.48	1	0.0	1	null	6	null	6	0.0	1	1000.84	1	40.593575	17.116091
3172	2024-05-12 03:00:00	25	massafra	15.74	1	55.86	1	0.0	1	null	6	null	6	0.0	1	1000.82	1	40.593575	17.116091
3173	2024-05-12 04:00:00	25	massafra	15.42	1	51.12	1	0.0	1	null	6	null	6	0.0	1	1000.71	1	40.593575	17.116091
3174	2024-05-12 05:00:00	25	massafra	15.28	1	47.78	1	0.0	1	null	6	null	6	0.0	5	1000.62	1	40.593575	17.116091
3175	2024-05-12 06:00:00	25	massafra	16.21	1	42.92	1	0.0	1	null	6	null	6	75.5	1	1000.9	1	40.593575	17.116091
3176	2024-05-12 07:00:00	25	massafra	20.22	1	34.39	1	0.0	1	null	6	null	6	228.46	1	1000.88	1	40.593575	17.116091
3177	2024-05-12 08:00:00	25	massafra	22.91	1	31.65	1	0.0	1	null	6	null	6	400.05	1	1000.95	1	40.593575	17.116091
3178	2024-05-12 09:00:00	25	massafra	25.11	1	25.33	1	0.0	1	null	6	null	6	556.95	1	1000.87	1	40.593575	17.116091
3179	2024-05-12 10:00:00	25	massafra	25.88	1	23.76	1	0.0	1	null	6	null	6	709.93	1	1000.94	1	40.593575	17.116091
3180	2024-05-12 11:00:00	25	massafra	27.0	1	21.95	1	0.0	1	null	6	null	6	848.53	1	1000.81	1	40.593575	17.116091
3181	2024-05-12 12:00:00	25	massafra	27.58	1	20.87	1	0.0	1	null	6	null	6	870.8	1	1000.66	1	40.593575	17.116091
3182	2024-05-12 13:00:00	25	massafra	27.87	1	20.78	1	0.0	1	null	6	null	6	862.37	1	1000.37	1	40.593575	17.116091
3183	2024-05-12 14:00:00	25	massafra	27.93	1	21.77	1	0.0	1	null	6	null	6	858.89	1	1000.2	1	40.593575	17.116091
3184	2024-05-12 15:00:00	25	massafra	27.99	1	22.92	1	0.0	1	null	6	null	6	711.54	1	999.8	1	40.593575	17.116091
3185	2024-05-12 16:00:00	25	massafra	27.51	1	24.85	1	0.0	1	null	6	null	6	534.61	1	999.51	1	40.593575	17.116091
3186	2024-05-12 17:00:00	25	massafra	26.29	1	27.25	1	0.0	1	null	6	null	6	363.49	1	999.42	1	40.593575	17.116091
3187	2024-05-12 18:00:00	25	massafra	24.19	1	29.63	1	0.0	1	null	6	null	6	174.01	1	999.6	1	40.593575	17.116091
3188	2024-05-12 19:00:00	25	massafra	21.49	1	29.83	1	0.0	1	null	6	null	6	12.71	1	999.97	1	40.593575	17.116091
3189	2024-05-12 20:00:00	25	massafra	20.4	1	33.8	1	0.0	1	null	6	null	6	0.0	1	1000.21	1	40.593575	17.116091
3190	2024-05-12 21:00:00	25	massafra	19.16	1	37.88	1	0.0	1	null	6	null	6	0.0	1	1000.62	1	40.593575	17.116091
3191	2024-05-12 22:00:00	25	massafra	18.4	1	40.57	1	0.0	1	null	6	null	6	0.0	1	1000.62	1	40.593575	17.116091
3192	2024-05-12 23:00:00	25	massafra	17.97	1	42.25	1	0.0	1	null	6	null	6	0.0	1	1000.64	1	40.593575	17.116091
3193	2024-05-13 00:00:00	25	massafra	17.25	1	44.5	1	0.0	1	null	6	null	6	0.0	1	1000.41	1	40.593575	17.116091
3194	2024-05-13 01:00:00	25	massafra	16.82	1	44.42	1	0.0	1	null	6	null	6	0.0	1	1000.11	1	40.593575	17.116091
3195	2024-05-13 02:00:00	25	massafra	16.56	1	42.76	1	0.0	1	null	6	null	6	0.0	1	999.86	1	40.593575	17.116091
3196	2024-05-13 03:00:00	25	massafra	16.28	1	41.63	1	0.0	1	null	6	null	6	0.0	1	999.77	1	40.593575	17.116091
3197	2024-05-13 04:00:00	25	massafra	16.03	1	42.53	1	0.0	1	null	6	null	6	0.0	1	999.47	1	40.593575	17.116091
3198	2024-05-13 05:00:00	25	massafra	15.66	1	42.64	1	0.0	1	null	6	null	6	0.0	5	999.48	1	40.593575	17.116091
3199	2024-05-13 06:00:00	25	massafra	16.14	1	43.84	1	0.0	1	null	6	null	6	74.67	1	999.83	1	40.593575	17.116091
3200	2024-05-13 07:00:00	25	massafra	20.64	1	35.58	1	0.0	1	null	6	null	6	252.86	1	1000.16	1	40.593575	17.116091
3201	2024-05-13 08:00:00	25	massafra	23.47	1	28.72	1	0.0	1	null	6	null	6	396.17	1	999.97	1	40.593575	17.116091
3202	2024-05-13 09:00:00	25	massafra	25.22	1	24.65	1	0.0	1	null	6	null	6	591.81	1	999.66	1	40.593575	17.116091
3203	2024-05-13 10:00:00	25	massafra	26.82	1	22.15	1	0.0	1	null	6	null	6	763.28	1	999.39	1	40.593575	17.116091
3204	2024-05-13 11:00:00	25	massafra	27.06	1	22.32	1	0.0	1	null	6	null	6	753.36	1	999.15	1	40.593575	17.116091
3205	2024-05-13 12:00:00	25	massafra	27.52	1	23.88	1	0.0	1	null	6	null	6	860.19	1	998.94	1	40.593575	17.116091
3206	2024-05-13 13:00:00	25	massafra	27.57	1	24.87	1	0.0	1	null	6	null	6	799.74	1	998.54	1	40.593575	17.116091
3207	2024-05-13 14:00:00	25	massafra	27.57	1	26.01	1	0.0	1	null	6	null	6	805.66	1	998.15	1	40.593575	17.116091
3208	2024-05-13 15:00:00	25	massafra	27.27	1	27.8	1	0.0	1	null	6	null	6	560.5	1	997.47	1	40.593575	17.116091
3209	2024-05-13 16:00:00	25	massafra	26.55	1	36.99	1	0.0	1	null	6	null	6	493.61	1	997.27	1	40.593575	17.116091
3210	2024-05-13 17:00:00	25	massafra	24.46	1	48.45	1	0.0	1	null	6	null	6	326.02	1	997.01	1	40.593575	17.116091
3211	2024-05-13 18:00:00	25	massafra	22.5	1	53.34	1	0.0	1	null	6	null	6	117.15	1	996.85	1	40.593575	17.116091
3212	2024-05-13 19:00:00	25	massafra	21.05	1	56.8	1	0.0	1	null	6	null	6	22.68	1	996.93	1	40.593575	17.116091
3213	2024-05-13 20:00:00	25	massafra	20.25	1	63.33	1	0.0	1	null	6	null	6	0.0	1	996.96	1	40.593575	17.116091
3214	2024-05-13 21:00:00	25	massafra	19.53	1	66.71	1	0.0	1	null	6	null	6	0.0	1	997.01	1	40.593575	17.116091
3215	2024-05-13 22:00:00	25	massafra	19.55	1	62.26	1	0.0	1	null	6	null	6	0.0	1	996.88	1	40.593575	17.116091
3216	2024-05-13 23:00:00	25	massafra	19.39	1	61.15	1	0.0	1	null	6	null	6	0.0	1	996.35	1	40.593575	17.116091
3217	2024-05-14 00:00:00	25	massafra	18.8	1	67.01	1	0.0	1	null	6	null	6	0.0	1	996.16	1	40.593575	17.116091
3218	2024-05-14 01:00:00	25	massafra	18.5	1	72.22	1	0.0	1	null	6	null	6	0.0	1	995.83	1	40.593575	17.116091
3219	2024-05-14 02:00:00	25	massafra	18.22	1	75.47	1	0.0	1	null	6	null	6	0.0	1	995.16	1	40.593575	17.116091
3220	2024-05-14 03:00:00	25	massafra	18.15	1	78.62	1	0.0	1	null	6	null	6	0.0	1	994.8	1	40.593575	17.116091
3221	2024-05-14 04:00:00	25	massafra	18.29	1	80.1	1	0.0	1	null	6	null	6	0.0	1	994.57	1	40.593575	17.116091
3222	2024-05-14 05:00:00	25	massafra	18.56	1	77.79	1	0.0	1	null	6	null	6	0.0	5	994.45	1	40.593575	17.116091
3223	2024-05-14 06:00:00	25	massafra	18.68	1	75.93	1	0.0	1	null	6	null	6	10.57	1	994.48	1	40.593575	17.116091
3224	2024-05-14 07:00:00	25	massafra	19.13	1	72.61	1	0.0	1	null	6	null	6	75.48	1	994.5	1	40.593575	17.116091
3225	2024-05-14 08:00:00	25	massafra	20.05	1	66.16	1	0.0	1	null	6	null	6	177.81	1	994.8	1	40.593575	17.116091
3226	2024-05-14 09:00:00	25	massafra	20.45	1	64.0	1	0.0	1	null	6	null	6	196.2	1	994.94	1	40.593575	17.116091
3227	2024-05-14 10:00:00	25	massafra	21.18	1	60.95	1	0.0	1	null	6	null	6	343.65	1	995.06	1	40.593575	17.116091
3228	2024-05-14 11:00:00	25	massafra	23.76	1	50.39	1	0.0	1	null	6	null	6	800.22	1	995.04	1	40.593575	17.116091
3229	2024-05-14 12:00:00	25	massafra	25.33	1	44.52	1	0.0	1	null	6	null	6	859.33	1	994.92	1	40.593575	17.116091
3230	2024-05-14 13:00:00	25	massafra	24.88	1	46.24	1	0.0	1	null	6	null	6	690.94	1	994.64	1	40.593575	17.116091
3231	2024-05-14 14:00:00	25	massafra	25.18	1	46.98	1	0.0	1	null	6	null	6	711.39	1	994.06	1	40.593575	17.116091
3232	2024-05-14 15:00:00	25	massafra	25.19	1	48.34	1	0.0	1	null	6	null	6	619.34	1	993.77	1	40.593575	17.116091
3233	2024-05-14 16:00:00	25	massafra	23.67	1	55.04	1	0.0	1	null	6	null	6	296.75	1	993.84	1	40.593575	17.116091
3234	2024-05-14 17:00:00	25	massafra	21.61	1	62.8	1	0.0	1	null	6	null	6	101.68	1	993.75	1	40.593575	17.116091
3235	2024-05-14 18:00:00	25	massafra	20.99	1	66.32	1	0.0	1	null	6	null	6	56.69	1	993.88	1	40.593575	17.116091
3236	2024-05-14 19:00:00	25	massafra	20.45	1	67.98	1	0.0	1	null	6	null	6	5.19	1	994.11	1	40.593575	17.116091
3237	2024-05-14 20:00:00	25	massafra	19.93	1	69.8	1	0.0	1	null	6	null	6	0.0	1	994.67	1	40.593575	17.116091
3238	2024-05-14 21:00:00	25	massafra	19.19	1	78.66	1	0.0	1	null	6	null	6	0.0	1	995.18	1	40.593575	17.116091
3239	2024-05-14 22:00:00	25	massafra	19.14	1	78.89	1	0.0	1	null	6	null	6	0.0	1	995.41	1	40.593575	17.116091
3240	2024-05-14 23:00:00	25	massafra	19.28	1	77.57	1	0.0	1	null	6	null	6	0.0	1	995.34	1	40.593575	17.116091
3241	2024-05-15 00:00:00	25	massafra	19.17	1	76.82	1	0.0	1	null	6	null	6	0.0	1	995.2	1	40.593575	17.116091
3242	2024-05-15 01:00:00	25	massafra	19.1	1	77.77	1	0.0	1	null	6	null	6	0.0	1	994.84	1	40.593575	17.116091
3243	2024-05-15 02:00:00	25	massafra	19.06	1	77.92	1	0.0	1	null	6	null	6	0.0	1	994.41	1	40.593575	17.116091
3244	2024-05-15 03:00:00	25	massafra	19.01	1	78.92	1	0.0	1	null	6	null	6	0.0	1	994.28	1	40.593575	17.116091
3245	2024-05-15 04:00:00	25	massafra	18.96	1	80.23	1	0.0	1	null	6	null	6	0.0	1	993.92	1	40.593575	17.116091
3246	2024-05-15 05:00:00	25	massafra	18.92	1	82.16	1	0.0	1	null	6	null	6	0.0	5	993.81	1	40.593575	17.116091
3247	2024-05-15 06:00:00	25	massafra	18.96	1	82.61	1	0.0	1	null	6	null	6	11.43	1	994.1	1	40.593575	17.116091
3248	2024-05-15 07:00:00	25	massafra	19.27	1	81.42	1	0.0	1	null	6	null	6	64.39	1	994.41	1	40.593575	17.116091
3249	2024-05-15 08:00:00	25	massafra	19.75	1	77.84	1	0.0	1	null	6	null	6	116.32	1	994.87	1	40.593575	17.116091
3250	2024-05-15 09:00:00	25	massafra	20.51	1	72.45	1	0.0	1	null	6	null	6	173.53	1	994.87	1	40.593575	17.116091
3251	2024-05-15 10:00:00	25	massafra	20.96	1	69.03	1	0.0	1	null	6	null	6	225.98	1	995.07	1	40.593575	17.116091
3252	2024-05-15 11:00:00	25	massafra	21.67	1	63.89	1	0.0	1	null	6	null	6	310.82	1	995.23	1	40.593575	17.116091
3253	2024-05-15 12:00:00	25	massafra	22.01	1	61.05	1	0.0	1	null	6	null	6	335.9	1	995.23	1	40.593575	17.116091
3254	2024-05-15 13:00:00	25	massafra	23.34	1	56.03	1	0.0	1	null	6	null	6	637.69	1	995.27	1	40.593575	17.116091
3255	2024-05-15 14:00:00	25	massafra	23.64	1	53.07	1	0.0	1	null	6	null	6	521.48	1	994.93	1	40.593575	17.116091
3256	2024-05-15 15:00:00	25	massafra	22.76	1	55.4	1	0.0	1	null	6	null	6	223.01	1	994.49	1	40.593575	17.116091
3257	2024-05-15 16:00:00	25	massafra	21.16	1	62.1	1	0.0	1	null	6	null	6	129.09	1	994.75	1	40.593575	17.116091
3258	2024-05-15 17:00:00	25	massafra	21.02	1	63.21	1	0.0	1	null	6	null	6	122.14	1	994.53	1	40.593575	17.116091
3259	2024-05-15 18:00:00	25	massafra	20.62	1	64.99	1	0.0	1	null	6	null	6	70.96	1	994.51	1	40.593575	17.116091
3260	2024-05-15 19:00:00	25	massafra	19.91	1	68.49	1	0.0	1	null	6	null	6	13.76	1	994.25	1	40.593575	17.116091
3261	2024-05-15 20:00:00	25	massafra	19.38	1	70.8	1	0.0	1	null	6	null	6	0.0	1	994.41	1	40.593575	17.116091
3262	2024-05-15 21:00:00	25	massafra	19.13	1	73.67	1	0.0	1	null	6	null	6	0.0	1	995.0	1	40.593575	17.116091
3263	2024-05-15 22:00:00	25	massafra	19.13	1	75.77	1	1.0	1	null	6	null	6	0.0	1	995.33	1	40.593575	17.116091
3264	2024-05-15 23:00:00	25	massafra	18.62	1	85.78	1	0.0	1	null	6	null	6	0.0	1	995.05	1	40.593575	17.116091
3265	2024-05-16 00:00:00	25	massafra	18.4	1	88.89	1	0.2	1	null	6	null	6	0.0	1	995.1	1	40.593575	17.116091
3266	2024-05-16 01:00:00	25	massafra	18.47	1	91.82	1	0.0	1	null	6	null	6	0.0	1	994.48	1	40.593575	17.116091
3267	2024-05-16 02:00:00	25	massafra	18.48	1	92.02	1	0.0	1	null	6	null	6	0.0	1	994.16	1	40.593575	17.116091
3268	2024-05-16 03:00:00	25	massafra	18.54	1	90.15	1	0.0	1	null	6	null	6	0.0	1	993.83	1	40.593575	17.116091
3269	2024-05-16 04:00:00	25	massafra	18.81	1	89.71	1	0.0	1	null	6	null	6	0.0	1	993.74	1	40.593575	17.116091
3270	2024-05-16 05:00:00	25	massafra	18.96	1	89.27	1	0.0	1	null	6	null	6	0.0	5	993.55	1	40.593575	17.116091
3271	2024-05-16 06:00:00	25	massafra	19.04	1	88.79	1	0.0	1	null	6	null	6	16.08	1	993.49	1	40.593575	17.116091
3272	2024-05-16 07:00:00	25	massafra	19.34	1	86.88	1	0.0	1	null	6	null	6	43.31	1	993.31	1	40.593575	17.116091
3273	2024-05-16 08:00:00	25	massafra	19.53	1	85.69	1	0.0	1	null	6	null	6	45.93	1	993.25	1	40.593575	17.116091
3274	2024-05-16 09:00:00	25	massafra	19.39	1	87.92	1	0.0	1	null	6	null	6	50.15	1	992.53	1	40.593575	17.116091
3275	2024-05-16 10:00:00	25	massafra	19.17	1	91.4	1	0.2	1	null	6	null	6	160.11	1	992.18	1	40.593575	17.116091
3276	2024-05-16 11:00:00	25	massafra	20.69	1	76.09	1	0.0	1	null	6	null	6	230.24	1	992.53	1	40.593575	17.116091
3277	2024-05-16 12:00:00	25	massafra	22.67	1	64.12	1	0.0	1	null	6	null	6	477.83	1	992.16	1	40.593575	17.116091
3278	2024-05-16 13:00:00	25	massafra	23.74	1	58.71	1	0.0	1	null	6	null	6	656.78	1	991.68	1	40.593575	17.116091
3279	2024-05-16 14:00:00	25	massafra	24.1	1	56.43	1	0.0	1	null	6	null	6	593.32	1	991.07	1	40.593575	17.116091
3280	2024-05-16 15:00:00	25	massafra	23.55	1	57.79	1	0.0	1	null	6	null	6	436.5	1	990.9	1	40.593575	17.116091
3281	2024-05-16 16:00:00	25	massafra	23.97	1	56.75	1	0.0	1	null	6	null	6	462.7	1	990.51	1	40.593575	17.116091
3282	2024-05-16 17:00:00	25	massafra	22.61	1	60.3	1	0.0	1	null	6	null	6	197.16	1	990.38	1	40.593575	17.116091
3283	2024-05-16 18:00:00	25	massafra	21.83	1	65.49	1	0.0	1	null	6	null	6	110.32	1	990.52	1	40.593575	17.116091
3284	2024-05-16 19:00:00	25	massafra	21.09	1	70.03	1	0.0	1	null	6	null	6	30.3	1	990.96	1	40.593575	17.116091
3285	2024-05-16 20:00:00	25	massafra	20.51	1	73.67	1	0.0	1	null	6	null	6	0.0	1	991.22	1	40.593575	17.116091
3286	2024-05-16 21:00:00	25	massafra	20.16	1	76.66	1	0.0	1	null	6	null	6	0.0	1	992.19	1	40.593575	17.116091
3287	2024-05-16 22:00:00	25	massafra	20.06	1	78.23	1	0.0	1	null	6	null	6	0.0	1	992.9	1	40.593575	17.116091
3288	2024-05-16 23:00:00	25	massafra	19.97	1	79.82	1	0.0	1	null	6	null	6	0.0	1	992.98	1	40.593575	17.116091
3289	2024-05-17 00:00:00	25	massafra	19.85	1	82.11	1	0.0	1	null	6	null	6	0.0	1	992.92	1	40.593575	17.116091
3290	2024-05-17 01:00:00	25	massafra	19.79	1	84.09	1	0.0	1	null	6	null	6	0.0	1	993.1	1	40.593575	17.116091
3291	2024-05-17 02:00:00	25	massafra	19.71	1	85.3	1	0.0	1	null	6	null	6	0.0	1	993.28	1	40.593575	17.116091
3292	2024-05-17 03:00:00	25	massafra	19.66	1	85.86	1	0.0	1	null	6	null	6	0.0	1	993.5	1	40.593575	17.116091
3293	2024-05-17 04:00:00	25	massafra	19.59	1	85.72	1	0.0	1	null	6	null	6	0.0	1	993.38	1	40.593575	17.116091
3294	2024-05-17 05:00:00	25	massafra	19.56	1	86.25	1	0.0	1	null	6	null	6	0.0	5	993.89	1	40.593575	17.116091
3295	2024-05-17 06:00:00	25	massafra	19.63	1	87.04	1	0.0	1	null	6	null	6	21.22	1	994.56	1	40.593575	17.116091
3296	2024-05-17 07:00:00	25	massafra	20.0	1	87.23	1	0.0	1	null	6	null	6	136.42	1	994.83	1	40.593575	17.116091
3297	2024-05-17 08:00:00	25	massafra	22.64	1	68.32	1	0.0	1	null	6	null	6	393.06	1	994.84	1	40.593575	17.116091
3298	2024-05-17 09:00:00	25	massafra	25.53	1	52.27	1	0.0	1	null	6	null	6	602.76	1	994.88	1	40.593575	17.116091
3299	2024-05-17 10:00:00	25	massafra	27.71	1	45.76	1	0.0	1	null	6	null	6	765.59	1	995.16	1	40.593575	17.116091
3300	2024-05-17 11:00:00	25	massafra	28.82	1	43.3	1	0.0	1	null	6	null	6	825.35	1	995.06	1	40.593575	17.116091
3301	2024-05-17 12:00:00	25	massafra	30.6	1	35.67	1	0.0	1	null	6	null	6	853.64	1	994.77	1	40.593575	17.116091
3302	2024-05-17 13:00:00	25	massafra	29.48	1	41.91	1	0.0	1	null	6	null	6	846.07	1	994.85	1	40.593575	17.116091
3303	2024-05-17 14:00:00	25	massafra	29.11	1	40.91	1	0.0	1	null	6	null	6	818.54	1	994.86	1	40.593575	17.116091
3304	2024-05-17 15:00:00	25	massafra	28.14	1	46.17	1	0.0	1	null	6	null	6	699.51	1	995.2	1	40.593575	17.116091
3305	2024-05-17 16:00:00	25	massafra	27.44	1	46.4	1	0.0	1	null	6	null	6	525.75	1	995.28	1	40.593575	17.116091
3306	2024-05-17 17:00:00	25	massafra	28.11	1	38.54	1	0.0	1	null	6	null	6	350.07	1	995.04	1	40.593575	17.116091
3307	2024-05-17 18:00:00	25	massafra	27.89	1	35.11	1	0.0	1	null	6	null	6	162.52	1	995.18	1	40.593575	17.116091
3308	2024-05-17 19:00:00	25	massafra	24.0	1	56.63	1	0.0	1	null	6	null	6	18.2	1	996.22	1	40.593575	17.116091
3309	2024-05-17 20:00:00	25	massafra	21.57	1	71.99	1	0.0	1	null	6	null	6	0.0	1	996.81	1	40.593575	17.116091
3310	2024-05-17 21:00:00	25	massafra	21.04	1	73.17	1	0.0	1	null	6	null	6	0.0	1	997.27	1	40.593575	17.116091
3311	2024-05-17 22:00:00	25	massafra	20.45	1	74.79	1	0.0	1	null	6	null	6	0.0	1	997.29	1	40.593575	17.116091
3312	2024-05-17 23:00:00	25	massafra	20.22	1	72.96	1	0.0	1	null	6	null	6	0.0	1	997.4	1	40.593575	17.116091
3313	2024-05-18 00:00:00	25	massafra	19.67	1	75.64	1	0.0	1	null	6	null	6	0.0	1	997.37	1	40.593575	17.116091
3314	2024-05-18 01:00:00	25	massafra	19.04	1	78.03	1	0.0	1	null	6	null	6	0.0	1	996.85	1	40.593575	17.116091
3315	2024-05-18 02:00:00	25	massafra	18.66	1	80.82	1	0.0	1	null	6	null	6	0.0	1	996.65	1	40.593575	17.116091
3316	2024-05-18 03:00:00	25	massafra	17.92	1	84.51	1	0.0	1	null	6	null	6	0.0	1	996.74	1	40.593575	17.116091
3317	2024-05-18 04:00:00	25	massafra	18.16	1	86.03	1	0.0	1	null	6	null	6	0.0	1	996.64	1	40.593575	17.116091
3318	2024-05-18 05:00:00	25	massafra	18.02	1	86.24	1	0.0	1	null	6	null	6	0.0	5	996.99	1	40.593575	17.116091
3319	2024-05-18 06:00:00	25	massafra	18.53	1	85.42	1	0.0	1	null	6	null	6	29.87	1	997.17	1	40.593575	17.116091
3320	2024-05-18 07:00:00	25	massafra	19.42	1	80.94	1	0.0	1	null	6	null	6	86.1	1	997.3	1	40.593575	17.116091
3321	2024-05-18 08:00:00	25	massafra	20.87	1	72.93	1	0.0	1	null	6	null	6	227.01	1	997.36	1	40.593575	17.116091
3322	2024-05-18 09:00:00	25	massafra	22.32	1	65.86	1	0.0	1	null	6	null	6	269.94	1	997.46	1	40.593575	17.116091
3323	2024-05-18 10:00:00	25	massafra	23.99	1	59.08	1	0.0	1	null	6	null	6	485.63	1	997.47	1	40.593575	17.116091
3324	2024-05-18 11:00:00	25	massafra	25.26	1	56.59	1	0.0	1	null	6	null	6	626.91	1	997.31	1	40.593575	17.116091
3325	2024-05-18 12:00:00	25	massafra	27.16	1	50.87	1	0.0	1	null	6	null	6	723.31	1	997.0	1	40.593575	17.116091
3326	2024-05-18 13:00:00	25	massafra	28.07	1	47.45	1	0.0	1	null	6	null	6	689.24	1	996.19	1	40.593575	17.116091
3327	2024-05-18 14:00:00	25	massafra	28.93	1	44.65	1	0.0	1	null	6	null	6	673.37	1	995.7	1	40.593575	17.116091
3328	2024-05-18 15:00:00	25	massafra	28.74	1	43.01	1	0.0	1	null	6	null	6	450.24	1	994.88	1	40.593575	17.116091
3329	2024-05-18 16:00:00	25	massafra	23.58	1	66.72	1	0.0	1	null	6	null	6	74.62	1	996.3	1	40.593575	17.116091
3330	2024-05-18 17:00:00	25	massafra	21.09	1	84.96	1	0.0	1	null	6	null	6	125.49	1	997.2	1	40.593575	17.116091
3331	2024-05-18 18:00:00	25	massafra	20.37	1	71.93	1	0.0	1	null	6	null	6	40.39	1	996.35	1	40.593575	17.116091
3332	2024-05-18 19:00:00	25	massafra	19.23	1	76.33	1	1.8	1	null	6	null	6	0.0	5	996.52	1	40.593575	17.116091
3333	2024-05-18 20:00:00	25	massafra	18.49	1	85.34	1	0.6	1	null	6	null	6	0.0	1	996.6	1	40.593575	17.116091
3334	2024-05-18 21:00:00	25	massafra	18.56	1	83.54	1	0.0	1	null	6	null	6	0.0	1	996.95	1	40.593575	17.116091
3335	2024-05-18 22:00:00	25	massafra	18.92	1	86.56	1	0.0	1	null	6	null	6	0.0	1	996.76	1	40.593575	17.116091
3336	2024-05-18 23:00:00	25	massafra	18.73	1	90.78	1	0.0	1	null	6	null	6	0.0	1	996.96	1	40.593575	17.116091
3337	2024-05-19 00:00:00	25	massafra	18.36	1	92.89	1	0.0	1	null	6	null	6	0.0	1	996.41	1	40.593575	17.116091
3338	2024-05-19 01:00:00	25	massafra	18.31	1	92.83	1	0.0	1	null	6	null	6	0.0	1	995.66	1	40.593575	17.116091
3339	2024-05-19 02:00:00	25	massafra	18.14	1	92.12	1	0.0	1	null	6	null	6	0.0	1	995.45	1	40.593575	17.116091
3340	2024-05-19 03:00:00	25	massafra	18.07	1	91.31	1	0.0	1	null	6	null	6	0.0	1	994.77	1	40.593575	17.116091
3341	2024-05-19 04:00:00	25	massafra	18.26	1	90.64	1	0.0	1	null	6	null	6	0.0	1	994.66	1	40.593575	17.116091
3342	2024-05-19 05:00:00	25	massafra	18.42	1	86.14	1	0.0	1	null	6	null	6	0.0	5	995.0	1	40.593575	17.116091
3343	2024-05-19 06:00:00	25	massafra	18.61	1	85.27	1	0.0	1	null	6	null	6	76.37	1	995.16	1	40.593575	17.116091
3344	2024-05-19 07:00:00	25	massafra	20.4	1	76.31	1	0.2	1	null	6	null	6	214.54	1	995.63	1	40.593575	17.116091
3345	2024-05-19 08:00:00	25	massafra	22.32	1	64.64	1	0.0	1	null	6	null	6	355.03	1	996.04	1	40.593575	17.116091
3346	2024-05-19 09:00:00	25	massafra	23.97	1	59.2	1	0.0	1	null	6	null	6	554.87	1	996.05	1	40.593575	17.116091
3347	2024-05-19 10:00:00	25	massafra	25.51	1	55.62	1	0.0	1	null	6	null	6	654.6	1	995.77	1	40.593575	17.116091
3348	2024-05-19 11:00:00	25	massafra	26.46	1	52.89	1	0.0	1	null	6	null	6	778.01	1	995.89	1	40.593575	17.116091
3349	2024-05-19 12:00:00	25	massafra	27.91	1	50.07	1	0.0	1	null	6	null	6	776.71	1	995.08	1	40.593575	17.116091
3350	2024-05-19 13:00:00	25	massafra	27.87	1	50.71	1	0.0	1	null	6	null	6	777.72	1	994.93	1	40.593575	17.116091
3351	2024-05-19 14:00:00	25	massafra	27.26	1	52.37	1	0.0	1	null	6	null	6	737.13	1	995.05	1	40.593575	17.116091
3352	2024-05-19 15:00:00	25	massafra	26.62	1	53.75	1	0.0	1	null	6	null	6	492.6	1	994.74	1	40.593575	17.116091
3353	2024-05-19 16:00:00	25	massafra	24.48	1	60.21	1	0.0	1	null	6	null	6	162.92	1	994.73	1	40.593575	17.116091
3354	2024-05-19 17:00:00	25	massafra	22.5	1	66.86	1	0.0	1	null	6	null	6	81.41	1	994.47	1	40.593575	17.116091
3355	2024-05-19 18:00:00	25	massafra	22.81	1	62.91	1	0.0	1	null	6	null	6	71.46	1	994.0	1	40.593575	17.116091
3356	2024-05-19 19:00:00	25	massafra	22.26	1	63.27	1	0.0	1	null	6	null	6	16.49	1	993.57	1	40.593575	17.116091
3357	2024-05-19 20:00:00	25	massafra	21.99	1	62.34	1	0.0	1	null	6	null	6	0.0	1	993.3	1	40.593575	17.116091
3358	2024-05-19 21:00:00	25	massafra	21.85	1	61.92	1	0.0	1	null	6	null	6	0.0	1	993.81	1	40.593575	17.116091
3359	2024-05-19 22:00:00	25	massafra	21.39	1	68.47	1	0.0	1	null	6	null	6	0.0	1	994.36	1	40.593575	17.116091
3360	2024-05-19 23:00:00	25	massafra	20.56	1	74.13	1	0.0	1	null	6	null	6	0.0	1	994.79	1	40.593575	17.116091
3361	2024-05-20 00:00:00	25	massafra	19.76	1	78.37	1	0.0	1	null	6	null	6	0.0	1	994.73	1	40.593575	17.116091
3362	2024-05-20 01:00:00	25	massafra	20.08	1	84.39	1	0.0	1	null	6	null	6	0.0	1	994.62	1	40.593575	17.116091
3363	2024-05-20 02:00:00	25	massafra	19.98	1	86.43	1	0.0	1	null	6	null	6	0.0	1	994.24	1	40.593575	17.116091
3364	2024-05-20 03:00:00	25	massafra	19.59	1	87.4	1	0.0	1	null	6	null	6	0.0	1	994.35	1	40.593575	17.116091
3365	2024-05-20 04:00:00	25	massafra	18.97	1	89.21	1	0.0	1	null	6	null	6	0.0	1	994.37	1	40.593575	17.116091
3366	2024-05-20 05:00:00	25	massafra	18.22	1	89.62	1	0.0	1	null	6	null	6	0.0	5	994.39	1	40.593575	17.116091
3367	2024-05-20 06:00:00	25	massafra	18.8	1	87.52	1	0.0	1	null	6	null	6	72.23	1	994.57	1	40.593575	17.116091
3368	2024-05-20 07:00:00	25	massafra	20.82	1	80.08	1	0.0	1	null	6	null	6	214.46	1	994.87	1	40.593575	17.116091
3369	2024-05-20 08:00:00	25	massafra	22.89	1	68.42	1	0.0	1	null	6	null	6	359.4	1	995.0	1	40.593575	17.116091
3370	2024-05-20 09:00:00	25	massafra	25.54	1	58.26	1	0.0	1	null	6	null	6	557.95	1	994.53	1	40.593575	17.116091
3371	2024-05-20 10:00:00	25	massafra	26.66	1	55.14	1	0.0	1	null	6	null	6	706.55	1	994.46	1	40.593575	17.116091
3372	2024-05-20 11:00:00	25	massafra	28.16	1	50.49	1	0.0	1	null	6	null	6	740.58	1	993.89	1	40.593575	17.116091
3373	2024-05-20 12:00:00	25	massafra	28.94	1	48.63	1	0.0	1	null	6	null	6	801.91	1	993.85	1	40.593575	17.116091
3374	2024-05-20 13:00:00	25	massafra	27.27	1	52.89	1	0.0	1	null	6	null	6	669.86	1	994.13	1	40.593575	17.116091
3375	2024-05-20 14:00:00	25	massafra	27.58	1	51.59	1	0.0	1	null	6	null	6	597.26	1	993.85	1	40.593575	17.116091
3376	2024-05-20 15:00:00	25	massafra	27.8	1	50.52	1	0.0	1	null	6	null	6	438.02	1	993.27	1	40.593575	17.116091
3377	2024-05-20 16:00:00	25	massafra	27.37	1	51.84	1	0.0	1	null	6	null	6	431.92	1	992.99	1	40.593575	17.116091
3378	2024-05-20 17:00:00	25	massafra	27.23	1	51.98	1	0.0	1	null	6	null	6	294.36	1	992.51	1	40.593575	17.116091
3379	2024-05-20 18:00:00	25	massafra	24.84	1	60.15	1	0.0	1	null	6	null	6	161.63	1	992.62	1	40.593575	17.116091
3380	2024-05-20 19:00:00	25	massafra	22.98	1	67.06	1	0.0	1	null	6	null	6	26.46	1	992.47	1	40.593575	17.116091
3381	2024-05-20 20:00:00	25	massafra	21.66	1	74.85	1	0.0	1	null	6	null	6	0.0	1	992.57	1	40.593575	17.116091
3382	2024-05-20 21:00:00	25	massafra	21.06	1	72.01	1	0.0	1	null	6	null	6	0.0	1	992.58	1	40.593575	17.116091
3383	2024-05-20 22:00:00	25	massafra	21.23	1	63.95	1	0.0	1	null	6	null	6	0.0	1	992.29	1	40.593575	17.116091
3384	2024-05-20 23:00:00	25	massafra	21.59	1	56.48	1	0.0	1	null	6	null	6	0.0	1	992.11	1	40.593575	17.116091
3385	2024-05-21 00:00:00	25	massafra	21.46	1	56.48	1	0.0	1	null	6	null	6	0.0	1	991.83	1	40.593575	17.116091
3386	2024-05-21 01:00:00	25	massafra	21.18	1	58.14	1	0.0	1	null	6	null	6	0.0	1	991.41	1	40.593575	17.116091
3387	2024-05-21 02:00:00	25	massafra	20.67	1	65.26	1	0.0	1	null	6	null	6	0.0	1	991.26	1	40.593575	17.116091
3388	2024-05-21 03:00:00	25	massafra	20.15	1	72.69	1	0.0	1	null	6	null	6	0.0	1	991.16	1	40.593575	17.116091
3389	2024-05-21 04:00:00	25	massafra	19.78	1	78.07	1	0.0	1	null	6	null	6	0.0	1	990.8	1	40.593575	17.116091
3390	2024-05-21 05:00:00	25	massafra	19.62	1	82.31	1	0.0	1	null	6	null	6	0.0	5	990.67	1	40.593575	17.116091
3391	2024-05-21 06:00:00	25	massafra	20.31	1	83.66	1	0.0	1	null	6	null	6	44.99	1	991.05	1	40.593575	17.116091
3392	2024-05-21 07:00:00	25	massafra	21.2	1	81.17	1	0.0	1	null	6	null	6	134.76	1	991.23	1	40.593575	17.116091
3393	2024-05-21 08:00:00	25	massafra	23.37	1	68.94	1	0.0	1	null	6	null	6	346.07	1	991.06	1	40.593575	17.116091
3394	2024-05-21 09:00:00	25	massafra	26.22	1	55.04	1	0.0	1	null	6	null	6	533.28	1	991.08	1	40.593575	17.116091
3395	2024-05-21 10:00:00	25	massafra	28.08	1	47.45	1	0.0	1	null	6	null	6	668.4	1	991.37	1	40.593575	17.116091
3396	2024-05-21 11:00:00	25	massafra	29.01	1	43.89	1	0.0	1	null	6	null	6	714.75	1	991.88	1	40.593575	17.116091
3397	2024-05-21 12:00:00	25	massafra	29.9	1	38.9	1	0.0	1	null	6	null	6	794.66	1	992.12	1	40.593575	17.116091
3398	2024-05-21 13:00:00	25	massafra	30.47	1	36.91	1	0.0	1	null	6	null	6	838.53	1	992.2	1	40.593575	17.116091
3399	2024-05-21 14:00:00	25	massafra	31.66	1	34.88	1	0.0	1	null	6	null	6	806.37	1	991.66	1	40.593575	17.116091
3400	2024-05-21 15:00:00	25	massafra	31.21	1	35.69	1	0.0	1	null	6	null	6	704.41	1	991.63	1	40.593575	17.116091
3401	2024-05-21 16:00:00	25	massafra	31.05	1	33.27	1	0.0	1	null	6	null	6	551.83	1	991.67	1	40.593575	17.116091
3402	2024-05-21 17:00:00	25	massafra	28.88	1	35.33	1	0.0	1	null	6	null	6	190.89	1	991.76	1	40.593575	17.116091
3403	2024-05-21 18:00:00	25	massafra	28.39	1	33.62	1	0.0	1	null	6	null	6	172.44	1	992.01	1	40.593575	17.116091
3404	2024-05-21 19:00:00	25	massafra	27.2	1	30.41	1	0.0	1	null	6	null	6	26.33	1	992.69	1	40.593575	17.116091
3405	2024-05-21 20:00:00	25	massafra	25.08	1	34.37	1	0.0	1	null	6	null	6	0.0	5	993.47	1	40.593575	17.116091
3406	2024-05-21 21:00:00	25	massafra	23.42	1	38.35	1	0.0	1	null	6	null	6	0.0	1	994.22	1	40.593575	17.116091
3407	2024-05-21 22:00:00	25	massafra	22.38	1	39.11	1	0.0	1	null	6	null	6	0.0	1	995.12	1	40.593575	17.116091
3408	2024-05-21 23:00:00	25	massafra	21.42	1	42.06	1	0.0	1	null	6	null	6	0.0	1	995.77	1	40.593575	17.116091
3409	2024-05-22 00:00:00	25	massafra	20.36	1	44.47	1	0.0	1	null	6	null	6	0.0	1	996.06	1	40.593575	17.116091
3410	2024-05-22 01:00:00	25	massafra	19.39	1	46.89	1	0.0	1	null	6	null	6	0.0	1	996.05	1	40.593575	17.116091
3411	2024-05-22 02:00:00	25	massafra	18.83	1	49.18	1	0.0	1	null	6	null	6	0.0	1	996.05	1	40.593575	17.116091
3412	2024-05-22 03:00:00	25	massafra	18.53	1	48.3	1	0.0	1	null	6	null	6	0.0	1	995.99	1	40.593575	17.116091
3413	2024-05-22 04:00:00	25	massafra	18.1	1	48.71	1	0.0	1	null	6	null	6	0.0	1	996.04	1	40.593575	17.116091
3414	2024-05-22 05:00:00	25	massafra	17.69	1	50.34	1	0.0	1	null	6	null	6	0.0	5	995.97	1	40.593575	17.116091
3415	2024-05-22 06:00:00	25	massafra	18.24	1	50.5	1	0.0	1	null	6	null	6	96.82	1	996.44	1	40.593575	17.116091
3416	2024-05-22 07:00:00	25	massafra	21.25	1	42.98	1	0.0	1	null	6	null	6	262.95	1	996.63	1	40.593575	17.116091
3417	2024-05-22 08:00:00	25	massafra	23.35	1	37.92	1	0.0	1	null	6	null	6	417.8	1	996.73	1	40.593575	17.116091
3418	2024-05-22 09:00:00	25	massafra	25.53	1	34.12	1	0.0	1	null	6	null	6	644.94	1	996.71	1	40.593575	17.116091
3419	2024-05-22 10:00:00	25	massafra	26.47	1	30.5	1	0.0	1	null	6	null	6	649.57	1	996.55	1	40.593575	17.116091
3420	2024-05-22 11:00:00	25	massafra	27.24	1	28.32	1	0.0	1	null	6	null	6	642.18	1	996.57	1	40.593575	17.116091
3421	2024-05-22 12:00:00	25	massafra	27.7	1	30.42	1	0.0	1	null	6	null	6	568.07	1	996.49	1	40.593575	17.116091
3422	2024-05-22 13:00:00	25	massafra	28.03	1	29.08	1	0.0	1	null	6	null	6	631.29	1	996.15	1	40.593575	17.116091
3423	2024-05-22 14:00:00	25	massafra	29.33	1	20.51	1	0.0	1	null	6	null	6	582.45	1	995.82	1	40.593575	17.116091
3424	2024-05-22 15:00:00	25	massafra	29.35	1	20.42	1	0.0	1	null	6	null	6	708.17	1	995.87	1	40.593575	17.116091
3425	2024-05-22 16:00:00	25	massafra	29.19	1	18.32	1	0.0	1	null	6	null	6	577.58	1	995.65	1	40.593575	17.116091
3426	2024-05-22 17:00:00	25	massafra	28.77	1	18.63	1	0.0	1	null	6	null	6	377.57	1	995.67	1	40.593575	17.116091
3427	2024-05-22 18:00:00	25	massafra	27.99	1	19.99	1	0.0	1	null	6	null	6	199.61	1	995.83	1	40.593575	17.116091
3428	2024-05-22 19:00:00	25	massafra	25.49	1	24.08	1	0.0	1	null	6	null	6	16.43	1	996.55	1	40.593575	17.116091
3429	2024-05-22 20:00:00	25	massafra	23.8	1	27.83	1	0.0	1	null	6	null	6	0.0	1	997.09	1	40.593575	17.116091
3430	2024-05-22 21:00:00	25	massafra	22.4	1	36.39	1	0.0	1	null	6	null	6	0.0	1	997.87	1	40.593575	17.116091
3431	2024-05-22 22:00:00	25	massafra	20.89	1	45.12	1	0.0	1	null	6	null	6	0.0	1	998.69	1	40.593575	17.116091
3432	2024-05-22 23:00:00	25	massafra	20.12	1	49.8	1	0.0	1	null	6	null	6	0.0	1	998.94	1	40.593575	17.116091
3433	2024-05-23 00:00:00	25	massafra	19.69	1	47.64	1	0.0	1	null	6	null	6	0.0	1	999.13	1	40.593575	17.116091
3434	2024-05-23 01:00:00	25	massafra	18.87	1	48.87	1	0.0	1	null	6	null	6	0.0	1	999.11	1	40.593575	17.116091
3435	2024-05-23 02:00:00	25	massafra	18.36	1	50.6	1	0.0	1	null	6	null	6	0.0	1	998.95	1	40.593575	17.116091
3436	2024-05-23 03:00:00	25	massafra	17.8	1	53.18	1	0.0	1	null	6	null	6	0.0	1	998.9	1	40.593575	17.116091
3437	2024-05-23 04:00:00	25	massafra	17.25	1	55.65	1	0.0	1	null	6	null	6	0.0	1	999.1	1	40.593575	17.116091
3438	2024-05-23 05:00:00	25	massafra	17.08	1	55.97	1	0.0	1	null	6	null	6	0.0	5	999.22	1	40.593575	17.116091
3439	2024-05-23 06:00:00	25	massafra	17.3	1	54.91	1	0.0	1	null	6	null	6	96.2	1	999.34	1	40.593575	17.116091
3440	2024-05-23 07:00:00	25	massafra	20.14	1	46.51	1	0.0	1	null	6	null	6	258.36	1	999.69	1	40.593575	17.116091
3441	2024-05-23 08:00:00	25	massafra	23.22	1	39.67	1	0.0	1	null	6	null	6	416.74	1	999.74	1	40.593575	17.116091
3442	2024-05-23 09:00:00	25	massafra	25.16	1	34.15	1	0.0	1	null	6	null	6	636.31	1	999.29	1	40.593575	17.116091
3443	2024-05-23 10:00:00	25	massafra	26.45	1	28.9	1	0.0	1	null	6	null	6	787.43	1	999.3	1	40.593575	17.116091
3444	2024-05-23 11:00:00	25	massafra	27.27	1	26.93	1	0.0	1	null	6	null	6	529.46	1	999.54	1	40.593575	17.116091
3445	2024-05-23 12:00:00	25	massafra	27.76	1	28.07	1	0.0	1	null	6	null	6	448.96	1	999.53	1	40.593575	17.116091
3446	2024-05-23 13:00:00	25	massafra	28.53	1	27.4	1	0.0	1	null	6	null	6	750.2	1	999.43	1	40.593575	17.116091
3447	2024-05-23 14:00:00	25	massafra	29.36	1	26.63	1	0.0	1	null	6	null	6	665.55	1	999.37	1	40.593575	17.116091
3448	2024-05-23 15:00:00	25	massafra	30.43	1	24.78	1	0.0	1	null	6	null	6	744.43	1	999.2	1	40.593575	17.116091
3449	2024-05-23 16:00:00	25	massafra	29.41	1	28.01	1	0.0	1	null	6	null	6	551.95	1	999.01	1	40.593575	17.116091
3450	2024-05-23 17:00:00	25	massafra	27.7	1	32.92	1	0.0	1	null	6	null	6	318.65	1	999.05	1	40.593575	17.116091
3451	2024-05-23 18:00:00	25	massafra	26.91	1	32.67	1	0.0	1	null	6	null	6	178.74	1	999.02	1	40.593575	17.116091
3452	2024-05-23 19:00:00	25	massafra	24.65	1	40.56	1	0.0	1	null	6	null	6	18.22	1	999.24	1	40.593575	17.116091
3453	2024-05-23 20:00:00	25	massafra	22.31	1	55.12	1	0.0	1	null	6	null	6	0.0	5	999.75	1	40.593575	17.116091
3454	2024-05-23 21:00:00	25	massafra	21.45	1	61.13	1	0.0	1	null	6	null	6	0.0	1	1000.48	1	40.593575	17.116091
3455	2024-05-23 22:00:00	25	massafra	20.29	1	64.01	1	0.0	1	null	6	null	6	0.0	1	1000.94	1	40.593575	17.116091
3456	2024-05-23 23:00:00	25	massafra	19.15	1	56.77	1	0.0	1	null	6	null	6	0.0	1	1000.98	1	40.593575	17.116091
3457	2024-05-24 00:00:00	25	massafra	18.84	1	53.68	1	0.0	1	null	6	null	6	0.0	1	1000.81	1	40.593575	17.116091
3458	2024-05-24 01:00:00	25	massafra	18.75	1	57.47	1	0.0	1	null	6	null	6	0.0	1	1000.5	1	40.593575	17.116091
3459	2024-05-24 02:00:00	25	massafra	18.63	1	55.47	1	0.0	1	null	6	null	6	0.0	1	1000.47	1	40.593575	17.116091
3460	2024-05-24 03:00:00	25	massafra	18.29	1	55.05	1	0.0	1	null	6	null	6	0.0	1	1000.66	1	40.593575	17.116091
3461	2024-05-24 04:00:00	25	massafra	17.98	1	56.26	1	0.0	1	null	6	null	6	0.0	1	1000.61	1	40.593575	17.116091
3462	2024-05-24 05:00:00	25	massafra	17.63	1	58.66	1	0.0	1	null	6	null	6	0.0	5	1000.71	1	40.593575	17.116091
3463	2024-05-24 06:00:00	25	massafra	18.46	1	59.74	1	0.0	1	null	6	null	6	92.93	1	1001.09	1	40.593575	17.116091
3464	2024-05-24 07:00:00	25	massafra	21.26	1	54.11	1	0.0	1	null	6	null	6	234.28	1	1001.32	1	40.593575	17.116091
3465	2024-05-24 08:00:00	25	massafra	24.84	1	41.24	1	0.0	1	null	6	null	6	402.38	1	1001.23	1	40.593575	17.116091
3466	2024-05-24 09:00:00	25	massafra	27.14	1	30.88	1	0.0	1	null	6	null	6	623.74	1	1001.19	1	40.593575	17.116091
3467	2024-05-24 10:00:00	25	massafra	28.44	1	27.75	1	0.0	1	null	6	null	6	784.33	1	1001.25	1	40.593575	17.116091
3468	2024-05-24 11:00:00	25	massafra	29.53	1	24.86	1	0.0	1	null	6	null	6	829.82	1	1001.1	1	40.593575	17.116091
3469	2024-05-24 12:00:00	25	massafra	29.93	1	22.55	1	0.0	1	null	6	null	6	866.96	1	1000.85	1	40.593575	17.116091
3470	2024-05-24 13:00:00	25	massafra	30.6	1	21.25	1	0.0	1	null	6	null	6	737.51	1	1000.55	1	40.593575	17.116091
3471	2024-05-24 14:00:00	25	massafra	29.41	1	23.68	1	0.0	1	null	6	null	6	564.41	1	1000.54	1	40.593575	17.116091
3472	2024-05-24 15:00:00	25	massafra	30.03	1	21.66	1	0.0	1	null	6	null	6	718.17	1	1000.34	1	40.593575	17.116091
3473	2024-05-24 16:00:00	25	massafra	29.5	1	23.63	1	0.0	1	null	6	null	6	369.15	1	1000.2	1	40.593575	17.116091
3474	2024-05-24 17:00:00	25	massafra	26.22	1	33.52	1	0.0	1	null	6	null	6	176.08	1	1000.39	1	40.593575	17.116091
3475	2024-05-24 18:00:00	25	massafra	24.56	1	38.21	1	0.0	1	null	6	null	6	96.38	1	1000.57	1	40.593575	17.116091
3476	2024-05-24 19:00:00	25	massafra	23.04	1	40.29	1	0.0	1	null	6	null	6	19.04	1	1000.72	1	40.593575	17.116091
3477	2024-05-24 20:00:00	25	massafra	22.31	1	43.1	1	0.0	1	null	6	null	6	0.0	1	1000.88	1	40.593575	17.116091
3478	2024-05-24 21:00:00	25	massafra	21.62	1	44.18	1	0.0	1	null	6	null	6	0.0	1	1001.29	1	40.593575	17.116091
3479	2024-05-24 22:00:00	25	massafra	20.67	1	46.5	1	0.0	1	null	6	null	6	0.0	1	1001.32	1	40.593575	17.116091
3480	2024-05-24 23:00:00	25	massafra	19.86	1	47.42	1	0.0	1	null	6	null	6	0.0	1	1000.9	1	40.593575	17.116091
3481	2024-05-25 00:00:00	25	massafra	19.48	1	44.93	1	0.0	1	null	6	null	6	0.0	1	1000.73	1	40.593575	17.116091
3482	2024-05-25 01:00:00	25	massafra	19.17	1	47.35	1	0.0	1	null	6	null	6	0.0	1	1000.54	1	40.593575	17.116091
3483	2024-05-25 02:00:00	25	massafra	18.68	1	49.12	1	0.0	1	null	6	null	6	0.0	1	1000.28	1	40.593575	17.116091
3484	2024-05-25 03:00:00	25	massafra	18.14	1	51.04	1	0.0	1	null	6	null	6	0.0	1	999.95	1	40.593575	17.116091
3485	2024-05-25 04:00:00	25	massafra	18.37	1	42.87	1	0.0	1	null	6	null	6	0.0	1	999.59	1	40.593575	17.116091
3486	2024-05-25 05:00:00	25	massafra	18.95	1	40.17	1	0.0	1	null	6	null	6	7.47	1	999.26	1	40.593575	17.116091
3487	2024-05-25 06:00:00	25	massafra	20.15	1	40.01	1	0.0	1	null	6	null	6	95.14	1	999.24	1	40.593575	17.116091
3488	2024-05-25 07:00:00	25	massafra	22.0	1	35.8	1	0.0	1	null	6	null	6	210.28	1	999.13	1	40.593575	17.116091
3489	2024-05-25 08:00:00	25	massafra	24.2	1	34.09	1	0.0	1	null	6	null	6	364.1	1	998.96	1	40.593575	17.116091
3490	2024-05-25 09:00:00	25	massafra	25.96	1	33.01	1	0.0	1	null	6	null	6	506.39	1	998.51	1	40.593575	17.116091
3491	2024-05-25 10:00:00	25	massafra	26.59	1	31.11	1	0.0	1	null	6	null	6	523.94	1	998.26	1	40.593575	17.116091
3492	2024-05-25 11:00:00	25	massafra	26.95	1	30.33	1	0.0	1	null	6	null	6	385.09	1	998.05	1	40.593575	17.116091
3493	2024-05-25 12:00:00	25	massafra	26.15	1	32.29	1	0.0	1	null	6	null	6	354.59	1	997.86	1	40.593575	17.116091
3494	2024-05-25 13:00:00	25	massafra	26.63	1	31.74	1	0.0	1	null	6	null	6	253.52	1	997.6	1	40.593575	17.116091
3495	2024-05-25 14:00:00	25	massafra	24.48	1	38.2	1	0.0	1	null	6	null	6	134.54	1	997.66	1	40.593575	17.116091
3496	2024-05-25 15:00:00	25	massafra	23.16	1	47.9	1	0.0	1	null	6	null	6	100.01	1	997.65	1	40.593575	17.116091
3497	2024-05-25 16:00:00	25	massafra	21.68	1	60.17	1	0.0	1	null	6	null	6	82.02	1	997.76	1	40.593575	17.116091
3498	2024-05-25 17:00:00	25	massafra	20.53	1	60.99	1	0.0	1	null	6	null	6	60.65	1	997.65	1	40.593575	17.116091
3499	2024-05-25 18:00:00	25	massafra	18.92	1	69.51	1	0.0	1	null	6	null	6	30.13	1	997.37	1	40.593575	17.116091
3500	2024-05-25 19:00:00	25	massafra	17.82	1	73.83	1	0.2	1	null	6	null	6	6.94	1	997.25	1	40.593575	17.116091
3501	2024-05-25 20:00:00	25	massafra	17.92	1	67.02	1	0.0	1	null	6	null	6	0.0	5	997.57	1	40.593575	17.116091
3502	2024-05-25 21:00:00	25	massafra	18.23	1	62.88	1	0.0	1	null	6	null	6	0.0	1	998.24	1	40.593575	17.116091
3503	2024-05-25 22:00:00	25	massafra	17.93	1	65.98	1	0.0	1	null	6	null	6	0.0	1	998.75	1	40.593575	17.116091
3504	2024-05-25 23:00:00	25	massafra	17.48	1	67.04	1	0.0	1	null	6	null	6	0.0	1	998.73	1	40.593575	17.116091
3505	2024-05-26 00:00:00	25	massafra	17.63	1	65.97	1	0.0	1	null	6	null	6	0.0	1	998.76	1	40.593575	17.116091
3506	2024-05-26 01:00:00	25	massafra	17.29	1	62.6	1	0.0	1	null	6	null	6	0.0	1	998.51	1	40.593575	17.116091
3507	2024-05-26 02:00:00	25	massafra	17.05	1	59.56	1	0.0	1	null	6	null	6	0.0	1	998.23	1	40.593575	17.116091
3508	2024-05-26 03:00:00	25	massafra	17.74	1	54.85	1	0.0	1	null	6	null	6	0.0	1	997.94	1	40.593575	17.116091
3509	2024-05-26 04:00:00	25	massafra	18.03	1	54.41	1	0.0	1	null	6	null	6	0.0	1	997.75	1	40.593575	17.116091
3510	2024-05-26 05:00:00	25	massafra	17.35	1	57.87	1	0.0	1	null	6	null	6	0.0	5	997.81	1	40.593575	17.116091
3511	2024-05-26 06:00:00	25	massafra	17.38	1	57.11	1	0.0	1	null	6	null	6	39.48	1	998.04	1	40.593575	17.116091
3512	2024-05-26 07:00:00	25	massafra	18.33	1	54.77	1	0.0	1	null	6	null	6	111.73	1	998.21	1	40.593575	17.116091
3513	2024-05-26 08:00:00	25	massafra	19.88	1	54.01	1	0.0	1	null	6	null	6	182.96	1	998.44	1	40.593575	17.116091
3514	2024-05-26 09:00:00	25	massafra	21.96	1	52.21	1	0.0	1	null	6	null	6	388.57	1	998.63	1	40.593575	17.116091
3515	2024-05-26 10:00:00	25	massafra	22.04	1	48.01	1	0.0	1	null	6	null	6	409.7	1	998.88	1	40.593575	17.116091
3516	2024-05-26 11:00:00	25	massafra	22.57	1	40.93	1	0.0	1	null	6	null	6	395.01	1	999.12	1	40.593575	17.116091
3517	2024-05-26 12:00:00	25	massafra	24.57	1	35.34	1	0.0	1	null	6	null	6	549.22	1	999.16	1	40.593575	17.116091
3518	2024-05-26 13:00:00	25	massafra	25.17	1	33.95	1	0.0	1	null	6	null	6	469.65	1	999.14	1	40.593575	17.116091
3519	2024-05-26 14:00:00	25	massafra	25.01	1	33.86	1	0.0	1	null	6	null	6	277.41	1	998.95	1	40.593575	17.116091
3520	2024-05-26 15:00:00	25	massafra	26.39	1	30.77	1	0.0	1	null	6	null	6	643.44	1	998.67	1	40.593575	17.116091
3521	2024-05-26 16:00:00	25	massafra	26.65	1	29.08	1	0.0	1	null	6	null	6	492.39	1	998.53	1	40.593575	17.116091
3522	2024-05-26 17:00:00	25	massafra	26.2	1	30.95	1	0.0	1	null	6	null	6	363.68	1	998.52	1	40.593575	17.116091
3523	2024-05-26 18:00:00	25	massafra	25.37	1	34.04	1	0.0	1	null	6	null	6	210.26	1	998.62	1	40.593575	17.116091
3524	2024-05-26 19:00:00	25	massafra	22.76	1	42.75	1	0.0	1	null	6	null	6	20.06	1	999.18	1	40.593575	17.116091
3525	2024-05-26 20:00:00	25	massafra	20.86	1	51.97	1	0.0	1	null	6	null	6	0.0	5	999.93	1	40.593575	17.116091
3526	2024-05-26 21:00:00	25	massafra	19.14	1	61.34	1	0.0	1	null	6	null	6	0.0	1	1000.77	1	40.593575	17.116091
3527	2024-05-26 22:00:00	25	massafra	18.37	1	66.75	1	0.0	1	null	6	null	6	0.0	1	1001.22	1	40.593575	17.116091
3528	2024-05-26 23:00:00	25	massafra	18.02	1	68.56	1	0.0	1	null	6	null	6	0.0	1	1001.22	1	40.593575	17.116091
3529	2024-05-27 00:00:00	25	massafra	17.53	1	72.13	1	0.0	1	null	6	null	6	0.0	1	1001.26	1	40.593575	17.116091
3530	2024-05-27 01:00:00	25	massafra	16.82	1	76.03	1	0.0	1	null	6	null	6	0.0	1	1000.94	1	40.593575	17.116091
3531	2024-05-27 02:00:00	25	massafra	16.48	1	78.01	1	0.0	1	null	6	null	6	0.0	1	1000.74	1	40.593575	17.116091
3532	2024-05-27 03:00:00	25	massafra	16.1	1	80.88	1	0.0	1	null	6	null	6	0.0	1	1000.6	1	40.593575	17.116091
3533	2024-05-27 04:00:00	25	massafra	16.13	1	81.34	1	0.0	1	null	6	null	6	0.0	1	1000.24	1	40.593575	17.116091
3534	2024-05-27 05:00:00	25	massafra	15.91	1	80.98	1	0.0	1	null	6	null	6	0.0	5	1000.43	1	40.593575	17.116091
3535	2024-05-27 06:00:00	25	massafra	16.78	1	78.59	1	0.0	1	null	6	null	6	97.7	1	1000.86	1	40.593575	17.116091
3536	2024-05-27 07:00:00	25	massafra	19.47	1	66.06	1	0.0	1	null	6	null	6	260.91	1	1001.22	1	40.593575	17.116091
3537	2024-05-27 08:00:00	25	massafra	22.11	1	55.05	1	0.0	1	null	6	null	6	403.61	1	1000.24	1	40.593575	17.116091
3538	2024-05-27 09:00:00	25	massafra	24.09	1	50.53	1	0.0	1	null	6	null	6	588.23	1	1001.0	1	40.593575	17.116091
3539	2024-05-27 10:00:00	25	massafra	25.66	1	39.66	1	0.0	1	null	6	null	6	732.43	1	1000.7	1	40.593575	17.116091
3540	2024-05-27 11:00:00	25	massafra	27.16	1	33.1	1	0.0	1	null	6	null	6	593.04	1	1000.55	1	40.593575	17.116091
3541	2024-05-27 12:00:00	25	massafra	26.71	1	33.96	1	0.0	1	null	6	null	6	419.63	1	1000.27	1	40.593575	17.116091
3542	2024-05-27 13:00:00	25	massafra	26.88	1	34.8	1	0.0	1	null	6	null	6	683.53	1	1000.02	1	40.593575	17.116091
3543	2024-05-27 14:00:00	25	massafra	27.55	1	32.44	1	0.0	1	null	6	null	6	342.25	1	999.51	1	40.593575	17.116091
3544	2024-05-27 15:00:00	25	massafra	25.09	1	41.36	1	0.0	1	null	6	null	6	66.44	1	999.55	1	40.593575	17.116091
3545	2024-05-27 16:00:00	25	massafra	24.32	1	46.83	1	0.0	1	null	6	null	6	206.36	1	999.57	1	40.593575	17.116091
3546	2024-05-27 17:00:00	25	massafra	24.66	1	47.73	1	0.0	1	null	6	null	6	180.31	1	999.54	1	40.593575	17.116091
3547	2024-05-27 18:00:00	25	massafra	23.63	1	49.99	1	0.0	1	null	6	null	6	78.31	1	999.37	1	40.593575	17.116091
3548	2024-05-27 19:00:00	25	massafra	22.95	1	49.69	1	0.0	1	null	6	null	6	23.67	1	999.54	1	40.593575	17.116091
3549	2024-05-27 20:00:00	25	massafra	22.26	1	50.51	1	0.0	1	null	6	null	6	0.0	5	999.7	1	40.593575	17.116091
3550	2024-05-27 21:00:00	25	massafra	22.19	1	50.44	1	0.0	1	null	6	null	6	0.0	1	999.98	1	40.593575	17.116091
3551	2024-05-27 22:00:00	25	massafra	21.79	1	50.89	1	0.0	1	null	6	null	6	0.0	1	1000.08	1	40.593575	17.116091
3552	2024-05-27 23:00:00	25	massafra	21.24	1	51.34	1	0.0	1	null	6	null	6	0.0	1	999.63	1	40.593575	17.116091
3553	2024-05-28 00:00:00	25	massafra	20.53	1	51.33	1	0.0	1	null	6	null	6	0.0	1	999.46	1	40.593575	17.116091
3554	2024-05-28 01:00:00	25	massafra	19.63	1	51.84	1	0.0	1	null	6	null	6	0.0	1	999.17	1	40.593575	17.116091
3555	2024-05-28 02:00:00	25	massafra	18.74	1	52.53	1	0.0	1	null	6	null	6	0.0	1	998.8	1	40.593575	17.116091
3556	2024-05-28 03:00:00	25	massafra	18.21	1	53.7	1	0.0	1	null	6	null	6	0.0	1	998.48	1	40.593575	17.116091
3557	2024-05-28 04:00:00	25	massafra	18.46	1	55.02	1	0.0	1	null	6	null	6	0.0	1	998.38	1	40.593575	17.116091
3558	2024-05-28 05:00:00	25	massafra	18.85	1	54.99	1	0.0	1	null	6	null	6	0.0	5	998.29	1	40.593575	17.116091
3559	2024-05-28 06:00:00	25	massafra	19.07	1	56.64	1	0.0	1	null	6	null	6	94.35	1	998.25	1	40.593575	17.116091
3560	2024-05-28 07:00:00	25	massafra	22.16	1	57.93	1	0.0	1	null	6	null	6	229.11	1	998.45	1	40.593575	17.116091
3561	2024-05-28 08:00:00	25	massafra	23.0	1	57.44	1	0.0	1	null	6	null	6	257.87	1	998.56	1	40.593575	17.116091
3562	2024-05-28 09:00:00	25	massafra	25.81	1	56.58	1	0.0	1	null	6	null	6	611.26	1	998.39	1	40.593575	17.116091
3563	2024-05-28 10:00:00	25	massafra	26.67	1	46.79	1	0.0	1	null	6	null	6	557.17	1	997.98	1	40.593575	17.116091
3564	2024-05-28 11:00:00	25	massafra	26.25	1	40.62	1	0.0	1	null	6	null	6	345.41	1	997.81	1	40.593575	17.116091
3565	2024-05-28 12:00:00	25	massafra	27.38	1	35.34	1	0.0	1	null	6	null	6	654.29	1	997.27	1	40.593575	17.116091
3566	2024-05-28 13:00:00	25	massafra	28.32	1	32.4	1	0.0	1	null	6	null	6	541.39	1	996.85	1	40.593575	17.116091
3567	2024-05-28 14:00:00	25	massafra	25.76	1	41.21	1	0.0	1	null	6	null	6	209.81	1	996.76	1	40.593575	17.116091
3568	2024-05-28 15:00:00	25	massafra	24.25	1	48.38	1	0.0	1	null	6	null	6	176.16	1	996.63	1	40.593575	17.116091
3569	2024-05-28 16:00:00	25	massafra	24.47	1	48.37	1	0.0	1	null	6	null	6	172.58	1	996.89	1	40.593575	17.116091
3570	2024-05-28 17:00:00	25	massafra	22.86	1	51.08	1	0.0	1	null	6	null	6	42.33	1	997.53	1	40.593575	17.116091
3571	2024-05-28 18:00:00	25	massafra	22.49	1	54.76	1	0.0	1	null	6	null	6	123.09	1	996.79	1	40.593575	17.116091
3572	2024-05-28 19:00:00	25	massafra	21.85	1	54.74	1	0.0	1	null	6	null	6	29.88	1	996.9	1	40.593575	17.116091
3573	2024-05-28 20:00:00	25	massafra	20.11	1	56.55	1	0.0	1	null	6	null	6	0.0	5	996.78	1	40.593575	17.116091
3574	2024-05-28 21:00:00	25	massafra	19.59	1	56.68	1	0.0	1	null	6	null	6	0.0	1	997.02	1	40.593575	17.116091
3575	2024-05-28 22:00:00	25	massafra	18.77	1	57.06	1	0.0	1	null	6	null	6	0.0	1	997.39	1	40.593575	17.116091
3576	2024-05-28 23:00:00	25	massafra	18.22	1	57.52	1	0.0	1	null	6	null	6	0.0	1	997.47	1	40.593575	17.116091
3577	2024-05-29 00:00:00	25	massafra	17.75	1	57.88	1	0.0	1	null	6	null	6	0.0	1	997.58	1	40.593575	17.116091
3578	2024-05-29 01:00:00	25	massafra	17.8	1	58.98	1	0.0	1	null	6	null	6	0.0	1	997.36	1	40.593575	17.116091
3579	2024-05-29 02:00:00	25	massafra	17.83	1	61.11	1	0.0	1	null	6	null	6	0.0	1	997.06	1	40.593575	17.116091
3580	2024-05-29 03:00:00	25	massafra	17.75	1	67.37	1	0.0	1	null	6	null	6	0.0	1	996.88	1	40.593575	17.116091
3581	2024-05-29 04:00:00	25	massafra	18.26	1	71.52	1	0.0	1	null	6	null	6	0.0	1	996.67	1	40.593575	17.116091
3582	2024-05-29 05:00:00	25	massafra	18.47	1	73.08	1	0.0	1	null	6	null	6	5.65	1	996.46	1	40.593575	17.116091
3583	2024-05-29 06:00:00	25	massafra	19.39	1	74.77	1	0.0	1	null	6	null	6	68.9	1	996.47	1	40.593575	17.116091
3584	2024-05-29 07:00:00	25	massafra	21.18	1	72.72	1	0.0	1	null	6	null	6	234.64	1	996.55	1	40.593575	17.116091
3585	2024-05-29 08:00:00	25	massafra	22.74	1	62.33	1	0.0	1	null	6	null	6	415.25	1	996.96	1	40.593575	17.116091
3586	2024-05-29 09:00:00	25	massafra	24.58	1	56.9	1	0.0	1	null	6	null	6	472.14	1	996.88	1	40.593575	17.116091
3587	2024-05-29 10:00:00	25	massafra	25.93	1	51.43	1	0.0	1	null	6	null	6	273.66	1	996.51	1	40.593575	17.116091
3588	2024-05-29 11:00:00	25	massafra	22.57	1	47.51	1	0.0	1	null	6	null	6	95.81	1	997.22	1	40.593575	17.116091
3589	2024-05-29 12:00:00	25	massafra	21.82	1	54.77	1	0.0	1	null	6	null	6	411.55	1	997.13	1	40.593575	17.116091
3590	2024-05-29 13:00:00	25	massafra	24.36	1	52.55	1	0.0	1	null	6	null	6	452.27	1	996.13	1	40.593575	17.116091
3591	2024-05-29 14:00:00	25	massafra	27.6	1	44.52	1	0.0	1	null	6	null	6	856.63	1	995.28	1	40.593575	17.116091
3592	2024-05-29 15:00:00	25	massafra	24.79	1	42.06	1	0.0	1	null	6	null	6	141.9	1	995.22	1	40.593575	17.116091
3593	2024-05-29 16:00:00	25	massafra	21.73	1	54.17	1	0.0	1	null	6	null	6	125.48	1	995.1	1	40.593575	17.116091
3594	2024-05-29 17:00:00	25	massafra	23.01	1	56.43	1	0.0	1	null	6	null	6	163.82	1	994.88	1	40.593575	17.116091
3595	2024-05-29 18:00:00	25	massafra	24.45	1	54.66	1	0.0	1	null	6	null	6	156.81	1	994.98	1	40.593575	17.116091
3596	2024-05-29 19:00:00	25	massafra	22.43	1	51.39	1	0.0	1	null	6	null	6	17.07	1	995.18	1	40.593575	17.116091
3597	2024-05-29 20:00:00	25	massafra	20.77	1	55.41	1	0.0	1	null	6	null	6	0.0	5	995.1	1	40.593575	17.116091
3598	2024-05-29 21:00:00	25	massafra	20.01	1	56.17	1	0.0	1	null	6	null	6	0.0	1	995.43	1	40.593575	17.116091
3599	2024-05-29 22:00:00	25	massafra	19.04	1	57.61	1	0.0	1	null	6	null	6	0.0	1	995.77	1	40.593575	17.116091
3600	2024-05-29 23:00:00	25	massafra	19.1	1	58.8	1	0.0	1	null	6	null	6	0.0	1	995.47	1	40.593575	17.116091
3601	2024-05-30 00:00:00	25	massafra	18.92	1	58.47	1	0.0	1	null	6	null	6	0.0	1	995.23	1	40.593575	17.116091
3602	2024-05-30 01:00:00	25	massafra	18.35	1	58.34	1	0.0	1	null	6	null	6	0.0	1	994.78	1	40.593575	17.116091
3603	2024-05-30 02:00:00	25	massafra	17.71	1	58.58	1	0.0	1	null	6	null	6	0.0	1	994.43	1	40.593575	17.116091
3604	2024-05-30 03:00:00	25	massafra	17.45	1	58.9	1	0.0	1	null	6	null	6	0.0	1	994.26	1	40.593575	17.116091
3605	2024-05-30 04:00:00	25	massafra	17.25	1	59.08	1	0.0	1	null	6	null	6	0.0	1	994.1	1	40.593575	17.116091
3606	2024-05-30 05:00:00	25	massafra	17.25	1	59.16	1	0.0	1	null	6	null	6	0.0	5	994.07	1	40.593575	17.116091
3607	2024-05-30 06:00:00	25	massafra	18.63	1	60.82	1	0.0	1	null	6	null	6	95.39	1	994.15	1	40.593575	17.116091
3608	2024-05-30 07:00:00	25	massafra	22.4	1	60.89	1	0.0	1	null	6	null	6	268.75	1	994.02	1	40.593575	17.116091
3609	2024-05-30 08:00:00	25	massafra	25.09	1	59.4	1	0.0	1	null	6	null	6	388.68	1	994.11	1	40.593575	17.116091
3610	2024-05-30 09:00:00	25	massafra	26.65	1	52.7	1	0.0	1	null	6	null	6	625.14	1	994.03	1	40.593575	17.116091
3611	2024-05-30 10:00:00	25	massafra	27.62	1	42.6	1	0.0	1	null	6	null	6	785.97	1	993.88	1	40.593575	17.116091
3612	2024-05-30 11:00:00	25	massafra	27.9	1	39.12	1	0.0	1	null	6	null	6	802.74	1	993.89	1	40.593575	17.116091
3613	2024-05-30 12:00:00	25	massafra	28.18	1	39.71	1	0.0	1	null	6	null	6	831.26	1	993.64	1	40.593575	17.116091
3614	2024-05-30 13:00:00	25	massafra	28.59	1	39.82	1	0.0	1	null	6	null	6	834.39	1	993.34	1	40.593575	17.116091
3615	2024-05-30 14:00:00	25	massafra	28.12	1	42.54	1	0.0	1	null	6	null	6	797.82	1	993.07	1	40.593575	17.116091
3616	2024-05-30 15:00:00	25	massafra	27.71	1	44.25	1	0.0	1	null	6	null	6	656.1	1	992.82	1	40.593575	17.116091
3617	2024-05-30 16:00:00	25	massafra	26.99	1	48.21	1	0.0	1	null	6	null	6	518.74	1	992.59	1	40.593575	17.116091
3618	2024-05-30 17:00:00	25	massafra	26.37	1	47.01	1	0.0	1	null	6	null	6	320.02	1	992.46	1	40.593575	17.116091
3619	2024-05-30 18:00:00	25	massafra	24.94	1	49.75	1	0.0	1	null	6	null	6	135.12	1	992.33	1	40.593575	17.116091
3620	2024-05-30 19:00:00	25	massafra	23.69	1	53.92	1	0.0	1	null	6	null	6	32.74	1	992.46	1	40.593575	17.116091
3621	2024-05-30 20:00:00	25	massafra	22.77	1	55.91	1	0.0	1	null	6	null	6	0.0	5	992.44	1	40.593575	17.116091
3622	2024-05-30 21:00:00	25	massafra	22.07	1	56.4	1	0.0	1	null	6	null	6	0.0	1	992.96	1	40.593575	17.116091
3623	2024-05-30 22:00:00	25	massafra	21.6	1	57.65	1	0.0	1	null	6	null	6	0.0	1	992.93	1	40.593575	17.116091
3624	2024-05-30 23:00:00	25	massafra	21.29	1	58.87	1	0.0	1	null	6	null	6	0.0	1	992.7	1	40.593575	17.116091
3625	2024-05-31 00:00:00	25	massafra	21.24	1	60.17	1	0.0	1	null	6	null	6	0.0	1	992.57	1	40.593575	17.116091
3626	2024-05-31 01:00:00	25	massafra	20.78	1	62.06	1	0.0	1	null	6	null	6	0.0	1	992.31	1	40.593575	17.116091
3627	2024-05-31 02:00:00	25	massafra	20.23	1	64.88	1	0.0	1	null	6	null	6	0.0	1	991.86	1	40.593575	17.116091
3628	2024-05-31 03:00:00	25	massafra	20.05	1	67.47	1	0.0	1	null	6	null	6	0.0	1	991.62	1	40.593575	17.116091
3629	2024-05-31 04:00:00	25	massafra	20.6	1	69.47	1	0.0	1	null	6	null	6	0.0	1	991.8	1	40.593575	17.116091
3630	2024-05-31 05:00:00	25	massafra	20.53	1	70.91	1	0.0	1	null	6	null	6	6.17	1	992.19	1	40.593575	17.116091
3631	2024-05-31 06:00:00	25	massafra	21.2	1	71.55	1	0.0	1	null	6	null	6	76.52	1	992.67	1	40.593575	17.116091
3632	2024-05-31 07:00:00	25	massafra	23.33	1	68.43	1	0.0	1	null	6	null	6	282.75	1	992.86	1	40.593575	17.116091
3633	2024-05-31 08:00:00	25	massafra	25.16	1	52.8	1	0.0	1	null	6	null	6	369.37	1	993.0	1	40.593575	17.116091
3634	2024-05-31 09:00:00	25	massafra	26.97	1	44.31	1	0.0	1	null	6	null	6	628.83	1	992.93	1	40.593575	17.116091
3635	2024-05-31 10:00:00	25	massafra	28.26	1	39.43	1	0.0	1	null	6	null	6	683.33	1	993.17	1	40.593575	17.116091
3636	2024-05-31 11:00:00	25	massafra	26.67	1	42.85	1	0.0	1	null	6	null	6	457.48	1	993.97	1	40.593575	17.116091
3637	2024-05-31 12:00:00	25	massafra	27.73	1	37.96	1	0.0	1	null	6	null	6	615.18	1	993.9	1	40.593575	17.116091
3638	2024-05-31 13:00:00	25	massafra	27.77	1	43.19	1	0.0	1	null	6	null	6	598.04	1	993.74	1	40.593575	17.116091
3639	2024-05-31 14:00:00	25	massafra	27.48	1	49.08	1	0.0	1	null	6	null	6	747.09	1	993.8	1	40.593575	17.116091
3640	2024-05-31 15:00:00	25	massafra	27.88	1	49.39	1	0.0	1	null	6	null	6	652.48	1	993.83	1	40.593575	17.116091
3641	2024-05-31 16:00:00	25	massafra	27.33	1	50.99	1	0.0	1	null	6	null	6	428.14	1	993.87	1	40.593575	17.116091
3642	2024-05-31 17:00:00	25	massafra	24.64	1	57.6	1	0.0	1	null	6	null	6	120.94	1	993.92	1	40.593575	17.116091
3643	2024-05-31 18:00:00	25	massafra	23.91	1	63.05	1	0.0	1	null	6	null	6	91.75	1	993.96	1	40.593575	17.116091
3644	2024-05-31 19:00:00	25	massafra	23.01	1	67.15	1	0.0	1	null	6	null	6	19.8	1	994.27	1	40.593575	17.116091
3645	2024-05-31 20:00:00	25	massafra	22.46	1	70.09	1	0.0	1	null	6	null	6	0.0	5	994.47	1	40.593575	17.116091
3646	2024-05-31 21:00:00	25	massafra	22.1	1	72.13	1	0.0	1	null	6	null	6	0.0	1	995.14	1	40.593575	17.116091
3647	2024-05-31 22:00:00	25	massafra	21.73	1	73.21	1	0.0	1	null	6	null	6	0.0	1	995.27	1	40.593575	17.116091
3648	2024-05-31 23:00:00	25	massafra	21.34	1	75.45	1	0.0	1	null	6	null	6	0.0	1	995.31	1	40.593575	"17.116091	"
